<?xml version="1.0" encoding="utf-8"?>
<gpx xmlns:xsi="http://www.w3.org/2001/XMLSchema-instance" xmlns:xsd="http://www.w3.org/2001/XMLSchema" version="1.1" creator="Shapelink.com" xmlns="http://www.topografix.com/GPX/1/1" xmlns:gpxtpx="http://www.garmin.com/xmlschemas/TrackPointExtension/v1">
  <metadata>
    <name>Löpning 10.80 km, 2018-01-13</name>
    <desc></desc>
    <author><name>Bengt-Åke Forslund</name></author> 
    <time>2018-01-13T16:25:35Z</time>
  </metadata>
  <trk>
    <name>Löpning 10.80 km, 2018-01-13</name>
    <trkseg>
      <trkpt lat="62.635891756201" lon="17.967802770442">
        <ele>65.8</ele>
        <time>2018-01-13T16:25:35Z</time>
      </trkpt>
      <trkpt lat="62.635986890766" lon="17.968172328413">
        <ele>66.4</ele>
        <time>2018-01-13T16:26:43Z</time>
      </trkpt>
      <trkpt lat="62.635993847743" lon="17.968195378638">
        <ele>66.4</ele>
        <time>2018-01-13T16:26:44Z</time>
      </trkpt>
      <trkpt lat="62.636006420593" lon="17.968250280083">
        <ele>66.4</ele>
        <time>2018-01-13T16:26:45Z</time>
      </trkpt>
      <trkpt lat="62.636016981787" lon="17.968283723864">
        <ele>66.8</ele>
        <time>2018-01-13T16:26:46Z</time>
      </trkpt>
      <trkpt lat="62.636025363687" lon="17.968311803229">
        <ele>66.8</ele>
        <time>2018-01-13T16:26:47Z</time>
      </trkpt>
      <trkpt lat="62.636040618745" lon="17.96835195253">
        <ele>66.8</ele>
        <time>2018-01-13T16:26:48Z</time>
      </trkpt>
      <trkpt lat="62.636057969278" lon="17.968381456818">
        <ele>67</ele>
        <time>2018-01-13T16:26:49Z</time>
      </trkpt>
      <trkpt lat="62.63607121268" lon="17.968411966934">
        <ele>67</ele>
        <time>2018-01-13T16:26:50Z</time>
      </trkpt>
      <trkpt lat="62.636095687828" lon="17.968429233648">
        <ele>67</ele>
        <time>2018-01-13T16:26:51Z</time>
      </trkpt>
      <trkpt lat="62.636115552931" lon="17.96845840266">
        <ele>67.2</ele>
        <time>2018-01-13T16:26:52Z</time>
      </trkpt>
      <trkpt lat="62.636136759138" lon="17.968482207256">
        <ele>67.2</ele>
        <time>2018-01-13T16:26:53Z</time>
      </trkpt>
      <trkpt lat="62.636157965345" lon="17.968485643835">
        <ele>67.4</ele>
        <time>2018-01-13T16:26:54Z</time>
      </trkpt>
      <trkpt lat="62.636174896783" lon="17.968488996595">
        <ele>67.6</ele>
        <time>2018-01-13T16:26:55Z</time>
      </trkpt>
      <trkpt lat="62.636201467406" lon="17.968508191146">
        <ele>67.6</ele>
        <time>2018-01-13T16:26:56Z</time>
      </trkpt>
      <trkpt lat="62.63622460145" lon="17.968515567218">
        <ele>67.6</ele>
        <time>2018-01-13T16:26:57Z</time>
      </trkpt>
      <trkpt lat="62.63625812905" lon="17.968548005171">
        <ele>67.6</ele>
        <time>2018-01-13T16:26:58Z</time>
      </trkpt>
      <trkpt lat="62.636283693845" lon="17.968551190293">
        <ele>67.4</ele>
        <time>2018-01-13T16:26:59Z</time>
      </trkpt>
      <trkpt lat="62.636316886169" lon="17.968576503631">
        <ele>67.6</ele>
        <time>2018-01-13T16:27:00Z</time>
      </trkpt>
      <trkpt lat="62.636346055181" lon="17.968596620191">
        <ele>67.4</ele>
        <time>2018-01-13T16:27:01Z</time>
      </trkpt>
      <trkpt lat="62.636365165913" lon="17.96862436428">
        <ele>67.4</ele>
        <time>2018-01-13T16:27:02Z</time>
      </trkpt>
      <trkpt lat="62.636391736536" lon="17.968678259897">
        <ele>67.4</ele>
        <time>2018-01-13T16:27:03Z</time>
      </trkpt>
      <trkpt lat="62.636411434001" lon="17.968697957362">
        <ele>67.4</ele>
        <time>2018-01-13T16:27:04Z</time>
      </trkpt>
      <trkpt lat="62.636430377095" lon="17.968748332581">
        <ele>67.4</ele>
        <time>2018-01-13T16:27:05Z</time>
      </trkpt>
      <trkpt lat="62.636446218886" lon="17.968779680887">
        <ele>67.6</ele>
        <time>2018-01-13T16:27:06Z</time>
      </trkpt>
      <trkpt lat="62.636460551935" lon="17.968824775509">
        <ele>67.6</ele>
        <time>2018-01-13T16:27:07Z</time>
      </trkpt>
      <trkpt lat="62.636474801165" lon="17.968872384701">
        <ele>67.6</ele>
        <time>2018-01-13T16:27:08Z</time>
      </trkpt>
      <trkpt lat="62.636492486974" lon="17.968902056627">
        <ele>67.8</ele>
        <time>2018-01-13T16:27:09Z</time>
      </trkpt>
      <trkpt lat="62.636509166955" lon="17.968951845113">
        <ele>67.8</ele>
        <time>2018-01-13T16:27:10Z</time>
      </trkpt>
      <trkpt lat="62.636521655986" lon="17.968977326089">
        <ele>67.8</ele>
        <time>2018-01-13T16:27:11Z</time>
      </trkpt>
      <trkpt lat="62.63653640813" lon="17.969029629145">
        <ele>68</ele>
        <time>2018-01-13T16:27:12Z</time>
      </trkpt>
      <trkpt lat="62.63654981917" lon="17.969071622464">
        <ele>68</ele>
        <time>2018-01-13T16:27:13Z</time>
      </trkpt>
      <trkpt lat="62.636557027604" lon="17.969095175603">
        <ele>68</ele>
        <time>2018-01-13T16:27:14Z</time>
      </trkpt>
      <trkpt lat="62.636576473612" lon="17.969157872215">
        <ele>67.8</ele>
        <time>2018-01-13T16:27:15Z</time>
      </trkpt>
      <trkpt lat="62.63658753772" lon="17.969192992376">
        <ele>68</ele>
        <time>2018-01-13T16:27:16Z</time>
      </trkpt>
      <trkpt lat="62.636600026751" lon="17.969245127794">
        <ele>68</ele>
        <time>2018-01-13T16:27:17Z</time>
      </trkpt>
      <trkpt lat="62.636611090859" lon="17.969281756697">
        <ele>68</ele>
        <time>2018-01-13T16:27:18Z</time>
      </trkpt>
      <trkpt lat="62.636621735872" lon="17.969313440279">
        <ele>68</ele>
        <time>2018-01-13T16:27:19Z</time>
      </trkpt>
      <trkpt lat="62.636628273754" lon="17.96934939863">
        <ele>68</ele>
        <time>2018-01-13T16:27:20Z</time>
      </trkpt>
      <trkpt lat="62.636638248215" lon="17.96938292623">
        <ele>68</ele>
        <time>2018-01-13T16:27:21Z</time>
      </trkpt>
      <trkpt lat="62.636651659255" lon="17.969439168779">
        <ele>68.2</ele>
        <time>2018-01-13T16:27:22Z</time>
      </trkpt>
      <trkpt lat="62.63666548939" lon="17.969488621989">
        <ele>68</ele>
        <time>2018-01-13T16:27:23Z</time>
      </trkpt>
      <trkpt lat="62.636672027272" lon="17.969535225353">
        <ele>68.2</ele>
        <time>2018-01-13T16:27:24Z</time>
      </trkpt>
      <trkpt lat="62.636680241534" lon="17.969572692446">
        <ele>68.2</ele>
        <time>2018-01-13T16:27:25Z</time>
      </trkpt>
      <trkpt lat="62.636690886547" lon="17.969624408769">
        <ele>68</ele>
        <time>2018-01-13T16:27:26Z</time>
      </trkpt>
      <trkpt lat="62.63670572251" lon="17.969678974938">
        <ele>68</ele>
        <time>2018-01-13T16:27:27Z</time>
      </trkpt>
      <trkpt lat="62.636717792446" lon="17.969716358212">
        <ele>68</ele>
        <time>2018-01-13T16:27:28Z</time>
      </trkpt>
      <trkpt lat="62.63672835364" lon="17.969760530825">
        <ele>68</ele>
        <time>2018-01-13T16:27:29Z</time>
      </trkpt>
      <trkpt lat="62.636739669205" lon="17.969815767546">
        <ele>68</ele>
        <time>2018-01-13T16:27:30Z</time>
      </trkpt>
      <trkpt lat="62.63675182296" lon="17.969854911019">
        <ele>68.2</ele>
        <time>2018-01-13T16:27:31Z</time>
      </trkpt>
      <trkpt lat="62.636763976715" lon="17.969898496899">
        <ele>68.2</ele>
        <time>2018-01-13T16:27:32Z</time>
      </trkpt>
      <trkpt lat="62.636781746343" lon="17.969956415828">
        <ele>68.2</ele>
        <time>2018-01-13T16:27:33Z</time>
      </trkpt>
      <trkpt lat="62.636795492659" lon="17.969979633691">
        <ele>68.4</ele>
        <time>2018-01-13T16:27:34Z</time>
      </trkpt>
      <trkpt lat="62.636813681382" lon="17.970029254539">
        <ele>68.4</ele>
        <time>2018-01-13T16:27:35Z</time>
      </trkpt>
      <trkpt lat="62.636832624476" lon="17.970064207062">
        <ele>68.4</ele>
        <time>2018-01-13T16:27:36Z</time>
      </trkpt>
      <trkpt lat="62.636849472095" lon="17.970091112961">
        <ele>68.4</ele>
        <time>2018-01-13T16:27:37Z</time>
      </trkpt>
      <trkpt lat="62.636871767949" lon="17.970132603366">
        <ele>68.4</ele>
        <time>2018-01-13T16:27:38Z</time>
      </trkpt>
      <trkpt lat="62.636889118482" lon="17.970156743238">
        <ele>68.4</ele>
        <time>2018-01-13T16:27:39Z</time>
      </trkpt>
      <trkpt lat="62.636913174535" lon="17.970189181191">
        <ele>68.4</ele>
        <time>2018-01-13T16:27:40Z</time>
      </trkpt>
      <trkpt lat="62.636934799837" lon="17.970213991615">
        <ele>68.2</ele>
        <time>2018-01-13T16:27:41Z</time>
      </trkpt>
      <trkpt lat="62.636964974677" lon="17.970240226962">
        <ele>68.4</ele>
        <time>2018-01-13T16:27:42Z</time>
      </trkpt>
      <trkpt lat="62.636989282187" lon="17.970237377116">
        <ele>68.4</ele>
        <time>2018-01-13T16:27:43Z</time>
      </trkpt>
      <trkpt lat="62.637012416231" lon="17.970246764844">
        <ele>68.4</ele>
        <time>2018-01-13T16:27:44Z</time>
      </trkpt>
      <trkpt lat="62.637051475885" lon="17.970245004645">
        <ele>68.4</ele>
        <time>2018-01-13T16:27:45Z</time>
      </trkpt>
      <trkpt lat="62.637082405096" lon="17.970242573894">
        <ele>68.6</ele>
        <time>2018-01-13T16:27:46Z</time>
      </trkpt>
      <trkpt lat="62.637115513601" lon="17.97023117451">
        <ele>68.6</ele>
        <time>2018-01-13T16:27:47Z</time>
      </trkpt>
      <trkpt lat="62.637148622106" lon="17.970223882257">
        <ele>68.4</ele>
        <time>2018-01-13T16:27:48Z</time>
      </trkpt>
      <trkpt lat="62.637180640964" lon="17.970211225588">
        <ele>68.2</ele>
        <time>2018-01-13T16:27:49Z</time>
      </trkpt>
      <trkpt lat="62.637215258211" lon="17.970195719073">
        <ele>68</ele>
        <time>2018-01-13T16:27:50Z</time>
      </trkpt>
      <trkpt lat="62.637249624001" lon="17.970184906422">
        <ele>67.4</ele>
        <time>2018-01-13T16:27:51Z</time>
      </trkpt>
      <trkpt lat="62.637288432198" lon="17.9701649575">
        <ele>67</ele>
        <time>2018-01-13T16:27:52Z</time>
      </trkpt>
      <trkpt lat="62.637325899291" lon="17.9701481937">
        <ele>66.6</ele>
        <time>2018-01-13T16:27:53Z</time>
      </trkpt>
      <trkpt lat="62.637362779651" lon="17.970131513719">
        <ele>66.2</ele>
        <time>2018-01-13T16:27:54Z</time>
      </trkpt>
      <trkpt lat="62.637393205948" lon="17.970117264489">
        <ele>65.6</ele>
        <time>2018-01-13T16:27:55Z</time>
      </trkpt>
      <trkpt lat="62.637427990833" lon="17.970108128218">
        <ele>65.4</ele>
        <time>2018-01-13T16:27:56Z</time>
      </trkpt>
      <trkpt lat="62.637467721039" lon="17.970101925612">
        <ele>65.2</ele>
        <time>2018-01-13T16:27:57Z</time>
      </trkpt>
      <trkpt lat="62.637507786521" lon="17.97010544601">
        <ele>65.2</ele>
        <time>2018-01-13T16:27:58Z</time>
      </trkpt>
      <trkpt lat="62.637543828691" lon="17.970118102679">
        <ele>65.4</ele>
        <time>2018-01-13T16:27:59Z</time>
      </trkpt>
      <trkpt lat="62.637579200309" lon="17.970155569772">
        <ele>65.4</ele>
        <time>2018-01-13T16:28:00Z</time>
      </trkpt>
      <trkpt lat="62.637608956054" lon="17.97018423587">
        <ele>65.2</ele>
        <time>2018-01-13T16:28:01Z</time>
      </trkpt>
      <trkpt lat="62.637636700143" lon="17.970240646057">
        <ele>65.4</ele>
        <time>2018-01-13T16:28:02Z</time>
      </trkpt>
      <trkpt lat="62.637663354585" lon="17.970315244967">
        <ele>65.4</ele>
        <time>2018-01-13T16:28:03Z</time>
      </trkpt>
      <trkpt lat="62.637685734258" lon="17.970368805308">
        <ele>65.8</ele>
        <time>2018-01-13T16:28:04Z</time>
      </trkpt>
      <trkpt lat="62.637700318764" lon="17.970435189956">
        <ele>65.8</ele>
        <time>2018-01-13T16:28:05Z</time>
      </trkpt>
      <trkpt lat="62.637713478347" lon="17.97049268979">
        <ele>65.6</ele>
        <time>2018-01-13T16:28:06Z</time>
      </trkpt>
      <trkpt lat="62.637727224663" lon="17.970544154656">
        <ele>65.6</ele>
        <time>2018-01-13T16:28:07Z</time>
      </trkpt>
      <trkpt lat="62.637738037314" lon="17.97060249268">
        <ele>65.8</ele>
        <time>2018-01-13T16:28:08Z</time>
      </trkpt>
      <trkpt lat="62.637750861621" lon="17.970650940062">
        <ele>65.6</ele>
        <time>2018-01-13T16:28:09Z</time>
      </trkpt>
      <trkpt lat="62.637761087539" lon="17.970702069652">
        <ele>65.6</ele>
        <time>2018-01-13T16:28:10Z</time>
      </trkpt>
      <trkpt lat="62.637770559086" lon="17.970759485667">
        <ele>65.8</ele>
        <time>2018-01-13T16:28:11Z</time>
      </trkpt>
      <trkpt lat="62.63778195847" lon="17.9707936">
        <ele>65.8</ele>
        <time>2018-01-13T16:28:12Z</time>
      </trkpt>
      <trkpt lat="62.637790675646" lon="17.970840203364">
        <ele>65.8</ele>
        <time>2018-01-13T16:28:13Z</time>
      </trkpt>
      <trkpt lat="62.637798135537" lon="17.970903821985">
        <ele>66</ele>
        <time>2018-01-13T16:28:14Z</time>
      </trkpt>
      <trkpt lat="62.637809954016" lon="17.970959393982">
        <ele>66</ele>
        <time>2018-01-13T16:28:15Z</time>
      </trkpt>
      <trkpt lat="62.637823365056" lon="17.971019827481">
        <ele>66</ele>
        <time>2018-01-13T16:28:16Z</time>
      </trkpt>
      <trkpt lat="62.637831579318" lon="17.971073890736">
        <ele>66</ele>
        <time>2018-01-13T16:28:17Z</time>
      </trkpt>
      <trkpt lat="62.637840128856" lon="17.971121835204">
        <ele>66.2</ele>
        <time>2018-01-13T16:28:18Z</time>
      </trkpt>
      <trkpt lat="62.637847840204" lon="17.971178077753">
        <ele>66.2</ele>
        <time>2018-01-13T16:28:19Z</time>
      </trkpt>
      <trkpt lat="62.637857730846" lon="17.971231218999">
        <ele>66.2</ele>
        <time>2018-01-13T16:28:20Z</time>
      </trkpt>
      <trkpt lat="62.637870303696" lon="17.971287545367">
        <ele>66.2</ele>
        <time>2018-01-13T16:28:21Z</time>
      </trkpt>
      <trkpt lat="62.637879272329" lon="17.971334903102">
        <ele>66.2</ele>
        <time>2018-01-13T16:28:22Z</time>
      </trkpt>
      <trkpt lat="62.637887821867" lon="17.971385948873">
        <ele>66.2</ele>
        <time>2018-01-13T16:28:23Z</time>
      </trkpt>
      <trkpt lat="62.637894695025" lon="17.97142308069">
        <ele>66.2</ele>
        <time>2018-01-13T16:28:24Z</time>
      </trkpt>
      <trkpt lat="62.63790181964" lon="17.971467420941">
        <ele>66.4</ele>
        <time>2018-01-13T16:28:25Z</time>
      </trkpt>
      <trkpt lat="62.63791271611" lon="17.971528273535">
        <ele>66.4</ele>
        <time>2018-01-13T16:28:26Z</time>
      </trkpt>
      <trkpt lat="62.637919505449" lon="17.971564650981">
        <ele>66.4</ele>
        <time>2018-01-13T16:28:27Z</time>
      </trkpt>
      <trkpt lat="62.637925959512" lon="17.971613768915">
        <ele>66.4</ele>
        <time>2018-01-13T16:28:28Z</time>
      </trkpt>
      <trkpt lat="62.63793283267" lon="17.97166447941">
        <ele>66.6</ele>
        <time>2018-01-13T16:28:29Z</time>
      </trkpt>
      <trkpt lat="62.63793953819" lon="17.971713178249">
        <ele>66.6</ele>
        <time>2018-01-13T16:28:30Z</time>
      </trkpt>
      <trkpt lat="62.637945321701" lon="17.971767157685">
        <ele>66.6</ele>
        <time>2018-01-13T16:28:31Z</time>
      </trkpt>
      <trkpt lat="62.63795043466" lon="17.97182373551">
        <ele>66.8</ele>
        <time>2018-01-13T16:28:32Z</time>
      </trkpt>
      <trkpt lat="62.637954038877" lon="17.971880397154">
        <ele>66.8</ele>
        <time>2018-01-13T16:28:33Z</time>
      </trkpt>
      <trkpt lat="62.637956218171" lon="17.971934125133">
        <ele>67</ele>
        <time>2018-01-13T16:28:34Z</time>
      </trkpt>
      <trkpt lat="62.637956134352" lon="17.971991624967">
        <ele>67</ele>
        <time>2018-01-13T16:28:35Z</time>
      </trkpt>
      <trkpt lat="62.637957559275" lon="17.972052729018">
        <ele>67.2</ele>
        <time>2018-01-13T16:28:36Z</time>
      </trkpt>
      <trkpt lat="62.637961247311" lon="17.972093716509">
        <ele>67.2</ele>
        <time>2018-01-13T16:28:37Z</time>
      </trkpt>
      <trkpt lat="62.637965019166" lon="17.972154401465">
        <ele>67.2</ele>
        <time>2018-01-13T16:28:38Z</time>
      </trkpt>
      <trkpt lat="62.637967030822" lon="17.972211566023">
        <ele>67.2</ele>
        <time>2018-01-13T16:28:39Z</time>
      </trkpt>
      <trkpt lat="62.637971640867" lon="17.972259845767">
        <ele>67.2</ele>
        <time>2018-01-13T16:28:40Z</time>
      </trkpt>
      <trkpt lat="62.637975161265" lon="17.972320111628">
        <ele>67.4</ele>
        <time>2018-01-13T16:28:41Z</time>
      </trkpt>
      <trkpt lat="62.637979016939" lon="17.972377527643">
        <ele>67.4</ele>
        <time>2018-01-13T16:28:42Z</time>
      </trkpt>
      <trkpt lat="62.637983543165" lon="17.97243226145">
        <ele>67.4</ele>
        <time>2018-01-13T16:28:43Z</time>
      </trkpt>
      <trkpt lat="62.637985219545" lon="17.972468638896">
        <ele>67.4</ele>
        <time>2018-01-13T16:28:44Z</time>
      </trkpt>
      <trkpt lat="62.637989745771" lon="17.972509794025">
        <ele>67.4</ele>
        <time>2018-01-13T16:28:45Z</time>
      </trkpt>
      <trkpt lat="62.63799402054" lon="17.972565785117">
        <ele>67.4</ele>
        <time>2018-01-13T16:28:46Z</time>
      </trkpt>
      <trkpt lat="62.637997792395" lon="17.972612639938">
        <ele>67.4</ele>
        <time>2018-01-13T16:28:47Z</time>
      </trkpt>
      <trkpt lat="62.638001480431" lon="17.972654130343">
        <ele>67.4</ele>
        <time>2018-01-13T16:28:48Z</time>
      </trkpt>
      <trkpt lat="62.638003659725" lon="17.972705595209">
        <ele>67.6</ele>
        <time>2018-01-13T16:28:49Z</time>
      </trkpt>
      <trkpt lat="62.638005922838" lon="17.972753539677">
        <ele>67.8</ele>
        <time>2018-01-13T16:28:50Z</time>
      </trkpt>
      <trkpt lat="62.638011119616" lon="17.972798718118">
        <ele>68</ele>
        <time>2018-01-13T16:28:51Z</time>
      </trkpt>
      <trkpt lat="62.638015394385" lon="17.97285219464">
        <ele>68</ele>
        <time>2018-01-13T16:28:52Z</time>
      </trkpt>
      <trkpt lat="62.638020088249" lon="17.972899887651">
        <ele>68.2</ele>
        <time>2018-01-13T16:28:53Z</time>
      </trkpt>
      <trkpt lat="62.638023524828" lon="17.972938360572">
        <ele>68.2</ele>
        <time>2018-01-13T16:28:54Z</time>
      </trkpt>
      <trkpt lat="62.638024614475" lon="17.972984544841">
        <ele>68.4</ele>
        <time>2018-01-13T16:28:55Z</time>
      </trkpt>
      <trkpt lat="62.638025787941" lon="17.97304246377">
        <ele>68.4</ele>
        <time>2018-01-13T16:28:56Z</time>
      </trkpt>
      <trkpt lat="62.638027883416" lon="17.973083032166">
        <ele>68.4</ele>
        <time>2018-01-13T16:28:57Z</time>
      </trkpt>
      <trkpt lat="62.638029559796" lon="17.973128210607">
        <ele>68.6</ele>
        <time>2018-01-13T16:28:58Z</time>
      </trkpt>
      <trkpt lat="62.638029643615" lon="17.973180681301">
        <ele>68.8</ele>
        <time>2018-01-13T16:28:59Z</time>
      </trkpt>
      <trkpt lat="62.638030565624" lon="17.973222590801">
        <ele>68.8</ele>
        <time>2018-01-13T16:29:00Z</time>
      </trkpt>
      <trkpt lat="62.638032493461" lon="17.973261901912">
        <ele>68.8</ele>
        <time>2018-01-13T16:29:01Z</time>
      </trkpt>
      <trkpt lat="62.638033331651" lon="17.973310852208">
        <ele>68.8</ele>
        <time>2018-01-13T16:29:02Z</time>
      </trkpt>
      <trkpt lat="62.638032493461" lon="17.973357707029">
        <ele>69</ele>
        <time>2018-01-13T16:29:03Z</time>
      </trkpt>
      <trkpt lat="62.638030817081" lon="17.97340288547">
        <ele>69</ele>
        <time>2018-01-13T16:29:04Z</time>
      </trkpt>
      <trkpt lat="62.6380309009" lon="17.973439933468">
        <ele>69.4</ele>
        <time>2018-01-13T16:29:05Z</time>
      </trkpt>
      <trkpt lat="62.638030649443" lon="17.973495505465">
        <ele>69.4</ele>
        <time>2018-01-13T16:29:06Z</time>
      </trkpt>
      <trkpt lat="62.638029978891" lon="17.973538336974">
        <ele>69.6</ele>
        <time>2018-01-13T16:29:07Z</time>
      </trkpt>
      <trkpt lat="62.638028470149" lon="17.973584353605">
        <ele>69.8</ele>
        <time>2018-01-13T16:29:08Z</time>
      </trkpt>
      <trkpt lat="62.638027715778" lon="17.973636153747">
        <ele>70</ele>
        <time>2018-01-13T16:29:09Z</time>
      </trkpt>
      <trkpt lat="62.638029056882" lon="17.973680577817">
        <ele>70</ele>
        <time>2018-01-13T16:29:10Z</time>
      </trkpt>
      <trkpt lat="62.638029392158" lon="17.973740424583">
        <ele>70</ele>
        <time>2018-01-13T16:29:11Z</time>
      </trkpt>
      <trkpt lat="62.638031822909" lon="17.97379180563">
        <ele>70.2</ele>
        <time>2018-01-13T16:29:12Z</time>
      </trkpt>
      <trkpt lat="62.638033331651" lon="17.973842264668">
        <ele>70.2</ele>
        <time>2018-01-13T16:29:13Z</time>
      </trkpt>
      <trkpt lat="62.638034505117" lon="17.973895070638">
        <ele>70.4</ele>
        <time>2018-01-13T16:29:14Z</time>
      </trkpt>
      <trkpt lat="62.638035762402" lon="17.973948379522">
        <ele>70.4</ele>
        <time>2018-01-13T16:29:15Z</time>
      </trkpt>
      <trkpt lat="62.638038193153" lon="17.974000347302">
        <ele>70.4</ele>
        <time>2018-01-13T16:29:16Z</time>
      </trkpt>
      <trkpt lat="62.638041210637" lon="17.974056170756">
        <ele>70.4</ele>
        <time>2018-01-13T16:29:17Z</time>
      </trkpt>
      <trkpt lat="62.638044563397" lon="17.974105037233">
        <ele>70.4</ele>
        <time>2018-01-13T16:29:18Z</time>
      </trkpt>
      <trkpt lat="62.638044982492" lon="17.974158513755">
        <ele>70.4</ele>
        <time>2018-01-13T16:29:19Z</time>
      </trkpt>
      <trkpt lat="62.63804682651" lon="17.974211152087">
        <ele>70.4</ele>
        <time>2018-01-13T16:29:20Z</time>
      </trkpt>
      <trkpt lat="62.638049508718" lon="17.974271501767">
        <ele>70.4</ele>
        <time>2018-01-13T16:29:21Z</time>
      </trkpt>
      <trkpt lat="62.638052107107" lon="17.974329253058">
        <ele>70.4</ele>
        <time>2018-01-13T16:29:22Z</time>
      </trkpt>
      <trkpt lat="62.63805520841" lon="17.974381472295">
        <ele>70.4</ele>
        <time>2018-01-13T16:29:23Z</time>
      </trkpt>
      <trkpt lat="62.638057303885" lon="17.974434864998">
        <ele>70.6</ele>
        <time>2018-01-13T16:29:24Z</time>
      </trkpt>
      <trkpt lat="62.63805772298" lon="17.974479289068">
        <ele>70.6</ele>
        <time>2018-01-13T16:29:25Z</time>
      </trkpt>
      <trkpt lat="62.638056968609" lon="17.974540896033">
        <ele>70.6</ele>
        <time>2018-01-13T16:29:26Z</time>
      </trkpt>
      <trkpt lat="62.638055292229" lon="17.974592109442">
        <ele>70.6</ele>
        <time>2018-01-13T16:29:27Z</time>
      </trkpt>
      <trkpt lat="62.638051604193" lon="17.974649525457">
        <ele>70.6</ele>
        <time>2018-01-13T16:29:28Z</time>
      </trkpt>
      <trkpt lat="62.638046407415" lon="17.974700822685">
        <ele>70.6</ele>
        <time>2018-01-13T16:29:29Z</time>
      </trkpt>
      <trkpt lat="62.638041042999" lon="17.974749605343">
        <ele>70.4</ele>
        <time>2018-01-13T16:29:30Z</time>
      </trkpt>
      <trkpt lat="62.638030230348" lon="17.974805764073">
        <ele>70.4</ele>
        <time>2018-01-13T16:29:31Z</time>
      </trkpt>
      <trkpt lat="62.638019417697" lon="17.974851948342">
        <ele>70.4</ele>
        <time>2018-01-13T16:29:32Z</time>
      </trkpt>
      <trkpt lat="62.638007515399" lon="17.974891594729">
        <ele>70.4</ele>
        <time>2018-01-13T16:29:33Z</time>
      </trkpt>
      <trkpt lat="62.637990919237" lon="17.97493258222">
        <ele>70.4</ele>
        <time>2018-01-13T16:29:34Z</time>
      </trkpt>
      <trkpt lat="62.637974323075" lon="17.974968540571">
        <ele>70.6</ele>
        <time>2018-01-13T16:29:35Z</time>
      </trkpt>
      <trkpt lat="62.637958313646" lon="17.975002235809">
        <ele>70.6</ele>
        <time>2018-01-13T16:29:36Z</time>
      </trkpt>
      <trkpt lat="62.63794456733" lon="17.975031656278">
        <ele>70.8</ele>
        <time>2018-01-13T16:29:37Z</time>
      </trkpt>
      <trkpt lat="62.637926546245" lon="17.975068955733">
        <ele>71</ele>
        <time>2018-01-13T16:29:38Z</time>
      </trkpt>
      <trkpt lat="62.637907938427" lon="17.975104075894">
        <ele>71</ele>
        <time>2018-01-13T16:29:39Z</time>
      </trkpt>
      <trkpt lat="62.637888743876" lon="17.975139447512">
        <ele>71.2</ele>
        <time>2018-01-13T16:29:40Z</time>
      </trkpt>
      <trkpt lat="62.637874327008" lon="17.975169203257">
        <ele>71.2</ele>
        <time>2018-01-13T16:29:41Z</time>
      </trkpt>
      <trkpt lat="62.637860077778" lon="17.975197282622">
        <ele>71.4</ele>
        <time>2018-01-13T16:29:42Z</time>
      </trkpt>
      <trkpt lat="62.637842894883" lon="17.975229133842">
        <ele>71.4</ele>
        <time>2018-01-13T16:29:43Z</time>
      </trkpt>
      <trkpt lat="62.637824287065" lon="17.975264840736">
        <ele>71.6</ele>
        <time>2018-01-13T16:29:44Z</time>
      </trkpt>
      <trkpt lat="62.63781213331" lon="17.975290573169">
        <ele>71.8</ele>
        <time>2018-01-13T16:29:45Z</time>
      </trkpt>
      <trkpt lat="62.637795704786" lon="17.975319239267">
        <ele>71.8</ele>
        <time>2018-01-13T16:29:46Z</time>
      </trkpt>
      <trkpt lat="62.63777609114" lon="17.975347905365">
        <ele>71.8</ele>
        <time>2018-01-13T16:29:47Z</time>
      </trkpt>
      <trkpt lat="62.637759746435" lon="17.975372967246">
        <ele>72</ele>
        <time>2018-01-13T16:29:48Z</time>
      </trkpt>
      <trkpt lat="62.637745581024" lon="17.975397107118">
        <ele>72</ele>
        <time>2018-01-13T16:29:49Z</time>
      </trkpt>
      <trkpt lat="62.637729906871" lon="17.975421163171">
        <ele>72</ele>
        <time>2018-01-13T16:29:50Z</time>
      </trkpt>
      <trkpt lat="62.637714987089" lon="17.975444464853">
        <ele>72.2</ele>
        <time>2018-01-13T16:29:51Z</time>
      </trkpt>
      <trkpt lat="62.637699983488" lon="17.975463743223">
        <ele>72.4</ele>
        <time>2018-01-13T16:29:52Z</time>
      </trkpt>
      <trkpt lat="62.637684309335" lon="17.975479501195">
        <ele>72.8</ele>
        <time>2018-01-13T16:29:53Z</time>
      </trkpt>
      <trkpt lat="62.637670563019" lon="17.975490900579">
        <ele>73</ele>
        <time>2018-01-13T16:29:54Z</time>
      </trkpt>
      <trkpt lat="62.637655978513" lon="17.975505652723">
        <ele>73.4</ele>
        <time>2018-01-13T16:29:55Z</time>
      </trkpt>
      <trkpt lat="62.637638963256" lon="17.975523589989">
        <ele>73.6</ele>
        <time>2018-01-13T16:29:56Z</time>
      </trkpt>
      <trkpt lat="62.637618008506" lon="17.975539096504">
        <ele>74</ele>
        <time>2018-01-13T16:29:57Z</time>
      </trkpt>
      <trkpt lat="62.637596802299" lon="17.975551920811">
        <ele>74.2</ele>
        <time>2018-01-13T16:29:58Z</time>
      </trkpt>
      <trkpt lat="62.637578026843" lon="17.97556457748">
        <ele>74.2</ele>
        <time>2018-01-13T16:29:59Z</time>
      </trkpt>
      <trkpt lat="62.637560592491" lon="17.97557547395">
        <ele>74.4</ele>
        <time>2018-01-13T16:30:00Z</time>
      </trkpt>
      <trkpt lat="62.637541900854" lon="17.975583939669">
        <ele>74.4</ele>
        <time>2018-01-13T16:30:01Z</time>
      </trkpt>
      <trkpt lat="62.637519940276" lon="17.975591986293">
        <ele>74.4</ele>
        <time>2018-01-13T16:30:02Z</time>
      </trkpt>
      <trkpt lat="62.637498901707" lon="17.975601038745">
        <ele>74.4</ele>
        <time>2018-01-13T16:30:03Z</time>
      </trkpt>
      <trkpt lat="62.637476941129" lon="17.975606822256">
        <ele>74.6</ele>
        <time>2018-01-13T16:30:04Z</time>
      </trkpt>
      <trkpt lat="62.63745757894" lon="17.975615958527">
        <ele>74.8</ele>
        <time>2018-01-13T16:30:05Z</time>
      </trkpt>
      <trkpt lat="62.637438803484" lon="17.975626100626">
        <ele>75</ele>
        <time>2018-01-13T16:30:06Z</time>
      </trkpt>
      <trkpt lat="62.637422207322" lon="17.975634566345">
        <ele>75.2</ele>
        <time>2018-01-13T16:30:07Z</time>
      </trkpt>
      <trkpt lat="62.637404270056" lon="17.975646887738">
        <ele>75.4</ele>
        <time>2018-01-13T16:30:08Z</time>
      </trkpt>
      <trkpt lat="62.637388931179" lon="17.975660466416">
        <ele>75.4</ele>
        <time>2018-01-13T16:30:09Z</time>
      </trkpt>
      <trkpt lat="62.637367138239" lon="17.975681169709">
        <ele>75.6</ele>
        <time>2018-01-13T16:30:10Z</time>
      </trkpt>
      <trkpt lat="62.637344004195" lon="17.975700112803">
        <ele>75.8</ele>
        <time>2018-01-13T16:30:11Z</time>
      </trkpt>
      <trkpt lat="62.637327072757" lon="17.975716708965">
        <ele>75.8</ele>
        <time>2018-01-13T16:30:12Z</time>
      </trkpt>
      <trkpt lat="62.637313074984" lon="17.975735149145">
        <ele>76</ele>
        <time>2018-01-13T16:30:13Z</time>
      </trkpt>
      <trkpt lat="62.637298155202" lon="17.975756271533">
        <ele>76.2</ele>
        <time>2018-01-13T16:30:14Z</time>
      </trkpt>
      <trkpt lat="62.637286085266" lon="17.975772616238">
        <ele>76.4</ele>
        <time>2018-01-13T16:30:15Z</time>
      </trkpt>
      <trkpt lat="62.637272003674" lon="17.975795750282">
        <ele>76.8</ele>
        <time>2018-01-13T16:30:16Z</time>
      </trkpt>
      <trkpt lat="62.637255826607" lon="17.975821817991">
        <ele>77</ele>
        <time>2018-01-13T16:30:17Z</time>
      </trkpt>
      <trkpt lat="62.637241912653" lon="17.975849142985">
        <ele>77.2</ele>
        <time>2018-01-13T16:30:18Z</time>
      </trkpt>
      <trkpt lat="62.63723294402" lon="17.975873534314">
        <ele>77.4</ele>
        <time>2018-01-13T16:30:19Z</time>
      </trkpt>
      <trkpt lat="62.637221963731" lon="17.97590236805">
        <ele>77.4</ele>
        <time>2018-01-13T16:30:20Z</time>
      </trkpt>
      <trkpt lat="62.637208720329" lon="17.975934386908">
        <ele>77.6</ele>
        <time>2018-01-13T16:30:21Z</time>
      </trkpt>
      <trkpt lat="62.637198159135" lon="17.975968836517">
        <ele>77.8</ele>
        <time>2018-01-13T16:30:22Z</time>
      </trkpt>
      <trkpt lat="62.637189274321" lon="17.976003202307">
        <ele>78</ele>
        <time>2018-01-13T16:30:23Z</time>
      </trkpt>
      <trkpt lat="62.637181479154" lon="17.976031952224">
        <ele>78.2</ele>
        <time>2018-01-13T16:30:24Z</time>
      </trkpt>
      <trkpt lat="62.637171839969" lon="17.976064809272">
        <ele>78.2</ele>
        <time>2018-01-13T16:30:25Z</time>
      </trkpt>
      <trkpt lat="62.637159099481" lon="17.976110742084">
        <ele>78.4</ele>
        <time>2018-01-13T16:30:26Z</time>
      </trkpt>
      <trkpt lat="62.637152729237" lon="17.976147454806">
        <ele>78.4</ele>
        <time>2018-01-13T16:30:27Z</time>
      </trkpt>
      <trkpt lat="62.63714325769" lon="17.976192633247">
        <ele>78.4</ele>
        <time>2018-01-13T16:30:28Z</time>
      </trkpt>
      <trkpt lat="62.637134456695" lon="17.976237308774">
        <ele>78.4</ele>
        <time>2018-01-13T16:30:29Z</time>
      </trkpt>
      <trkpt lat="62.637125739519" lon="17.976274608229">
        <ele>78.6</ele>
        <time>2018-01-13T16:30:30Z</time>
      </trkpt>
      <trkpt lat="62.63711811199" lon="17.976316936824">
        <ele>78.6</ele>
        <time>2018-01-13T16:30:31Z</time>
      </trkpt>
      <trkpt lat="62.637110400642" lon="17.976359013962">
        <ele>78.8</ele>
        <time>2018-01-13T16:30:32Z</time>
      </trkpt>
      <trkpt lat="62.637101180552" lon="17.97641450214">
        <ele>78.8</ele>
        <time>2018-01-13T16:30:33Z</time>
      </trkpt>
      <trkpt lat="62.637094223575" lon="17.976470577051">
        <ele>79</ele>
        <time>2018-01-13T16:30:34Z</time>
      </trkpt>
      <trkpt lat="62.637090535539" lon="17.976510223438">
        <ele>79.2</ele>
        <time>2018-01-13T16:30:35Z</time>
      </trkpt>
      <trkpt lat="62.637084416752" lon="17.976565208702">
        <ele>79.2</ele>
        <time>2018-01-13T16:30:36Z</time>
      </trkpt>
      <trkpt lat="62.637080141983" lon="17.976613320808">
        <ele>79.6</ele>
        <time>2018-01-13T16:30:37Z</time>
      </trkpt>
      <trkpt lat="62.637076873042" lon="17.976664785674">
        <ele>79.6</ele>
        <time>2018-01-13T16:30:38Z</time>
      </trkpt>
      <trkpt lat="62.637075280481" lon="17.976707365726">
        <ele>79.8</ele>
        <time>2018-01-13T16:30:39Z</time>
      </trkpt>
      <trkpt lat="62.637073436463" lon="17.976762183352">
        <ele>79.8</ele>
        <time>2018-01-13T16:30:40Z</time>
      </trkpt>
      <trkpt lat="62.637072682092" lon="17.976819264091">
        <ele>79.8</ele>
        <time>2018-01-13T16:30:41Z</time>
      </trkpt>
      <trkpt lat="62.637072095359" lon="17.976868717301">
        <ele>79.8</ele>
        <time>2018-01-13T16:30:42Z</time>
      </trkpt>
      <trkpt lat="62.637071508626" lon="17.976918673425">
        <ele>80</ele>
        <time>2018-01-13T16:30:43Z</time>
      </trkpt>
      <trkpt lat="62.637072430635" lon="17.976967875178">
        <ele>80</ele>
        <time>2018-01-13T16:30:44Z</time>
      </trkpt>
      <trkpt lat="62.63707201154" lon="17.977019507682">
        <ele>80</ele>
        <time>2018-01-13T16:30:45Z</time>
      </trkpt>
      <trkpt lat="62.637070838074" lon="17.977077426611">
        <ele>80</ele>
        <time>2018-01-13T16:30:46Z</time>
      </trkpt>
      <trkpt lat="62.637071257169" lon="17.97713366916">
        <ele>80</ele>
        <time>2018-01-13T16:30:47Z</time>
      </trkpt>
      <trkpt lat="62.637070586617" lon="17.977181697447">
        <ele>80</ele>
        <time>2018-01-13T16:30:48Z</time>
      </trkpt>
      <trkpt lat="62.637066814762" lon="17.977239364919">
        <ele>80</ele>
        <time>2018-01-13T16:30:49Z</time>
      </trkpt>
      <trkpt lat="62.637062204717" lon="17.977299463142">
        <ele>80</ele>
        <time>2018-01-13T16:30:50Z</time>
      </trkpt>
      <trkpt lat="62.637056421206" lon="17.977350508913">
        <ele>80</ele>
        <time>2018-01-13T16:30:51Z</time>
      </trkpt>
      <trkpt lat="62.637046698202" lon="17.977405577996">
        <ele>80</ele>
        <time>2018-01-13T16:30:52Z</time>
      </trkpt>
      <trkpt lat="62.637038148664" lon="17.977450924075">
        <ele>79.8</ele>
        <time>2018-01-13T16:30:53Z</time>
      </trkpt>
      <trkpt lat="62.637025994909" lon="17.97749492905">
        <ele>79.8</ele>
        <time>2018-01-13T16:30:54Z</time>
      </trkpt>
      <trkpt lat="62.637012416231" lon="17.977539520758">
        <ele>79.8</ele>
        <time>2018-01-13T16:30:55Z</time>
      </trkpt>
      <trkpt lat="62.637001435942" lon="17.977586543217">
        <ele>79.8</ele>
        <time>2018-01-13T16:30:56Z</time>
      </trkpt>
      <trkpt lat="62.636987857264" lon="17.977639516825">
        <ele>79.8</ele>
        <time>2018-01-13T16:30:57Z</time>
      </trkpt>
      <trkpt lat="62.636973859491" lon="17.977685533456">
        <ele>79.8</ele>
        <time>2018-01-13T16:30:58Z</time>
      </trkpt>
      <trkpt lat="62.636964136487" lon="17.977729538431">
        <ele>80</ele>
        <time>2018-01-13T16:30:59Z</time>
      </trkpt>
      <trkpt lat="62.636954329664" lon="17.977785278066">
        <ele>80</ele>
        <time>2018-01-13T16:31:00Z</time>
      </trkpt>
      <trkpt lat="62.636947456506" lon="17.977836323837">
        <ele>80</ele>
        <time>2018-01-13T16:31:01Z</time>
      </trkpt>
      <trkpt lat="62.63694041571" lon="17.977886782875">
        <ele>80</ele>
        <time>2018-01-13T16:31:02Z</time>
      </trkpt>
      <trkpt lat="62.636933374914" lon="17.977944869442">
        <ele>80</ele>
        <time>2018-01-13T16:31:03Z</time>
      </trkpt>
      <trkpt lat="62.63692951924" lon="17.977991305168">
        <ele>80.2</ele>
        <time>2018-01-13T16:31:04Z</time>
      </trkpt>
      <trkpt lat="62.636922646082" lon="17.978039920188">
        <ele>80.2</ele>
        <time>2018-01-13T16:31:05Z</time>
      </trkpt>
      <trkpt lat="62.636914348001" lon="17.978101275696">
        <ele>80.2</ele>
        <time>2018-01-13T16:31:06Z</time>
      </trkpt>
      <trkpt lat="62.636907223386" lon="17.978158524073">
        <ele>80.2</ele>
        <time>2018-01-13T16:31:07Z</time>
      </trkpt>
      <trkpt lat="62.636900936961" lon="17.978196829356">
        <ele>80.2</ele>
        <time>2018-01-13T16:31:08Z</time>
      </trkpt>
      <trkpt lat="62.636891716871" lon="17.978247288394">
        <ele>80.2</ele>
        <time>2018-01-13T16:31:09Z</time>
      </trkpt>
      <trkpt lat="62.636883334971" lon="17.978286515686">
        <ele>80.2</ele>
        <time>2018-01-13T16:31:10Z</time>
      </trkpt>
      <trkpt lat="62.636872354682" lon="17.97833479543">
        <ele>80.4</ele>
        <time>2018-01-13T16:31:11Z</time>
      </trkpt>
      <trkpt lat="62.63686414042" lon="17.978377375482">
        <ele>80.4</ele>
        <time>2018-01-13T16:31:12Z</time>
      </trkpt>
      <trkpt lat="62.636852908674" lon="17.978418027697">
        <ele>80.4</ele>
        <time>2018-01-13T16:31:13Z</time>
      </trkpt>
      <trkpt lat="62.636836731607" lon="17.978467061812">
        <ele>80.4</ele>
        <time>2018-01-13T16:31:14Z</time>
      </trkpt>
      <trkpt lat="62.636826673327" lon="17.978503187801">
        <ele>80.6</ele>
        <time>2018-01-13T16:31:15Z</time>
      </trkpt>
      <trkpt lat="62.63681217264" lon="17.978547779509">
        <ele>80.6</ele>
        <time>2018-01-13T16:31:16Z</time>
      </trkpt>
      <trkpt lat="62.636794403012" lon="17.978592035941">
        <ele>80.6</ele>
        <time>2018-01-13T16:31:17Z</time>
      </trkpt>
      <trkpt lat="62.636780572877" lon="17.978625982636">
        <ele>80.6</ele>
        <time>2018-01-13T16:31:18Z</time>
      </trkpt>
      <trkpt lat="62.636761629783" lon="17.978656576571">
        <ele>80.8</ele>
        <time>2018-01-13T16:31:19Z</time>
      </trkpt>
      <trkpt lat="62.636738663377" lon="17.978692115827">
        <ele>80.6</ele>
        <time>2018-01-13T16:31:20Z</time>
      </trkpt>
      <trkpt lat="62.636719887921" lon="17.978721033382">
        <ele>80.8</ele>
        <time>2018-01-13T16:31:21Z</time>
      </trkpt>
      <trkpt lat="62.636703375578" lon="17.978739725019">
        <ele>80.8</ele>
        <time>2018-01-13T16:31:22Z</time>
      </trkpt>
      <trkpt lat="62.636680409172" lon="17.978756740276">
        <ele>81</ele>
        <time>2018-01-13T16:31:23Z</time>
      </trkpt>
      <trkpt lat="62.636658113318" lon="17.97876646328">
        <ele>81</ele>
        <time>2018-01-13T16:31:24Z</time>
      </trkpt>
      <trkpt lat="62.636638248215" lon="17.978774426085">
        <ele>81.2</ele>
        <time>2018-01-13T16:31:25Z</time>
      </trkpt>
      <trkpt lat="62.636611593773" lon="17.978781215424">
        <ele>81.6</ele>
        <time>2018-01-13T16:31:26Z</time>
      </trkpt>
      <trkpt lat="62.63658586134" lon="17.978781215424">
        <ele>81.6</ele>
        <time>2018-01-13T16:31:27Z</time>
      </trkpt>
      <trkpt lat="62.636562559658" lon="17.978784149089">
        <ele>81.8</ele>
        <time>2018-01-13T16:31:28Z</time>
      </trkpt>
      <trkpt lat="62.636538503605" lon="17.978786915116">
        <ele>81.8</ele>
        <time>2018-01-13T16:31:30Z</time>
      </trkpt>
      <trkpt lat="62.636522494176" lon="17.978784149089">
        <ele>82</ele>
        <time>2018-01-13T16:31:31Z</time>
      </trkpt>
      <trkpt lat="62.636497516114" lon="17.978784149089">
        <ele>82</ele>
        <time>2018-01-13T16:31:32Z</time>
      </trkpt>
      <trkpt lat="62.636471783681" lon="17.978780796329">
        <ele>82</ele>
        <time>2018-01-13T16:31:33Z</time>
      </trkpt>
      <trkpt lat="62.636451080388" lon="17.978779203768">
        <ele>82.2</ele>
        <time>2018-01-13T16:31:34Z</time>
      </trkpt>
      <trkpt lat="62.636432724027" lon="17.978782891804">
        <ele>82.4</ele>
        <time>2018-01-13T16:31:35Z</time>
      </trkpt>
      <trkpt lat="62.636412188372" lon="17.978782305071">
        <ele>82.4</ele>
        <time>2018-01-13T16:31:36Z</time>
      </trkpt>
      <trkpt lat="62.636392323269" lon="17.978785406374">
        <ele>82.6</ele>
        <time>2018-01-13T16:31:37Z</time>
      </trkpt>
      <trkpt lat="62.636376230021" lon="17.978789262048">
        <ele>82.8</ele>
        <time>2018-01-13T16:31:38Z</time>
      </trkpt>
      <trkpt lat="62.636357622203" lon="17.978797141034">
        <ele>82.8</ele>
        <time>2018-01-13T16:31:39Z</time>
      </trkpt>
      <trkpt lat="62.636342702421" lon="17.978803427459">
        <ele>83.2</ele>
        <time>2018-01-13T16:31:40Z</time>
      </trkpt>
      <trkpt lat="62.636320741843" lon="17.978813150463">
        <ele>83.4</ele>
        <time>2018-01-13T16:31:41Z</time>
      </trkpt>
      <trkpt lat="62.636301295835" lon="17.978822957286">
        <ele>83.6</ele>
        <time>2018-01-13T16:31:42Z</time>
      </trkpt>
      <trkpt lat="62.636285705501" lon="17.97883351848">
        <ele>84</ele>
        <time>2018-01-13T16:31:43Z</time>
      </trkpt>
      <trkpt lat="62.636267768235" lon="17.9788486059">
        <ele>84.2</ele>
        <time>2018-01-13T16:31:44Z</time>
      </trkpt>
      <trkpt lat="62.636253686643" lon="17.978858747999">
        <ele>84.4</ele>
        <time>2018-01-13T16:31:45Z</time>
      </trkpt>
      <trkpt lat="62.636229798228" lon="17.97887961893">
        <ele>84.8</ele>
        <time>2018-01-13T16:31:46Z</time>
      </trkpt>
      <trkpt lat="62.636207753831" lon="17.978901663327">
        <ele>85</ele>
        <time>2018-01-13T16:31:47Z</time>
      </trkpt>
      <trkpt lat="62.636190487117" lon="17.978918008032">
        <ele>85.2</ele>
        <time>2018-01-13T16:31:48Z</time>
      </trkpt>
      <trkpt lat="62.636175567335" lon="17.978937873135">
        <ele>85.4</ele>
        <time>2018-01-13T16:31:49Z</time>
      </trkpt>
      <trkpt lat="62.636166933978" lon="17.978958073514">
        <ele>85.6</ele>
        <time>2018-01-13T16:31:50Z</time>
      </trkpt>
      <trkpt lat="62.636153606757" lon="17.978991265838">
        <ele>85.6</ele>
        <time>2018-01-13T16:31:51Z</time>
      </trkpt>
      <trkpt lat="62.636138435518" lon="17.979015992443">
        <ele>86</ele>
        <time>2018-01-13T16:31:52Z</time>
      </trkpt>
      <trkpt lat="62.636123012822" lon="17.979031498958">
        <ele>86.2</ele>
        <time>2018-01-13T16:31:53Z</time>
      </trkpt>
      <trkpt lat="62.636112535447" lon="17.979050358233">
        <ele>86.4</ele>
        <time>2018-01-13T16:31:54Z</time>
      </trkpt>
      <trkpt lat="62.636102309529" lon="17.979067960223">
        <ele>86.6</ele>
        <time>2018-01-13T16:31:55Z</time>
      </trkpt>
      <trkpt lat="62.636090239593" lon="17.979086987136">
        <ele>86.8</ele>
        <time>2018-01-13T16:31:56Z</time>
      </trkpt>
      <trkpt lat="62.636074733078" lon="17.97911012118">
        <ele>87.2</ele>
        <time>2018-01-13T16:31:57Z</time>
      </trkpt>
      <trkpt lat="62.63605780164" lon="17.97913107593">
        <ele>87.4</ele>
        <time>2018-01-13T16:31:58Z</time>
      </trkpt>
      <trkpt lat="62.636045312609" lon="17.979151108671">
        <ele>87.6</ele>
        <time>2018-01-13T16:31:59Z</time>
      </trkpt>
      <trkpt lat="62.63603852327" lon="17.97918220552">
        <ele>88</ele>
        <time>2018-01-13T16:32:00Z</time>
      </trkpt>
      <trkpt lat="62.636032823578" lon="17.979209781971">
        <ele>88.4</ele>
        <time>2018-01-13T16:32:01Z</time>
      </trkpt>
      <trkpt lat="62.636019915452" lon="17.979257474982">
        <ele>88.8</ele>
        <time>2018-01-13T16:32:02Z</time>
      </trkpt>
      <trkpt lat="62.636011785009" lon="17.979297791921">
        <ele>89.2</ele>
        <time>2018-01-13T16:32:03Z</time>
      </trkpt>
      <trkpt lat="62.635995272666" lon="17.979438188746">
        <ele>89.4</ele>
        <time>2018-01-13T16:32:06Z</time>
      </trkpt>
      <trkpt lat="62.636000217987" lon="17.979511111276">
        <ele>89.4</ele>
        <time>2018-01-13T16:32:07Z</time>
      </trkpt>
      <trkpt lat="62.636001810548" lon="17.979589230584">
        <ele>89.4</ele>
        <time>2018-01-13T16:32:08Z</time>
      </trkpt>
      <trkpt lat="62.636002564919" lon="17.979677743448">
        <ele>89.2</ele>
        <time>2018-01-13T16:32:09Z</time>
      </trkpt>
      <trkpt lat="62.635998876883" lon="17.979800957378">
        <ele>89</ele>
        <time>2018-01-13T16:32:10Z</time>
      </trkpt>
      <trkpt lat="62.636001223815" lon="17.979945964248">
        <ele>88.4</ele>
        <time>2018-01-13T16:32:11Z</time>
      </trkpt>
      <trkpt lat="62.636004828032" lon="17.980086696349">
        <ele>87.6</ele>
        <time>2018-01-13T16:32:12Z</time>
      </trkpt>
      <trkpt lat="62.636006588231" lon="17.980212592487">
        <ele>86.4</ele>
        <time>2018-01-13T16:32:13Z</time>
      </trkpt>
      <trkpt lat="62.636020586004" lon="17.980330693458">
        <ele>85.8</ele>
        <time>2018-01-13T16:32:14Z</time>
      </trkpt>
      <trkpt lat="62.636037517442" lon="17.980460277632">
        <ele>84.8</ele>
        <time>2018-01-13T16:32:15Z</time>
      </trkpt>
      <trkpt lat="62.63605780164" lon="17.980565638115">
        <ele>84</ele>
        <time>2018-01-13T16:32:16Z</time>
      </trkpt>
      <trkpt lat="62.636074062526" lon="17.980681559792">
        <ele>83.6</ele>
        <time>2018-01-13T16:32:17Z</time>
      </trkpt>
      <trkpt lat="62.636090155774" lon="17.980784238067">
        <ele>83.2</ele>
        <time>2018-01-13T16:32:18Z</time>
      </trkpt>
      <trkpt lat="62.636108679773" lon="17.980885742876">
        <ele>83</ele>
        <time>2018-01-13T16:32:19Z</time>
      </trkpt>
      <trkpt lat="62.636125946487" lon="17.980978279052">
        <ele>82.8</ele>
        <time>2018-01-13T16:32:20Z</time>
      </trkpt>
      <trkpt lat="62.636143548477" lon="17.981073581255">
        <ele>82.6</ele>
        <time>2018-01-13T16:32:21Z</time>
      </trkpt>
      <trkpt lat="62.636160815191" lon="17.981173577322">
        <ele>82.4</ele>
        <time>2018-01-13T16:32:22Z</time>
      </trkpt>
      <trkpt lat="62.63617095729" lon="17.981261838729">
        <ele>82</ele>
        <time>2018-01-13T16:32:23Z</time>
      </trkpt>
      <trkpt lat="62.636176070249" lon="17.981344400444">
        <ele>81.8</ele>
        <time>2018-01-13T16:32:24Z</time>
      </trkpt>
      <trkpt lat="62.636179925923" lon="17.981432661851">
        <ele>81.6</ele>
        <time>2018-01-13T16:32:25Z</time>
      </trkpt>
      <trkpt lat="62.636188307823" lon="17.981506757847">
        <ele>81.8</ele>
        <time>2018-01-13T16:32:26Z</time>
      </trkpt>
      <trkpt lat="62.636198869017" lon="17.981604323163">
        <ele>81.8</ele>
        <time>2018-01-13T16:32:27Z</time>
      </trkpt>
      <trkpt lat="62.63621035222" lon="17.981689399448">
        <ele>82.2</ele>
        <time>2018-01-13T16:32:28Z</time>
      </trkpt>
      <trkpt lat="62.636226696925" lon="17.981764920367">
        <ele>82.2</ele>
        <time>2018-01-13T16:32:29Z</time>
      </trkpt>
      <trkpt lat="62.636241197612" lon="17.981842536761">
        <ele>82.4</ele>
        <time>2018-01-13T16:32:30Z</time>
      </trkpt>
      <trkpt lat="62.636266343312" lon="17.981940772629">
        <ele>82.4</ele>
        <time>2018-01-13T16:32:32Z</time>
      </trkpt>
      <trkpt lat="62.63627321647" lon="17.982001373766">
        <ele>82.4</ele>
        <time>2018-01-13T16:32:33Z</time>
      </trkpt>
      <trkpt lat="62.636287046605" lon="17.982092652657">
        <ele>82.2</ele>
        <time>2018-01-13T16:32:34Z</time>
      </trkpt>
      <trkpt lat="62.636292243383" lon="17.982164820816">
        <ele>82.2</ele>
        <time>2018-01-13T16:32:35Z</time>
      </trkpt>
      <trkpt lat="62.636293668306" lon="17.982242772486">
        <ele>82.2</ele>
        <time>2018-01-13T16:32:36Z</time>
      </trkpt>
      <trkpt lat="62.636295679962" lon="17.982285603995">
        <ele>82.2</ele>
        <time>2018-01-13T16:32:37Z</time>
      </trkpt>
      <trkpt lat="62.636293165392" lon="17.982375793239">
        <ele>82.2</ele>
        <time>2018-01-13T16:32:38Z</time>
      </trkpt>
      <trkpt lat="62.63628578932" lon="17.982439244222">
        <ele>82.2</ele>
        <time>2018-01-13T16:32:39Z</time>
      </trkpt>
      <trkpt lat="62.63628578932" lon="17.982500432092">
        <ele>82.2</ele>
        <time>2018-01-13T16:32:40Z</time>
      </trkpt>
      <trkpt lat="62.636283107112" lon="17.982577377934">
        <ele>82.4</ele>
        <time>2018-01-13T16:32:41Z</time>
      </trkpt>
      <trkpt lat="62.636277575058" lon="17.982622472556">
        <ele>82.4</ele>
        <time>2018-01-13T16:32:42Z</time>
      </trkpt>
      <trkpt lat="62.636265756579" lon="17.982696484733">
        <ele>82.4</ele>
        <time>2018-01-13T16:32:43Z</time>
      </trkpt>
      <trkpt lat="62.636261984724" lon="17.982767730883">
        <ele>82.2</ele>
        <time>2018-01-13T16:32:44Z</time>
      </trkpt>
      <trkpt lat="62.636260978896" lon="17.982817519369">
        <ele>82.2</ele>
        <time>2018-01-13T16:32:45Z</time>
      </trkpt>
      <trkpt lat="62.636260475982" lon="17.982890274261">
        <ele>82.2</ele>
        <time>2018-01-13T16:32:46Z</time>
      </trkpt>
      <trkpt lat="62.636262403819" lon="17.982937045263">
        <ele>82.4</ele>
        <time>2018-01-13T16:32:47Z</time>
      </trkpt>
      <trkpt lat="62.636260727439" lon="17.983012398544">
        <ele>82.4</ele>
        <time>2018-01-13T16:32:48Z</time>
      </trkpt>
      <trkpt lat="62.636259302516" lon="17.983080040477">
        <ele>82.4</ele>
        <time>2018-01-13T16:32:49Z</time>
      </trkpt>
      <trkpt lat="62.636260475982" lon="17.983130834791">
        <ele>82.4</ele>
        <time>2018-01-13T16:32:50Z</time>
      </trkpt>
      <trkpt lat="62.636254105738" lon="17.98318372458">
        <ele>82.6</ele>
        <time>2018-01-13T16:32:51Z</time>
      </trkpt>
      <trkpt lat="62.636261565629" lon="17.983239128939">
        <ele>82.4</ele>
        <time>2018-01-13T16:32:52Z</time>
      </trkpt>
      <trkpt lat="62.636261649448" lon="17.983330743106">
        <ele>82.6</ele>
        <time>2018-01-13T16:32:53Z</time>
      </trkpt>
      <trkpt lat="62.636266091855" lon="17.983390841329">
        <ele>82.8</ele>
        <time>2018-01-13T16:32:54Z</time>
      </trkpt>
      <trkpt lat="62.636267768235" lon="17.983438282883">
        <ele>82.8</ele>
        <time>2018-01-13T16:32:55Z</time>
      </trkpt>
      <trkpt lat="62.636258883421" lon="17.983496620907">
        <ele>82.8</ele>
        <time>2018-01-13T16:32:56Z</time>
      </trkpt>
      <trkpt lat="62.636254608652" lon="17.983532243982">
        <ele>82.8</ele>
        <time>2018-01-13T16:32:57Z</time>
      </trkpt>
      <trkpt lat="62.636245220924" lon="17.983589492359">
        <ele>82.8</ele>
        <time>2018-01-13T16:32:58Z</time>
      </trkpt>
      <trkpt lat="62.636232480436" lon="17.983638358836">
        <ele>83</ele>
        <time>2018-01-13T16:32:59Z</time>
      </trkpt>
      <trkpt lat="62.636228457124" lon="17.983679346327">
        <ele>82.8</ele>
        <time>2018-01-13T16:33:00Z</time>
      </trkpt>
      <trkpt lat="62.636218901758" lon="17.983721591103">
        <ele>83</ele>
        <time>2018-01-13T16:33:01Z</time>
      </trkpt>
      <trkpt lat="62.636213369704" lon="17.983778252747">
        <ele>83.2</ele>
        <time>2018-01-13T16:33:02Z</time>
      </trkpt>
      <trkpt lat="62.636200126302" lon="17.983832064545">
        <ele>83.4</ele>
        <time>2018-01-13T16:33:03Z</time>
      </trkpt>
      <trkpt lat="62.636195432438" lon="17.98387690771">
        <ele>83.4</ele>
        <time>2018-01-13T16:33:04Z</time>
      </trkpt>
      <trkpt lat="62.636179506828" lon="17.983951171344">
        <ele>83.4</ele>
        <time>2018-01-13T16:33:05Z</time>
      </trkpt>
      <trkpt lat="62.636177411353" lon="17.984002468572">
        <ele>83.6</ele>
        <time>2018-01-13T16:33:06Z</time>
      </trkpt>
      <trkpt lat="62.63617179548" lon="17.984041109131">
        <ele>83.6</ele>
        <time>2018-01-13T16:33:07Z</time>
      </trkpt>
      <trkpt lat="62.636161904838" lon="17.984119815172">
        <ele>83.6</ele>
        <time>2018-01-13T16:33:08Z</time>
      </trkpt>
      <trkpt lat="62.636176656982" lon="17.984164825975">
        <ele>83.8</ele>
        <time>2018-01-13T16:33:09Z</time>
      </trkpt>
      <trkpt lat="62.636169113272" lon="17.984214195366">
        <ele>83.8</ele>
        <time>2018-01-13T16:33:10Z</time>
      </trkpt>
      <trkpt lat="62.636166933978" lon="17.984279406548">
        <ele>84</ele>
        <time>2018-01-13T16:33:11Z</time>
      </trkpt>
      <trkpt lat="62.636169197091" lon="17.984333302165">
        <ele>84</ele>
        <time>2018-01-13T16:33:12Z</time>
      </trkpt>
      <trkpt lat="62.636166933978" lon="17.984387449239">
        <ele>84.2</ele>
        <time>2018-01-13T16:33:13Z</time>
      </trkpt>
      <trkpt lat="62.636163329761" lon="17.984453163335">
        <ele>84.2</ele>
        <time>2018-01-13T16:33:14Z</time>
      </trkpt>
      <trkpt lat="62.636163581218" lon="17.984514015929">
        <ele>84.4</ele>
        <time>2018-01-13T16:33:15Z</time>
      </trkpt>
      <trkpt lat="62.636159809363" lon="17.984558439999">
        <ele>84.4</ele>
        <time>2018-01-13T16:33:16Z</time>
      </trkpt>
      <trkpt lat="62.636154947861" lon="17.984621555706">
        <ele>84.4</ele>
        <time>2018-01-13T16:33:17Z</time>
      </trkpt>
      <trkpt lat="62.636151259825" lon="17.984671176554">
        <ele>84.4</ele>
        <time>2018-01-13T16:33:18Z</time>
      </trkpt>
      <trkpt lat="62.636150505454" lon="17.984712080226">
        <ele>84.4</ele>
        <time>2018-01-13T16:33:19Z</time>
      </trkpt>
      <trkpt lat="62.636145560133" lon="17.98478215291">
        <ele>84.6</ele>
        <time>2018-01-13T16:33:20Z</time>
      </trkpt>
      <trkpt lat="62.63614748797" lon="17.984825571152">
        <ele>84.8</ele>
        <time>2018-01-13T16:33:21Z</time>
      </trkpt>
      <trkpt lat="62.636143548477" lon="17.984863624978">
        <ele>84.8</ele>
        <time>2018-01-13T16:33:22Z</time>
      </trkpt>
      <trkpt lat="62.636141117726" lon="17.984941576648">
        <ele>85.2</ele>
        <time>2018-01-13T16:33:23Z</time>
      </trkpt>
      <trkpt lat="62.63614581159" lon="17.984989018202">
        <ele>85.2</ele>
        <time>2018-01-13T16:33:24Z</time>
      </trkpt>
      <trkpt lat="62.636147320332" lon="17.985027658761">
        <ele>85.4</ele>
        <time>2018-01-13T16:33:25Z</time>
      </trkpt>
      <trkpt lat="62.636141788278" lon="17.985096222703">
        <ele>85.4</ele>
        <time>2018-01-13T16:33:26Z</time>
      </trkpt>
      <trkpt lat="62.636143967572" lon="17.985153387261">
        <ele>85.6</ele>
        <time>2018-01-13T16:33:27Z</time>
      </trkpt>
      <trkpt lat="62.63614162064" lon="17.985200242082">
        <ele>85.4</ele>
        <time>2018-01-13T16:33:28Z</time>
      </trkpt>
      <trkpt lat="62.636144470486" lon="17.985267045825">
        <ele>85.4</ele>
        <time>2018-01-13T16:33:29Z</time>
      </trkpt>
      <trkpt lat="62.636143883753" lon="17.985305351108">
        <ele>85.6</ele>
        <time>2018-01-13T16:33:30Z</time>
      </trkpt>
      <trkpt lat="62.636139608984" lon="17.985358157078">
        <ele>85.8</ele>
        <time>2018-01-13T16:33:31Z</time>
      </trkpt>
      <trkpt lat="62.636141536821" lon="17.985424877002">
        <ele>85.8</ele>
        <time>2018-01-13T16:33:32Z</time>
      </trkpt>
      <trkpt lat="62.636139776622" lon="17.985457650231">
        <ele>86</ele>
        <time>2018-01-13T16:33:33Z</time>
      </trkpt>
      <trkpt lat="62.636138686975" lon="17.985525543621">
        <ele>86</ele>
        <time>2018-01-13T16:33:34Z</time>
      </trkpt>
      <trkpt lat="62.636130305075" lon="17.985581869989">
        <ele>86</ele>
        <time>2018-01-13T16:33:35Z</time>
      </trkpt>
      <trkpt lat="62.636124773021" lon="17.985623611851">
        <ele>86</ele>
        <time>2018-01-13T16:33:36Z</time>
      </trkpt>
      <trkpt lat="62.636111361981" lon="17.985689493585">
        <ele>86</ele>
        <time>2018-01-13T16:33:37Z</time>
      </trkpt>
      <trkpt lat="62.636100716968" lon="17.985731319266">
        <ele>86</ele>
        <time>2018-01-13T16:33:38Z</time>
      </trkpt>
      <trkpt lat="62.636086048643" lon="17.985781191571">
        <ele>86</ele>
        <time>2018-01-13T16:33:39Z</time>
      </trkpt>
      <trkpt lat="62.636067440825" lon="17.985830980057">
        <ele>86.2</ele>
        <time>2018-01-13T16:33:40Z</time>
      </trkpt>
      <trkpt lat="62.636048749188" lon="17.985866519313">
        <ele>86.2</ele>
        <time>2018-01-13T16:33:41Z</time>
      </trkpt>
      <trkpt lat="62.636038690908" lon="17.985895855963">
        <ele>86.2</ele>
        <time>2018-01-13T16:33:42Z</time>
      </trkpt>
      <trkpt lat="62.636015389226" lon="17.985928461554">
        <ele>86.4</ele>
        <time>2018-01-13T16:33:43Z</time>
      </trkpt>
      <trkpt lat="62.635986387852" lon="17.985969700502">
        <ele>86.6</ele>
        <time>2018-01-13T16:33:44Z</time>
      </trkpt>
      <trkpt lat="62.635975910477" lon="17.985994510926">
        <ele>86.8</ele>
        <time>2018-01-13T16:33:45Z</time>
      </trkpt>
      <trkpt lat="62.635949423673" lon="17.986014878943">
        <ele>87</ele>
        <time>2018-01-13T16:33:46Z</time>
      </trkpt>
      <trkpt lat="62.635927714552" lon="17.986032480933">
        <ele>87</ele>
        <time>2018-01-13T16:33:47Z</time>
      </trkpt>
      <trkpt lat="62.635913213865" lon="17.986044383231">
        <ele>87.2</ele>
        <time>2018-01-13T16:33:48Z</time>
      </trkpt>
      <trkpt lat="62.635884463948" lon="17.986056453167">
        <ele>87.2</ele>
        <time>2018-01-13T16:33:49Z</time>
      </trkpt>
      <trkpt lat="62.635865520854" lon="17.986074055157">
        <ele>87.2</ele>
        <time>2018-01-13T16:33:50Z</time>
      </trkpt>
      <trkpt lat="62.635852528909" lon="17.986087047102">
        <ele>87.4</ele>
        <time>2018-01-13T16:33:51Z</time>
      </trkpt>
      <trkpt lat="62.635827383209" lon="17.98611403682">
        <ele>87.4</ele>
        <time>2018-01-13T16:33:52Z</time>
      </trkpt>
      <trkpt lat="62.635800644948" lon="17.986139517796">
        <ele>87.6</ele>
        <time>2018-01-13T16:33:53Z</time>
      </trkpt>
      <trkpt lat="62.635781031302" lon="17.986159215261">
        <ele>87.8</ele>
        <time>2018-01-13T16:33:54Z</time>
      </trkpt>
      <trkpt lat="62.63576527333" lon="17.986190479748">
        <ele>87.8</ele>
        <time>2018-01-13T16:33:55Z</time>
      </trkpt>
      <trkpt lat="62.635747587521" lon="17.986219564941">
        <ele>87.8</ele>
        <time>2018-01-13T16:33:56Z</time>
      </trkpt>
      <trkpt lat="62.635728979703" lon="17.986242028433">
        <ele>87.8</ele>
        <time>2018-01-13T16:33:57Z</time>
      </trkpt>
      <trkpt lat="62.635708527867" lon="17.986275556033">
        <ele>87.8</ele>
        <time>2018-01-13T16:33:58Z</time>
      </trkpt>
      <trkpt lat="62.635693021352" lon="17.986307491072">
        <ele>88</ele>
        <time>2018-01-13T16:33:59Z</time>
      </trkpt>
      <trkpt lat="62.635681789606" lon="17.986350825495">
        <ele>88.2</ele>
        <time>2018-01-13T16:34:00Z</time>
      </trkpt>
      <trkpt lat="62.635669132937" lon="17.986386532389">
        <ele>88.4</ele>
        <time>2018-01-13T16:34:01Z</time>
      </trkpt>
      <trkpt lat="62.635649519291" lon="17.986449899553">
        <ele>88.6</ele>
        <time>2018-01-13T16:34:02Z</time>
      </trkpt>
      <trkpt lat="62.635644741608" lon="17.986494155985">
        <ele>88.8</ele>
        <time>2018-01-13T16:34:03Z</time>
      </trkpt>
      <trkpt lat="62.635622110478" lon="17.986537825684">
        <ele>89</ele>
        <time>2018-01-13T16:34:04Z</time>
      </trkpt>
      <trkpt lat="62.63560434085" lon="17.986585853971">
        <ele>89.2</ele>
        <time>2018-01-13T16:34:05Z</time>
      </trkpt>
      <trkpt lat="62.635599060253" lon="17.986604545608">
        <ele>89.2</ele>
        <time>2018-01-13T16:34:06Z</time>
      </trkpt>
      <trkpt lat="62.635589169611" lon="17.986643437624">
        <ele>89.2</ele>
        <time>2018-01-13T16:34:07Z</time>
      </trkpt>
      <trkpt lat="62.635574920381" lon="17.986701021277">
        <ele>89.2</ele>
        <time>2018-01-13T16:34:08Z</time>
      </trkpt>
      <trkpt lat="62.635562347531" lon="17.98672256276">
        <ele>89.4</ele>
        <time>2018-01-13T16:34:09Z</time>
      </trkpt>
      <trkpt lat="62.635544242627" lon="17.98674854665">
        <ele>89.4</ele>
        <time>2018-01-13T16:34:10Z</time>
      </trkpt>
      <trkpt lat="62.635525299533" lon="17.986792635444">
        <ele>89.4</ele>
        <time>2018-01-13T16:34:11Z</time>
      </trkpt>
      <trkpt lat="62.635512223769" lon="17.986838149161">
        <ele>89.6</ele>
        <time>2018-01-13T16:34:12Z</time>
      </trkpt>
      <trkpt lat="62.635496298159" lon="17.986877041177">
        <ele>89.8</ele>
        <time>2018-01-13T16:34:13Z</time>
      </trkpt>
      <trkpt lat="62.635471236278" lon="17.986940743617">
        <ele>89.8</ele>
        <time>2018-01-13T16:34:14Z</time>
      </trkpt>
      <trkpt lat="62.635458998704" lon="17.986968320068">
        <ele>90.2</ele>
        <time>2018-01-13T16:34:15Z</time>
      </trkpt>
      <trkpt lat="62.635443156913" lon="17.987001596211">
        <ele>90.2</ele>
        <time>2018-01-13T16:34:16Z</time>
      </trkpt>
      <trkpt lat="62.635427650398" lon="17.987044008625">
        <ele>90.2</ele>
        <time>2018-01-13T16:34:17Z</time>
      </trkpt>
      <trkpt lat="62.635412646797" lon="17.987072507085">
        <ele>90.2</ele>
        <time>2018-01-13T16:34:18Z</time>
      </trkpt>
      <trkpt lat="62.635408036752" lon="17.987109555083">
        <ele>90.2</ele>
        <time>2018-01-13T16:34:19Z</time>
      </trkpt>
      <trkpt lat="62.635382639595" lon="17.987143166502">
        <ele>90.2</ele>
        <time>2018-01-13T16:34:20Z</time>
      </trkpt>
      <trkpt lat="62.635373670962" lon="17.987183818717">
        <ele>90.4</ele>
        <time>2018-01-13T16:34:21Z</time>
      </trkpt>
      <trkpt lat="62.635367803632" lon="17.987212736272">
        <ele>90.4</ele>
        <time>2018-01-13T16:34:22Z</time>
      </trkpt>
      <trkpt lat="62.635344585769" lon="17.987243330207">
        <ele>90.6</ele>
        <time>2018-01-13T16:34:23Z</time>
      </trkpt>
      <trkpt lat="62.635331677643" lon="17.987277360721">
        <ele>90.8</ele>
        <time>2018-01-13T16:34:24Z</time>
      </trkpt>
      <trkpt lat="62.635318853336" lon="17.987299488937">
        <ele>91</ele>
        <time>2018-01-13T16:34:25Z</time>
      </trkpt>
      <trkpt lat="62.635299155871" lon="17.987336285478">
        <ele>91</ele>
        <time>2018-01-13T16:34:26Z</time>
      </trkpt>
      <trkpt lat="62.635276357103" lon="17.987382302109">
        <ele>91</ele>
        <time>2018-01-13T16:34:27Z</time>
      </trkpt>
      <trkpt lat="62.635259425665" lon="17.987415242976">
        <ele>91</ele>
        <time>2018-01-13T16:34:28Z</time>
      </trkpt>
      <trkpt lat="62.635244254426" lon="17.987445585454">
        <ele>91.2</ele>
        <time>2018-01-13T16:34:29Z</time>
      </trkpt>
      <trkpt lat="62.635221120382" lon="17.987475760294">
        <ele>91.4</ele>
        <time>2018-01-13T16:34:30Z</time>
      </trkpt>
      <trkpt lat="62.635204105125" lon="17.987513311206">
        <ele>91.6</ele>
        <time>2018-01-13T16:34:31Z</time>
      </trkpt>
      <trkpt lat="62.635183150375" lon="17.987549688652">
        <ele>91.8</ele>
        <time>2018-01-13T16:34:32Z</time>
      </trkpt>
      <trkpt lat="62.635167392403" lon="17.987583048614">
        <ele>92</ele>
        <time>2018-01-13T16:34:33Z</time>
      </trkpt>
      <trkpt lat="62.635150796241" lon="17.987620767164">
        <ele>92.2</ele>
        <time>2018-01-13T16:34:34Z</time>
      </trkpt>
      <trkpt lat="62.635135541183" lon="17.987651361099">
        <ele>92.2</ele>
        <time>2018-01-13T16:34:35Z</time>
      </trkpt>
      <trkpt lat="62.635117603917" lon="17.987684218147">
        <ele>92.4</ele>
        <time>2018-01-13T16:34:36Z</time>
      </trkpt>
      <trkpt lat="62.635096984443" lon="17.987717159014">
        <ele>92.4</ele>
        <time>2018-01-13T16:34:37Z</time>
      </trkpt>
      <trkpt lat="62.635083992498" lon="17.987742472352">
        <ele>92.4</ele>
        <time>2018-01-13T16:34:38Z</time>
      </trkpt>
      <trkpt lat="62.635060858454" lon="17.987772311916">
        <ele>92.6</ele>
        <time>2018-01-13T16:34:39Z</time>
      </trkpt>
      <trkpt lat="62.63504191536" lon="17.987803660222">
        <ele>92.6</ele>
        <time>2018-01-13T16:34:40Z</time>
      </trkpt>
      <trkpt lat="62.635026576483" lon="17.987831236673">
        <ele>92.8</ele>
        <time>2018-01-13T16:34:41Z</time>
      </trkpt>
      <trkpt lat="62.634998664756" lon="17.987863758445">
        <ele>92.8</ele>
        <time>2018-01-13T16:34:42Z</time>
      </trkpt>
      <trkpt lat="62.634976033626" lon="17.987896112579">
        <ele>93</ele>
        <time>2018-01-13T16:34:43Z</time>
      </trkpt>
      <trkpt lat="62.634959688921" lon="17.987920000994">
        <ele>93</ele>
        <time>2018-01-13T16:34:44Z</time>
      </trkpt>
      <trkpt lat="62.6349463617" lon="17.987939949916">
        <ele>93</ele>
        <time>2018-01-13T16:34:45Z</time>
      </trkpt>
      <trkpt lat="62.63491953962" lon="17.987959060648">
        <ele>93.2</ele>
        <time>2018-01-13T16:34:46Z</time>
      </trkpt>
      <trkpt lat="62.634895986481" lon="17.987978339018">
        <ele>93.2</ele>
        <time>2018-01-13T16:34:47Z</time>
      </trkpt>
      <trkpt lat="62.634874444998" lon="17.987997533569">
        <ele>93.4</ele>
        <time>2018-01-13T16:34:48Z</time>
      </trkpt>
      <trkpt lat="62.6348541608" lon="17.988016057568">
        <ele>93.8</ele>
        <time>2018-01-13T16:34:49Z</time>
      </trkpt>
      <trkpt lat="62.634831278213" lon="17.98802930097">
        <ele>94</ele>
        <time>2018-01-13T16:34:50Z</time>
      </trkpt>
      <trkpt lat="62.634807305979" lon="17.988040616535">
        <ele>94</ele>
        <time>2018-01-13T16:34:51Z</time>
      </trkpt>
      <trkpt lat="62.63478207646" lon="17.988052602652">
        <ele>94.2</ele>
        <time>2018-01-13T16:34:52Z</time>
      </trkpt>
      <trkpt lat="62.634753158905" lon="17.988061738923">
        <ele>94.2</ele>
        <time>2018-01-13T16:34:53Z</time>
      </trkpt>
      <trkpt lat="62.634730192499" lon="17.988072467755">
        <ele>94.4</ele>
        <time>2018-01-13T16:34:54Z</time>
      </trkpt>
      <trkpt lat="62.6347116685" lon="17.988077748352">
        <ele>94.4</ele>
        <time>2018-01-13T16:34:55Z</time>
      </trkpt>
      <trkpt lat="62.634690462293" lon="17.988080598198">
        <ele>94.4</ele>
        <time>2018-01-13T16:34:56Z</time>
      </trkpt>
      <trkpt lat="62.634669256086" lon="17.988089734469">
        <ele>94.8</ele>
        <time>2018-01-13T16:34:57Z</time>
      </trkpt>
      <trkpt lat="62.634641763454" lon="17.988097864912">
        <ele>94.8</ele>
        <time>2018-01-13T16:34:58Z</time>
      </trkpt>
      <trkpt lat="62.63461360027" lon="17.988102391138">
        <ele>95</ele>
        <time>2018-01-13T16:34:59Z</time>
      </trkpt>
      <trkpt lat="62.634593818986" lon="17.988113203789">
        <ele>95</ele>
        <time>2018-01-13T16:35:00Z</time>
      </trkpt>
      <trkpt lat="62.634572780417" lon="17.98811814911">
        <ele>95</ele>
        <time>2018-01-13T16:35:01Z</time>
      </trkpt>
      <trkpt lat="62.634546125975" lon="17.988122675336">
        <ele>95</ele>
        <time>2018-01-13T16:35:02Z</time>
      </trkpt>
      <trkpt lat="62.634520225904" lon="17.988139522955">
        <ele>95</ele>
        <time>2018-01-13T16:35:03Z</time>
      </trkpt>
      <trkpt lat="62.634495331661" lon="17.988152598719">
        <ele>95</ele>
        <time>2018-01-13T16:35:04Z</time>
      </trkpt>
      <trkpt lat="62.634473790178" lon="17.988156538212">
        <ele>95.2</ele>
        <time>2018-01-13T16:35:05Z</time>
      </trkpt>
      <trkpt lat="62.634456439645" lon="17.988162992275">
        <ele>95.2</ele>
        <time>2018-01-13T16:35:06Z</time>
      </trkpt>
      <trkpt lat="62.634435149619" lon="17.988166261216">
        <ele>95.2</ele>
        <time>2018-01-13T16:35:07Z</time>
      </trkpt>
      <trkpt lat="62.634409752462" lon="17.988168524329">
        <ele>95.4</ele>
        <time>2018-01-13T16:35:08Z</time>
      </trkpt>
      <trkpt lat="62.63438393621" lon="17.988172547641">
        <ele>95.6</ele>
        <time>2018-01-13T16:35:09Z</time>
      </trkpt>
      <trkpt lat="62.634365663668" lon="17.988174978392">
        <ele>95.8</ele>
        <time>2018-01-13T16:35:10Z</time>
      </trkpt>
      <trkpt lat="62.63433951214" lon="17.988171709451">
        <ele>96</ele>
        <time>2018-01-13T16:35:11Z</time>
      </trkpt>
      <trkpt lat="62.634312354784" lon="17.988178247333">
        <ele>96</ele>
        <time>2018-01-13T16:35:12Z</time>
      </trkpt>
      <trkpt lat="62.634284862152" lon="17.988182019188">
        <ele>96.4</ele>
        <time>2018-01-13T16:35:13Z</time>
      </trkpt>
      <trkpt lat="62.634255441683" lon="17.988182270645">
        <ele>96.4</ele>
        <time>2018-01-13T16:35:14Z</time>
      </trkpt>
      <trkpt lat="62.634228451965" lon="17.988181348636">
        <ele>96.6</ele>
        <time>2018-01-13T16:35:15Z</time>
      </trkpt>
      <trkpt lat="62.634200791695" lon="17.98817346965">
        <ele>96.6</ele>
        <time>2018-01-13T16:35:16Z</time>
      </trkpt>
      <trkpt lat="62.634169862484" lon="17.988174559297">
        <ele>96.6</ele>
        <time>2018-01-13T16:35:17Z</time>
      </trkpt>
      <trkpt lat="62.634141196386" lon="17.988167937596">
        <ele>96.6</ele>
        <time>2018-01-13T16:35:18Z</time>
      </trkpt>
      <trkpt lat="62.634112027374" lon="17.988158298411">
        <ele>96.6</ele>
        <time>2018-01-13T16:35:19Z</time>
      </trkpt>
      <trkpt lat="62.634085624389" lon="17.988148156312">
        <ele>96.6</ele>
        <time>2018-01-13T16:35:20Z</time>
      </trkpt>
      <trkpt lat="62.634062322707" lon="17.988142372801">
        <ele>96.6</ele>
        <time>2018-01-13T16:35:21Z</time>
      </trkpt>
      <trkpt lat="62.634031309677" lon="17.988130135227">
        <ele>96.6</ele>
        <time>2018-01-13T16:35:22Z</time>
      </trkpt>
      <trkpt lat="62.634005996339" lon="17.988117981472">
        <ele>96.6</ele>
        <time>2018-01-13T16:35:23Z</time>
      </trkpt>
      <trkpt lat="62.633983532847" lon="17.988100128025">
        <ele>96.8</ele>
        <time>2018-01-13T16:35:24Z</time>
      </trkpt>
      <trkpt lat="62.633957884233" lon="17.988077496895">
        <ele>96.8</ele>
        <time>2018-01-13T16:35:25Z</time>
      </trkpt>
      <trkpt lat="62.633935001646" lon="17.988056039231">
        <ele>96.8</ele>
        <time>2018-01-13T16:35:26Z</time>
      </trkpt>
      <trkpt lat="62.633909101575" lon="17.98803181554">
        <ele>96.8</ele>
        <time>2018-01-13T16:35:27Z</time>
      </trkpt>
      <trkpt lat="62.633881441305" lon="17.988006837478">
        <ele>97</ele>
        <time>2018-01-13T16:35:28Z</time>
      </trkpt>
      <trkpt lat="62.633855708872" lon="17.987984290167">
        <ele>97</ele>
        <time>2018-01-13T16:35:29Z</time>
      </trkpt>
      <trkpt lat="62.633832993923" lon="17.987962581046">
        <ele>97</ele>
        <time>2018-01-13T16:35:30Z</time>
      </trkpt>
      <trkpt lat="62.633806255662" lon="17.987934334043">
        <ele>97</ele>
        <time>2018-01-13T16:35:31Z</time>
      </trkpt>
      <trkpt lat="62.63377792484" lon="17.98790776342">
        <ele>97.4</ele>
        <time>2018-01-13T16:35:32Z</time>
      </trkpt>
      <trkpt lat="62.633753952606" lon="17.987889155602">
        <ele>97.4</ele>
        <time>2018-01-13T16:35:33Z</time>
      </trkpt>
      <trkpt lat="62.633725537965" lon="17.987865267187">
        <ele>97.6</ele>
        <time>2018-01-13T16:35:34Z</time>
      </trkpt>
      <trkpt lat="62.633701565731" lon="17.987835595261">
        <ele>97.6</ele>
        <time>2018-01-13T16:35:35Z</time>
      </trkpt>
      <trkpt lat="62.633682538818" lon="17.987810281923">
        <ele>97.8</ele>
        <time>2018-01-13T16:35:36Z</time>
      </trkpt>
      <trkpt lat="62.633661919344" lon="17.987786728784">
        <ele>97.8</ele>
        <time>2018-01-13T16:35:37Z</time>
      </trkpt>
      <trkpt lat="62.633641048413" lon="17.987765187301">
        <ele>97.8</ele>
        <time>2018-01-13T16:35:38Z</time>
      </trkpt>
      <trkpt lat="62.633618333464" lon="17.987740041601">
        <ele>98</ele>
        <time>2018-01-13T16:35:39Z</time>
      </trkpt>
      <trkpt lat="62.633601234388" lon="17.987716907557">
        <ele>98.2</ele>
        <time>2018-01-13T16:35:40Z</time>
      </trkpt>
      <trkpt lat="62.633583716217" lon="17.987689666382">
        <ele>98.2</ele>
        <time>2018-01-13T16:35:41Z</time>
      </trkpt>
      <trkpt lat="62.633560414535" lon="17.987656893153">
        <ele>98.6</ele>
        <time>2018-01-13T16:35:42Z</time>
      </trkpt>
      <trkpt lat="62.633543399278" lon="17.987634681118">
        <ele>98.8</ele>
        <time>2018-01-13T16:35:43Z</time>
      </trkpt>
      <trkpt lat="62.633522109252" lon="17.987606098839">
        <ele>99</ele>
        <time>2018-01-13T16:35:44Z</time>
      </trkpt>
      <trkpt lat="62.633496544457" lon="17.987565446624">
        <ele>99</ele>
        <time>2018-01-13T16:35:45Z</time>
      </trkpt>
      <trkpt lat="62.633475841164" lon="17.98753728344">
        <ele>99.2</ele>
        <time>2018-01-13T16:35:46Z</time>
      </trkpt>
      <trkpt lat="62.633454718776" lon="17.987506102772">
        <ele>99.2</ele>
        <time>2018-01-13T16:35:47Z</time>
      </trkpt>
      <trkpt lat="62.633433764026" lon="17.987470898792">
        <ele>99.4</ele>
        <time>2018-01-13T16:35:48Z</time>
      </trkpt>
      <trkpt lat="62.633416078217" lon="17.987439969581">
        <ele>99.4</ele>
        <time>2018-01-13T16:35:49Z</time>
      </trkpt>
      <trkpt lat="62.633400906978" lon="17.987416081166">
        <ele>99.6</ele>
        <time>2018-01-13T16:35:50Z</time>
      </trkpt>
      <trkpt lat="62.633383640264" lon="17.987382972661">
        <ele>99.6</ele>
        <time>2018-01-13T16:35:51Z</time>
      </trkpt>
      <trkpt lat="62.633363439885" lon="17.987340727885">
        <ele>100</ele>
        <time>2018-01-13T16:35:52Z</time>
      </trkpt>
      <trkpt lat="62.633341646945" lon="17.987293873064">
        <ele>100</ele>
        <time>2018-01-13T16:35:53Z</time>
      </trkpt>
      <trkpt lat="62.633320189281" lon="17.987235199764">
        <ele>100.2</ele>
        <time>2018-01-13T16:35:54Z</time>
      </trkpt>
      <trkpt lat="62.633300072721" lon="17.987169737125">
        <ele>100.6</ele>
        <time>2018-01-13T16:35:55Z</time>
      </trkpt>
      <trkpt lat="62.63328003998" lon="17.987094551482">
        <ele>100.6</ele>
        <time>2018-01-13T16:35:56Z</time>
      </trkpt>
      <trkpt lat="62.633253469357" lon="17.986975612321">
        <ele>100.2</ele>
        <time>2018-01-13T16:35:57Z</time>
      </trkpt>
      <trkpt lat="62.633238214299" lon="17.986878633738">
        <ele>100</ele>
        <time>2018-01-13T16:35:58Z</time>
      </trkpt>
      <trkpt lat="62.633224887078" lon="17.986784253544">
        <ele>99.4</ele>
        <time>2018-01-13T16:35:59Z</time>
      </trkpt>
      <trkpt lat="62.633210134934" lon="17.986686939685">
        <ele>99</ele>
        <time>2018-01-13T16:36:00Z</time>
      </trkpt>
      <trkpt lat="62.633200747206" lon="17.986604880884">
        <ele>98.6</ele>
        <time>2018-01-13T16:36:01Z</time>
      </trkpt>
      <trkpt lat="62.633189934555" lon="17.986528605594">
        <ele>98.6</ele>
        <time>2018-01-13T16:36:02Z</time>
      </trkpt>
      <trkpt lat="62.633181636474" lon="17.986450570105">
        <ele>98.4</ele>
        <time>2018-01-13T16:36:03Z</time>
      </trkpt>
      <trkpt lat="62.633181887931" lon="17.986366918743">
        <ele>98.4</ele>
        <time>2018-01-13T16:36:04Z</time>
      </trkpt>
      <trkpt lat="62.633181301198" lon="17.98626239645">
        <ele>98.2</ele>
        <time>2018-01-13T16:36:05Z</time>
      </trkpt>
      <trkpt lat="62.63317861899" lon="17.98615846089">
        <ele>98.2</ele>
        <time>2018-01-13T16:36:06Z</time>
      </trkpt>
      <trkpt lat="62.633178032257" lon="17.986047568353">
        <ele>98</ele>
        <time>2018-01-13T16:36:07Z</time>
      </trkpt>
      <trkpt lat="62.633177361705" lon="17.98595394253">
        <ele>97.4</ele>
        <time>2018-01-13T16:36:08Z</time>
      </trkpt>
      <trkpt lat="62.633171997289" lon="17.98584162507">
        <ele>97</ele>
        <time>2018-01-13T16:36:09Z</time>
      </trkpt>
      <trkpt lat="62.633173673669" lon="17.985745149401">
        <ele>96.6</ele>
        <time>2018-01-13T16:36:10Z</time>
      </trkpt>
      <trkpt lat="62.633175601506" lon="17.985641130022">
        <ele>96.2</ele>
        <time>2018-01-13T16:36:11Z</time>
      </trkpt>
      <trkpt lat="62.633174511859" lon="17.985534260797">
        <ele>95.8</ele>
        <time>2018-01-13T16:36:12Z</time>
      </trkpt>
      <trkpt lat="62.633176272058" lon="17.985438874775">
        <ele>95.2</ele>
        <time>2018-01-13T16:36:13Z</time>
      </trkpt>
      <trkpt lat="62.633180379189" lon="17.985341477097">
        <ele>95.2</ele>
        <time>2018-01-13T16:36:14Z</time>
      </trkpt>
      <trkpt lat="62.633188761089" lon="17.985212731113">
        <ele>95.2</ele>
        <time>2018-01-13T16:36:15Z</time>
      </trkpt>
      <trkpt lat="62.63320208831" lon="17.985094378685">
        <ele>94.8</ele>
        <time>2018-01-13T16:36:16Z</time>
      </trkpt>
      <trkpt lat="62.633219187386" lon="17.984964626873">
        <ele>94</ele>
        <time>2018-01-13T16:36:17Z</time>
      </trkpt>
      <trkpt lat="62.633236957014" lon="17.984853818155">
        <ele>93.2</ele>
        <time>2018-01-13T16:36:18Z</time>
      </trkpt>
      <trkpt lat="62.633258079402" lon="17.984749379681">
        <ele>92.4</ele>
        <time>2018-01-13T16:36:19Z</time>
      </trkpt>
      <trkpt lat="62.633277106315" lon="17.984657933152">
        <ele>91.6</ele>
        <time>2018-01-13T16:36:20Z</time>
      </trkpt>
      <trkpt lat="62.633296300866" lon="17.984571012849">
        <ele>91.4</ele>
        <time>2018-01-13T16:36:21Z</time>
      </trkpt>
      <trkpt lat="62.633316165969" lon="17.984486942392">
        <ele>91.2</ele>
        <time>2018-01-13T16:36:22Z</time>
      </trkpt>
      <trkpt lat="62.633329828466" lon="17.984408487808">
        <ele>91</ele>
        <time>2018-01-13T16:36:23Z</time>
      </trkpt>
      <trkpt lat="62.63334122785" lon="17.98434629411">
        <ele>91.2</ele>
        <time>2018-01-13T16:36:24Z</time>
      </trkpt>
      <trkpt lat="62.633348184827" lon="17.984277143435">
        <ele>91.4</ele>
        <time>2018-01-13T16:36:25Z</time>
      </trkpt>
      <trkpt lat="62.633348017189" lon="17.984198688851">
        <ele>91.6</ele>
        <time>2018-01-13T16:36:26Z</time>
      </trkpt>
      <trkpt lat="62.633346592266" lon="17.984100536802">
        <ele>91.8</ele>
        <time>2018-01-13T16:36:27Z</time>
      </trkpt>
      <trkpt lat="62.633350699397" lon="17.984023507141">
        <ele>92</ele>
        <time>2018-01-13T16:36:28Z</time>
      </trkpt>
      <trkpt lat="62.63336134441" lon="17.983956368122">
        <ele>91.8</ele>
        <time>2018-01-13T16:36:29Z</time>
      </trkpt>
      <trkpt lat="62.633367379378" lon="17.983881350117">
        <ele>92.2</ele>
        <time>2018-01-13T16:36:30Z</time>
      </trkpt>
      <trkpt lat="62.633375090726" lon="17.983820916618">
        <ele>92.4</ele>
        <time>2018-01-13T16:36:31Z</time>
      </trkpt>
      <trkpt lat="62.633389256137" lon="17.98375620835">
        <ele>92.4</ele>
        <time>2018-01-13T16:36:32Z</time>
      </trkpt>
      <trkpt lat="62.633406522851" lon="17.983685297476">
        <ele>92.2</ele>
        <time>2018-01-13T16:36:33Z</time>
      </trkpt>
      <trkpt lat="62.633416162036" lon="17.983625199253">
        <ele>92.4</ele>
        <time>2018-01-13T16:36:34Z</time>
      </trkpt>
      <trkpt lat="62.633426974687" lon="17.983576165138">
        <ele>92.8</ele>
        <time>2018-01-13T16:36:35Z</time>
      </trkpt>
      <trkpt lat="62.633438374071" lon="17.983523526806">
        <ele>92.8</ele>
        <time>2018-01-13T16:36:36Z</time>
      </trkpt>
      <trkpt lat="62.633450527826" lon="17.98346200366">
        <ele>92.6</ele>
        <time>2018-01-13T16:36:37Z</time>
      </trkpt>
      <trkpt lat="62.633460167011" lon="17.983412801907">
        <ele>92.6</ele>
        <time>2018-01-13T16:36:38Z</time>
      </trkpt>
      <trkpt lat="62.633477433725" lon="17.983348680372">
        <ele>92.8</ele>
        <time>2018-01-13T16:36:39Z</time>
      </trkpt>
      <trkpt lat="62.633492269688" lon="17.983292270185">
        <ele>92.8</ele>
        <time>2018-01-13T16:36:40Z</time>
      </trkpt>
      <trkpt lat="62.633506267461" lon="17.9832323396">
        <ele>92.8</ele>
        <time>2018-01-13T16:36:41Z</time>
      </trkpt>
      <trkpt lat="62.63351976232" lon="17.98317450449">
        <ele>93</ele>
        <time>2018-01-13T16:36:42Z</time>
      </trkpt>
      <trkpt lat="62.633534179188" lon="17.983128823135">
        <ele>93</ele>
        <time>2018-01-13T16:36:43Z</time>
      </trkpt>
      <trkpt lat="62.633553373739" lon="17.98306386341">
        <ele>93</ele>
        <time>2018-01-13T16:36:44Z</time>
      </trkpt>
      <trkpt lat="62.633564689304" lon="17.98299848459">
        <ele>92.8</ele>
        <time>2018-01-13T16:36:45Z</time>
      </trkpt>
      <trkpt lat="62.633578351801" lon="17.982949534294">
        <ele>92.8</ele>
        <time>2018-01-13T16:36:46Z</time>
      </trkpt>
      <trkpt lat="62.633599222732" lon="17.982885161302">
        <ele>92.8</ele>
        <time>2018-01-13T16:36:47Z</time>
      </trkpt>
      <trkpt lat="62.633614310152" lon="17.982827410011">
        <ele>92.8</ele>
        <time>2018-01-13T16:36:48Z</time>
      </trkpt>
      <trkpt lat="62.63362872702" lon="17.98277049691">
        <ele>92.8</ele>
        <time>2018-01-13T16:36:49Z</time>
      </trkpt>
      <trkpt lat="62.633647586295" lon="17.982722049528">
        <ele>92.8</ele>
        <time>2018-01-13T16:36:50Z</time>
      </trkpt>
      <trkpt lat="62.633663344267" lon="17.982669495015">
        <ele>92.8</ele>
        <time>2018-01-13T16:36:51Z</time>
      </trkpt>
      <trkpt lat="62.633679353696" lon="17.982604619109">
        <ele>92.8</ele>
        <time>2018-01-13T16:36:52Z</time>
      </trkpt>
      <trkpt lat="62.633689579614" lon="17.982548292741">
        <ele>93</ele>
        <time>2018-01-13T16:36:53Z</time>
      </trkpt>
      <trkpt lat="62.633704918491" lon="17.982490122355">
        <ele>92.8</ele>
        <time>2018-01-13T16:36:54Z</time>
      </trkpt>
      <trkpt lat="62.633717072246" lon="17.982427593381">
        <ele>93</ele>
        <time>2018-01-13T16:36:55Z</time>
      </trkpt>
      <trkpt lat="62.633724113042" lon="17.982361963104">
        <ele>92.8</ele>
        <time>2018-01-13T16:36:56Z</time>
      </trkpt>
      <trkpt lat="62.633724951232" lon="17.982272695869">
        <ele>93</ele>
        <time>2018-01-13T16:36:57Z</time>
      </trkpt>
      <trkpt lat="62.633722855757" lon="17.982198264597">
        <ele>93</ele>
        <time>2018-01-13T16:36:58Z</time>
      </trkpt>
      <trkpt lat="62.633726292336" lon="17.982127353723">
        <ele>93</ele>
        <time>2018-01-13T16:36:59Z</time>
      </trkpt>
      <trkpt lat="62.633731656752" lon="17.98206306455">
        <ele>93</ele>
        <time>2018-01-13T16:37:00Z</time>
      </trkpt>
      <trkpt lat="62.633734422779" lon="17.982010593856">
        <ele>93</ele>
        <time>2018-01-13T16:37:01Z</time>
      </trkpt>
      <trkpt lat="62.633737021168" lon="17.981962565569">
        <ele>93</ele>
        <time>2018-01-13T16:37:02Z</time>
      </trkpt>
      <trkpt lat="62.633746995629" lon="17.98190548483">
        <ele>93.2</ele>
        <time>2018-01-13T16:37:03Z</time>
      </trkpt>
      <trkpt lat="62.633755545167" lon="17.981853768507">
        <ele>93.2</ele>
        <time>2018-01-13T16:37:04Z</time>
      </trkpt>
      <trkpt lat="62.633765100533" lon="17.981798280329">
        <ele>93.2</ele>
        <time>2018-01-13T16:37:05Z</time>
      </trkpt>
      <trkpt lat="62.633768369474" lon="17.981737176278">
        <ele>93.4</ele>
        <time>2018-01-13T16:37:06Z</time>
      </trkpt>
      <trkpt lat="62.633771722234" lon="17.981660900988">
        <ele>93.4</ele>
        <time>2018-01-13T16:37:07Z</time>
      </trkpt>
      <trkpt lat="62.633774907356" lon="17.981590241571">
        <ele>93.4</ele>
        <time>2018-01-13T16:37:08Z</time>
      </trkpt>
      <trkpt lat="62.633780523229" lon="17.981524527475">
        <ele>93.2</ele>
        <time>2018-01-13T16:37:09Z</time>
      </trkpt>
      <trkpt lat="62.633788988948" lon="17.981463423424">
        <ele>93.4</ele>
        <time>2018-01-13T16:37:10Z</time>
      </trkpt>
      <trkpt lat="62.633801980893" lon="17.981407264694">
        <ele>93.4</ele>
        <time>2018-01-13T16:37:11Z</time>
      </trkpt>
      <trkpt lat="62.633816397761" lon="17.981350016317">
        <ele>93.4</ele>
        <time>2018-01-13T16:37:12Z</time>
      </trkpt>
      <trkpt lat="62.633834335027" lon="17.981287487343">
        <ele>93.2</ele>
        <time>2018-01-13T16:37:13Z</time>
      </trkpt>
      <trkpt lat="62.633847578429" lon="17.981239710513">
        <ele>93.2</ele>
        <time>2018-01-13T16:37:14Z</time>
      </trkpt>
      <trkpt lat="62.633867862627" lon="17.981190341122">
        <ele>93.4</ele>
        <time>2018-01-13T16:37:15Z</time>
      </trkpt>
      <trkpt lat="62.633884123513" lon="17.981145497957">
        <ele>93.4</ele>
        <time>2018-01-13T16:37:16Z</time>
      </trkpt>
      <trkpt lat="62.633899965304" lon="17.981101325344">
        <ele>93.4</ele>
        <time>2018-01-13T16:37:17Z</time>
      </trkpt>
      <trkpt lat="62.633917148199" lon="17.981055811627">
        <ele>93.6</ele>
        <time>2018-01-13T16:37:18Z</time>
      </trkpt>
      <trkpt lat="62.633939024958" lon="17.981013818308">
        <ele>93.6</ele>
        <time>2018-01-13T16:37:19Z</time>
      </trkpt>
      <trkpt lat="62.633958303328" lon="17.980965790021">
        <ele>93.6</ele>
        <time>2018-01-13T16:37:20Z</time>
      </trkpt>
      <trkpt lat="62.633971798187" lon="17.980911056214">
        <ele>93.8</ele>
        <time>2018-01-13T16:37:21Z</time>
      </trkpt>
      <trkpt lat="62.63399166329" lon="17.980846683222">
        <ele>94</ele>
        <time>2018-01-13T16:37:22Z</time>
      </trkpt>
      <trkpt lat="62.634009097642" lon="17.980774515063">
        <ele>94.2</ele>
        <time>2018-01-13T16:37:23Z</time>
      </trkpt>
      <trkpt lat="62.634026951089" lon="17.980715841763">
        <ele>94.2</ele>
        <time>2018-01-13T16:37:24Z</time>
      </trkpt>
      <trkpt lat="62.634038350473" lon="17.980649960029">
        <ele>94.2</ele>
        <time>2018-01-13T16:37:25Z</time>
      </trkpt>
      <trkpt lat="62.634047486744" lon="17.980584581209">
        <ele>94.4</ele>
        <time>2018-01-13T16:37:26Z</time>
      </trkpt>
      <trkpt lat="62.634064166725" lon="17.980510904308">
        <ele>94.4</ele>
        <time>2018-01-13T16:37:27Z</time>
      </trkpt>
      <trkpt lat="62.634078164498" lon="17.980452566284">
        <ele>94.6</ele>
        <time>2018-01-13T16:37:28Z</time>
      </trkpt>
      <trkpt lat="62.634093335737" lon="17.980404873273">
        <ele>94.8</ele>
        <time>2018-01-13T16:37:29Z</time>
      </trkpt>
      <trkpt lat="62.634114709582" lon="17.980358689004">
        <ele>94.8</ele>
        <time>2018-01-13T16:37:30Z</time>
      </trkpt>
      <trkpt lat="62.634137592169" lon="17.980316444228">
        <ele>94.8</ele>
        <time>2018-01-13T16:37:31Z</time>
      </trkpt>
      <trkpt lat="62.634156367625" lon="17.98027939623">
        <ele>94.8</ele>
        <time>2018-01-13T16:37:32Z</time>
      </trkpt>
      <trkpt lat="62.634180926592" lon="17.980230865029">
        <ele>94.8</ele>
        <time>2018-01-13T16:37:33Z</time>
      </trkpt>
      <trkpt lat="62.63420288717" lon="17.980175879765">
        <ele>94.8</ele>
        <time>2018-01-13T16:37:34Z</time>
      </trkpt>
      <trkpt lat="62.634227781413" lon="17.980129611677">
        <ele>94.8</ele>
        <time>2018-01-13T16:37:35Z</time>
      </trkpt>
      <trkpt lat="62.634249741991" lon="17.980087618358">
        <ele>94.6</ele>
        <time>2018-01-13T16:37:36Z</time>
      </trkpt>
      <trkpt lat="62.634273546587" lon="17.980053420206">
        <ele>94.8</ele>
        <time>2018-01-13T16:37:37Z</time>
      </trkpt>
      <trkpt lat="62.634293830785" lon="17.980015450199">
        <ele>94.8</ele>
        <time>2018-01-13T16:37:38Z</time>
      </trkpt>
      <trkpt lat="62.634307828558" lon="17.979968511559">
        <ele>94.8</ele>
        <time>2018-01-13T16:37:39Z</time>
      </trkpt>
      <trkpt lat="62.634318976485" lon="17.979911095544">
        <ele>94.8</ele>
        <time>2018-01-13T16:37:40Z</time>
      </trkpt>
      <trkpt lat="62.634330543507" lon="17.979846806371">
        <ele>94.6</ele>
        <time>2018-01-13T16:37:41Z</time>
      </trkpt>
      <trkpt lat="62.634344960375" lon="17.979785786139">
        <ele>94.8</ele>
        <time>2018-01-13T16:37:42Z</time>
      </trkpt>
      <trkpt lat="62.634362310908" lon="17.979731387608">
        <ele>94.6</ele>
        <time>2018-01-13T16:37:43Z</time>
      </trkpt>
      <trkpt lat="62.63437387793" lon="17.979687298814">
        <ele>94.6</ele>
        <time>2018-01-13T16:37:44Z</time>
      </trkpt>
      <trkpt lat="62.634383600934" lon="17.979641449821">
        <ele>94.6</ele>
        <time>2018-01-13T16:37:45Z</time>
      </trkpt>
      <trkpt lat="62.634400951467" lon="17.979579172304">
        <ele>94.6</ele>
        <time>2018-01-13T16:37:46Z</time>
      </trkpt>
      <trkpt lat="62.634417547629" lon="17.979524354678">
        <ele>94.8</ele>
        <time>2018-01-13T16:37:47Z</time>
      </trkpt>
      <trkpt lat="62.634432048316" lon="17.979473225088">
        <ele>94.4</ele>
        <time>2018-01-13T16:37:48Z</time>
      </trkpt>
      <trkpt lat="62.634443782976" lon="17.979426537905">
        <ele>94.6</ele>
        <time>2018-01-13T16:37:49Z</time>
      </trkpt>
      <trkpt lat="62.634454092713" lon="17.979374067211">
        <ele>94.4</ele>
        <time>2018-01-13T16:37:50Z</time>
      </trkpt>
      <trkpt lat="62.634461971699" lon="17.979312376427">
        <ele>94.6</ele>
        <time>2018-01-13T16:37:51Z</time>
      </trkpt>
      <trkpt lat="62.634473538721" lon="17.979252362023">
        <ele>94.4</ele>
        <time>2018-01-13T16:37:52Z</time>
      </trkpt>
      <trkpt lat="62.634481585345" lon="17.97918639647">
        <ele>94.6</ele>
        <time>2018-01-13T16:37:53Z</time>
      </trkpt>
      <trkpt lat="62.63448703358" lon="17.979123783677">
        <ele>94.6</ele>
        <time>2018-01-13T16:37:54Z</time>
      </trkpt>
      <trkpt lat="62.634493655281" lon="17.979056141744">
        <ele>94.8</ele>
        <time>2018-01-13T16:37:55Z</time>
      </trkpt>
      <trkpt lat="62.634505054665" lon="17.978995456788">
        <ele>94.6</ele>
        <time>2018-01-13T16:37:56Z</time>
      </trkpt>
      <trkpt lat="62.63452642851" lon="17.978881630586">
        <ele>94.6</ele>
        <time>2018-01-13T16:37:58Z</time>
      </trkpt>
      <trkpt lat="62.634541683568" lon="17.978841648923">
        <ele>94.8</ele>
        <time>2018-01-13T16:37:59Z</time>
      </trkpt>
      <trkpt lat="62.634558112092" lon="17.978819436888">
        <ele>94.8</ele>
        <time>2018-01-13T16:38:00Z</time>
      </trkpt>
      <trkpt lat="62.63457420534" lon="17.978803427459">
        <ele>94.8</ele>
        <time>2018-01-13T16:38:01Z</time>
      </trkpt>
      <trkpt lat="62.634589795674" lon="17.978785574012">
        <ele>94.8</ele>
        <time>2018-01-13T16:38:02Z</time>
      </trkpt>
      <trkpt lat="62.634614354641" lon="17.978770905687">
        <ele>95</ele>
        <time>2018-01-13T16:38:03Z</time>
      </trkpt>
      <trkpt lat="62.634636901952" lon="17.978763278158">
        <ele>95</ele>
        <time>2018-01-13T16:38:04Z</time>
      </trkpt>
      <trkpt lat="62.634661041824" lon="17.978765541271">
        <ele>95</ele>
        <time>2018-01-13T16:38:05Z</time>
      </trkpt>
      <trkpt lat="62.634685600791" lon="17.978780209596">
        <ele>95</ele>
        <time>2018-01-13T16:38:06Z</time>
      </trkpt>
      <trkpt lat="62.634710914129" lon="17.978796721939">
        <ele>95</ele>
        <time>2018-01-13T16:38:07Z</time>
      </trkpt>
      <trkpt lat="62.634743184444" lon="17.9788150783">
        <ele>95</ele>
        <time>2018-01-13T16:38:08Z</time>
      </trkpt>
      <trkpt lat="62.634776628225" lon="17.978828740797">
        <ele>95</ele>
        <time>2018-01-13T16:38:09Z</time>
      </trkpt>
      <trkpt lat="62.634805713418" lon="17.978840475457">
        <ele>94.8</ele>
        <time>2018-01-13T16:38:10Z</time>
      </trkpt>
      <trkpt lat="62.63483991157" lon="17.97885866418">
        <ele>94.8</ele>
        <time>2018-01-13T16:38:11Z</time>
      </trkpt>
      <trkpt lat="62.634873271532" lon="17.978871153211">
        <ele>94.8</ele>
        <time>2018-01-13T16:38:12Z</time>
      </trkpt>
      <trkpt lat="62.634908475512" lon="17.978886156812">
        <ele>94.6</ele>
        <time>2018-01-13T16:38:13Z</time>
      </trkpt>
      <trkpt lat="62.634936051963" lon="17.978896215092">
        <ele>94.4</ele>
        <time>2018-01-13T16:38:14Z</time>
      </trkpt>
      <trkpt lat="62.634968322278" lon="17.978909877589">
        <ele>94.2</ele>
        <time>2018-01-13T16:38:15Z</time>
      </trkpt>
      <trkpt lat="62.634995228177" lon="17.978921109335">
        <ele>94</ele>
        <time>2018-01-13T16:38:16Z</time>
      </trkpt>
      <trkpt lat="62.635023139904" lon="17.978933598366">
        <ele>94</ele>
        <time>2018-01-13T16:38:17Z</time>
      </trkpt>
      <trkpt lat="62.635053566201" lon="17.97893745404">
        <ele>93.6</ele>
        <time>2018-01-13T16:38:18Z</time>
      </trkpt>
      <trkpt lat="62.635084411593" lon="17.978951787089">
        <ele>93.6</ele>
        <time>2018-01-13T16:38:19Z</time>
      </trkpt>
      <trkpt lat="62.635110311664" lon="17.978956229496">
        <ele>93.6</ele>
        <time>2018-01-13T16:38:20Z</time>
      </trkpt>
      <trkpt lat="62.635143084893" lon="17.978968299432">
        <ele>93.4</ele>
        <time>2018-01-13T16:38:21Z</time>
      </trkpt>
      <trkpt lat="62.635177199226" lon="17.978981375196">
        <ele>93.6</ele>
        <time>2018-01-13T16:38:22Z</time>
      </trkpt>
      <trkpt lat="62.635211816473" lon="17.978990427648">
        <ele>93.6</ele>
        <time>2018-01-13T16:38:23Z</time>
      </trkpt>
      <trkpt lat="62.63524559553" lon="17.979001659394">
        <ele>93.6</ele>
        <time>2018-01-13T16:38:24Z</time>
      </trkpt>
      <trkpt lat="62.635276524741" lon="17.979008532552">
        <ele>93.4</ele>
        <time>2018-01-13T16:38:25Z</time>
      </trkpt>
      <trkpt lat="62.635306196667" lon="17.97901456752">
        <ele>93</ele>
        <time>2018-01-13T16:38:26Z</time>
      </trkpt>
      <trkpt lat="62.635342993208" lon="17.979017836461">
        <ele>92.6</ele>
        <time>2018-01-13T16:38:27Z</time>
      </trkpt>
      <trkpt lat="62.635375179704" lon="17.979019848117">
        <ele>92</ele>
        <time>2018-01-13T16:38:28Z</time>
      </trkpt>
      <trkpt lat="62.635408874942" lon="17.979018171737">
        <ele>91.6</ele>
        <time>2018-01-13T16:38:29Z</time>
      </trkpt>
      <trkpt lat="62.635441983447" lon="17.979004676878">
        <ele>91.4</ele>
        <time>2018-01-13T16:38:30Z</time>
      </trkpt>
      <trkpt lat="62.635473164115" lon="17.979001491756">
        <ele>91.2</ele>
        <time>2018-01-13T16:38:31Z</time>
      </trkpt>
      <trkpt lat="62.635507278448" lon="17.97899780372">
        <ele>91</ele>
        <time>2018-01-13T16:38:32Z</time>
      </trkpt>
      <trkpt lat="62.63554902031" lon="17.978998558091">
        <ele>90.8</ele>
        <time>2018-01-13T16:38:33Z</time>
      </trkpt>
      <trkpt lat="62.635586906498" lon="17.978995792064">
        <ele>90.6</ele>
        <time>2018-01-13T16:38:34Z</time>
      </trkpt>
      <trkpt lat="62.635620601736" lon="17.978992271666">
        <ele>90.2</ele>
        <time>2018-01-13T16:38:35Z</time>
      </trkpt>
      <trkpt lat="62.635659996666" lon="17.978992104028">
        <ele>90</ele>
        <time>2018-01-13T16:38:36Z</time>
      </trkpt>
      <trkpt lat="62.635696960845" lon="17.978984476499">
        <ele>90.2</ele>
        <time>2018-01-13T16:38:37Z</time>
      </trkpt>
      <trkpt lat="62.635736691051" lon="17.978981961929">
        <ele>90.2</ele>
        <time>2018-01-13T16:38:38Z</time>
      </trkpt>
      <trkpt lat="62.635775080153" lon="17.978980369368">
        <ele>90.2</ele>
        <time>2018-01-13T16:38:39Z</time>
      </trkpt>
      <trkpt lat="62.635809110667" lon="17.978985147051">
        <ele>90.4</ele>
        <time>2018-01-13T16:38:40Z</time>
      </trkpt>
      <trkpt lat="62.63583987224" lon="17.978980453187">
        <ele>90.4</ele>
        <time>2018-01-13T16:38:41Z</time>
      </trkpt>
      <trkpt lat="62.635868286881" lon="17.978978357712">
        <ele>90.4</ele>
        <time>2018-01-13T16:38:42Z</time>
      </trkpt>
      <trkpt lat="62.635899802825" lon="17.978985901422">
        <ele>90.6</ele>
        <time>2018-01-13T16:38:43Z</time>
      </trkpt>
      <trkpt lat="62.635915225521" lon="17.978991852571">
        <ele>90.4</ele>
        <time>2018-01-13T16:38:44Z</time>
      </trkpt>
      <trkpt lat="62.635941460868" lon="17.97900031829">
        <ele>90.4</ele>
        <time>2018-01-13T16:38:45Z</time>
      </trkpt>
      <trkpt lat="62.635956632107" lon="17.979005095973">
        <ele>90.2</ele>
        <time>2018-01-13T16:38:46Z</time>
      </trkpt>
      <trkpt lat="62.635981274893" lon="17.979014483701">
        <ele>90.4</ele>
        <time>2018-01-13T16:38:47Z</time>
      </trkpt>
      <trkpt lat="62.63599829015" lon="17.979032420967">
        <ele>90.4</ele>
        <time>2018-01-13T16:38:48Z</time>
      </trkpt>
      <trkpt lat="62.636011785009" lon="17.979066032386">
        <ele>90.4</ele>
        <time>2018-01-13T16:38:49Z</time>
      </trkpt>
      <trkpt lat="62.636018909624" lon="17.979090256077">
        <ele>90.6</ele>
        <time>2018-01-13T16:38:50Z</time>
      </trkpt>
      <trkpt lat="62.636024357859" lon="17.97912017946">
        <ele>90.8</ele>
        <time>2018-01-13T16:38:51Z</time>
      </trkpt>
      <trkpt lat="62.636028045895" lon="17.979151276309">
        <ele>90.8</ele>
        <time>2018-01-13T16:38:52Z</time>
      </trkpt>
      <trkpt lat="62.63602678861" lon="17.979177511656">
        <ele>91</ele>
        <time>2018-01-13T16:38:53Z</time>
      </trkpt>
      <trkpt lat="62.636022430022" lon="17.9792006457">
        <ele>91</ele>
        <time>2018-01-13T16:38:54Z</time>
      </trkpt>
      <trkpt lat="62.636017819977" lon="17.979217744776">
        <ele>91</ele>
        <time>2018-01-13T16:38:56Z</time>
      </trkpt>
      <trkpt lat="62.636017736158" lon="17.97922914416">
        <ele>90.8</ele>
        <time>2018-01-13T16:38:57Z</time>
      </trkpt>
      <trkpt lat="62.636016478873" lon="17.979258061715">
        <ele>90.8</ele>
        <time>2018-01-13T16:38:58Z</time>
      </trkpt>
      <trkpt lat="62.636012707018" lon="17.979306760554">
        <ele>90.8</ele>
        <time>2018-01-13T16:38:59Z</time>
      </trkpt>
      <trkpt lat="62.636005917679" lon="17.979361661999">
        <ele>90.6</ele>
        <time>2018-01-13T16:39:00Z</time>
      </trkpt>
      <trkpt lat="62.636000720901" lon="17.979422430774">
        <ele>90.6</ele>
        <time>2018-01-13T16:39:01Z</time>
      </trkpt>
      <trkpt lat="62.635996110856" lon="17.97949987953">
        <ele>90.4</ele>
        <time>2018-01-13T16:39:02Z</time>
      </trkpt>
      <trkpt lat="62.63598655549" lon="17.979607586945">
        <ele>90.4</ele>
        <time>2018-01-13T16:39:03Z</time>
      </trkpt>
      <trkpt lat="62.635982532178" lon="17.979742870811">
        <ele>90.4</ele>
        <time>2018-01-13T16:39:04Z</time>
      </trkpt>
      <trkpt lat="62.635976916305" lon="17.979880250152">
        <ele>90.2</ele>
        <time>2018-01-13T16:39:05Z</time>
      </trkpt>
      <trkpt lat="62.635981191074" lon="17.980009834326">
        <ele>89.4</ele>
        <time>2018-01-13T16:39:06Z</time>
      </trkpt>
      <trkpt lat="62.635994350657" lon="17.98015869687">
        <ele>88.4</ele>
        <time>2018-01-13T16:39:07Z</time>
      </trkpt>
      <trkpt lat="62.636010779181" lon="17.980283168085">
        <ele>87.2</ele>
        <time>2018-01-13T16:39:08Z</time>
      </trkpt>
      <trkpt lat="62.636033242673" lon="17.98042272672">
        <ele>86</ele>
        <time>2018-01-13T16:39:09Z</time>
      </trkpt>
      <trkpt lat="62.636052018129" lon="17.980534373628">
        <ele>84.8</ele>
        <time>2018-01-13T16:39:10Z</time>
      </trkpt>
      <trkpt lat="62.636074816897" lon="17.980654402436">
        <ele>84.2</ele>
        <time>2018-01-13T16:39:11Z</time>
      </trkpt>
      <trkpt lat="62.636096526018" lon="17.980778035461">
        <ele>83.8</ele>
        <time>2018-01-13T16:39:12Z</time>
      </trkpt>
      <trkpt lat="62.636118821872" lon="17.980888676541">
        <ele>83.6</ele>
        <time>2018-01-13T16:39:13Z</time>
      </trkpt>
      <trkpt lat="62.636142794106" lon="17.98099856325">
        <ele>83.4</ele>
        <time>2018-01-13T16:39:14Z</time>
      </trkpt>
      <trkpt lat="62.636162323933" lon="17.981113311461">
        <ele>83.2</ele>
        <time>2018-01-13T16:39:15Z</time>
      </trkpt>
      <trkpt lat="62.636171460204" lon="17.981212385519">
        <ele>82.8</ele>
        <time>2018-01-13T16:39:16Z</time>
      </trkpt>
      <trkpt lat="62.636176908439" lon="17.981309280283">
        <ele>82.6</ele>
        <time>2018-01-13T16:39:17Z</time>
      </trkpt>
      <trkpt lat="62.636184200692" lon="17.981396284405">
        <ele>82.4</ele>
        <time>2018-01-13T16:39:18Z</time>
      </trkpt>
      <trkpt lat="62.63619358842" lon="17.981482031242">
        <ele>82.4</ele>
        <time>2018-01-13T16:39:19Z</time>
      </trkpt>
      <trkpt lat="62.636199120474" lon="17.981556378695">
        <ele>82.4</ele>
        <time>2018-01-13T16:39:20Z</time>
      </trkpt>
      <trkpt lat="62.636217393016" lon="17.981629971777">
        <ele>82.2</ele>
        <time>2018-01-13T16:39:21Z</time>
      </trkpt>
      <trkpt lat="62.636226613106" lon="17.981720580116">
        <ele>82.2</ele>
        <time>2018-01-13T16:39:22Z</time>
      </trkpt>
      <trkpt lat="62.636241029974" lon="17.981795598121">
        <ele>82.4</ele>
        <time>2018-01-13T16:39:23Z</time>
      </trkpt>
      <trkpt lat="62.636250333883" lon="17.981869694117">
        <ele>82.6</ele>
        <time>2018-01-13T16:39:24Z</time>
      </trkpt>
      <trkpt lat="62.636256871765" lon="17.981952591108">
        <ele>82.8</ele>
        <time>2018-01-13T16:39:25Z</time>
      </trkpt>
      <trkpt lat="62.636270282805" lon="17.982010845313">
        <ele>83</ele>
        <time>2018-01-13T16:39:26Z</time>
      </trkpt>
      <trkpt lat="62.636280843999" lon="17.982102040385">
        <ele>83.2</ele>
        <time>2018-01-13T16:39:27Z</time>
      </trkpt>
      <trkpt lat="62.636290483184" lon="17.982157277106">
        <ele>83.2</ele>
        <time>2018-01-13T16:39:28Z</time>
      </trkpt>
      <trkpt lat="62.636296518152" lon="17.982231121645">
        <ele>83.2</ele>
        <time>2018-01-13T16:39:29Z</time>
      </trkpt>
      <trkpt lat="62.636292578659" lon="17.982304295632">
        <ele>83</ele>
        <time>2018-01-13T16:39:30Z</time>
      </trkpt>
      <trkpt lat="62.636289812632" lon="17.982360957276">
        <ele>83</ele>
        <time>2018-01-13T16:39:31Z</time>
      </trkpt>
      <trkpt lat="62.636285537863" lon="17.982435640005">
        <ele>83</ele>
        <time>2018-01-13T16:39:32Z</time>
      </trkpt>
      <trkpt lat="62.636272713556" lon="17.982507724345">
        <ele>83</ele>
        <time>2018-01-13T16:39:33Z</time>
      </trkpt>
      <trkpt lat="62.636268774063" lon="17.98257436045">
        <ele>83</ele>
        <time>2018-01-13T16:39:34Z</time>
      </trkpt>
      <trkpt lat="62.636267097683" lon="17.982634626311">
        <ele>83</ele>
        <time>2018-01-13T16:39:35Z</time>
      </trkpt>
      <trkpt lat="62.636264331656" lon="17.982696484733">
        <ele>83.2</ele>
        <time>2018-01-13T16:39:36Z</time>
      </trkpt>
      <trkpt lat="62.636262487638" lon="17.982773262937">
        <ele>83.2</ele>
        <time>2018-01-13T16:39:37Z</time>
      </trkpt>
      <trkpt lat="62.636259386335" lon="17.982824643984">
        <ele>83.4</ele>
        <time>2018-01-13T16:39:38Z</time>
      </trkpt>
      <trkpt lat="62.636255279204" lon="17.98289371084">
        <ele>83.2</ele>
        <time>2018-01-13T16:39:39Z</time>
      </trkpt>
      <trkpt lat="62.636252094082" lon="17.982947774095">
        <ele>83.4</ele>
        <time>2018-01-13T16:39:40Z</time>
      </trkpt>
      <trkpt lat="62.636251004435" lon="17.983004687196">
        <ele>83.4</ele>
        <time>2018-01-13T16:39:41Z</time>
      </trkpt>
      <trkpt lat="62.636250250064" lon="17.983073167319">
        <ele>83.4</ele>
        <time>2018-01-13T16:39:42Z</time>
      </trkpt>
      <trkpt lat="62.636248573684" lon="17.983126308565">
        <ele>83.6</ele>
        <time>2018-01-13T16:39:43Z</time>
      </trkpt>
      <trkpt lat="62.63624974715" lon="17.983193531403">
        <ele>83.6</ele>
        <time>2018-01-13T16:39:44Z</time>
      </trkpt>
      <trkpt lat="62.636257458498" lon="17.983246085916">
        <ele>83.6</ele>
        <time>2018-01-13T16:39:45Z</time>
      </trkpt>
      <trkpt lat="62.636259553973" lon="17.9833161586">
        <ele>83.6</ele>
        <time>2018-01-13T16:39:46Z</time>
      </trkpt>
      <trkpt lat="62.636259470154" lon="17.983380866868">
        <ele>83.6</ele>
        <time>2018-01-13T16:39:47Z</time>
      </trkpt>
      <trkpt lat="62.63625645267" lon="17.98343434339">
        <ele>83.6</ele>
        <time>2018-01-13T16:39:48Z</time>
      </trkpt>
      <trkpt lat="62.636252177901" lon="17.983492346138">
        <ele>83.6</ele>
        <time>2018-01-13T16:39:49Z</time>
      </trkpt>
      <trkpt lat="62.636249495693" lon="17.983534842371">
        <ele>83.6</ele>
        <time>2018-01-13T16:39:50Z</time>
      </trkpt>
      <trkpt lat="62.636242790173" lon="17.983592509843">
        <ele>83.8</ele>
        <time>2018-01-13T16:39:51Z</time>
      </trkpt>
      <trkpt lat="62.636233318626" lon="17.983652775704">
        <ele>84</ele>
        <time>2018-01-13T16:39:52Z</time>
      </trkpt>
      <trkpt lat="62.636229882047" lon="17.983693511738">
        <ele>84</ele>
        <time>2018-01-13T16:39:53Z</time>
      </trkpt>
      <trkpt lat="62.636219823767" lon="17.983748497002">
        <ele>84.2</ele>
        <time>2018-01-13T16:39:54Z</time>
      </trkpt>
      <trkpt lat="62.636216638645" lon="17.983796860565">
        <ele>84.4</ele>
        <time>2018-01-13T16:39:55Z</time>
      </trkpt>
      <trkpt lat="62.636211441867" lon="17.983836590771">
        <ele>84.4</ele>
        <time>2018-01-13T16:39:56Z</time>
      </trkpt>
      <trkpt lat="62.636204568709" lon="17.983901299039">
        <ele>84.4</ele>
        <time>2018-01-13T16:39:57Z</time>
      </trkpt>
      <trkpt lat="62.636194678067" lon="17.983953015362">
        <ele>84.4</ele>
        <time>2018-01-13T16:39:58Z</time>
      </trkpt>
      <trkpt lat="62.636191241488" lon="17.983998696717">
        <ele>84.6</ele>
        <time>2018-01-13T16:39:59Z</time>
      </trkpt>
      <trkpt lat="62.636187972547" lon="17.984063153528">
        <ele>84.8</ele>
        <time>2018-01-13T16:40:00Z</time>
      </trkpt>
      <trkpt lat="62.636178920095" lon="17.984122245923">
        <ele>84.8</ele>
        <time>2018-01-13T16:40:01Z</time>
      </trkpt>
      <trkpt lat="62.636171041109" lon="17.984172118228">
        <ele>84.8</ele>
        <time>2018-01-13T16:40:02Z</time>
      </trkpt>
      <trkpt lat="62.636163329761" lon="17.984229198967">
        <ele>85</ele>
        <time>2018-01-13T16:40:03Z</time>
      </trkpt>
      <trkpt lat="62.636161150467" lon="17.984294410149">
        <ele>85</ele>
        <time>2018-01-13T16:40:04Z</time>
      </trkpt>
      <trkpt lat="62.636162407752" lon="17.984337493115">
        <ele>85.2</ele>
        <time>2018-01-13T16:40:05Z</time>
      </trkpt>
      <trkpt lat="62.636159138811" lon="17.984402285202">
        <ele>85.2</ele>
        <time>2018-01-13T16:40:06Z</time>
      </trkpt>
      <trkpt lat="62.636161066648" lon="17.984462215787">
        <ele>85</ele>
        <time>2018-01-13T16:40:07Z</time>
      </trkpt>
      <trkpt lat="62.636160312277" lon="17.984509489703">
        <ele>85.2</ele>
        <time>2018-01-13T16:40:08Z</time>
      </trkpt>
      <trkpt lat="62.636160563734" lon="17.984582998966">
        <ele>85.2</ele>
        <time>2018-01-13T16:40:09Z</time>
      </trkpt>
      <trkpt lat="62.636160815191" lon="17.984628680321">
        <ele>85.4</ele>
        <time>2018-01-13T16:40:10Z</time>
      </trkpt>
      <trkpt lat="62.636156875698" lon="17.984682575938">
        <ele>85.6</ele>
        <time>2018-01-13T16:40:11Z</time>
      </trkpt>
      <trkpt lat="62.636153606757" lon="17.984753989726">
        <ele>85.6</ele>
        <time>2018-01-13T16:40:12Z</time>
      </trkpt>
      <trkpt lat="62.63615838444" lon="17.984797910882">
        <ele>85.8</ele>
        <time>2018-01-13T16:40:13Z</time>
      </trkpt>
      <trkpt lat="62.636156288965" lon="17.984845520074">
        <ele>86</ele>
        <time>2018-01-13T16:40:14Z</time>
      </trkpt>
      <trkpt lat="62.636153606757" lon="17.984918442604">
        <ele>85.8</ele>
        <time>2018-01-13T16:40:15Z</time>
      </trkpt>
      <trkpt lat="62.636152349472" lon="17.984959513914">
        <ele>86</ele>
        <time>2018-01-13T16:40:16Z</time>
      </trkpt>
      <trkpt lat="62.636146901237" lon="17.985015924101">
        <ele>86</ele>
        <time>2018-01-13T16:40:17Z</time>
      </trkpt>
      <trkpt lat="62.636142877925" lon="17.985077363428">
        <ele>86.2</ele>
        <time>2018-01-13T16:40:18Z</time>
      </trkpt>
      <trkpt lat="62.636142542649" lon="17.985118015643">
        <ele>86.2</ele>
        <time>2018-01-13T16:40:19Z</time>
      </trkpt>
      <trkpt lat="62.636139608984" lon="17.985177694771">
        <ele>86.4</ele>
        <time>2018-01-13T16:40:20Z</time>
      </trkpt>
      <trkpt lat="62.636137010595" lon="17.985227986171">
        <ele>86.4</ele>
        <time>2018-01-13T16:40:21Z</time>
      </trkpt>
      <trkpt lat="62.636138686975" lon="17.985275679182">
        <ele>86.6</ele>
        <time>2018-01-13T16:40:22Z</time>
      </trkpt>
      <trkpt lat="62.636141201545" lon="17.985349356083">
        <ele>86.6</ele>
        <time>2018-01-13T16:40:23Z</time>
      </trkpt>
      <trkpt lat="62.636142291192" lon="17.985386571719">
        <ele>86.8</ele>
        <time>2018-01-13T16:40:24Z</time>
      </trkpt>
      <trkpt lat="62.636139441346" lon="17.985445831752">
        <ele>86.8</ele>
        <time>2018-01-13T16:40:25Z</time>
      </trkpt>
      <trkpt lat="62.636135166577" lon="17.985497548075">
        <ele>86.8</ele>
        <time>2018-01-13T16:40:26Z</time>
      </trkpt>
      <trkpt lat="62.636130975627" lon="17.985547839475">
        <ele>86.8</ele>
        <time>2018-01-13T16:40:27Z</time>
      </trkpt>
      <trkpt lat="62.63612988598" lon="17.985617073969">
        <ele>86.8</ele>
        <time>2018-01-13T16:40:28Z</time>
      </trkpt>
      <trkpt lat="62.63612066589" lon="17.985668706473">
        <ele>86.8</ele>
        <time>2018-01-13T16:40:29Z</time>
      </trkpt>
      <trkpt lat="62.636111948714" lon="17.98571757295">
        <ele>87</ele>
        <time>2018-01-13T16:40:30Z</time>
      </trkpt>
      <trkpt lat="62.636096442199" lon="17.985765517418">
        <ele>87</ele>
        <time>2018-01-13T16:40:31Z</time>
      </trkpt>
      <trkpt lat="62.636083282616" lon="17.985798123009">
        <ele>87.2</ele>
        <time>2018-01-13T16:40:32Z</time>
      </trkpt>
      <trkpt lat="62.636069452481" lon="17.98583156679">
        <ele>87.2</ele>
        <time>2018-01-13T16:40:33Z</time>
      </trkpt>
      <trkpt lat="62.636052353405" lon="17.985872973376">
        <ele>87.2</ele>
        <time>2018-01-13T16:40:34Z</time>
      </trkpt>
      <trkpt lat="62.636029806094" lon="17.985906752433">
        <ele>87.6</ele>
        <time>2018-01-13T16:40:35Z</time>
      </trkpt>
      <trkpt lat="62.636018155253" lon="17.985926617536">
        <ele>87.8</ele>
        <time>2018-01-13T16:40:36Z</time>
      </trkpt>
      <trkpt lat="62.63599493739" lon="17.985945057716">
        <ele>87.6</ele>
        <time>2018-01-13T16:40:37Z</time>
      </trkpt>
      <trkpt lat="62.63597817359" lon="17.985964755181">
        <ele>87.8</ele>
        <time>2018-01-13T16:40:38Z</time>
      </trkpt>
      <trkpt lat="62.635959901048" lon="17.985988475958">
        <ele>88</ele>
        <time>2018-01-13T16:40:39Z</time>
      </trkpt>
      <trkpt lat="62.635931486407" lon="17.986006245586">
        <ele>88</ele>
        <time>2018-01-13T16:40:40Z</time>
      </trkpt>
      <trkpt lat="62.635911202209" lon="17.986025607775">
        <ele>88.2</ele>
        <time>2018-01-13T16:40:41Z</time>
      </trkpt>
      <trkpt lat="62.635892426753" lon="17.986038683539">
        <ele>88.2</ele>
        <time>2018-01-13T16:40:42Z</time>
      </trkpt>
      <trkpt lat="62.635869376528" lon="17.986049077095">
        <ele>88.4</ele>
        <time>2018-01-13T16:40:43Z</time>
      </trkpt>
      <trkpt lat="62.635845069018" lon="17.986072378777">
        <ele>88.4</ele>
        <time>2018-01-13T16:40:44Z</time>
      </trkpt>
      <trkpt lat="62.635830233055" lon="17.986107415119">
        <ele>88.4</ele>
        <time>2018-01-13T16:40:45Z</time>
      </trkpt>
      <trkpt lat="62.635807518106" lon="17.986136835588">
        <ele>88.6</ele>
        <time>2018-01-13T16:40:46Z</time>
      </trkpt>
      <trkpt lat="62.635779690198" lon="17.986172207206">
        <ele>88.6</ele>
        <time>2018-01-13T16:40:47Z</time>
      </trkpt>
      <trkpt lat="62.635757394344" lon="17.98620539953">
        <ele>88.6</ele>
        <time>2018-01-13T16:40:48Z</time>
      </trkpt>
      <trkpt lat="62.635739876173" lon="17.986235658189">
        <ele>88.8</ele>
        <time>2018-01-13T16:40:49Z</time>
      </trkpt>
      <trkpt lat="62.635730823721" lon="17.986254685102">
        <ele>88.8</ele>
        <time>2018-01-13T16:40:50Z</time>
      </trkpt>
      <trkpt lat="62.635711042437" lon="17.986298103344">
        <ele>89</ele>
        <time>2018-01-13T16:40:51Z</time>
      </trkpt>
      <trkpt lat="62.635700900338" lon="17.986334313152">
        <ele>89.2</ele>
        <time>2018-01-13T16:40:52Z</time>
      </trkpt>
      <trkpt lat="62.635682041063" lon="17.9863755521">
        <ele>89.4</ele>
        <time>2018-01-13T16:40:53Z</time>
      </trkpt>
      <trkpt lat="62.635667121281" lon="17.986409414976">
        <ele>89.8</ele>
        <time>2018-01-13T16:40:54Z</time>
      </trkpt>
      <trkpt lat="62.635650357481" lon="17.986453671408">
        <ele>90</ele>
        <time>2018-01-13T16:40:55Z</time>
      </trkpt>
      <trkpt lat="62.635636778803" lon="17.986502286428">
        <ele>90.2</ele>
        <time>2018-01-13T16:40:56Z</time>
      </trkpt>
      <trkpt lat="62.635619176813" lon="17.986549560344">
        <ele>90</ele>
        <time>2018-01-13T16:40:57Z</time>
      </trkpt>
      <trkpt lat="62.63559931171" lon="17.986592475672">
        <ele>90</ele>
        <time>2018-01-13T16:40:58Z</time>
      </trkpt>
      <trkpt lat="62.635582967005" lon="17.986643102348">
        <ele>90</ele>
        <time>2018-01-13T16:40:59Z</time>
      </trkpt>
      <trkpt lat="62.635563018083" lon="17.98666808041">
        <ele>90</ele>
        <time>2018-01-13T16:41:00Z</time>
      </trkpt>
      <trkpt lat="62.635547679206" lon="17.986700015449">
        <ele>90</ele>
        <time>2018-01-13T16:41:01Z</time>
      </trkpt>
      <trkpt lat="62.635532507967" lon="17.9867359738">
        <ele>90</ele>
        <time>2018-01-13T16:41:02Z</time>
      </trkpt>
      <trkpt lat="62.635515325072" lon="17.986777631843">
        <ele>90.2</ele>
        <time>2018-01-13T16:41:03Z</time>
      </trkpt>
      <trkpt lat="62.63550459624" lon="17.986807974321">
        <ele>90.4</ele>
        <time>2018-01-13T16:41:04Z</time>
      </trkpt>
      <trkpt lat="62.635489005906" lon="17.986855332056">
        <ele>90.8</ele>
        <time>2018-01-13T16:41:05Z</time>
      </trkpt>
      <trkpt lat="62.635474086124" lon="17.986900845773">
        <ele>90.8</ele>
        <time>2018-01-13T16:41:06Z</time>
      </trkpt>
      <trkpt lat="62.635463692568" lon="17.986943928739">
        <ele>91</ele>
        <time>2018-01-13T16:41:07Z</time>
      </trkpt>
      <trkpt lat="62.635451371175" lon="17.986987263162">
        <ele>91</ele>
        <time>2018-01-13T16:41:08Z</time>
      </trkpt>
      <trkpt lat="62.635443073094" lon="17.987019952572">
        <ele>91</ele>
        <time>2018-01-13T16:41:09Z</time>
      </trkpt>
      <trkpt lat="62.635430667882" lon="17.987049959774">
        <ele>91</ele>
        <time>2018-01-13T16:41:10Z</time>
      </trkpt>
      <trkpt lat="62.635414323177" lon="17.987072339447">
        <ele>91</ele>
        <time>2018-01-13T16:41:11Z</time>
      </trkpt>
      <trkpt lat="62.635394625712" lon="17.987101927554">
        <ele>91</ele>
        <time>2018-01-13T16:41:12Z</time>
      </trkpt>
      <trkpt lat="62.635377275179" lon="17.987140232837">
        <ele>91</ele>
        <time>2018-01-13T16:41:13Z</time>
      </trkpt>
      <trkpt lat="62.635360511379" lon="17.987175101541">
        <ele>91.2</ele>
        <time>2018-01-13T16:41:14Z</time>
      </trkpt>
      <trkpt lat="62.635345172502" lon="17.987221537267">
        <ele>91.4</ele>
        <time>2018-01-13T16:41:15Z</time>
      </trkpt>
      <trkpt lat="62.635326145589" lon="17.987253053211">
        <ele>91.6</ele>
        <time>2018-01-13T16:41:16Z</time>
      </trkpt>
      <trkpt lat="62.635306867219" lon="17.987283898603">
        <ele>91.8</ele>
        <time>2018-01-13T16:41:17Z</time>
      </trkpt>
      <trkpt lat="62.635288091763" lon="17.987341817532">
        <ele>91.8</ele>
        <time>2018-01-13T16:41:18Z</time>
      </trkpt>
      <trkpt lat="62.635276105646" lon="17.98736880725">
        <ele>92</ele>
        <time>2018-01-13T16:41:19Z</time>
      </trkpt>
      <trkpt lat="62.635261018226" lon="17.98739982028">
        <ele>92</ele>
        <time>2018-01-13T16:41:20Z</time>
      </trkpt>
      <trkpt lat="62.635244086788" lon="17.987444663445">
        <ele>92.2</ele>
        <time>2018-01-13T16:41:21Z</time>
      </trkpt>
      <trkpt lat="62.63522464078" lon="17.98748028652">
        <ele>92</ele>
        <time>2018-01-13T16:41:22Z</time>
      </trkpt>
      <trkpt lat="62.635206954971" lon="17.987509706989">
        <ele>92.2</ele>
        <time>2018-01-13T16:41:23Z</time>
      </trkpt>
      <trkpt lat="62.635189939714" lon="17.987540384743">
        <ele>92.2</ele>
        <time>2018-01-13T16:41:24Z</time>
      </trkpt>
      <trkpt lat="62.635172337724" lon="17.987575588723">
        <ele>92.4</ele>
        <time>2018-01-13T16:41:25Z</time>
      </trkpt>
      <trkpt lat="62.635158591408" lon="17.987596208197">
        <ele>92.4</ele>
        <time>2018-01-13T16:41:26Z</time>
      </trkpt>
      <trkpt lat="62.635130009129" lon="17.98762864615">
        <ele>92.6</ele>
        <time>2018-01-13T16:41:27Z</time>
      </trkpt>
      <trkpt lat="62.635111317492" lon="17.987660162094">
        <ele>92.6</ele>
        <time>2018-01-13T16:41:28Z</time>
      </trkpt>
      <trkpt lat="62.635099918108" lon="17.987685391613">
        <ele>92.8</ele>
        <time>2018-01-13T16:41:29Z</time>
      </trkpt>
      <trkpt lat="62.635080723557" lon="17.987699557024">
        <ele>93</ele>
        <time>2018-01-13T16:41:30Z</time>
      </trkpt>
      <trkpt lat="62.635058846798" lon="17.987732833167">
        <ele>93.2</ele>
        <time>2018-01-13T16:41:31Z</time>
      </trkpt>
      <trkpt lat="62.635044262292" lon="17.987762924188">
        <ele>93.4</ele>
        <time>2018-01-13T16:41:32Z</time>
      </trkpt>
      <trkpt lat="62.635021463524" lon="17.98779544596">
        <ele>93.4</ele>
        <time>2018-01-13T16:41:33Z</time>
      </trkpt>
      <trkpt lat="62.634999083851" lon="17.987830314664">
        <ele>93.6</ele>
        <time>2018-01-13T16:41:34Z</time>
      </trkpt>
      <trkpt lat="62.634986511001" lon="17.987862920255">
        <ele>93.6</ele>
        <time>2018-01-13T16:41:35Z</time>
      </trkpt>
      <trkpt lat="62.634970250115" lon="17.987886892489">
        <ele>93.8</ele>
        <time>2018-01-13T16:41:36Z</time>
      </trkpt>
      <trkpt lat="62.6349547436" lon="17.987914301302">
        <ele>94</ele>
        <time>2018-01-13T16:41:37Z</time>
      </trkpt>
      <trkpt lat="62.634936219601" lon="17.987934417862">
        <ele>94</ele>
        <time>2018-01-13T16:41:38Z</time>
      </trkpt>
      <trkpt lat="62.634912498824" lon="17.987959312105">
        <ele>94.2</ele>
        <time>2018-01-13T16:41:39Z</time>
      </trkpt>
      <trkpt lat="62.634889197142" lon="17.987974902439">
        <ele>94.4</ele>
        <time>2018-01-13T16:41:40Z</time>
      </trkpt>
      <trkpt lat="62.634866314555" lon="17.987998874673">
        <ele>94.4</ele>
        <time>2018-01-13T16:41:41Z</time>
      </trkpt>
      <trkpt lat="62.634848964022" lon="17.988029720065">
        <ele>94.6</ele>
        <time>2018-01-13T16:41:42Z</time>
      </trkpt>
      <trkpt lat="62.634824572693" lon="17.988042963467">
        <ele>94.6</ele>
        <time>2018-01-13T16:41:43Z</time>
      </trkpt>
      <trkpt lat="62.634801690106" lon="17.988056542145">
        <ele>94.8</ele>
        <time>2018-01-13T16:41:44Z</time>
      </trkpt>
      <trkpt lat="62.634784507211" lon="17.988072719212">
        <ele>95</ele>
        <time>2018-01-13T16:41:45Z</time>
      </trkpt>
      <trkpt lat="62.634759026235" lon="17.988076491067">
        <ele>95</ele>
        <time>2018-01-13T16:41:46Z</time>
      </trkpt>
      <trkpt lat="62.634735054001" lon="17.98808126875">
        <ele>95</ele>
        <time>2018-01-13T16:41:47Z</time>
      </trkpt>
      <trkpt lat="62.634720637133" lon="17.988084118596">
        <ele>95.2</ele>
        <time>2018-01-13T16:41:48Z</time>
      </trkpt>
      <trkpt lat="62.634693731234" lon="17.988085543519">
        <ele>95.2</ele>
        <time>2018-01-13T16:41:49Z</time>
      </trkpt>
      <trkpt lat="62.634665232774" lon="17.988086968442">
        <ele>95.4</ele>
        <time>2018-01-13T16:41:50Z</time>
      </trkpt>
      <trkpt lat="62.63464293692" lon="17.98809132703">
        <ele>95.4</ele>
        <time>2018-01-13T16:41:51Z</time>
      </trkpt>
      <trkpt lat="62.634614773736" lon="17.988092919591">
        <ele>95.4</ele>
        <time>2018-01-13T16:41:52Z</time>
      </trkpt>
      <trkpt lat="62.63459851285" lon="17.988099792749">
        <ele>95.4</ele>
        <time>2018-01-13T16:41:53Z</time>
      </trkpt>
      <trkpt lat="62.634575294987" lon="17.988105492441">
        <ele>95.6</ele>
        <time>2018-01-13T16:41:54Z</time>
      </trkpt>
      <trkpt lat="62.634553166771" lon="17.988113287608">
        <ele>95.6</ele>
        <time>2018-01-13T16:41:55Z</time>
      </trkpt>
      <trkpt lat="62.634536235333" lon="17.988120496042">
        <ele>95.8</ele>
        <time>2018-01-13T16:41:56Z</time>
      </trkpt>
      <trkpt lat="62.634502875371" lon="17.988120496042">
        <ele>95.8</ele>
        <time>2018-01-13T16:41:57Z</time>
      </trkpt>
      <trkpt lat="62.634471694703" lon="17.988122256241">
        <ele>96</ele>
        <time>2018-01-13T16:41:58Z</time>
      </trkpt>
      <trkpt lat="62.634451159048" lon="17.988127201562">
        <ele>96</ele>
        <time>2018-01-13T16:41:59Z</time>
      </trkpt>
      <trkpt lat="62.634420732751" lon="17.98813239834">
        <ele>96</ele>
        <time>2018-01-13T16:42:00Z</time>
      </trkpt>
      <trkpt lat="62.63440572915" lon="17.988138433308">
        <ele>96.2</ele>
        <time>2018-01-13T16:42:01Z</time>
      </trkpt>
      <trkpt lat="62.634385193495" lon="17.988140696421">
        <ele>96.4</ele>
        <time>2018-01-13T16:42:02Z</time>
      </trkpt>
      <trkpt lat="62.634354515741" lon="17.988140193507">
        <ele>96.4</ele>
        <time>2018-01-13T16:42:03Z</time>
      </trkpt>
      <trkpt lat="62.634329537679" lon="17.988150084149">
        <ele>96.6</ele>
        <time>2018-01-13T16:42:04Z</time>
      </trkpt>
      <trkpt lat="62.634298608468" lon="17.988155700022">
        <ele>96.8</ele>
        <time>2018-01-13T16:42:05Z</time>
      </trkpt>
      <trkpt lat="62.634273546587" lon="17.988161567352">
        <ele>96.8</ele>
        <time>2018-01-13T16:42:06Z</time>
      </trkpt>
      <trkpt lat="62.634236917684" lon="17.988152850176">
        <ele>97</ele>
        <time>2018-01-13T16:42:07Z</time>
      </trkpt>
      <trkpt lat="62.634210263242" lon="17.988155448565">
        <ele>97</ele>
        <time>2018-01-13T16:42:08Z</time>
      </trkpt>
      <trkpt lat="62.634180758954" lon="17.988147988674">
        <ele>97</ele>
        <time>2018-01-13T16:42:09Z</time>
      </trkpt>
      <trkpt lat="62.634154188331" lon="17.988144049181">
        <ele>97</ele>
        <time>2018-01-13T16:42:10Z</time>
      </trkpt>
      <trkpt lat="62.634129210269" lon="17.988143546267">
        <ele>97</ele>
        <time>2018-01-13T16:42:11Z</time>
      </trkpt>
      <trkpt lat="62.634100711809" lon="17.988131476331">
        <ele>97.2</ele>
        <time>2018-01-13T16:42:12Z</time>
      </trkpt>
      <trkpt lat="62.634080930525" lon="17.988131057236">
        <ele>97</ele>
        <time>2018-01-13T16:42:13Z</time>
      </trkpt>
      <trkpt lat="62.634048576391" lon="17.988123429707">
        <ele>97</ele>
        <time>2018-01-13T16:42:14Z</time>
      </trkpt>
      <trkpt lat="62.634013204773" lon="17.988107085002">
        <ele>97</ele>
        <time>2018-01-13T16:42:15Z</time>
      </trkpt>
      <trkpt lat="62.633989232539" lon="17.988096859084">
        <ele>97.2</ele>
        <time>2018-01-13T16:42:16Z</time>
      </trkpt>
      <trkpt lat="62.63396484121" lon="17.988078921818">
        <ele>97.2</ele>
        <time>2018-01-13T16:42:17Z</time>
      </trkpt>
      <trkpt lat="62.633932570895" lon="17.988052937928">
        <ele>97.2</ele>
        <time>2018-01-13T16:42:18Z</time>
      </trkpt>
      <trkpt lat="62.633910694136" lon="17.988040448897">
        <ele>97.4</ele>
        <time>2018-01-13T16:42:19Z</time>
      </trkpt>
      <trkpt lat="62.633886135169" lon="17.988018991233">
        <ele>97.6</ele>
        <time>2018-01-13T16:42:20Z</time>
      </trkpt>
      <trkpt lat="62.633857469071" lon="17.987995689551">
        <ele>97.8</ele>
        <time>2018-01-13T16:42:21Z</time>
      </trkpt>
      <trkpt lat="62.63383073081" lon="17.987987056194">
        <ele>97.8</ele>
        <time>2018-01-13T16:42:22Z</time>
      </trkpt>
      <trkpt lat="62.633806088024" lon="17.987965095616">
        <ele>97.8</ele>
        <time>2018-01-13T16:42:23Z</time>
      </trkpt>
      <trkpt lat="62.633782702523" lon="17.987945146694">
        <ele>98</ele>
        <time>2018-01-13T16:42:24Z</time>
      </trkpt>
      <trkpt lat="62.633761580135" lon="17.987928634351">
        <ele>98.2</ele>
        <time>2018-01-13T16:42:25Z</time>
      </trkpt>
      <trkpt lat="62.633738446091" lon="17.98789938152">
        <ele>98</ele>
        <time>2018-01-13T16:42:26Z</time>
      </trkpt>
      <trkpt lat="62.633708941803" lon="17.987864345178">
        <ele>98.2</ele>
        <time>2018-01-13T16:42:27Z</time>
      </trkpt>
      <trkpt lat="62.633687232682" lon="17.987850515043">
        <ele>98.2</ele>
        <time>2018-01-13T16:42:28Z</time>
      </trkpt>
      <trkpt lat="62.633658818041" lon="17.987821346031">
        <ele>98.2</ele>
        <time>2018-01-13T16:42:29Z</time>
      </trkpt>
      <trkpt lat="62.633630822495" lon="17.987792428476">
        <ele>98.2</ele>
        <time>2018-01-13T16:42:30Z</time>
      </trkpt>
      <trkpt lat="62.633609364831" lon="17.987767031319">
        <ele>98.4</ele>
        <time>2018-01-13T16:42:31Z</time>
      </trkpt>
      <trkpt lat="62.633593606859" lon="17.987746998578">
        <ele>98.6</ele>
        <time>2018-01-13T16:42:32Z</time>
      </trkpt>
      <trkpt lat="62.633573909394" lon="17.987725289457">
        <ele>98.6</ele>
        <time>2018-01-13T16:42:33Z</time>
      </trkpt>
      <trkpt lat="62.633558821974" lon="17.987704418526">
        <ele>98.8</ele>
        <time>2018-01-13T16:42:34Z</time>
      </trkpt>
      <trkpt lat="62.633541806717" lon="17.987683379957">
        <ele>99</ele>
        <time>2018-01-13T16:42:35Z</time>
      </trkpt>
      <trkpt lat="62.633515822827" lon="17.987650690547">
        <ele>99.2</ele>
        <time>2018-01-13T16:42:36Z</time>
      </trkpt>
      <trkpt lat="62.633497047371" lon="17.987625628666">
        <ele>99.4</ele>
        <time>2018-01-13T16:42:37Z</time>
      </trkpt>
      <trkpt lat="62.633477769001" lon="17.987593274532">
        <ele>99.4</ele>
        <time>2018-01-13T16:42:38Z</time>
      </trkpt>
      <trkpt lat="62.633451366016" lon="17.987554969249">
        <ele>99.8</ele>
        <time>2018-01-13T16:42:39Z</time>
      </trkpt>
      <trkpt lat="62.633438793166" lon="17.987537451078">
        <ele>100</ele>
        <time>2018-01-13T16:42:40Z</time>
      </trkpt>
      <trkpt lat="62.633418844244" lon="17.98750291765">
        <ele>100</ele>
        <time>2018-01-13T16:42:41Z</time>
      </trkpt>
      <trkpt lat="62.633401493711" lon="17.987473832457">
        <ele>100</ele>
        <time>2018-01-13T16:42:42Z</time>
      </trkpt>
      <trkpt lat="62.633387160662" lon="17.987443238522">
        <ele>100.2</ele>
        <time>2018-01-13T16:42:43Z</time>
      </trkpt>
      <trkpt lat="62.633375258364" lon="17.987419853021">
        <ele>100.2</ele>
        <time>2018-01-13T16:42:44Z</time>
      </trkpt>
      <trkpt lat="62.633354471252" lon="17.987388588534">
        <ele>100.4</ele>
        <time>2018-01-13T16:42:45Z</time>
      </trkpt>
      <trkpt lat="62.633333851778" lon="17.987352294907">
        <ele>100.8</ele>
        <time>2018-01-13T16:42:46Z</time>
      </trkpt>
      <trkpt lat="62.633313399942" lon="17.987309211941">
        <ele>101</ele>
        <time>2018-01-13T16:42:47Z</time>
      </trkpt>
      <trkpt lat="62.633289427708" lon="17.987251712107">
        <ele>101.2</ele>
        <time>2018-01-13T16:42:48Z</time>
      </trkpt>
      <trkpt lat="62.633269730243" lon="17.987195553377">
        <ele>101.4</ele>
        <time>2018-01-13T16:42:49Z</time>
      </trkpt>
      <trkpt lat="62.633252295891" lon="17.987123720494">
        <ele>101</ele>
        <time>2018-01-13T16:42:50Z</time>
      </trkpt>
      <trkpt lat="62.633232095512" lon="17.987019617296">
        <ele>100.8</ele>
        <time>2018-01-13T16:42:51Z</time>
      </trkpt>
      <trkpt lat="62.633214493522" lon="17.986910904053">
        <ele>100.4</ele>
        <time>2018-01-13T16:42:52Z</time>
      </trkpt>
      <trkpt lat="62.633196723894" lon="17.986812081452">
        <ele>99.6</ele>
        <time>2018-01-13T16:42:53Z</time>
      </trkpt>
      <trkpt lat="62.633183061397" lon="17.986716024878">
        <ele>98.8</ele>
        <time>2018-01-13T16:42:54Z</time>
      </trkpt>
      <trkpt lat="62.633173086936" lon="17.98662030358">
        <ele>98.2</ele>
        <time>2018-01-13T16:42:55Z</time>
      </trkpt>
      <trkpt lat="62.633165627045" lon="17.986539585883">
        <ele>97.8</ele>
        <time>2018-01-13T16:42:56Z</time>
      </trkpt>
      <trkpt lat="62.633157412783" lon="17.986433135753">
        <ele>97.8</ele>
        <time>2018-01-13T16:42:57Z</time>
      </trkpt>
      <trkpt lat="62.633152886557" lon="17.986344958165">
        <ele>97.6</ele>
        <time>2018-01-13T16:42:58Z</time>
      </trkpt>
      <trkpt lat="62.633147354503" lon="17.986237753664">
        <ele>97.8</ele>
        <time>2018-01-13T16:42:59Z</time>
      </trkpt>
      <trkpt lat="62.633139726974" lon="17.986147145325">
        <ele>98</ele>
        <time>2018-01-13T16:43:00Z</time>
      </trkpt>
      <trkpt lat="62.633141068078" lon="17.986036755702">
        <ele>98.2</ele>
        <time>2018-01-13T16:43:01Z</time>
      </trkpt>
      <trkpt lat="62.633138469689" lon="17.985931395219">
        <ele>97.8</ele>
        <time>2018-01-13T16:43:02Z</time>
      </trkpt>
      <trkpt lat="62.633136206576" lon="17.985811031135">
        <ele>97</ele>
        <time>2018-01-13T16:43:03Z</time>
      </trkpt>
      <trkpt lat="62.633138469689" lon="17.985716399484">
        <ele>96.4</ele>
        <time>2018-01-13T16:43:04Z</time>
      </trkpt>
      <trkpt lat="62.633147941236" lon="17.98562201929">
        <ele>95.8</ele>
        <time>2018-01-13T16:43:05Z</time>
      </trkpt>
      <trkpt lat="62.633156742231" lon="17.985541133955">
        <ele>95.2</ele>
        <time>2018-01-13T16:43:06Z</time>
      </trkpt>
      <trkpt lat="62.633157245145" lon="17.985441976078">
        <ele>95.2</ele>
        <time>2018-01-13T16:43:07Z</time>
      </trkpt>
      <trkpt lat="62.633163280113" lon="17.985351535377">
        <ele>95.2</ele>
        <time>2018-01-13T16:43:08Z</time>
      </trkpt>
      <trkpt lat="62.63316772252" lon="17.985242738315">
        <ele>95.6</ele>
        <time>2018-01-13T16:43:09Z</time>
      </trkpt>
      <trkpt lat="62.633179289542" lon="17.985107873544">
        <ele>95.4</ele>
        <time>2018-01-13T16:43:10Z</time>
      </trkpt>
      <trkpt lat="62.633194628419" lon="17.984990610763">
        <ele>95</ele>
        <time>2018-01-13T16:43:11Z</time>
      </trkpt>
      <trkpt lat="62.633206111622" lon="17.984854907802">
        <ele>94.2</ele>
        <time>2018-01-13T16:43:12Z</time>
      </trkpt>
      <trkpt lat="62.633230670589" lon="17.984746697473">
        <ele>93.4</ele>
        <time>2018-01-13T16:43:13Z</time>
      </trkpt>
      <trkpt lat="62.633249529864" lon="17.984649383614">
        <ele>92.8</ele>
        <time>2018-01-13T16:43:14Z</time>
      </trkpt>
      <trkpt lat="62.633270065519" lon="17.984551483022">
        <ele>92</ele>
        <time>2018-01-13T16:43:15Z</time>
      </trkpt>
      <trkpt lat="62.633295043581" lon="17.98447705175">
        <ele>91.8</ele>
        <time>2018-01-13T16:43:16Z</time>
      </trkpt>
      <trkpt lat="62.633318512901" lon="17.984402871935">
        <ele>91.6</ele>
        <time>2018-01-13T16:43:17Z</time>
      </trkpt>
      <trkpt lat="62.63333452233" lon="17.984336906382">
        <ele>91.4</ele>
        <time>2018-01-13T16:43:18Z</time>
      </trkpt>
      <trkpt lat="62.633342820411" lon="17.984261385463">
        <ele>91.6</ele>
        <time>2018-01-13T16:43:19Z</time>
      </trkpt>
      <trkpt lat="62.633342317497" lon="17.984193156797">
        <ele>92</ele>
        <time>2018-01-13T16:43:20Z</time>
      </trkpt>
      <trkpt lat="62.633350531759" lon="17.984124844312">
        <ele>92.2</ele>
        <time>2018-01-13T16:43:21Z</time>
      </trkpt>
      <trkpt lat="62.63336385898" lon="17.984052257058">
        <ele>92.4</ele>
        <time>2018-01-13T16:43:22Z</time>
      </trkpt>
      <trkpt lat="62.633375174545" lon="17.983997355613">
        <ele>92.6</ele>
        <time>2018-01-13T16:43:23Z</time>
      </trkpt>
      <trkpt lat="62.633387915033" lon="17.983934910458">
        <ele>92.8</ele>
        <time>2018-01-13T16:43:24Z</time>
      </trkpt>
      <trkpt lat="62.633399146779" lon="17.983880679565">
        <ele>92.8</ele>
        <time>2018-01-13T16:43:25Z</time>
      </trkpt>
      <trkpt lat="62.633397470399" lon="17.983833489468">
        <ele>92.8</ele>
        <time>2018-01-13T16:43:26Z</time>
      </trkpt>
      <trkpt lat="62.633410210887" lon="17.983754029056">
        <ele>93</ele>
        <time>2018-01-13T16:43:27Z</time>
      </trkpt>
      <trkpt lat="62.633424292479" lon="17.983715388497">
        <ele>93</ele>
        <time>2018-01-13T16:43:28Z</time>
      </trkpt>
      <trkpt lat="62.633435775682" lon="17.983652440428">
        <ele>93.2</ele>
        <time>2018-01-13T16:43:29Z</time>
      </trkpt>
      <trkpt lat="62.633450024912" lon="17.983594856775">
        <ele>93</ele>
        <time>2018-01-13T16:43:30Z</time>
      </trkpt>
      <trkpt lat="62.633458322993" lon="17.983547163764">
        <ele>93.2</ele>
        <time>2018-01-13T16:43:31Z</time>
      </trkpt>
      <trkpt lat="62.633462933038" lon="17.983480862935">
        <ele>93.2</ele>
        <time>2018-01-13T16:43:32Z</time>
      </trkpt>
      <trkpt lat="62.633478607191" lon="17.983413137183">
        <ele>93.2</ele>
        <time>2018-01-13T16:43:33Z</time>
      </trkpt>
      <trkpt lat="62.633491347679" lon="17.98335303896">
        <ele>93.2</ele>
        <time>2018-01-13T16:43:34Z</time>
      </trkpt>
      <trkpt lat="62.633506518918" lon="17.983286067579">
        <ele>93.4</ele>
        <time>2018-01-13T16:43:35Z</time>
      </trkpt>
      <trkpt lat="62.633515906646" lon="17.983226723727">
        <ele>93.2</ele>
        <time>2018-01-13T16:43:36Z</time>
      </trkpt>
      <trkpt lat="62.633533760093" lon="17.983165116762">
        <ele>93.2</ele>
        <time>2018-01-13T16:43:37Z</time>
      </trkpt>
      <trkpt lat="62.633553373739" lon="17.983114825362">
        <ele>93.2</ele>
        <time>2018-01-13T16:43:38Z</time>
      </trkpt>
      <trkpt lat="62.633573993213" lon="17.983061935573">
        <ele>93.2</ele>
        <time>2018-01-13T16:43:39Z</time>
      </trkpt>
      <trkpt lat="62.633595953791" lon="17.98299429364">
        <ele>93.2</ele>
        <time>2018-01-13T16:43:40Z</time>
      </trkpt>
      <trkpt lat="62.633611711763" lon="17.982936877625">
        <ele>93.2</ele>
        <time>2018-01-13T16:43:41Z</time>
      </trkpt>
      <trkpt lat="62.633626883002" lon="17.982879293972">
        <ele>93.2</ele>
        <time>2018-01-13T16:43:42Z</time>
      </trkpt>
      <trkpt lat="62.633637360377" lon="17.982806203804">
        <ele>93.2</ele>
        <time>2018-01-13T16:43:43Z</time>
      </trkpt>
      <trkpt lat="62.633648256847" lon="17.98274535121">
        <ele>93.4</ele>
        <time>2018-01-13T16:43:44Z</time>
      </trkpt>
      <trkpt lat="62.633665523561" lon="17.982693634887">
        <ele>93.4</ele>
        <time>2018-01-13T16:43:45Z</time>
      </trkpt>
      <trkpt lat="62.633675581841" lon="17.982651809206">
        <ele>93.4</ele>
        <time>2018-01-13T16:43:46Z</time>
      </trkpt>
      <trkpt lat="62.633687484139" lon="17.982598584141">
        <ele>93.2</ele>
        <time>2018-01-13T16:43:47Z</time>
      </trkpt>
      <trkpt lat="62.633696955686" lon="17.982528176181">
        <ele>93.2</ele>
        <time>2018-01-13T16:43:48Z</time>
      </trkpt>
      <trkpt lat="62.633701398093" lon="17.982453577271">
        <ele>93.2</ele>
        <time>2018-01-13T16:43:49Z</time>
      </trkpt>
      <trkpt lat="62.633705672862" lon="17.982404878432">
        <ele>93</ele>
        <time>2018-01-13T16:43:50Z</time>
      </trkpt>
      <trkpt lat="62.633716569332" lon="17.982320556518">
        <ele>93</ele>
        <time>2018-01-13T16:43:51Z</time>
      </trkpt>
      <trkpt lat="62.633726459974" lon="17.982256434983">
        <ele>92.8</ele>
        <time>2018-01-13T16:43:52Z</time>
      </trkpt>
      <trkpt lat="62.633735260969" lon="17.982187032851">
        <ele>92.8</ele>
        <time>2018-01-13T16:43:53Z</time>
      </trkpt>
      <trkpt lat="62.633740373928" lon="17.982118217452">
        <ele>92.8</ele>
        <time>2018-01-13T16:43:54Z</time>
      </trkpt>
      <trkpt lat="62.633747917638" lon="17.982073458106">
        <ele>92.8</ele>
        <time>2018-01-13T16:43:55Z</time>
      </trkpt>
      <trkpt lat="62.633753114416" lon="17.982011432046">
        <ele>93</ele>
        <time>2018-01-13T16:43:56Z</time>
      </trkpt>
      <trkpt lat="62.633760658126" lon="17.981941359362">
        <ele>93.2</ele>
        <time>2018-01-13T16:43:57Z</time>
      </trkpt>
      <trkpt lat="62.633765184352" lon="17.981879752397">
        <ele>93.4</ele>
        <time>2018-01-13T16:43:58Z</time>
      </trkpt>
      <trkpt lat="62.633769459121" lon="17.981815547043">
        <ele>93.6</ele>
        <time>2018-01-13T16:43:59Z</time>
      </trkpt>
      <trkpt lat="62.633773147157" lon="17.981764836548">
        <ele>93.6</ele>
        <time>2018-01-13T16:44:00Z</time>
      </trkpt>
      <trkpt lat="62.633776416098" lon="17.981703648678">
        <ele>93.6</ele>
        <time>2018-01-13T16:44:01Z</time>
      </trkpt>
      <trkpt lat="62.633779349763" lon="17.981657129133">
        <ele>93.6</ele>
        <time>2018-01-13T16:44:02Z</time>
      </trkpt>
      <trkpt lat="62.633790330052" lon="17.981564844414">
        <ele>93.6</ele>
        <time>2018-01-13T16:44:03Z</time>
      </trkpt>
      <trkpt lat="62.633804830739" lon="17.98149477173">
        <ele>93.6</ele>
        <time>2018-01-13T16:44:04Z</time>
      </trkpt>
      <trkpt lat="62.633816900675" lon="17.981429895824">
        <ele>93.4</ele>
        <time>2018-01-13T16:44:05Z</time>
      </trkpt>
      <trkpt lat="62.633827461869" lon="17.981375413474">
        <ele>93.6</ele>
        <time>2018-01-13T16:44:06Z</time>
      </trkpt>
      <trkpt lat="62.633838777434" lon="17.981311124301">
        <ele>93.6</ele>
        <time>2018-01-13T16:44:07Z</time>
      </trkpt>
      <trkpt lat="62.633849087171" lon="17.981279608357">
        <ele>93.6</ele>
        <time>2018-01-13T16:44:08Z</time>
      </trkpt>
      <trkpt lat="62.63386174384" lon="17.981226802387">
        <ele>93.6</ele>
        <time>2018-01-13T16:44:09Z</time>
      </trkpt>
      <trkpt lat="62.633877334174" lon="17.981173996417">
        <ele>93.6</ele>
        <time>2018-01-13T16:44:10Z</time>
      </trkpt>
      <trkpt lat="62.6338902423" lon="17.981132254555">
        <ele>93.6</ele>
        <time>2018-01-13T16:44:11Z</time>
      </trkpt>
      <trkpt lat="62.633906419367" lon="17.981084393906">
        <ele>93.8</ele>
        <time>2018-01-13T16:44:12Z</time>
      </trkpt>
      <trkpt lat="62.633924691909" lon="17.981039550741">
        <ele>93.8</ele>
        <time>2018-01-13T16:44:13Z</time>
      </trkpt>
      <trkpt lat="62.633942377718" lon="17.980983643468">
        <ele>94</ele>
        <time>2018-01-13T16:44:14Z</time>
      </trkpt>
      <trkpt lat="62.633956962224" lon="17.980929999308">
        <ele>94.2</ele>
        <time>2018-01-13T16:44:15Z</time>
      </trkpt>
      <trkpt lat="62.633969451255" lon="17.980878785899">
        <ele>94.2</ele>
        <time>2018-01-13T16:44:16Z</time>
      </trkpt>
      <trkpt lat="62.633988981082" lon="17.980821369884">
        <ele>94.2</ele>
        <time>2018-01-13T16:44:17Z</time>
      </trkpt>
      <trkpt lat="62.634006247796" lon="17.980776191443">
        <ele>94.4</ele>
        <time>2018-01-13T16:44:18Z</time>
      </trkpt>
      <trkpt lat="62.634022257225" lon="17.980725648586">
        <ele>94.4</ele>
        <time>2018-01-13T16:44:19Z</time>
      </trkpt>
      <trkpt lat="62.634036757912" lon="17.980671920607">
        <ele>94.4</ele>
        <time>2018-01-13T16:44:20Z</time>
      </trkpt>
      <trkpt lat="62.634053270255" lon="17.980609726909">
        <ele>94.4</ele>
        <time>2018-01-13T16:44:21Z</time>
      </trkpt>
      <trkpt lat="62.634068357675" lon="17.980555328378">
        <ele>94.6</ele>
        <time>2018-01-13T16:44:22Z</time>
      </trkpt>
      <trkpt lat="62.634086714036" lon="17.98050151658">
        <ele>94.6</ele>
        <time>2018-01-13T16:44:23Z</time>
      </trkpt>
      <trkpt lat="62.63411152446" lon="17.980465390591">
        <ele>94.8</ele>
        <time>2018-01-13T16:44:24Z</time>
      </trkpt>
      <trkpt lat="62.634127198613" lon="17.980424486919">
        <ele>94.8</ele>
        <time>2018-01-13T16:44:25Z</time>
      </trkpt>
      <trkpt lat="62.634147315173" lon="17.980379308478">
        <ele>95</ele>
        <time>2018-01-13T16:44:26Z</time>
      </trkpt>
      <trkpt lat="62.634171371226" lon="17.980327256879">
        <ele>95</ele>
        <time>2018-01-13T16:44:27Z</time>
      </trkpt>
      <trkpt lat="62.634192325976" lon="17.980284173913">
        <ele>95</ele>
        <time>2018-01-13T16:44:28Z</time>
      </trkpt>
      <trkpt lat="62.634211185251" lon="17.980228937192">
        <ele>94.8</ele>
        <time>2018-01-13T16:44:29Z</time>
      </trkpt>
      <trkpt lat="62.634228284327" lon="17.980187782063">
        <ele>94.8</ele>
        <time>2018-01-13T16:44:30Z</time>
      </trkpt>
      <trkpt lat="62.634249406715" lon="17.980134976093">
        <ele>94.8</ele>
        <time>2018-01-13T16:44:31Z</time>
      </trkpt>
      <trkpt lat="62.634270193827" lon="17.980091557851">
        <ele>94.8</ele>
        <time>2018-01-13T16:44:32Z</time>
      </trkpt>
      <trkpt lat="62.634291651491" lon="17.980042523736">
        <ele>94.8</ele>
        <time>2018-01-13T16:44:33Z</time>
      </trkpt>
      <trkpt lat="62.634312941517" lon="17.979997512933">
        <ele>94.8</ele>
        <time>2018-01-13T16:44:34Z</time>
      </trkpt>
      <trkpt lat="62.634337081389" lon="17.979975552355">
        <ele>94.8</ele>
        <time>2018-01-13T16:44:35Z</time>
      </trkpt>
      <trkpt lat="62.634351162981" lon="17.97991478358">
        <ele>94.8</ele>
        <time>2018-01-13T16:44:36Z</time>
      </trkpt>
      <trkpt lat="62.634357197949" lon="17.979857451384">
        <ele>94.8</ele>
        <time>2018-01-13T16:44:37Z</time>
      </trkpt>
      <trkpt lat="62.634371614817" lon="17.979805902699">
        <ele>94.8</ele>
        <time>2018-01-13T16:44:38Z</time>
      </trkpt>
      <trkpt lat="62.634387540427" lon="17.979747229399">
        <ele>94.6</ele>
        <time>2018-01-13T16:44:39Z</time>
      </trkpt>
      <trkpt lat="62.634400951467" lon="17.979696099809">
        <ele>94.8</ele>
        <time>2018-01-13T16:44:40Z</time>
      </trkpt>
      <trkpt lat="62.634417212353" lon="17.97964991554">
        <ele>94.8</ele>
        <time>2018-01-13T16:44:41Z</time>
      </trkpt>
      <trkpt lat="62.634427438271" lon="17.979598283036">
        <ele>94.8</ele>
        <time>2018-01-13T16:44:42Z</time>
      </trkpt>
      <trkpt lat="62.634439005293" lon="17.979531563112">
        <ele>94.8</ele>
        <time>2018-01-13T16:44:43Z</time>
      </trkpt>
      <trkpt lat="62.634446716641" lon="17.979476661667">
        <ele>94.8</ele>
        <time>2018-01-13T16:44:44Z</time>
      </trkpt>
      <trkpt lat="62.634457864568" lon="17.979418910376">
        <ele>94.8</ele>
        <time>2018-01-13T16:44:45Z</time>
      </trkpt>
      <trkpt lat="62.634468509581" lon="17.979366691139">
        <ele>94.8</ele>
        <time>2018-01-13T16:44:46Z</time>
      </trkpt>
      <trkpt lat="62.634479322232" lon="17.979318243757">
        <ele>94.8</ele>
        <time>2018-01-13T16:44:47Z</time>
      </trkpt>
      <trkpt lat="62.634486865942" lon="17.97925764262">
        <ele>94.6</ele>
        <time>2018-01-13T16:44:48Z</time>
      </trkpt>
      <trkpt lat="62.634495750756" lon="17.979219421156">
        <ele>94.6</ele>
        <time>2018-01-13T16:44:49Z</time>
      </trkpt>
      <trkpt lat="62.634505389941" lon="17.979167788652">
        <ele>94.6</ele>
        <time>2018-01-13T16:44:50Z</time>
      </trkpt>
      <trkpt lat="62.634519806809" lon="17.979131495025">
        <ele>94.6</ele>
        <time>2018-01-13T16:44:51Z</time>
      </trkpt>
      <trkpt lat="62.634526009415" lon="17.979074833381">
        <ele>94.6</ele>
        <time>2018-01-13T16:44:52Z</time>
      </trkpt>
      <trkpt lat="62.634549311097" lon="17.978967209785">
        <ele>94.6</ele>
        <time>2018-01-13T16:44:54Z</time>
      </trkpt>
      <trkpt lat="62.634558531187" lon="17.978922869534">
        <ele>94.6</ele>
        <time>2018-01-13T16:44:55Z</time>
      </trkpt>
      <trkpt lat="62.634575211168" lon="17.97889219178">
        <ele>94.6</ele>
        <time>2018-01-13T16:44:56Z</time>
      </trkpt>
      <trkpt lat="62.634591974968" lon="17.978869141555">
        <ele>94.8</ele>
        <time>2018-01-13T16:44:57Z</time>
      </trkpt>
      <trkpt lat="62.63461192389" lon="17.978848689719">
        <ele>94.8</ele>
        <time>2018-01-13T16:44:58Z</time>
      </trkpt>
      <trkpt lat="62.634630783165" lon="17.978828573159">
        <ele>95</ele>
        <time>2018-01-13T16:44:59Z</time>
      </trkpt>
      <trkpt lat="62.634646541137" lon="17.978816419404">
        <ele>95</ele>
        <time>2018-01-13T16:45:00Z</time>
      </trkpt>
      <trkpt lat="62.634666909154" lon="17.97880837278">
        <ele>95</ele>
        <time>2018-01-13T16:45:01Z</time>
      </trkpt>
      <trkpt lat="62.634685768429" lon="17.978811222626">
        <ele>95</ele>
        <time>2018-01-13T16:45:02Z</time>
      </trkpt>
      <trkpt lat="62.634712674328" lon="17.97882597477">
        <ele>94.8</ele>
        <time>2018-01-13T16:45:03Z</time>
      </trkpt>
      <trkpt lat="62.634735054001" lon="17.978840559276">
        <ele>95</ele>
        <time>2018-01-13T16:45:04Z</time>
      </trkpt>
      <trkpt lat="62.634763887737" lon="17.97885447323">
        <ele>95</ele>
        <time>2018-01-13T16:45:05Z</time>
      </trkpt>
      <trkpt lat="62.634789201075" lon="17.978866626985">
        <ele>95</ele>
        <time>2018-01-13T16:45:06Z</time>
      </trkpt>
      <trkpt lat="62.634819878829" lon="17.978862771311">
        <ele>94.8</ele>
        <time>2018-01-13T16:45:07Z</time>
      </trkpt>
      <trkpt lat="62.634848880203" lon="17.978875176523">
        <ele>94.8</ele>
        <time>2018-01-13T16:45:08Z</time>
      </trkpt>
      <trkpt lat="62.634882575441" lon="17.978883474604">
        <ele>94.4</ele>
        <time>2018-01-13T16:45:09Z</time>
      </trkpt>
      <trkpt lat="62.634908224055" lon="17.978894203436">
        <ele>94.4</ele>
        <time>2018-01-13T16:45:10Z</time>
      </trkpt>
      <trkpt lat="62.634935884325" lon="17.978906357191">
        <ele>94</ele>
        <time>2018-01-13T16:45:11Z</time>
      </trkpt>
      <trkpt lat="62.634959856559" lon="17.978914906729">
        <ele>94</ele>
        <time>2018-01-13T16:45:12Z</time>
      </trkpt>
      <trkpt lat="62.634987097734" lon="17.978923120991">
        <ele>93.8</ele>
        <time>2018-01-13T16:45:13Z</time>
      </trkpt>
      <trkpt lat="62.635004951181" lon="17.978927228122">
        <ele>93.8</ele>
        <time>2018-01-13T16:45:14Z</time>
      </trkpt>
      <trkpt lat="62.635028671958" lon="17.978940136248">
        <ele>93.6</ele>
        <time>2018-01-13T16:45:15Z</time>
      </trkpt>
      <trkpt lat="62.635045687215" lon="17.978945752121">
        <ele>93.6</ele>
        <time>2018-01-13T16:45:16Z</time>
      </trkpt>
      <trkpt lat="62.635064881766" lon="17.978951116537">
        <ele>93.6</ele>
        <time>2018-01-13T16:45:17Z</time>
      </trkpt>
      <trkpt lat="62.635089859828" lon="17.978962180645">
        <ele>93.6</ele>
        <time>2018-01-13T16:45:18Z</time>
      </trkpt>
      <trkpt lat="62.635112490958" lon="17.978971065459">
        <ele>93.6</ele>
        <time>2018-01-13T16:45:19Z</time>
      </trkpt>
      <trkpt lat="62.635132691337" lon="17.978976932789">
        <ele>93.6</ele>
        <time>2018-01-13T16:45:20Z</time>
      </trkpt>
      <trkpt lat="62.635156412114" lon="17.978985398508">
        <ele>93.6</ele>
        <time>2018-01-13T16:45:21Z</time>
      </trkpt>
      <trkpt lat="62.635182898918" lon="17.978995792064">
        <ele>93.6</ele>
        <time>2018-01-13T16:45:22Z</time>
      </trkpt>
      <trkpt lat="62.635208631351" lon="17.979004090145">
        <ele>93.6</ele>
        <time>2018-01-13T16:45:23Z</time>
      </trkpt>
      <trkpt lat="62.635235201974" lon="17.979012388226">
        <ele>93.6</ele>
        <time>2018-01-13T16:45:24Z</time>
      </trkpt>
      <trkpt lat="62.635256408181" lon="17.979007610543">
        <ele>93.4</ele>
        <time>2018-01-13T16:45:25Z</time>
      </trkpt>
      <trkpt lat="62.635283649356" lon="17.979011298579">
        <ele>93.2</ele>
        <time>2018-01-13T16:45:26Z</time>
      </trkpt>
      <trkpt lat="62.635308543599" lon="17.979008197276">
        <ele>93</ele>
        <time>2018-01-13T16:45:27Z</time>
      </trkpt>
      <trkpt lat="62.635337377335" lon="17.979010628027">
        <ele>92.8</ele>
        <time>2018-01-13T16:45:28Z</time>
      </trkpt>
      <trkpt lat="62.635359254094" lon="17.979004090145">
        <ele>92.8</ele>
        <time>2018-01-13T16:45:29Z</time>
      </trkpt>
      <trkpt lat="62.635386830545" lon="17.979003000498">
        <ele>92.6</ele>
        <time>2018-01-13T16:45:30Z</time>
      </trkpt>
      <trkpt lat="62.635408707304" lon="17.979000569747">
        <ele>92.6</ele>
        <time>2018-01-13T16:45:31Z</time>
      </trkpt>
      <trkpt lat="62.635434607375" lon="17.978999144824">
        <ele>92.4</ele>
        <time>2018-01-13T16:45:32Z</time>
      </trkpt>
      <trkpt lat="62.635466458595" lon="17.978989840915">
        <ele>92.4</ele>
        <time>2018-01-13T16:45:33Z</time>
      </trkpt>
      <trkpt lat="62.635495459969" lon="17.978986739612">
        <ele>92</ele>
        <time>2018-01-13T16:45:34Z</time>
      </trkpt>
      <trkpt lat="62.635524880438" lon="17.978979866454">
        <ele>91.6</ele>
        <time>2018-01-13T16:45:35Z</time>
      </trkpt>
      <trkpt lat="62.635554720002" lon="17.978970059631">
        <ele>91.2</ele>
        <time>2018-01-13T16:45:36Z</time>
      </trkpt>
      <trkpt lat="62.635592522371" lon="17.978962432102">
        <ele>91</ele>
        <time>2018-01-13T16:45:37Z</time>
      </trkpt>
      <trkpt lat="62.63562194284" lon="17.978955558944">
        <ele>90.8</ele>
        <time>2018-01-13T16:45:38Z</time>
      </trkpt>
      <trkpt lat="62.63565798501" lon="17.97894667413">
        <ele>90.8</ele>
        <time>2018-01-13T16:45:39Z</time>
      </trkpt>
      <trkpt lat="62.635690339144" lon="17.978944578655">
        <ele>90.8</ele>
        <time>2018-01-13T16:45:40Z</time>
      </trkpt>
      <trkpt lat="62.635724369658" lon="17.978941393533">
        <ele>90.8</ele>
        <time>2018-01-13T16:45:41Z</time>
      </trkpt>
      <trkpt lat="62.635759406" lon="17.978944746293">
        <ele>90.8</ele>
        <time>2018-01-13T16:45:42Z</time>
      </trkpt>
      <trkpt lat="62.635788155917" lon="17.9789491887">
        <ele>90.8</ele>
        <time>2018-01-13T16:45:43Z</time>
      </trkpt>
      <trkpt lat="62.635815061816" lon="17.978954553116">
        <ele>90.8</ele>
        <time>2018-01-13T16:45:44Z</time>
      </trkpt>
      <trkpt lat="62.635843225" lon="17.978961845369">
        <ele>90.6</ele>
        <time>2018-01-13T16:45:45Z</time>
      </trkpt>
      <trkpt lat="62.635862335732" lon="17.978962180645">
        <ele>90.6</ele>
        <time>2018-01-13T16:45:46Z</time>
      </trkpt>
      <trkpt lat="62.635890247459" lon="17.978968383251">
        <ele>90.4</ele>
        <time>2018-01-13T16:45:47Z</time>
      </trkpt>
      <trkpt lat="62.635910783114" lon="17.97897684897">
        <ele>90.4</ele>
        <time>2018-01-13T16:45:48Z</time>
      </trkpt>
      <trkpt lat="62.635929642389" lon="17.978984979413">
        <ele>90.2</ele>
        <time>2018-01-13T16:45:49Z</time>
      </trkpt>
      <trkpt lat="62.635944143076" lon="17.978990679105">
        <ele>90.2</ele>
        <time>2018-01-13T16:45:50Z</time>
      </trkpt>
      <trkpt lat="62.635962164161" lon="17.978999061005">
        <ele>90.2</ele>
        <time>2018-01-13T16:45:51Z</time>
      </trkpt>
      <trkpt lat="62.635983454187" lon="17.97900283286">
        <ele>90.4</ele>
        <time>2018-01-13T16:45:52Z</time>
      </trkpt>
      <trkpt lat="62.636001056177" lon="17.979013477873">
        <ele>90.6</ele>
        <time>2018-01-13T16:45:53Z</time>
      </trkpt>
      <trkpt lat="62.636017233244" lon="17.979038455935">
        <ele>90.6</ele>
        <time>2018-01-13T16:45:54Z</time>
      </trkpt>
      <trkpt lat="62.636024609316" lon="17.979070390974">
        <ele>90.8</ele>
        <time>2018-01-13T16:45:55Z</time>
      </trkpt>
      <trkpt lat="62.636027375343" lon="17.979096207226">
        <ele>91</ele>
        <time>2018-01-13T16:45:56Z</time>
      </trkpt>
      <trkpt lat="62.636026453334" lon="17.979133758138">
        <ele>90.8</ele>
        <time>2018-01-13T16:45:57Z</time>
      </trkpt>
      <trkpt lat="62.636025782782" lon="17.979177344018">
        <ele>90.8</ele>
        <time>2018-01-13T16:45:58Z</time>
      </trkpt>
      <trkpt lat="62.636023771126" lon="17.979212883274">
        <ele>90.8</ele>
        <time>2018-01-13T16:45:59Z</time>
      </trkpt>
      <trkpt lat="62.636016395054" lon="17.979259989552">
        <ele>90.8</ele>
        <time>2018-01-13T16:46:00Z</time>
      </trkpt>
      <trkpt lat="62.636009102801" lon="17.97931128678">
        <ele>90.8</ele>
        <time>2018-01-13T16:46:01Z</time>
      </trkpt>
      <trkpt lat="62.635999044521" lon="17.979448582302">
        <ele>90.8</ele>
        <time>2018-01-13T16:46:03Z</time>
      </trkpt>
      <trkpt lat="62.635998206331" lon="17.979533155673">
        <ele>90.6</ele>
        <time>2018-01-13T16:46:04Z</time>
      </trkpt>
      <trkpt lat="62.636000050349" lon="17.979659219449">
        <ele>90.6</ele>
        <time>2018-01-13T16:46:05Z</time>
      </trkpt>
      <trkpt lat="62.635997787236" lon="17.979789809451">
        <ele>90.4</ele>
        <time>2018-01-13T16:46:06Z</time>
      </trkpt>
      <trkpt lat="62.635997787236" lon="17.979938336719">
        <ele>90.2</ele>
        <time>2018-01-13T16:46:07Z</time>
      </trkpt>
      <trkpt lat="62.636002900195" lon="17.980068842902">
        <ele>89.4</ele>
        <time>2018-01-13T16:46:08Z</time>
      </trkpt>
      <trkpt lat="62.636016227416" lon="17.980214604143">
        <ele>88</ele>
        <time>2018-01-13T16:46:09Z</time>
      </trkpt>
      <trkpt lat="62.636032991216" lon="17.980339494453">
        <ele>87</ele>
        <time>2018-01-13T16:46:10Z</time>
      </trkpt>
      <trkpt lat="62.636053526871" lon="17.980465725867">
        <ele>85.8</ele>
        <time>2018-01-13T16:46:11Z</time>
      </trkpt>
      <trkpt lat="62.636072469965" lon="17.980577037499">
        <ele>84.8</ele>
        <time>2018-01-13T16:46:12Z</time>
      </trkpt>
      <trkpt lat="62.636092837982" lon="17.980701508714">
        <ele>84.4</ele>
        <time>2018-01-13T16:46:13Z</time>
      </trkpt>
      <trkpt lat="62.636108595954" lon="17.980800331315">
        <ele>84</ele>
        <time>2018-01-13T16:46:14Z</time>
      </trkpt>
      <trkpt lat="62.636127874324" lon="17.980907284359">
        <ele>83.8</ele>
        <time>2018-01-13T16:46:15Z</time>
      </trkpt>
      <trkpt lat="62.636145979228" lon="17.981007448064">
        <ele>83.6</ele>
        <time>2018-01-13T16:46:16Z</time>
      </trkpt>
      <trkpt lat="62.636159809363" lon="17.981101409163">
        <ele>83.4</ele>
        <time>2018-01-13T16:46:17Z</time>
      </trkpt>
      <trkpt lat="62.636172466032" lon="17.981202578696">
        <ele>83.4</ele>
        <time>2018-01-13T16:46:18Z</time>
      </trkpt>
      <trkpt lat="62.636191241488" lon="17.981282625841">
        <ele>83.4</ele>
        <time>2018-01-13T16:46:19Z</time>
      </trkpt>
      <trkpt lat="62.636202640872" lon="17.981355716009">
        <ele>83.4</ele>
        <time>2018-01-13T16:46:20Z</time>
      </trkpt>
      <trkpt lat="62.636214794627" lon="17.981451018212">
        <ele>83.4</ele>
        <time>2018-01-13T16:46:21Z</time>
      </trkpt>
      <trkpt lat="62.636231055513" lon="17.981539698714">
        <ele>83.6</ele>
        <time>2018-01-13T16:46:22Z</time>
      </trkpt>
      <trkpt lat="62.636244550372" lon="17.981625194094">
        <ele>83.4</ele>
        <time>2018-01-13T16:46:23Z</time>
      </trkpt>
      <trkpt lat="62.63625896724" lon="17.981708761637">
        <ele>83.6</ele>
        <time>2018-01-13T16:46:24Z</time>
      </trkpt>
      <trkpt lat="62.636278413248" lon="17.9817906528">
        <ele>83.4</ele>
        <time>2018-01-13T16:46:25Z</time>
      </trkpt>
      <trkpt lat="62.636285956958" lon="17.981873968886">
        <ele>83.4</ele>
        <time>2018-01-13T16:46:26Z</time>
      </trkpt>
      <trkpt lat="62.636297104885" lon="17.981969438727">
        <ele>83.2</ele>
        <time>2018-01-13T16:46:27Z</time>
      </trkpt>
      <trkpt lat="62.636311186477" lon="17.982045294922">
        <ele>83.2</ele>
        <time>2018-01-13T16:46:28Z</time>
      </trkpt>
      <trkpt lat="62.636316215617" lon="17.982136741451">
        <ele>83.2</ele>
        <time>2018-01-13T16:46:29Z</time>
      </trkpt>
      <trkpt lat="62.636319819834" lon="17.982216201863">
        <ele>83.2</ele>
        <time>2018-01-13T16:46:30Z</time>
      </trkpt>
      <trkpt lat="62.636324932793" lon="17.982274036973">
        <ele>83.2</ele>
        <time>2018-01-13T16:46:31Z</time>
      </trkpt>
      <trkpt lat="62.636323675508" lon="17.982347127141">
        <ele>83.2</ele>
        <time>2018-01-13T16:46:32Z</time>
      </trkpt>
      <trkpt lat="62.636321244757" lon="17.982434298901">
        <ele>83.2</ele>
        <time>2018-01-13T16:46:33Z</time>
      </trkpt>
      <trkpt lat="62.636316969988" lon="17.982506550879">
        <ele>83.4</ele>
        <time>2018-01-13T16:46:34Z</time>
      </trkpt>
      <trkpt lat="62.63631512597" lon="17.982586681843">
        <ele>83.4</ele>
        <time>2018-01-13T16:46:35Z</time>
      </trkpt>
      <trkpt lat="62.636314958332" lon="17.982660610201">
        <ele>83.4</ele>
        <time>2018-01-13T16:46:36Z</time>
      </trkpt>
      <trkpt lat="62.63631177321" lon="17.982749123065">
        <ele>83.2</ele>
        <time>2018-01-13T16:46:37Z</time>
      </trkpt>
      <trkpt lat="62.636303642767" lon="17.982814753342">
        <ele>83.4</ele>
        <time>2018-01-13T16:46:38Z</time>
      </trkpt>
      <trkpt lat="62.636295512324" lon="17.982870409158">
        <ele>83.2</ele>
        <time>2018-01-13T16:46:39Z</time>
      </trkpt>
      <trkpt lat="62.636291321374" lon="17.982934614512">
        <ele>83.4</ele>
        <time>2018-01-13T16:46:40Z</time>
      </trkpt>
      <trkpt lat="62.636292243383" lon="17.98300435192">
        <ele>83.4</ele>
        <time>2018-01-13T16:46:41Z</time>
      </trkpt>
      <trkpt lat="62.636293584487" lon="17.983063276677">
        <ele>83.4</ele>
        <time>2018-01-13T16:46:42Z</time>
      </trkpt>
      <trkpt lat="62.636290567003" lon="17.98314432965">
        <ele>83.4</ele>
        <time>2018-01-13T16:46:43Z</time>
      </trkpt>
      <trkpt lat="62.636290902279" lon="17.983217671275">
        <ele>83.4</ele>
        <time>2018-01-13T16:46:44Z</time>
      </trkpt>
      <trkpt lat="62.636290734641" lon="17.98328766014">
        <ele>83.4</ele>
        <time>2018-01-13T16:46:45Z</time>
      </trkpt>
      <trkpt lat="62.636289728813" lon="17.983355721168">
        <ele>83.6</ele>
        <time>2018-01-13T16:46:46Z</time>
      </trkpt>
      <trkpt lat="62.636291321374" lon="17.983436438865">
        <ele>83.4</ele>
        <time>2018-01-13T16:46:47Z</time>
      </trkpt>
      <trkpt lat="62.636287381881" lon="17.983494525432">
        <ele>83.4</ele>
        <time>2018-01-13T16:46:48Z</time>
      </trkpt>
      <trkpt lat="62.636273551746" lon="17.983557724958">
        <ele>83.4</ele>
        <time>2018-01-13T16:46:49Z</time>
      </trkpt>
      <trkpt lat="62.636263912561" lon="17.983608351634">
        <ele>83.6</ele>
        <time>2018-01-13T16:46:50Z</time>
      </trkpt>
      <trkpt lat="62.636257626136" lon="17.983656547559">
        <ele>83.6</ele>
        <time>2018-01-13T16:46:51Z</time>
      </trkpt>
      <trkpt lat="62.636245304743" lon="17.983715388497">
        <ele>83.8</ele>
        <time>2018-01-13T16:46:52Z</time>
      </trkpt>
      <trkpt lat="62.636233570083" lon="17.983772553055">
        <ele>84</ele>
        <time>2018-01-13T16:46:53Z</time>
      </trkpt>
      <trkpt lat="62.636225104364" lon="17.983823431188">
        <ele>84.2</ele>
        <time>2018-01-13T16:46:54Z</time>
      </trkpt>
      <trkpt lat="62.636215716636" lon="17.983870956561">
        <ele>84.2</ele>
        <time>2018-01-13T16:46:55Z</time>
      </trkpt>
      <trkpt lat="62.636205239261" lon="17.983920409771">
        <ele>84.4</ele>
        <time>2018-01-13T16:46:56Z</time>
      </trkpt>
      <trkpt lat="62.636194761886" lon="17.983978412519">
        <ele>84.4</ele>
        <time>2018-01-13T16:46:57Z</time>
      </trkpt>
      <trkpt lat="62.636182021398" lon="17.984018897096">
        <ele>84.6</ele>
        <time>2018-01-13T16:46:58Z</time>
      </trkpt>
      <trkpt lat="62.636175567335" lon="17.984081174613">
        <ele>84.8</ele>
        <time>2018-01-13T16:46:59Z</time>
      </trkpt>
      <trkpt lat="62.6361701191" lon="17.984148062175">
        <ele>84.8</ele>
        <time>2018-01-13T16:47:00Z</time>
      </trkpt>
      <trkpt lat="62.63616508996" lon="17.984200868145">
        <ele>84.8</ele>
        <time>2018-01-13T16:47:01Z</time>
      </trkpt>
      <trkpt lat="62.636163162123" lon="17.984262139834">
        <ele>84.8</ele>
        <time>2018-01-13T16:47:02Z</time>
      </trkpt>
      <trkpt lat="62.636160312277" lon="17.984319388211">
        <ele>84.8</ele>
        <time>2018-01-13T16:47:03Z</time>
      </trkpt>
      <trkpt lat="62.636161066648" lon="17.98438149809">
        <ele>85</ele>
        <time>2018-01-13T16:47:04Z</time>
      </trkpt>
      <trkpt lat="62.636154780223" lon="17.984447882738">
        <ele>85</ele>
        <time>2018-01-13T16:47:05Z</time>
      </trkpt>
      <trkpt lat="62.636153187662" lon="17.984507561866">
        <ele>85</ele>
        <time>2018-01-13T16:47:06Z</time>
      </trkpt>
      <trkpt lat="62.636150673092" lon="17.984556344524">
        <ele>85.2</ele>
        <time>2018-01-13T16:47:07Z</time>
      </trkpt>
      <trkpt lat="62.636145643952" lon="17.984616861842">
        <ele>85.2</ele>
        <time>2018-01-13T16:47:08Z</time>
      </trkpt>
      <trkpt lat="62.636136759138" lon="17.984687772716">
        <ele>85.4</ele>
        <time>2018-01-13T16:47:09Z</time>
      </trkpt>
      <trkpt lat="62.636137597328" lon="17.984730939501">
        <ele>85.4</ele>
        <time>2018-01-13T16:47:10Z</time>
      </trkpt>
      <trkpt lat="62.636135669491" lon="17.984789193706">
        <ele>85.4</ele>
        <time>2018-01-13T16:47:11Z</time>
      </trkpt>
      <trkpt lat="62.63613323874" lon="17.984848453739">
        <ele>85.4</ele>
        <time>2018-01-13T16:47:12Z</time>
      </trkpt>
      <trkpt lat="62.636135334215" lon="17.984890698515">
        <ele>85.6</ele>
        <time>2018-01-13T16:47:13Z</time>
      </trkpt>
      <trkpt lat="62.636131059446" lon="17.984944091218">
        <ele>85.8</ele>
        <time>2018-01-13T16:47:14Z</time>
      </trkpt>
      <trkpt lat="62.636130388894" lon="17.985019947413">
        <ele>86</ele>
        <time>2018-01-13T16:47:15Z</time>
      </trkpt>
      <trkpt lat="62.63612401865" lon="17.98506462294">
        <ele>86.2</ele>
        <time>2018-01-13T16:47:16Z</time>
      </trkpt>
      <trkpt lat="62.636116642578" lon="17.985120697851">
        <ele>86.2</ele>
        <time>2018-01-13T16:47:17Z</time>
      </trkpt>
      <trkpt lat="62.636113541275" lon="17.985184400291">
        <ele>86.4</ele>
        <time>2018-01-13T16:47:18Z</time>
      </trkpt>
      <trkpt lat="62.63611396037" lon="17.985230500741">
        <ele>86.6</ele>
        <time>2018-01-13T16:47:19Z</time>
      </trkpt>
      <trkpt lat="62.636111697257" lon="17.985289174041">
        <ele>86.6</ele>
        <time>2018-01-13T16:47:20Z</time>
      </trkpt>
      <trkpt lat="62.63610976942" lon="17.985354720499">
        <ele>86.6</ele>
        <time>2018-01-13T16:47:21Z</time>
      </trkpt>
      <trkpt lat="62.636113457456" lon="17.985405263356">
        <ele>86.8</ele>
        <time>2018-01-13T16:47:22Z</time>
      </trkpt>
      <trkpt lat="62.636112535447" lon="17.985463098466">
        <ele>87</ele>
        <time>2018-01-13T16:47:23Z</time>
      </trkpt>
      <trkpt lat="62.636115301474" lon="17.985521687947">
        <ele>87</ele>
        <time>2018-01-13T16:47:24Z</time>
      </trkpt>
      <trkpt lat="62.636116894035" lon="17.985558065393">
        <ele>87</ele>
        <time>2018-01-13T16:47:25Z</time>
      </trkpt>
      <trkpt lat="62.636110356153" lon="17.98560860825">
        <ele>87</ele>
        <time>2018-01-13T16:47:26Z</time>
      </trkpt>
      <trkpt lat="62.63610390209" lon="17.985668287378">
        <ele>87</ele>
        <time>2018-01-13T16:47:27Z</time>
      </trkpt>
      <trkpt lat="62.636093424715" lon="17.985711370344">
        <ele>87</ele>
        <time>2018-01-13T16:47:28Z</time>
      </trkpt>
      <trkpt lat="62.636076744734" lon="17.98576283521">
        <ele>87</ele>
        <time>2018-01-13T16:47:29Z</time>
      </trkpt>
      <trkpt lat="62.636058053097" lon="17.985808265108">
        <ele>87</ele>
        <time>2018-01-13T16:47:30Z</time>
      </trkpt>
      <trkpt lat="62.636042798039" lon="17.98584330145">
        <ele>87.2</ele>
        <time>2018-01-13T16:47:31Z</time>
      </trkpt>
      <trkpt lat="62.636024106402" lon="17.985870207349">
        <ele>87.4</ele>
        <time>2018-01-13T16:47:32Z</time>
      </trkpt>
      <trkpt lat="62.635998625426" lon="17.985916056342">
        <ele>87.4</ele>
        <time>2018-01-13T16:47:33Z</time>
      </trkpt>
      <trkpt lat="62.635980101427" lon="17.985941202042">
        <ele>87.6</ele>
        <time>2018-01-13T16:47:34Z</time>
      </trkpt>
      <trkpt lat="62.635959398134" lon="17.985960061317">
        <ele>87.8</ele>
        <time>2018-01-13T16:47:35Z</time>
      </trkpt>
      <trkpt lat="62.635939449212" lon="17.985973639995">
        <ele>88</ele>
        <time>2018-01-13T16:47:36Z</time>
      </trkpt>
      <trkpt lat="62.635924361792" lon="17.985985374655">
        <ele>88</ele>
        <time>2018-01-13T16:47:37Z</time>
      </trkpt>
      <trkpt lat="62.635904748146" lon="17.985996606401">
        <ele>88</ele>
        <time>2018-01-13T16:47:38Z</time>
      </trkpt>
      <trkpt lat="62.635877339333" lon="17.98601261583">
        <ele>88</ele>
        <time>2018-01-13T16:47:39Z</time>
      </trkpt>
      <trkpt lat="62.635854875841" lon="17.986030050182">
        <ele>88.2</ele>
        <time>2018-01-13T16:47:40Z</time>
      </trkpt>
      <trkpt lat="62.635835346014" lon="17.986053184226">
        <ele>88.4</ele>
        <time>2018-01-13T16:47:41Z</time>
      </trkpt>
      <trkpt lat="62.635812463427" lon="17.986079587211">
        <ele>88.6</ele>
        <time>2018-01-13T16:47:42Z</time>
      </trkpt>
      <trkpt lat="62.635794526161" lon="17.986111103155">
        <ele>88.8</ele>
        <time>2018-01-13T16:47:43Z</time>
      </trkpt>
      <trkpt lat="62.635773571411" lon="17.986136332674">
        <ele>88.8</ele>
        <time>2018-01-13T16:47:44Z</time>
      </trkpt>
      <trkpt lat="62.635745827322" lon="17.986175895242">
        <ele>88.8</ele>
        <time>2018-01-13T16:47:45Z</time>
      </trkpt>
      <trkpt lat="62.635727973875" lon="17.986202801141">
        <ele>89</ele>
        <time>2018-01-13T16:47:46Z</time>
      </trkpt>
      <trkpt lat="62.63571162917" lon="17.986226689556">
        <ele>89</ele>
        <time>2018-01-13T16:47:47Z</time>
      </trkpt>
      <trkpt lat="62.635695955017" lon="17.98625652912">
        <ele>89</ele>
        <time>2018-01-13T16:47:48Z</time>
      </trkpt>
      <trkpt lat="62.635677514837" lon="17.986298354801">
        <ele>89.2</ele>
        <time>2018-01-13T16:47:49Z</time>
      </trkpt>
      <trkpt lat="62.635662930331" lon="17.986333474962">
        <ele>89.4</ele>
        <time>2018-01-13T16:47:50Z</time>
      </trkpt>
      <trkpt lat="62.635644071056" lon="17.986385107466">
        <ele>89.6</ele>
        <time>2018-01-13T16:47:51Z</time>
      </trkpt>
      <trkpt lat="62.635628732179" lon="17.986450905381">
        <ele>89.8</ele>
        <time>2018-01-13T16:47:52Z</time>
      </trkpt>
      <trkpt lat="62.635612136017" lon="17.986488791569">
        <ele>90</ele>
        <time>2018-01-13T16:47:53Z</time>
      </trkpt>
      <trkpt lat="62.635596713321" lon="17.986539502064">
        <ele>90</ele>
        <time>2018-01-13T16:47:54Z</time>
      </trkpt>
      <trkpt lat="62.635578189322" lon="17.98657755589">
        <ele>90.2</ele>
        <time>2018-01-13T16:47:55Z</time>
      </trkpt>
      <trkpt lat="62.63556075497" lon="17.986619716847">
        <ele>90.2</ele>
        <time>2018-01-13T16:47:56Z</time>
      </trkpt>
      <trkpt lat="62.635546086645" lon="17.986672690455">
        <ele>90.2</ele>
        <time>2018-01-13T16:47:57Z</time>
      </trkpt>
      <trkpt lat="62.635529825759" lon="17.986720551104">
        <ele>90.2</ele>
        <time>2018-01-13T16:47:58Z</time>
      </trkpt>
      <trkpt lat="62.635517923461" lon="17.986760784224">
        <ele>90.2</ele>
        <time>2018-01-13T16:47:59Z</time>
      </trkpt>
      <trkpt lat="62.635497220168" lon="17.986803280457">
        <ele>90.4</ele>
        <time>2018-01-13T16:48:00Z</time>
      </trkpt>
      <trkpt lat="62.635484395861" lon="17.986853655676">
        <ele>90.6</ele>
        <time>2018-01-13T16:48:01Z</time>
      </trkpt>
      <trkpt lat="62.635465033672" lon="17.986893637339">
        <ele>90.6</ele>
        <time>2018-01-13T16:48:02Z</time>
      </trkpt>
      <trkpt lat="62.635443743646" lon="17.986943258187">
        <ele>90.8</ele>
        <time>2018-01-13T16:48:03Z</time>
      </trkpt>
      <trkpt lat="62.635423459448" lon="17.986983156031">
        <ele>91</ele>
        <time>2018-01-13T16:48:04Z</time>
      </trkpt>
      <trkpt lat="62.635409294037" lon="17.987021712771">
        <ele>91.2</ele>
        <time>2018-01-13T16:48:05Z</time>
      </trkpt>
      <trkpt lat="62.63539395516" lon="17.98705280962">
        <ele>91.2</ele>
        <time>2018-01-13T16:48:06Z</time>
      </trkpt>
      <trkpt lat="62.6353738386" lon="17.987084996116">
        <ele>91.2</ele>
        <time>2018-01-13T16:48:07Z</time>
      </trkpt>
      <trkpt lat="62.635355733696" lon="17.987112488748">
        <ele>91.4</ele>
        <time>2018-01-13T16:48:08Z</time>
      </trkpt>
      <trkpt lat="62.635341903561" lon="17.987148530918">
        <ele>91.6</ele>
        <time>2018-01-13T16:48:09Z</time>
      </trkpt>
      <trkpt lat="62.635326229408" lon="17.987188764038">
        <ele>91.6</ele>
        <time>2018-01-13T16:48:10Z</time>
      </trkpt>
      <trkpt lat="62.635306951038" lon="17.987226650226">
        <ele>91.8</ele>
        <time>2018-01-13T16:48:11Z</time>
      </trkpt>
      <trkpt lat="62.635295803111" lon="17.987264117319">
        <ele>91.8</ele>
        <time>2018-01-13T16:48:12Z</time>
      </trkpt>
      <trkpt lat="62.635281805338" lon="17.987304685715">
        <ele>91.8</ele>
        <time>2018-01-13T16:48:13Z</time>
      </trkpt>
      <trkpt lat="62.635261018226" lon="17.987345254111">
        <ele>92</ele>
        <time>2018-01-13T16:48:14Z</time>
      </trkpt>
      <trkpt lat="62.635237800363" lon="17.987393617674">
        <ele>92</ele>
        <time>2018-01-13T16:48:15Z</time>
      </trkpt>
      <trkpt lat="62.635221790934" lon="17.987427396731">
        <ele>92</ele>
        <time>2018-01-13T16:48:16Z</time>
      </trkpt>
      <trkpt lat="62.635203350754" lon="17.987462265435">
        <ele>92.2</ele>
        <time>2018-01-13T16:48:17Z</time>
      </trkpt>
      <trkpt lat="62.635180300529" lon="17.98751213774">
        <ele>92.4</ele>
        <time>2018-01-13T16:48:18Z</time>
      </trkpt>
      <trkpt lat="62.635159681055" lon="17.98753979801">
        <ele>92.6</ele>
        <time>2018-01-13T16:48:19Z</time>
      </trkpt>
      <trkpt lat="62.635142665798" lon="17.987574247619">
        <ele>92.6</ele>
        <time>2018-01-13T16:48:20Z</time>
      </trkpt>
      <trkpt lat="62.635119280297" lon="17.987614313101">
        <ele>92.8</ele>
        <time>2018-01-13T16:48:21Z</time>
      </trkpt>
      <trkpt lat="62.635097319719" lon="17.987650858185">
        <ele>92.8</ele>
        <time>2018-01-13T16:48:22Z</time>
      </trkpt>
      <trkpt lat="62.635082902851" lon="17.987682541767">
        <ele>93</ele>
        <time>2018-01-13T16:48:23Z</time>
      </trkpt>
      <trkpt lat="62.635064714128" lon="17.987715566453">
        <ele>93.2</ele>
        <time>2018-01-13T16:48:24Z</time>
      </trkpt>
      <trkpt lat="62.635045184301" lon="17.98774934551">
        <ele>93.4</ele>
        <time>2018-01-13T16:48:25Z</time>
      </trkpt>
      <trkpt lat="62.635030013062" lon="17.987773150106">
        <ele>93.4</ele>
        <time>2018-01-13T16:48:26Z</time>
      </trkpt>
      <trkpt lat="62.635007801027" lon="17.987808521724">
        <ele>93.6</ele>
        <time>2018-01-13T16:48:27Z</time>
      </trkpt>
      <trkpt lat="62.634987516829" lon="17.987841378772">
        <ele>93.8</ele>
        <time>2018-01-13T16:48:28Z</time>
      </trkpt>
      <trkpt lat="62.63497066921" lon="17.987872391802">
        <ele>93.8</ele>
        <time>2018-01-13T16:48:29Z</time>
      </trkpt>
      <trkpt lat="62.634953989229" lon="17.987896447855">
        <ele>94</ele>
        <time>2018-01-13T16:48:30Z</time>
      </trkpt>
      <trkpt lat="62.63493211247" lon="17.987921425917">
        <ele>94</ele>
        <time>2018-01-13T16:48:31Z</time>
      </trkpt>
      <trkpt lat="62.634910068073" lon="17.98794464378">
        <ele>94</ele>
        <time>2018-01-13T16:48:32Z</time>
      </trkpt>
      <trkpt lat="62.634889532418" lon="17.987968783652">
        <ele>94</ele>
        <time>2018-01-13T16:48:33Z</time>
      </trkpt>
      <trkpt lat="62.634872936256" lon="17.987985882728">
        <ele>94.2</ele>
        <time>2018-01-13T16:48:34Z</time>
      </trkpt>
      <trkpt lat="62.634850975678" lon="17.988006166926">
        <ele>94.2</ele>
        <time>2018-01-13T16:48:35Z</time>
      </trkpt>
      <trkpt lat="62.634832786955" lon="17.988029636246">
        <ele>94.2</ele>
        <time>2018-01-13T16:48:36Z</time>
      </trkpt>
      <trkpt lat="62.63481560406" lon="17.988049249892">
        <ele>94.4</ele>
        <time>2018-01-13T16:48:37Z</time>
      </trkpt>
      <trkpt lat="62.634795068405" lon="17.988065091683">
        <ele>94.6</ele>
        <time>2018-01-13T16:48:38Z</time>
      </trkpt>
      <trkpt lat="62.634772437275" lon="17.988076910162">
        <ele>94.8</ele>
        <time>2018-01-13T16:48:39Z</time>
      </trkpt>
      <trkpt lat="62.634755924932" lon="17.988088393365">
        <ele>95.4</ele>
        <time>2018-01-13T16:48:40Z</time>
      </trkpt>
      <trkpt lat="62.634733293802" lon="17.988093506324">
        <ele>95.4</ele>
        <time>2018-01-13T16:48:41Z</time>
      </trkpt>
      <trkpt lat="62.63469909565" lon="17.988098703102">
        <ele>95.6</ele>
        <time>2018-01-13T16:48:42Z</time>
      </trkpt>
      <trkpt lat="62.634675793968" lon="17.98811563454">
        <ele>95.8</ele>
        <time>2018-01-13T16:48:43Z</time>
      </trkpt>
      <trkpt lat="62.634653330476" lon="17.988121418051">
        <ele>96</ele>
        <time>2018-01-13T16:48:44Z</time>
      </trkpt>
      <trkpt lat="62.634622987998" lon="17.988129464675">
        <ele>95.8</ele>
        <time>2018-01-13T16:48:45Z</time>
      </trkpt>
      <trkpt lat="62.634595495366" lon="17.988146396113">
        <ele>96</ele>
        <time>2018-01-13T16:48:46Z</time>
      </trkpt>
      <trkpt lat="62.634567583639" lon="17.988151509072">
        <ele>96</ele>
        <time>2018-01-13T16:48:47Z</time>
      </trkpt>
      <trkpt lat="62.63453900136" lon="17.98815502947">
        <ele>95.8</ele>
        <time>2018-01-13T16:48:48Z</time>
      </trkpt>
      <trkpt lat="62.634519387714" lon="17.988157963135">
        <ele>96</ele>
        <time>2018-01-13T16:48:49Z</time>
      </trkpt>
      <trkpt lat="62.634490973073" lon="17.988159388058">
        <ele>96</ele>
        <time>2018-01-13T16:48:50Z</time>
      </trkpt>
      <trkpt lat="62.634463731898" lon="17.988161902628">
        <ele>96</ele>
        <time>2018-01-13T16:48:51Z</time>
      </trkpt>
      <trkpt lat="62.634435987809" lon="17.988170871261">
        <ele>96.2</ele>
        <time>2018-01-13T16:48:52Z</time>
      </trkpt>
      <trkpt lat="62.6344099201" lon="17.988179672256">
        <ele>96.2</ele>
        <time>2018-01-13T16:48:53Z</time>
      </trkpt>
      <trkpt lat="62.634383433296" lon="17.988185539586">
        <ele>96.4</ele>
        <time>2018-01-13T16:48:54Z</time>
      </trkpt>
      <trkpt lat="62.634365915125" lon="17.988195346409">
        <ele>96.4</ele>
        <time>2018-01-13T16:48:55Z</time>
      </trkpt>
      <trkpt lat="62.634337500484" lon="17.988196016961">
        <ele>96.6</ele>
        <time>2018-01-13T16:48:56Z</time>
      </trkpt>
      <trkpt lat="62.634308080015" lon="17.988195094952">
        <ele>96.6</ele>
        <time>2018-01-13T16:48:57Z</time>
      </trkpt>
      <trkpt lat="62.63428000065" lon="17.988197358065">
        <ele>96.6</ele>
        <time>2018-01-13T16:48:58Z</time>
      </trkpt>
      <trkpt lat="62.634254771131" lon="17.988203812128">
        <ele>96.8</ele>
        <time>2018-01-13T16:48:59Z</time>
      </trkpt>
      <trkpt lat="62.634232559096" lon="17.988206075241">
        <ele>97</ele>
        <time>2018-01-13T16:49:00Z</time>
      </trkpt>
      <trkpt lat="62.634202635713" lon="17.988201297558">
        <ele>97</ele>
        <time>2018-01-13T16:49:01Z</time>
      </trkpt>
      <trkpt lat="62.634173718158" lon="17.988194759676">
        <ele>97.4</ele>
        <time>2018-01-13T16:49:02Z</time>
      </trkpt>
      <trkpt lat="62.63414505206" lon="17.988188054156">
        <ele>97.4</ele>
        <time>2018-01-13T16:49:03Z</time>
      </trkpt>
      <trkpt lat="62.634116888876" lon="17.988184030844">
        <ele>97.4</ele>
        <time>2018-01-13T16:49:04Z</time>
      </trkpt>
      <trkpt lat="62.63409559885" lon="17.988179169342">
        <ele>97.4</ele>
        <time>2018-01-13T16:49:05Z</time>
      </trkpt>
      <trkpt lat="62.634070620788" lon="17.988164836293">
        <ele>97.4</ele>
        <time>2018-01-13T16:49:06Z</time>
      </trkpt>
      <trkpt lat="62.634040948862" lon="17.988152766357">
        <ele>97.4</ele>
        <time>2018-01-13T16:49:07Z</time>
      </trkpt>
      <trkpt lat="62.634022089587" lon="17.988145725561">
        <ele>97.4</ele>
        <time>2018-01-13T16:49:08Z</time>
      </trkpt>
      <trkpt lat="62.633999207" lon="17.988130889598">
        <ele>97.4</ele>
        <time>2018-01-13T16:49:09Z</time>
      </trkpt>
      <trkpt lat="62.63397489949" lon="17.988114461074">
        <ele>97.6</ele>
        <time>2018-01-13T16:49:10Z</time>
      </trkpt>
      <trkpt lat="62.63395562112" lon="17.988107755554">
        <ele>97.8</ele>
        <time>2018-01-13T16:49:11Z</time>
      </trkpt>
      <trkpt lat="62.633930140144" lon="17.988090991754">
        <ele>97.8</ele>
        <time>2018-01-13T16:49:12Z</time>
      </trkpt>
      <trkpt lat="62.633902982788" lon="17.988065259321">
        <ele>97.8</ele>
        <time>2018-01-13T16:49:13Z</time>
      </trkpt>
      <trkpt lat="62.633877501812" lon="17.988040700354">
        <ele>97.8</ele>
        <time>2018-01-13T16:49:14Z</time>
      </trkpt>
      <trkpt lat="62.633858893994" lon="17.988026032029">
        <ele>98</ele>
        <time>2018-01-13T16:49:15Z</time>
      </trkpt>
      <trkpt lat="62.633835257036" lon="17.988003484718">
        <ele>98</ele>
        <time>2018-01-13T16:49:16Z</time>
      </trkpt>
      <trkpt lat="62.63380558511" lon="17.987978339018">
        <ele>98.2</ele>
        <time>2018-01-13T16:49:17Z</time>
      </trkpt>
      <trkpt lat="62.633781780514" lon="17.987952103671">
        <ele>98.2</ele>
        <time>2018-01-13T16:49:18Z</time>
      </trkpt>
      <trkpt lat="62.633749929294" lon="17.987915055673">
        <ele>98.2</ele>
        <time>2018-01-13T16:49:19Z</time>
      </trkpt>
      <trkpt lat="62.633723023395" lon="17.987886138118">
        <ele>98.4</ele>
        <time>2018-01-13T16:49:20Z</time>
      </trkpt>
      <trkpt lat="62.633700559903" lon="17.987866273015">
        <ele>98.4</ele>
        <time>2018-01-13T16:49:21Z</time>
      </trkpt>
      <trkpt lat="62.63367482747" lon="17.987836433451">
        <ele>98.4</ele>
        <time>2018-01-13T16:49:22Z</time>
      </trkpt>
      <trkpt lat="62.633646748105" lon="17.987806510068">
        <ele>98.4</ele>
        <time>2018-01-13T16:49:23Z</time>
      </trkpt>
      <trkpt lat="62.633619926025" lon="17.987775664676">
        <ele>98.6</ele>
        <time>2018-01-13T16:49:24Z</time>
      </trkpt>
      <trkpt lat="62.633600731474" lon="17.987745406017">
        <ele>98.6</ele>
        <time>2018-01-13T16:49:25Z</time>
      </trkpt>
      <trkpt lat="62.63358178838" lon="17.98772252343">
        <ele>98.8</ele>
        <time>2018-01-13T16:49:26Z</time>
      </trkpt>
      <trkpt lat="62.633560582173" lon="17.987689414925">
        <ele>99</ele>
        <time>2018-01-13T16:49:27Z</time>
      </trkpt>
      <trkpt lat="62.633538453957" lon="17.987656390239">
        <ele>99.4</ele>
        <time>2018-01-13T16:49:28Z</time>
      </trkpt>
      <trkpt lat="62.633521857795" lon="17.987638201516">
        <ele>99.8</ele>
        <time>2018-01-13T16:49:29Z</time>
      </trkpt>
      <trkpt lat="62.633498723751" lon="17.987601237337">
        <ele>100</ele>
        <time>2018-01-13T16:49:30Z</time>
      </trkpt>
      <trkpt lat="62.633475254431" lon="17.987567709737">
        <ele>100.2</ele>
        <time>2018-01-13T16:49:31Z</time>
      </trkpt>
      <trkpt lat="62.633449941093" lon="17.987534098318">
        <ele>100</ele>
        <time>2018-01-13T16:49:32Z</time>
      </trkpt>
      <trkpt lat="62.633426555592" lon="17.9874987267">
        <ele>100.2</ele>
        <time>2018-01-13T16:49:33Z</time>
      </trkpt>
      <trkpt lat="62.633408702145" lon="17.987464612367">
        <ele>100.2</ele>
        <time>2018-01-13T16:49:34Z</time>
      </trkpt>
      <trkpt lat="62.633397135123" lon="17.987426977636">
        <ele>100.2</ele>
        <time>2018-01-13T16:49:35Z</time>
      </trkpt>
      <trkpt lat="62.633382634436" lon="17.987397138072">
        <ele>100.4</ele>
        <time>2018-01-13T16:49:36Z</time>
      </trkpt>
      <trkpt lat="62.633362517876" lon="17.987360509169">
        <ele>100.4</ele>
        <time>2018-01-13T16:49:37Z</time>
      </trkpt>
      <trkpt lat="62.633343574782" lon="17.987332345985">
        <ele>100.4</ele>
        <time>2018-01-13T16:49:38Z</time>
      </trkpt>
      <trkpt lat="62.633318261444" lon="17.987278534187">
        <ele>100.8</ele>
        <time>2018-01-13T16:49:39Z</time>
      </trkpt>
      <trkpt lat="62.633292026097" lon="17.987226063493">
        <ele>101</ele>
        <time>2018-01-13T16:49:40Z</time>
      </trkpt>
      <trkpt lat="62.633272160994" lon="17.987168144564">
        <ele>101.2</ele>
        <time>2018-01-13T16:49:41Z</time>
      </trkpt>
      <trkpt lat="62.633251038606" lon="17.987094635301">
        <ele>101.4</ele>
        <time>2018-01-13T16:49:42Z</time>
      </trkpt>
      <trkpt lat="62.633232095512" lon="17.986991957026">
        <ele>101.4</ele>
        <time>2018-01-13T16:49:43Z</time>
      </trkpt>
      <trkpt lat="62.633215331712" lon="17.986894140253">
        <ele>101.4</ele>
        <time>2018-01-13T16:49:44Z</time>
      </trkpt>
      <trkpt lat="62.633202339767" lon="17.98679380891">
        <ele>100.8</ele>
        <time>2018-01-13T16:49:45Z</time>
      </trkpt>
      <trkpt lat="62.633190018374" lon="17.98669909344">
        <ele>100</ele>
        <time>2018-01-13T16:49:46Z</time>
      </trkpt>
      <trkpt lat="62.633179038085" lon="17.986600606115">
        <ele>99</ele>
        <time>2018-01-13T16:49:47Z</time>
      </trkpt>
      <trkpt lat="62.63316856071" lon="17.986523660273">
        <ele>98.6</ele>
        <time>2018-01-13T16:49:48Z</time>
      </trkpt>
      <trkpt lat="62.633162190466" lon="17.986426011138">
        <ele>98</ele>
        <time>2018-01-13T16:49:49Z</time>
      </trkpt>
      <trkpt lat="62.633161352276" lon="17.986349903486">
        <ele>98.2</ele>
        <time>2018-01-13T16:49:50Z</time>
      </trkpt>
      <trkpt lat="62.633159089163" lon="17.986249655962">
        <ele>98.6</ele>
        <time>2018-01-13T16:49:51Z</time>
      </trkpt>
      <trkpt lat="62.633155568765" lon="17.986136332674">
        <ele>98.6</ele>
        <time>2018-01-13T16:49:52Z</time>
      </trkpt>
      <trkpt lat="62.633154479118" lon="17.986030553096">
        <ele>98</ele>
        <time>2018-01-13T16:49:53Z</time>
      </trkpt>
      <trkpt lat="62.633149449978" lon="17.985922678043">
        <ele>97.6</ele>
        <time>2018-01-13T16:49:54Z</time>
      </trkpt>
      <trkpt lat="62.633139559336" lon="17.985816563189">
        <ele>97</ele>
        <time>2018-01-13T16:49:55Z</time>
      </trkpt>
      <trkpt lat="62.6331358713" lon="17.985724529927">
        <ele>96.6</ele>
        <time>2018-01-13T16:49:56Z</time>
      </trkpt>
      <trkpt lat="62.633130674522" lon="17.985624366222">
        <ele>96.4</ele>
        <time>2018-01-13T16:49:57Z</time>
      </trkpt>
      <trkpt lat="62.633136877128" lon="17.985547168923">
        <ele>96.2</ele>
        <time>2018-01-13T16:49:58Z</time>
      </trkpt>
      <trkpt lat="62.633142995915" lon="17.985459997163">
        <ele>96</ele>
        <time>2018-01-13T16:49:59Z</time>
      </trkpt>
      <trkpt lat="62.633148527969" lon="17.985366874254">
        <ele>96</ele>
        <time>2018-01-13T16:50:00Z</time>
      </trkpt>
      <trkpt lat="62.633156406955" lon="17.985275763001">
        <ele>96</ele>
        <time>2018-01-13T16:50:01Z</time>
      </trkpt>
      <trkpt lat="62.633165375588" lon="17.985162858808">
        <ele>96.2</ele>
        <time>2018-01-13T16:50:02Z</time>
      </trkpt>
      <trkpt lat="62.633178702809" lon="17.985020869422">
        <ele>96</ele>
        <time>2018-01-13T16:50:03Z</time>
      </trkpt>
      <trkpt lat="62.633192113849" lon="17.984931266911">
        <ele>95.6</ele>
        <time>2018-01-13T16:50:04Z</time>
      </trkpt>
      <trkpt lat="62.633217762463" lon="17.98479472576">
        <ele>95</ele>
        <time>2018-01-13T16:50:05Z</time>
      </trkpt>
      <trkpt lat="62.633238381937" lon="17.984704117421">
        <ele>94.2</ele>
        <time>2018-01-13T16:50:06Z</time>
      </trkpt>
      <trkpt lat="62.633262270352" lon="17.984611748883">
        <ele>93.2</ele>
        <time>2018-01-13T16:50:07Z</time>
      </trkpt>
      <trkpt lat="62.633280291437" lon="17.984543520217">
        <ele>92.4</ele>
        <time>2018-01-13T16:50:08Z</time>
      </trkpt>
      <trkpt lat="62.633307113517" lon="17.984461880511">
        <ele>92</ele>
        <time>2018-01-13T16:50:09Z</time>
      </trkpt>
      <trkpt lat="62.633325553697" lon="17.984404799772">
        <ele>92.2</ele>
        <time>2018-01-13T16:50:10Z</time>
      </trkpt>
      <trkpt lat="62.633335444339" lon="17.984348305766">
        <ele>92.2</ele>
        <time>2018-01-13T16:50:11Z</time>
      </trkpt>
      <trkpt lat="62.633340557298" lon="17.984282926946">
        <ele>92.6</ele>
        <time>2018-01-13T16:50:12Z</time>
      </trkpt>
      <trkpt lat="62.633343407144" lon="17.98423230027">
        <ele>93</ele>
        <time>2018-01-13T16:50:13Z</time>
      </trkpt>
      <trkpt lat="62.633350615578" lon="17.984168262554">
        <ele>93</ele>
        <time>2018-01-13T16:50:14Z</time>
      </trkpt>
      <trkpt lat="62.63335799165" lon="17.984093412187">
        <ele>93</ele>
        <time>2018-01-13T16:50:15Z</time>
      </trkpt>
      <trkpt lat="62.633366289731" lon="17.984051083592">
        <ele>93.2</ele>
        <time>2018-01-13T16:50:16Z</time>
      </trkpt>
      <trkpt lat="62.6333789464" lon="17.983988554618">
        <ele>93.4</ele>
        <time>2018-01-13T16:50:17Z</time>
      </trkpt>
      <trkpt lat="62.63339403382" lon="17.983920745047">
        <ele>93.2</ele>
        <time>2018-01-13T16:50:18Z</time>
      </trkpt>
      <trkpt lat="62.633407863955" lon="17.983875398968">
        <ele>93.4</ele>
        <time>2018-01-13T16:50:19Z</time>
      </trkpt>
      <trkpt lat="62.63342001771" lon="17.983818904962">
        <ele>93.4</ele>
        <time>2018-01-13T16:50:20Z</time>
      </trkpt>
      <trkpt lat="62.633431668551" lon="17.983752268857">
        <ele>93.4</ele>
        <time>2018-01-13T16:50:21Z</time>
      </trkpt>
      <trkpt lat="62.633447342704" lon="17.98368663858">
        <ele>93.4</ele>
        <time>2018-01-13T16:50:22Z</time>
      </trkpt>
      <trkpt lat="62.633465363789" lon="17.983634419343">
        <ele>93.4</ele>
        <time>2018-01-13T16:50:23Z</time>
      </trkpt>
      <trkpt lat="62.63347533825" lon="17.983574907853">
        <ele>93.6</ele>
        <time>2018-01-13T16:50:24Z</time>
      </trkpt>
      <trkpt lat="62.633487324367" lon="17.983499386934">
        <ele>93.6</ele>
        <time>2018-01-13T16:50:25Z</time>
      </trkpt>
      <trkpt lat="62.633494197525" lon="17.983447502973">
        <ele>93.6</ele>
        <time>2018-01-13T16:50:26Z</time>
      </trkpt>
      <trkpt lat="62.633507860022" lon="17.983376424461">
        <ele>93.6</ele>
        <time>2018-01-13T16:50:27Z</time>
      </trkpt>
      <trkpt lat="62.63352227689" lon="17.983305848863">
        <ele>93.6</ele>
        <time>2018-01-13T16:50:28Z</time>
      </trkpt>
      <trkpt lat="62.633532921903" lon="17.98324742702">
        <ele>93.6</ele>
        <time>2018-01-13T16:50:29Z</time>
      </trkpt>
      <trkpt lat="62.633548428418" lon="17.983176767603">
        <ele>93.6</ele>
        <time>2018-01-13T16:50:30Z</time>
      </trkpt>
      <trkpt lat="62.633558738155" lon="17.98311918395">
        <ele>93.6</ele>
        <time>2018-01-13T16:50:31Z</time>
      </trkpt>
      <trkpt lat="62.633569634625" lon="17.983053888949">
        <ele>93.6</ele>
        <time>2018-01-13T16:50:32Z</time>
      </trkpt>
      <trkpt lat="62.633588829176" lon="17.983002424083">
        <ele>93.6</ele>
        <time>2018-01-13T16:50:33Z</time>
      </trkpt>
      <trkpt lat="62.633615735075" lon="17.982960514583">
        <ele>93.6</ele>
        <time>2018-01-13T16:50:34Z</time>
      </trkpt>
      <trkpt lat="62.633632331237" lon="17.982890022804">
        <ele>93.6</ele>
        <time>2018-01-13T16:50:35Z</time>
      </trkpt>
      <trkpt lat="62.633649011218" lon="17.982814334247">
        <ele>93.6</ele>
        <time>2018-01-13T16:50:36Z</time>
      </trkpt>
      <trkpt lat="62.633664685371" lon="17.982742501364">
        <ele>93.6</ele>
        <time>2018-01-13T16:50:37Z</time>
      </trkpt>
      <trkpt lat="62.633675581841" lon="17.982675278526">
        <ele>93.4</ele>
        <time>2018-01-13T16:50:38Z</time>
      </trkpt>
      <trkpt lat="62.633687987053" lon="17.982623729841">
        <ele>93.6</ele>
        <time>2018-01-13T16:50:39Z</time>
      </trkpt>
      <trkpt lat="62.63369578222" lon="17.982551310225">
        <ele>93.6</ele>
        <time>2018-01-13T16:50:40Z</time>
      </trkpt>
      <trkpt lat="62.633698045333" lon="17.982480986084">
        <ele>93.6</ele>
        <time>2018-01-13T16:50:41Z</time>
      </trkpt>
      <trkpt lat="62.63370500231" lon="17.982403956423">
        <ele>93.8</ele>
        <time>2018-01-13T16:50:42Z</time>
      </trkpt>
      <trkpt lat="62.633709277079" lon="17.982343187648">
        <ele>93.8</ele>
        <time>2018-01-13T16:50:43Z</time>
      </trkpt>
      <trkpt lat="62.633723610128" lon="17.982298763578">
        <ele>93.8</ele>
        <time>2018-01-13T16:50:44Z</time>
      </trkpt>
      <trkpt lat="62.633737021168" lon="17.982239335907">
        <ele>93.8</ele>
        <time>2018-01-13T16:50:45Z</time>
      </trkpt>
      <trkpt lat="62.633752946778" lon="17.982204802479">
        <ele>93.8</ele>
        <time>2018-01-13T16:50:46Z</time>
      </trkpt>
      <trkpt lat="62.633760909583" lon="17.982147135007">
        <ele>93.8</ele>
        <time>2018-01-13T16:50:47Z</time>
      </trkpt>
      <trkpt lat="62.633764597619" lon="17.982081001816">
        <ele>93.6</ele>
        <time>2018-01-13T16:50:48Z</time>
      </trkpt>
      <trkpt lat="62.633772560424" lon="17.982040014325">
        <ele>93.8</ele>
        <time>2018-01-13T16:50:49Z</time>
      </trkpt>
      <trkpt lat="62.633781529057" lon="17.981985196699">
        <ele>93.8</ele>
        <time>2018-01-13T16:50:50Z</time>
      </trkpt>
      <trkpt lat="62.633790162414" lon="17.981936162584">
        <ele>93.8</ele>
        <time>2018-01-13T16:50:51Z</time>
      </trkpt>
      <trkpt lat="62.63379468864" lon="17.981880925863">
        <ele>94</ele>
        <time>2018-01-13T16:50:52Z</time>
      </trkpt>
      <trkpt lat="62.633795862106" lon="17.981811859007">
        <ele>94.2</ele>
        <time>2018-01-13T16:50:53Z</time>
      </trkpt>
      <trkpt lat="62.633788150758" lon="17.981740696676">
        <ele>94</ele>
        <time>2018-01-13T16:50:54Z</time>
      </trkpt>
      <trkpt lat="62.633790581509" lon="17.98166408611">
        <ele>94.2</ele>
        <time>2018-01-13T16:50:55Z</time>
      </trkpt>
      <trkpt lat="62.633795359192" lon="17.981613375615">
        <ele>94.2</ele>
        <time>2018-01-13T16:50:56Z</time>
      </trkpt>
      <trkpt lat="62.633802651445" lon="17.981557803618">
        <ele>94.2</ele>
        <time>2018-01-13T16:50:57Z</time>
      </trkpt>
      <trkpt lat="62.633805752748" lon="17.981488233848">
        <ele>94</ele>
        <time>2018-01-13T16:50:58Z</time>
      </trkpt>
      <trkpt lat="62.633818325598" lon="17.981434002955">
        <ele>94</ele>
        <time>2018-01-13T16:50:59Z</time>
      </trkpt>
      <trkpt lat="62.633830982267" lon="17.981370551972">
        <ele>94</ele>
        <time>2018-01-13T16:51:00Z</time>
      </trkpt>
      <trkpt lat="62.633848668076" lon="17.981308525912">
        <ele>94</ele>
        <time>2018-01-13T16:51:01Z</time>
      </trkpt>
      <trkpt lat="62.63386174384" lon="17.981258066874">
        <ele>94</ele>
        <time>2018-01-13T16:51:02Z</time>
      </trkpt>
      <trkpt lat="62.633882866228" lon="17.981201153773">
        <ele>94.2</ele>
        <time>2018-01-13T16:51:03Z</time>
      </trkpt>
      <trkpt lat="62.633893511241" lon="17.981140552636">
        <ele>94</ele>
        <time>2018-01-13T16:51:04Z</time>
      </trkpt>
      <trkpt lat="62.633908514842" lon="17.981090009779">
        <ele>94.2</ele>
        <time>2018-01-13T16:51:05Z</time>
      </trkpt>
      <trkpt lat="62.633918154027" lon="17.981048938469">
        <ele>94.2</ele>
        <time>2018-01-13T16:51:06Z</time>
      </trkpt>
      <trkpt lat="62.633938186768" lon="17.980993785567">
        <ele>94.4</ele>
        <time>2018-01-13T16:51:07Z</time>
      </trkpt>
      <trkpt lat="62.633959225337" lon="17.980952798076">
        <ele>94.6</ele>
        <time>2018-01-13T16:51:08Z</time>
      </trkpt>
      <trkpt lat="62.6339740613" lon="17.980908960739">
        <ele>94.6</ele>
        <time>2018-01-13T16:51:09Z</time>
      </trkpt>
      <trkpt lat="62.633991830928" lon="17.980866883601">
        <ele>94.6</ele>
        <time>2018-01-13T16:51:10Z</time>
      </trkpt>
      <trkpt lat="62.634009349099" lon="17.980823130083">
        <ele>94.6</ele>
        <time>2018-01-13T16:51:11Z</time>
      </trkpt>
      <trkpt lat="62.63402267632" lon="17.980770491751">
        <ele>94.6</ele>
        <time>2018-01-13T16:51:12Z</time>
      </trkpt>
      <trkpt lat="62.634037931378" lon="17.980722212007">
        <ele>94.6</ele>
        <time>2018-01-13T16:51:13Z</time>
      </trkpt>
      <trkpt lat="62.634060813965" lon="17.980656497911">
        <ele>94.8</ele>
        <time>2018-01-13T16:51:14Z</time>
      </trkpt>
      <trkpt lat="62.634078415955" lon="17.980594807127">
        <ele>94.8</ele>
        <time>2018-01-13T16:51:15Z</time>
      </trkpt>
      <trkpt lat="62.634101382361" lon="17.98053588237">
        <ele>95</ele>
        <time>2018-01-13T16:51:16Z</time>
      </trkpt>
      <trkpt lat="62.634121163645" lon="17.980494643422">
        <ele>95</ele>
        <time>2018-01-13T16:51:17Z</time>
      </trkpt>
      <trkpt lat="62.634143710956" lon="17.980425911842">
        <ele>95.2</ele>
        <time>2018-01-13T16:51:18Z</time>
      </trkpt>
      <trkpt lat="62.634160893851" lon="17.980368831103">
        <ele>95.4</ele>
        <time>2018-01-13T16:51:19Z</time>
      </trkpt>
      <trkpt lat="62.634179334031" lon="17.980327508336">
        <ele>95.4</ele>
        <time>2018-01-13T16:51:20Z</time>
      </trkpt>
      <trkpt lat="62.634203557722" lon="17.980272942167">
        <ele>95.6</ele>
        <time>2018-01-13T16:51:21Z</time>
      </trkpt>
      <trkpt lat="62.634229625431" lon="17.980220639111">
        <ele>95.6</ele>
        <time>2018-01-13T16:51:22Z</time>
      </trkpt>
      <trkpt lat="62.634251669828" lon="17.980175041575">
        <ele>95.4</ele>
        <time>2018-01-13T16:51:23Z</time>
      </trkpt>
      <trkpt lat="62.634276815528" lon="17.980119134302">
        <ele>95.4</ele>
        <time>2018-01-13T16:51:24Z</time>
      </trkpt>
      <trkpt lat="62.634297183545" lon="17.980074794051">
        <ele>95.4</ele>
        <time>2018-01-13T16:51:25Z</time>
      </trkpt>
      <trkpt lat="62.634315791363" lon="17.980027771592">
        <ele>95.4</ele>
        <time>2018-01-13T16:51:26Z</time>
      </trkpt>
      <trkpt lat="62.634337081389" lon="17.979968595378">
        <ele>95.2</ele>
        <time>2018-01-13T16:51:27Z</time>
      </trkpt>
      <trkpt lat="62.634351498257" lon="17.979916711417">
        <ele>95.2</ele>
        <time>2018-01-13T16:51:28Z</time>
      </trkpt>
      <trkpt lat="62.634367759143" lon="17.979853260434">
        <ele>95.2</ele>
        <time>2018-01-13T16:51:29Z</time>
      </trkpt>
      <trkpt lat="62.634381756916" lon="17.979813865504">
        <ele>95.2</ele>
        <time>2018-01-13T16:51:30Z</time>
      </trkpt>
      <trkpt lat="62.634396425241" lon="17.979755359842">
        <ele>95.2</ele>
        <time>2018-01-13T16:51:31Z</time>
      </trkpt>
      <trkpt lat="62.634410506833" lon="17.979705990451">
        <ele>95.2</ele>
        <time>2018-01-13T16:51:32Z</time>
      </trkpt>
      <trkpt lat="62.634423917873" lon="17.979637677966">
        <ele>95.2</ele>
        <time>2018-01-13T16:51:33Z</time>
      </trkpt>
      <trkpt lat="62.634434646705" lon="17.979577244467">
        <ele>95</ele>
        <time>2018-01-13T16:51:34Z</time>
      </trkpt>
      <trkpt lat="62.634441268406" lon="17.979517900615">
        <ele>95</ele>
        <time>2018-01-13T16:51:35Z</time>
      </trkpt>
      <trkpt lat="62.634450404677" lon="17.979460316962">
        <ele>95.2</ele>
        <time>2018-01-13T16:51:36Z</time>
      </trkpt>
      <trkpt lat="62.634456691102" lon="17.979390244278">
        <ele>95.2</ele>
        <time>2018-01-13T16:51:37Z</time>
      </trkpt>
      <trkpt lat="62.634464318631" lon="17.979338444136">
        <ele>95.2</ele>
        <time>2018-01-13T16:51:38Z</time>
      </trkpt>
      <trkpt lat="62.634477059119" lon="17.979281195759">
        <ele>95.2</ele>
        <time>2018-01-13T16:51:39Z</time>
      </trkpt>
      <trkpt lat="62.634486530666" lon="17.979245656503">
        <ele>95.2</ele>
        <time>2018-01-13T16:51:40Z</time>
      </trkpt>
      <trkpt lat="62.634496505127" lon="17.979182121701">
        <ele>95.4</ele>
        <time>2018-01-13T16:51:41Z</time>
      </trkpt>
      <trkpt lat="62.634513604203" lon="17.979128645179">
        <ele>95.4</ele>
        <time>2018-01-13T16:51:42Z</time>
      </trkpt>
      <trkpt lat="62.634524668311" lon="17.979069720422">
        <ele>95.4</ele>
        <time>2018-01-13T16:51:43Z</time>
      </trkpt>
      <trkpt lat="62.634541096835" lon="17.978968550889">
        <ele>95.4</ele>
        <time>2018-01-13T16:51:45Z</time>
      </trkpt>
      <trkpt lat="62.634551071296" lon="17.978927647217">
        <ele>95.4</ele>
        <time>2018-01-13T16:51:46Z</time>
      </trkpt>
      <trkpt lat="62.634566493992" lon="17.978894371074">
        <ele>95.4</ele>
        <time>2018-01-13T16:51:47Z</time>
      </trkpt>
      <trkpt lat="62.634582335783" lon="17.978867465175">
        <ele>95.6</ele>
        <time>2018-01-13T16:51:48Z</time>
      </trkpt>
      <trkpt lat="62.634598429031" lon="17.97884692952">
        <ele>95.6</ele>
        <time>2018-01-13T16:51:49Z</time>
      </trkpt>
      <trkpt lat="62.634615025193" lon="17.978833434661">
        <ele>95.6</ele>
        <time>2018-01-13T16:51:50Z</time>
      </trkpt>
      <trkpt lat="62.634629190604" lon="17.97882262201">
        <ele>95.6</ele>
        <time>2018-01-13T16:51:51Z</time>
      </trkpt>
      <trkpt lat="62.634651905553" lon="17.978817173775">
        <ele>95.6</ele>
        <time>2018-01-13T16:51:52Z</time>
      </trkpt>
      <trkpt lat="62.634674704321" lon="17.97881926925">
        <ele>95.6</ele>
        <time>2018-01-13T16:51:53Z</time>
      </trkpt>
      <trkpt lat="62.63469322832" lon="17.978826896779">
        <ele>95.6</ele>
        <time>2018-01-13T16:51:54Z</time>
      </trkpt>
      <trkpt lat="62.634724073712" lon="17.978843157665">
        <ele>95.6</ele>
        <time>2018-01-13T16:51:55Z</time>
      </trkpt>
      <trkpt lat="62.634744693186" lon="17.978850952832">
        <ele>95.6</ele>
        <time>2018-01-13T16:51:56Z</time>
      </trkpt>
      <trkpt lat="62.634779729528" lon="17.978867716632">
        <ele>95.8</ele>
        <time>2018-01-13T16:51:57Z</time>
      </trkpt>
      <trkpt lat="62.634808479445" lon="17.978881630586">
        <ele>95.4</ele>
        <time>2018-01-13T16:51:58Z</time>
      </trkpt>
      <trkpt lat="62.634837480819" lon="17.978902417698">
        <ele>95.4</ele>
        <time>2018-01-13T16:51:59Z</time>
      </trkpt>
      <trkpt lat="62.63486170451" lon="17.978902417698">
        <ele>95.2</ele>
        <time>2018-01-13T16:52:00Z</time>
      </trkpt>
      <trkpt lat="62.63489104116" lon="17.9789156611">
        <ele>95</ele>
        <time>2018-01-13T16:52:01Z</time>
      </trkpt>
      <trkpt lat="62.634912917919" lon="17.978920271145">
        <ele>94.8</ele>
        <time>2018-01-13T16:52:02Z</time>
      </trkpt>
      <trkpt lat="62.634946194062" lon="17.978935610022">
        <ele>94.6</ele>
        <time>2018-01-13T16:52:03Z</time>
      </trkpt>
      <trkpt lat="62.634969244287" lon="17.978930664701">
        <ele>94.4</ele>
        <time>2018-01-13T16:52:04Z</time>
      </trkpt>
      <trkpt lat="62.634994641444" lon="17.978943069913">
        <ele>94.2</ele>
        <time>2018-01-13T16:52:05Z</time>
      </trkpt>
      <trkpt lat="62.63501760785" lon="17.978952876736">
        <ele>94.2</ele>
        <time>2018-01-13T16:52:06Z</time>
      </trkpt>
      <trkpt lat="62.63503772441" lon="17.978957067686">
        <ele>94.2</ele>
        <time>2018-01-13T16:52:07Z</time>
      </trkpt>
      <trkpt lat="62.635061948101" lon="17.978969221441">
        <ele>94</ele>
        <time>2018-01-13T16:52:08Z</time>
      </trkpt>
      <trkpt lat="62.635084830688" lon="17.978977268065">
        <ele>94</ele>
        <time>2018-01-13T16:52:09Z</time>
      </trkpt>
      <trkpt lat="62.635110730759" lon="17.978982883938">
        <ele>94.2</ele>
        <time>2018-01-13T16:52:10Z</time>
      </trkpt>
      <trkpt lat="62.635133780984" lon="17.97898774544">
        <ele>94.2</ele>
        <time>2018-01-13T16:52:11Z</time>
      </trkpt>
      <trkpt lat="62.635161860349" lon="17.978996462616">
        <ele>94.2</ele>
        <time>2018-01-13T16:52:12Z</time>
      </trkpt>
      <trkpt lat="62.635189855895" lon="17.978998893367">
        <ele>94.2</ele>
        <time>2018-01-13T16:52:13Z</time>
      </trkpt>
      <trkpt lat="62.635214414862" lon="17.979004593059">
        <ele>94.2</ele>
        <time>2018-01-13T16:52:14Z</time>
      </trkpt>
      <trkpt lat="62.635248529195" lon="17.979012639683">
        <ele>94.2</ele>
        <time>2018-01-13T16:52:15Z</time>
      </trkpt>
      <trkpt lat="62.635274596904" lon="17.979017165909">
        <ele>94</ele>
        <time>2018-01-13T16:52:16Z</time>
      </trkpt>
      <trkpt lat="62.635302927726" lon="17.979021943592">
        <ele>93.8</ele>
        <time>2018-01-13T16:52:17Z</time>
      </trkpt>
      <trkpt lat="62.635333018747" lon="17.979025128714">
        <ele>93.8</ele>
        <time>2018-01-13T16:52:18Z</time>
      </trkpt>
      <trkpt lat="62.635361517207" lon="17.979028649112">
        <ele>93.4</ele>
        <time>2018-01-13T16:52:19Z</time>
      </trkpt>
      <trkpt lat="62.635376101713" lon="17.979029403483">
        <ele>93.4</ele>
        <time>2018-01-13T16:52:20Z</time>
      </trkpt>
      <trkpt lat="62.635414239358" lon="17.979032923881">
        <ele>93.2</ele>
        <time>2018-01-13T16:52:21Z</time>
      </trkpt>
      <trkpt lat="62.635446844949" lon="17.979032588605">
        <ele>93</ele>
        <time>2018-01-13T16:52:22Z</time>
      </trkpt>
      <trkpt lat="62.635478444712" lon="17.979030325492">
        <ele>92.6</ele>
        <time>2018-01-13T16:52:23Z</time>
      </trkpt>
      <trkpt lat="62.635510295932" lon="17.979029068207">
        <ele>92.4</ele>
        <time>2018-01-13T16:52:24Z</time>
      </trkpt>
      <trkpt lat="62.63554231479" lon="17.979025212533">
        <ele>92.4</ele>
        <time>2018-01-13T16:52:25Z</time>
      </trkpt>
      <trkpt lat="62.635567041395" lon="17.979025547809">
        <ele>92.2</ele>
        <time>2018-01-13T16:52:26Z</time>
      </trkpt>
      <trkpt lat="62.635605933411" lon="17.979020602488">
        <ele>92</ele>
        <time>2018-01-13T16:52:27Z</time>
      </trkpt>
      <trkpt lat="62.63563954483" lon="17.979019764298">
        <ele>91.8</ele>
        <time>2018-01-13T16:52:28Z</time>
      </trkpt>
      <trkpt lat="62.635673659163" lon="17.979017501185">
        <ele>91.6</ele>
        <time>2018-01-13T16:52:29Z</time>
      </trkpt>
      <trkpt lat="62.635708444048" lon="17.979016160081">
        <ele>91.6</ele>
        <time>2018-01-13T16:52:30Z</time>
      </trkpt>
      <trkpt lat="62.635739037983" lon="17.979005095973">
        <ele>91.4</ele>
        <time>2018-01-13T16:52:31Z</time>
      </trkpt>
      <trkpt lat="62.63577197885" lon="17.978994115684">
        <ele>91.4</ele>
        <time>2018-01-13T16:52:32Z</time>
      </trkpt>
      <trkpt lat="62.635806596097" lon="17.979001491756">
        <ele>91.4</ele>
        <time>2018-01-13T16:52:33Z</time>
      </trkpt>
      <trkpt lat="62.63583316672" lon="17.979003168136">
        <ele>91.2</ele>
        <time>2018-01-13T16:52:34Z</time>
      </trkpt>
      <trkpt lat="62.635864598845" lon="17.979007526724">
        <ele>91.2</ele>
        <time>2018-01-13T16:52:35Z</time>
      </trkpt>
      <trkpt lat="62.635887229975" lon="17.97900618562">
        <ele>91</ele>
        <time>2018-01-13T16:52:36Z</time>
      </trkpt>
      <trkpt lat="62.63591782391" lon="17.979014483701">
        <ele>91</ele>
        <time>2018-01-13T16:52:37Z</time>
      </trkpt>
      <trkpt lat="62.635939449212" lon="17.979024458162">
        <ele>91</ele>
        <time>2018-01-13T16:52:38Z</time>
      </trkpt>
      <trkpt lat="62.635963672903" lon="17.97903049313">
        <ele>90.8</ele>
        <time>2018-01-13T16:52:40Z</time>
      </trkpt>
      <trkpt lat="62.635976245753" lon="17.979033426795">
        <ele>90.8</ele>
        <time>2018-01-13T16:52:41Z</time>
      </trkpt>
      <trkpt lat="62.635994350657" lon="17.979038791211">
        <ele>90.8</ele>
        <time>2018-01-13T16:52:42Z</time>
      </trkpt>
      <trkpt lat="62.636008683706" lon="17.97904306598">
        <ele>91</ele>
        <time>2018-01-13T16:52:43Z</time>
      </trkpt>
      <trkpt lat="62.636023100574" lon="17.979056057925">
        <ele>91</ele>
        <time>2018-01-13T16:52:44Z</time>
      </trkpt>
      <trkpt lat="62.636028884085" lon="17.979075420114">
        <ele>91.2</ele>
        <time>2018-01-13T16:52:45Z</time>
      </trkpt>
      <trkpt lat="62.636029386999" lon="17.979090256077">
        <ele>91.4</ele>
        <time>2018-01-13T16:52:46Z</time>
      </trkpt>
      <trkpt lat="62.636028967904" lon="17.979121604383">
        <ele>91.4</ele>
        <time>2018-01-13T16:52:47Z</time>
      </trkpt>
      <trkpt lat="62.636029470818" lon="17.979130405378">
        <ele>91.4</ele>
        <time>2018-01-13T16:52:48Z</time>
      </trkpt>
      <trkpt lat="62.636028297352" lon="17.979127555532">
        <ele>91.4</ele>
        <time>2018-01-13T16:52:49Z</time>
      </trkpt>
      <trkpt lat="62.636027459162" lon="17.979616304121">
        <ele>91</ele>
        <time>2018-01-13T16:53:19Z</time>
      </trkpt>
      <trkpt lat="62.636022765298" lon="17.979748235227">
        <ele>90.8</ele>
        <time>2018-01-13T16:53:20Z</time>
      </trkpt>
      <trkpt lat="62.636018155253" lon="17.979897349228">
        <ele>90.4</ele>
        <time>2018-01-13T16:53:21Z</time>
      </trkpt>
      <trkpt lat="62.636017903796" lon="17.980026011393">
        <ele>89.6</ele>
        <time>2018-01-13T16:53:22Z</time>
      </trkpt>
      <trkpt lat="62.636022932936" lon="17.980165486209">
        <ele>88.6</ele>
        <time>2018-01-13T16:53:23Z</time>
      </trkpt>
      <trkpt lat="62.636034080863" lon="17.980302530274">
        <ele>88</ele>
        <time>2018-01-13T16:53:24Z</time>
      </trkpt>
      <trkpt lat="62.63604774336" lon="17.980439071425">
        <ele>88.4</ele>
        <time>2018-01-13T16:53:25Z</time>
      </trkpt>
      <trkpt lat="62.636069703938" lon="17.980554657826">
        <ele>88.4</ele>
        <time>2018-01-13T16:53:26Z</time>
      </trkpt>
      <trkpt lat="62.636084791358" lon="17.980651384952">
        <ele>88.4</ele>
        <time>2018-01-13T16:53:27Z</time>
      </trkpt>
      <trkpt lat="62.636103818271" lon="17.980771329941">
        <ele>88.6</ele>
        <time>2018-01-13T16:53:28Z</time>
      </trkpt>
      <trkpt lat="62.636121587899" lon="17.980875852234">
        <ele>88.8</ele>
        <time>2018-01-13T16:53:29Z</time>
      </trkpt>
      <trkpt lat="62.636135334215" lon="17.980972160265">
        <ele>88.8</ele>
        <time>2018-01-13T16:53:30Z</time>
      </trkpt>
      <trkpt lat="62.636148242341" lon="17.981076095825">
        <ele>89.2</ele>
        <time>2018-01-13T16:53:31Z</time>
      </trkpt>
      <trkpt lat="62.636161066648" lon="17.981172403856">
        <ele>89.6</ele>
        <time>2018-01-13T16:53:32Z</time>
      </trkpt>
      <trkpt lat="62.636170286738" lon="17.981262760738">
        <ele>89.6</ele>
        <time>2018-01-13T16:53:33Z</time>
      </trkpt>
      <trkpt lat="62.636180009742" lon="17.981360409873">
        <ele>89.6</ele>
        <time>2018-01-13T16:53:34Z</time>
      </trkpt>
      <trkpt lat="62.636186799081" lon="17.981437355715">
        <ele>89.8</ele>
        <time>2018-01-13T16:53:35Z</time>
      </trkpt>
      <trkpt lat="62.636195935352" lon="17.981523354009">
        <ele>89.8</ele>
        <time>2018-01-13T16:53:36Z</time>
      </trkpt>
      <trkpt lat="62.63621286679" lon="17.981596025082">
        <ele>89.8</ele>
        <time>2018-01-13T16:53:37Z</time>
      </trkpt>
      <trkpt lat="62.636222505975" lon="17.981684118851">
        <ele>89.8</ele>
        <time>2018-01-13T16:53:38Z</time>
      </trkpt>
      <trkpt lat="62.636239018318" lon="17.981760897055">
        <ele>90</ele>
        <time>2018-01-13T16:53:39Z</time>
      </trkpt>
      <trkpt lat="62.636260308344" lon="17.981817726337">
        <ele>90</ele>
        <time>2018-01-13T16:53:40Z</time>
      </trkpt>
      <trkpt lat="62.636267935873" lon="17.981919650241">
        <ele>90.2</ele>
        <time>2018-01-13T16:53:41Z</time>
      </trkpt>
      <trkpt lat="62.636277910334" lon="17.981987711269">
        <ele>90.2</ele>
        <time>2018-01-13T16:53:42Z</time>
      </trkpt>
      <trkpt lat="62.636288806804" lon="17.982065662939">
        <ele>90</ele>
        <time>2018-01-13T16:53:43Z</time>
      </trkpt>
      <trkpt lat="62.63629333303" lon="17.982151828871">
        <ele>90.2</ele>
        <time>2018-01-13T16:53:44Z</time>
      </trkpt>
      <trkpt lat="62.636303139853" lon="17.982218716433">
        <ele>89.8</ele>
        <time>2018-01-13T16:53:45Z</time>
      </trkpt>
      <trkpt lat="62.636307666079" lon="17.982311001152">
        <ele>89.8</ele>
        <time>2018-01-13T16:53:46Z</time>
      </trkpt>
      <trkpt lat="62.636312108486" lon="17.982387946994">
        <ele>89.8</ele>
        <time>2018-01-13T16:53:47Z</time>
      </trkpt>
      <trkpt lat="62.636311354115" lon="17.982447039389">
        <ele>89.8</ele>
        <time>2018-01-13T16:53:48Z</time>
      </trkpt>
      <trkpt lat="62.636311186477" lon="17.982552399872">
        <ele>89.4</ele>
        <time>2018-01-13T16:53:49Z</time>
      </trkpt>
      <trkpt lat="62.636315377427" lon="17.98262381366">
        <ele>88.8</ele>
        <time>2018-01-13T16:53:50Z</time>
      </trkpt>
      <trkpt lat="62.636308336631" lon="17.982667734816">
        <ele>88.8</ele>
        <time>2018-01-13T16:53:51Z</time>
      </trkpt>
      <trkpt lat="62.636300792921" lon="17.982771251281">
        <ele>87.6</ele>
        <time>2018-01-13T16:53:52Z</time>
      </trkpt>
      <trkpt lat="62.636300373826" lon="17.982836294825">
        <ele>87</ele>
        <time>2018-01-13T16:53:53Z</time>
      </trkpt>
      <trkpt lat="62.636289644994" lon="17.982901506007">
        <ele>85.8</ele>
        <time>2018-01-13T16:53:54Z</time>
      </trkpt>
      <trkpt lat="62.636301463473" lon="17.982953641425">
        <ele>85.2</ele>
        <time>2018-01-13T16:53:55Z</time>
      </trkpt>
      <trkpt lat="62.636297104885" lon="17.983027737421">
        <ele>85.2</ele>
        <time>2018-01-13T16:53:56Z</time>
      </trkpt>
      <trkpt lat="62.63629249484" lon="17.983083896151">
        <ele>85</ele>
        <time>2018-01-13T16:53:57Z</time>
      </trkpt>
      <trkpt lat="62.636291405193" lon="17.983145754573">
        <ele>84.8</ele>
        <time>2018-01-13T16:53:58Z</time>
      </trkpt>
      <trkpt lat="62.636289225899" lon="17.983212474497">
        <ele>84.2</ele>
        <time>2018-01-13T16:53:59Z</time>
      </trkpt>
      <trkpt lat="62.636299367998" lon="17.983257150024">
        <ele>83.2</ele>
        <time>2018-01-13T16:54:00Z</time>
      </trkpt>
      <trkpt lat="62.636300206188" lon="17.98333459878">
        <ele>83.2</ele>
        <time>2018-01-13T16:54:01Z</time>
      </trkpt>
      <trkpt lat="62.636298194532" lon="17.983394361727">
        <ele>83</ele>
        <time>2018-01-13T16:54:02Z</time>
      </trkpt>
      <trkpt lat="62.636295679962" lon="17.983452196837">
        <ele>83</ele>
        <time>2018-01-13T16:54:03Z</time>
      </trkpt>
      <trkpt lat="62.636288722985" lon="17.98353911714">
        <ele>83</ele>
        <time>2018-01-13T16:54:04Z</time>
      </trkpt>
      <trkpt lat="62.636281011637" lon="17.98360617234">
        <ele>82.8</ele>
        <time>2018-01-13T16:54:05Z</time>
      </trkpt>
      <trkpt lat="62.636267768235" lon="17.983665013278">
        <ele>82.6</ele>
        <time>2018-01-13T16:54:06Z</time>
      </trkpt>
      <trkpt lat="62.636257542317" lon="17.98372854808">
        <ele>82.2</ele>
        <time>2018-01-13T16:54:07Z</time>
      </trkpt>
      <trkpt lat="62.63625058534" lon="17.983776492548">
        <ele>82</ele>
        <time>2018-01-13T16:54:08Z</time>
      </trkpt>
      <trkpt lat="62.636240862336" lon="17.983835501124">
        <ele>82</ele>
        <time>2018-01-13T16:54:09Z</time>
      </trkpt>
      <trkpt lat="62.636233150988" lon="17.983894593519">
        <ele>82.4</ele>
        <time>2018-01-13T16:54:10Z</time>
      </trkpt>
      <trkpt lat="62.636225691097" lon="17.983941951254">
        <ele>82.4</ele>
        <time>2018-01-13T16:54:11Z</time>
      </trkpt>
      <trkpt lat="62.636214794627" lon="17.983997355613">
        <ele>82.2</ele>
        <time>2018-01-13T16:54:12Z</time>
      </trkpt>
      <trkpt lat="62.63620448489" lon="17.984054268714">
        <ele>82.4</ele>
        <time>2018-01-13T16:54:13Z</time>
      </trkpt>
      <trkpt lat="62.636199371931" lon="17.98409818987">
        <ele>82.8</ele>
        <time>2018-01-13T16:54:14Z</time>
      </trkpt>
      <trkpt lat="62.636189984203" lon="17.984163233414">
        <ele>83</ele>
        <time>2018-01-13T16:54:15Z</time>
      </trkpt>
      <trkpt lat="62.63618604471" lon="17.984220649429">
        <ele>83.2</ele>
        <time>2018-01-13T16:54:16Z</time>
      </trkpt>
      <trkpt lat="62.63618520652" lon="17.984265660232">
        <ele>83.4</ele>
        <time>2018-01-13T16:54:17Z</time>
      </trkpt>
      <trkpt lat="62.636182105217" lon="17.984326848102">
        <ele>83.8</ele>
        <time>2018-01-13T16:54:18Z</time>
      </trkpt>
      <trkpt lat="62.636186212348" lon="17.984386443411">
        <ele>83.8</ele>
        <time>2018-01-13T16:54:19Z</time>
      </trkpt>
      <trkpt lat="62.636185290339" lon="17.984430783662">
        <ele>84.2</ele>
        <time>2018-01-13T16:54:20Z</time>
      </trkpt>
      <trkpt lat="62.636184703606" lon="17.984487193849">
        <ele>84.2</ele>
        <time>2018-01-13T16:54:21Z</time>
      </trkpt>
      <trkpt lat="62.63618101557" lon="17.984548130262">
        <ele>84.6</ele>
        <time>2018-01-13T16:54:22Z</time>
      </trkpt>
      <trkpt lat="62.636178165724" lon="17.984595990911">
        <ele>84.8</ele>
        <time>2018-01-13T16:54:23Z</time>
      </trkpt>
      <trkpt lat="62.636171041109" lon="17.984654245116">
        <ele>85</ele>
        <time>2018-01-13T16:54:24Z</time>
      </trkpt>
      <trkpt lat="62.636168275082" lon="17.984704955611">
        <ele>85.2</ele>
        <time>2018-01-13T16:54:25Z</time>
      </trkpt>
      <trkpt lat="62.63616508996" lon="17.984748373853">
        <ele>85.4</ele>
        <time>2018-01-13T16:54:26Z</time>
      </trkpt>
      <trkpt lat="62.636167939806" lon="17.984811992474">
        <ele>85.6</ele>
        <time>2018-01-13T16:54:27Z</time>
      </trkpt>
      <trkpt lat="62.636166933978" lon="17.98486178096">
        <ele>85.8</ele>
        <time>2018-01-13T16:54:28Z</time>
      </trkpt>
      <trkpt lat="62.636164419408" lon="17.984912575274">
        <ele>85.8</ele>
        <time>2018-01-13T16:54:29Z</time>
      </trkpt>
      <trkpt lat="62.636159893182" lon="17.984969488375">
        <ele>86</ele>
        <time>2018-01-13T16:54:30Z</time>
      </trkpt>
      <trkpt lat="62.636159893182" lon="17.985010811142">
        <ele>86</ele>
        <time>2018-01-13T16:54:31Z</time>
      </trkpt>
      <trkpt lat="62.636157462431" lon="17.985058252696">
        <ele>86.2</ele>
        <time>2018-01-13T16:54:32Z</time>
      </trkpt>
      <trkpt lat="62.636157210974" lon="17.985120697851">
        <ele>86.2</ele>
        <time>2018-01-13T16:54:33Z</time>
      </trkpt>
      <trkpt lat="62.636155199318" lon="17.985167468853">
        <ele>86.4</ele>
        <time>2018-01-13T16:54:34Z</time>
      </trkpt>
      <trkpt lat="62.636151008368" lon="17.985218766081">
        <ele>86.4</ele>
        <time>2018-01-13T16:54:35Z</time>
      </trkpt>
      <trkpt lat="62.636148074703" lon="17.985264363617">
        <ele>86.6</ele>
        <time>2018-01-13T16:54:36Z</time>
      </trkpt>
      <trkpt lat="62.636148409979" lon="17.985308703868">
        <ele>86.6</ele>
        <time>2018-01-13T16:54:37Z</time>
      </trkpt>
      <trkpt lat="62.636147152694" lon="17.98535463668">
        <ele>86.6</ele>
        <time>2018-01-13T16:54:38Z</time>
      </trkpt>
      <trkpt lat="62.636145979228" lon="17.985413393799">
        <ele>87</ele>
        <time>2018-01-13T16:54:39Z</time>
      </trkpt>
      <trkpt lat="62.636143129382" lon="17.985459997163">
        <ele>87</ele>
        <time>2018-01-13T16:54:40Z</time>
      </trkpt>
      <trkpt lat="62.636139776622" lon="17.98551054002">
        <ele>87.2</ele>
        <time>2018-01-13T16:54:41Z</time>
      </trkpt>
      <trkpt lat="62.636130640351" lon="17.985571560252">
        <ele>87.2</ele>
        <time>2018-01-13T16:54:42Z</time>
      </trkpt>
      <trkpt lat="62.636118905691" lon="17.985627467525">
        <ele>87.2</ele>
        <time>2018-01-13T16:54:43Z</time>
      </trkpt>
      <trkpt lat="62.636107338669" lon="17.985683458617">
        <ele>87.2</ele>
        <time>2018-01-13T16:54:44Z</time>
      </trkpt>
      <trkpt lat="62.636091832154" lon="17.985739282071">
        <ele>87.2</ele>
        <time>2018-01-13T16:54:45Z</time>
      </trkpt>
      <trkpt lat="62.636076660915" lon="17.985777838811">
        <ele>87.2</ele>
        <time>2018-01-13T16:54:46Z</time>
      </trkpt>
      <trkpt lat="62.636059897115" lon="17.985810192945">
        <ele>87.4</ele>
        <time>2018-01-13T16:54:47Z</time>
      </trkpt>
      <trkpt lat="62.636036511614" lon="17.98585335973">
        <ele>87.4</ele>
        <time>2018-01-13T16:54:48Z</time>
      </trkpt>
      <trkpt lat="62.636018322891" lon="17.985883199294">
        <ele>87.4</ele>
        <time>2018-01-13T16:54:49Z</time>
      </trkpt>
      <trkpt lat="62.63600164291" lon="17.985910440469">
        <ele>87.6</ele>
        <time>2018-01-13T16:54:50Z</time>
      </trkpt>
      <trkpt lat="62.635977083943" lon="17.985927791002">
        <ele>87.8</ele>
        <time>2018-01-13T16:54:51Z</time>
      </trkpt>
      <trkpt lat="62.635954033718" lon="17.985948578114">
        <ele>88</ele>
        <time>2018-01-13T16:54:52Z</time>
      </trkpt>
      <trkpt lat="62.635931151131" lon="17.985968443217">
        <ele>88</ele>
        <time>2018-01-13T16:54:53Z</time>
      </trkpt>
      <trkpt lat="62.63590860382" lon="17.985989733243">
        <ele>88</ele>
        <time>2018-01-13T16:54:54Z</time>
      </trkpt>
      <trkpt lat="62.635886727061" lon="17.98601010126">
        <ele>88.2</ele>
        <time>2018-01-13T16:54:55Z</time>
      </trkpt>
      <trkpt lat="62.63586669432" lon="17.986027535612">
        <ele>88.4</ele>
        <time>2018-01-13T16:54:56Z</time>
      </trkpt>
      <trkpt lat="62.635840375154" lon="17.986047484534">
        <ele>88.4</ele>
        <time>2018-01-13T16:54:57Z</time>
      </trkpt>
      <trkpt lat="62.635815732368" lon="17.986076821184">
        <ele>88.6</ele>
        <time>2018-01-13T16:54:58Z</time>
      </trkpt>
      <trkpt lat="62.635790335211" lon="17.986105990196">
        <ele>88.6</ele>
        <time>2018-01-13T16:54:59Z</time>
      </trkpt>
      <trkpt lat="62.635764854235" lon="17.986134404837">
        <ele>88.8</ele>
        <time>2018-01-13T16:55:00Z</time>
      </trkpt>
      <trkpt lat="62.635746749331" lon="17.986156449234">
        <ele>89</ele>
        <time>2018-01-13T16:55:01Z</time>
      </trkpt>
      <trkpt lat="62.635730153169" lon="17.986181594934">
        <ele>89</ele>
        <time>2018-01-13T16:55:02Z</time>
      </trkpt>
      <trkpt lat="62.635710371885" lon="17.98620959048">
        <ele>89.2</ele>
        <time>2018-01-13T16:55:03Z</time>
      </trkpt>
      <trkpt lat="62.635693440447" lon="17.986236077284">
        <ele>89.4</ele>
        <time>2018-01-13T16:55:04Z</time>
      </trkpt>
      <trkpt lat="62.635677514837" lon="17.986268850513">
        <ele>89.6</ele>
        <time>2018-01-13T16:55:05Z</time>
      </trkpt>
      <trkpt lat="62.635656643906" lon="17.986308580719">
        <ele>90</ele>
        <time>2018-01-13T16:55:06Z</time>
      </trkpt>
      <trkpt lat="62.635634264233" lon="17.986356692825">
        <ele>90.2</ele>
        <time>2018-01-13T16:55:07Z</time>
      </trkpt>
      <trkpt lat="62.635620685555" lon="17.986399524334">
        <ele>90.4</ele>
        <time>2018-01-13T16:55:08Z</time>
      </trkpt>
      <trkpt lat="62.635603083565" lon="17.986447887897">
        <ele>90.6</ele>
        <time>2018-01-13T16:55:09Z</time>
      </trkpt>
      <trkpt lat="62.635588582878" lon="17.986496167641">
        <ele>90.6</ele>
        <time>2018-01-13T16:55:10Z</time>
      </trkpt>
      <trkpt lat="62.635575674752" lon="17.986535478752">
        <ele>90.4</ele>
        <time>2018-01-13T16:55:11Z</time>
      </trkpt>
      <trkpt lat="62.63555991678" lon="17.986580154279">
        <ele>90.4</ele>
        <time>2018-01-13T16:55:12Z</time>
      </trkpt>
      <trkpt lat="62.635543320618" lon="17.986623237245">
        <ele>90.4</ele>
        <time>2018-01-13T16:55:13Z</time>
      </trkpt>
      <trkpt lat="62.635527311189" lon="17.986656513388">
        <ele>90.4</ele>
        <time>2018-01-13T16:55:14Z</time>
      </trkpt>
      <trkpt lat="62.63550962538" lon="17.986690208626">
        <ele>90.4</ele>
        <time>2018-01-13T16:55:15Z</time>
      </trkpt>
      <trkpt lat="62.635494286503" lon="17.986724742054">
        <ele>90.4</ele>
        <time>2018-01-13T16:55:16Z</time>
      </trkpt>
      <trkpt lat="62.635483138576" lon="17.986774111445">
        <ele>90.6</ele>
        <time>2018-01-13T16:55:17Z</time>
      </trkpt>
      <trkpt lat="62.635469811355" lon="17.986833036202">
        <ele>90.8</ele>
        <time>2018-01-13T16:55:18Z</time>
      </trkpt>
      <trkpt lat="62.635456316496" lon="17.986898750298">
        <ele>91</ele>
        <time>2018-01-13T16:55:19Z</time>
      </trkpt>
      <trkpt lat="62.635440809981" lon="17.986952394458">
        <ele>91.2</ele>
        <time>2018-01-13T16:55:20Z</time>
      </trkpt>
      <trkpt lat="62.635422369801" lon="17.987011989767">
        <ele>91.4</ele>
        <time>2018-01-13T16:55:21Z</time>
      </trkpt>
      <trkpt lat="62.635399990128" lon="17.987070495429">
        <ele>91.6</ele>
        <time>2018-01-13T16:55:22Z</time>
      </trkpt>
      <trkpt lat="62.635385154165" lon="17.987123385218">
        <ele>91.6</ele>
        <time>2018-01-13T16:55:23Z</time>
      </trkpt>
      <trkpt lat="62.635367552175" lon="17.987168144564">
        <ele>91.8</ele>
        <time>2018-01-13T16:55:24Z</time>
      </trkpt>
      <trkpt lat="62.635347267977" lon="17.987211143711">
        <ele>92</ele>
        <time>2018-01-13T16:55:25Z</time>
      </trkpt>
      <trkpt lat="62.635329498349" lon="17.987250873917">
        <ele>92.2</ele>
        <time>2018-01-13T16:55:26Z</time>
      </trkpt>
      <trkpt lat="62.635303598278" lon="17.987298483109">
        <ele>92.2</ele>
        <time>2018-01-13T16:55:27Z</time>
      </trkpt>
      <trkpt lat="62.635279458406" lon="17.987339638238">
        <ele>92.4</ele>
        <time>2018-01-13T16:55:28Z</time>
      </trkpt>
      <trkpt lat="62.635258000742" lon="17.987382469747">
        <ele>92.6</ele>
        <time>2018-01-13T16:55:29Z</time>
      </trkpt>
      <trkpt lat="62.635236962173" lon="17.987420188297">
        <ele>92.6</ele>
        <time>2018-01-13T16:55:30Z</time>
      </trkpt>
      <trkpt lat="62.635222545305" lon="17.987454637906">
        <ele>92.8</ele>
        <time>2018-01-13T16:55:31Z</time>
      </trkpt>
      <trkpt lat="62.635204188944" lon="17.987487578773">
        <ele>92.6</ele>
        <time>2018-01-13T16:55:32Z</time>
      </trkpt>
      <trkpt lat="62.63518021671" lon="17.987527392798">
        <ele>92.8</ele>
        <time>2018-01-13T16:55:33Z</time>
      </trkpt>
      <trkpt lat="62.635165045471" lon="17.987559244018">
        <ele>92.8</ele>
        <time>2018-01-13T16:55:34Z</time>
      </trkpt>
      <trkpt lat="62.635146940567" lon="17.987599393319">
        <ele>92.6</ele>
        <time>2018-01-13T16:55:35Z</time>
      </trkpt>
      <trkpt lat="62.635127662197" lon="17.987637530964">
        <ele>92.8</ele>
        <time>2018-01-13T16:55:36Z</time>
      </trkpt>
      <trkpt lat="62.635105366343" lon="17.987681284482">
        <ele>92.8</ele>
        <time>2018-01-13T16:55:37Z</time>
      </trkpt>
      <trkpt lat="62.635086255611" lon="17.987717075195">
        <ele>93</ele>
        <time>2018-01-13T16:55:38Z</time>
      </trkpt>
      <trkpt lat="62.635066725784" lon="17.987757811229">
        <ele>93.2</ele>
        <time>2018-01-13T16:55:39Z</time>
      </trkpt>
      <trkpt lat="62.635044513749" lon="17.987790333001">
        <ele>93.4</ele>
        <time>2018-01-13T16:55:40Z</time>
      </trkpt>
      <trkpt lat="62.635023978094" lon="17.987823692963">
        <ele>93.6</ele>
        <time>2018-01-13T16:55:41Z</time>
      </trkpt>
      <trkpt lat="62.635007381932" lon="17.987860489504">
        <ele>93.8</ele>
        <time>2018-01-13T16:55:42Z</time>
      </trkpt>
      <trkpt lat="62.634989528485" lon="17.987892676">
        <ele>94</ele>
        <time>2018-01-13T16:55:43Z</time>
      </trkpt>
      <trkpt lat="62.634973519056" lon="17.987920420089">
        <ele>94</ele>
        <time>2018-01-13T16:55:44Z</time>
      </trkpt>
      <trkpt lat="62.63495390541" lon="17.987950846386">
        <ele>94.4</ele>
        <time>2018-01-13T16:55:45Z</time>
      </trkpt>
      <trkpt lat="62.634935884325" lon="17.987976327362">
        <ele>94.6</ele>
        <time>2018-01-13T16:55:46Z</time>
      </trkpt>
      <trkpt lat="62.634915851584" lon="17.987995186637">
        <ele>94.6</ele>
        <time>2018-01-13T16:55:47Z</time>
      </trkpt>
      <trkpt lat="62.634891208798" lon="17.988016476663">
        <ele>95</ele>
        <time>2018-01-13T16:55:48Z</time>
      </trkpt>
      <trkpt lat="62.634866482193" lon="17.988031731721">
        <ele>95.2</ele>
        <time>2018-01-13T16:55:49Z</time>
      </trkpt>
      <trkpt lat="62.634848377289" lon="17.988046986779">
        <ele>95.4</ele>
        <time>2018-01-13T16:55:50Z</time>
      </trkpt>
      <trkpt lat="62.634818873001" lon="17.988054111394">
        <ele>95.4</ele>
        <time>2018-01-13T16:55:51Z</time>
      </trkpt>
      <trkpt lat="62.634788279066" lon="17.988061487466">
        <ele>95.4</ele>
        <time>2018-01-13T16:55:52Z</time>
      </trkpt>
      <trkpt lat="62.634761792262" lon="17.988083448044">
        <ele>95.4</ele>
        <time>2018-01-13T16:55:53Z</time>
      </trkpt>
      <trkpt lat="62.634733964354" lon="17.98808629789">
        <ele>95.4</ele>
        <time>2018-01-13T16:55:54Z</time>
      </trkpt>
      <trkpt lat="62.634705046799" lon="17.98809467979">
        <ele>95.2</ele>
        <time>2018-01-13T16:55:55Z</time>
      </trkpt>
      <trkpt lat="62.634681158384" lon="17.988108593744">
        <ele>95.4</ele>
        <time>2018-01-13T16:55:56Z</time>
      </trkpt>
      <trkpt lat="62.634651737915" lon="17.988115969816">
        <ele>95.4</ele>
        <time>2018-01-13T16:55:57Z</time>
      </trkpt>
      <trkpt lat="62.634621730713" lon="17.988117562377">
        <ele>95.6</ele>
        <time>2018-01-13T16:55:58Z</time>
      </trkpt>
      <trkpt lat="62.634595076271" lon="17.988117981472">
        <ele>95.8</ele>
        <time>2018-01-13T16:55:59Z</time>
      </trkpt>
      <trkpt lat="62.634568924743" lon="17.988130470503">
        <ele>95.8</ele>
        <time>2018-01-13T16:56:00Z</time>
      </trkpt>
      <trkpt lat="62.634537492618" lon="17.988141283154">
        <ele>96</ele>
        <time>2018-01-13T16:56:01Z</time>
      </trkpt>
      <trkpt lat="62.634507233959" lon="17.988149413597">
        <ele>96.2</ele>
        <time>2018-01-13T16:56:02Z</time>
      </trkpt>
      <trkpt lat="62.634480411879" lon="17.988162321723">
        <ele>96.4</ele>
        <time>2018-01-13T16:56:03Z</time>
      </trkpt>
      <trkpt lat="62.634451913419" lon="17.988164417198">
        <ele>96.6</ele>
        <time>2018-01-13T16:56:04Z</time>
      </trkpt>
      <trkpt lat="62.634420648932" lon="17.988173804926">
        <ele>96.6</ele>
        <time>2018-01-13T16:56:05Z</time>
      </trkpt>
      <trkpt lat="62.634391228463" lon="17.988177576781">
        <ele>96.6</ele>
        <time>2018-01-13T16:56:06Z</time>
      </trkpt>
      <trkpt lat="62.634361891813" lon="17.988178079695">
        <ele>96.6</ele>
        <time>2018-01-13T16:56:07Z</time>
      </trkpt>
      <trkpt lat="62.634325011453" lon="17.988185623405">
        <ele>96.8</ele>
        <time>2018-01-13T16:56:08Z</time>
      </trkpt>
      <trkpt lat="62.634292070586" lon="17.988193418572">
        <ele>96.8</ele>
        <time>2018-01-13T16:56:09Z</time>
      </trkpt>
      <trkpt lat="62.634262482479" lon="17.988195178771">
        <ele>97</ele>
        <time>2018-01-13T16:56:10Z</time>
      </trkpt>
      <trkpt lat="62.634231637087" lon="17.988188724708">
        <ele>97.2</ele>
        <time>2018-01-13T16:56:11Z</time>
      </trkpt>
      <trkpt lat="62.634202803351" lon="17.988178917885">
        <ele>97.2</ele>
        <time>2018-01-13T16:56:12Z</time>
      </trkpt>
      <trkpt lat="62.634170868312" lon="17.98817263146">
        <ele>97.4</ele>
        <time>2018-01-13T16:56:13Z</time>
      </trkpt>
      <trkpt lat="62.634152092856" lon="17.988164501017">
        <ele>97.4</ele>
        <time>2018-01-13T16:56:14Z</time>
      </trkpt>
      <trkpt lat="62.634125270776" lon="17.988155364746">
        <ele>97.6</ele>
        <time>2018-01-13T16:56:15Z</time>
      </trkpt>
      <trkpt lat="62.634097191411" lon="17.988137762756">
        <ele>97.6</ele>
        <time>2018-01-13T16:56:16Z</time>
      </trkpt>
      <trkpt lat="62.634074560281" lon="17.988123848802">
        <ele>97.6</ele>
        <time>2018-01-13T16:56:17Z</time>
      </trkpt>
      <trkpt lat="62.634043714889" lon="17.98810976721">
        <ele>97.6</ele>
        <time>2018-01-13T16:56:18Z</time>
      </trkpt>
      <trkpt lat="62.634013037135" lon="17.988099206016">
        <ele>97.6</ele>
        <time>2018-01-13T16:56:19Z</time>
      </trkpt>
      <trkpt lat="62.633994429317" lon="17.988088393365">
        <ele>97.8</ele>
        <time>2018-01-13T16:56:20Z</time>
      </trkpt>
      <trkpt lat="62.633961404631" lon="17.988068276805">
        <ele>97.8</ele>
        <time>2018-01-13T16:56:21Z</time>
      </trkpt>
      <trkpt lat="62.633930894515" lon="17.988042041458">
        <ele>98</ele>
        <time>2018-01-13T16:56:22Z</time>
      </trkpt>
      <trkpt lat="62.633907928109" lon="17.988023182183">
        <ele>98</ele>
        <time>2018-01-13T16:56:23Z</time>
      </trkpt>
      <trkpt lat="62.633883117685" lon="17.988002395071">
        <ele>98</ele>
        <time>2018-01-13T16:56:24Z</time>
      </trkpt>
      <trkpt lat="62.633861660021" lon="17.987987056194">
        <ele>98.2</ele>
        <time>2018-01-13T16:56:25Z</time>
      </trkpt>
      <trkpt lat="62.633837352511" lon="17.987964173607">
        <ele>98.4</ele>
        <time>2018-01-13T16:56:26Z</time>
      </trkpt>
      <trkpt lat="62.633801058884" lon="17.987930059274">
        <ele>98.4</ele>
        <time>2018-01-13T16:56:27Z</time>
      </trkpt>
      <trkpt lat="62.633777589564" lon="17.98791111618">
        <ele>98.4</ele>
        <time>2018-01-13T16:56:28Z</time>
      </trkpt>
      <trkpt lat="62.633746241258" lon="17.987883204453">
        <ele>98.6</ele>
        <time>2018-01-13T16:56:29Z</time>
      </trkpt>
      <trkpt lat="62.633714306219" lon="17.987852694337">
        <ele>98.4</ele>
        <time>2018-01-13T16:56:30Z</time>
      </trkpt>
      <trkpt lat="62.63368488575" lon="17.987819082918">
        <ele>98.6</ele>
        <time>2018-01-13T16:56:31Z</time>
      </trkpt>
      <trkpt lat="62.633657057842" lon="17.987786561146">
        <ele>98.8</ele>
        <time>2018-01-13T16:56:32Z</time>
      </trkpt>
      <trkpt lat="62.633628140287" lon="17.98775437465">
        <ele>98.8</ele>
        <time>2018-01-13T16:56:33Z</time>
      </trkpt>
      <trkpt lat="62.633600982931" lon="17.987721266145">
        <ele>98.8</ele>
        <time>2018-01-13T16:56:34Z</time>
      </trkpt>
      <trkpt lat="62.633577345973" lon="17.987685307794">
        <ele>99</ele>
        <time>2018-01-13T16:56:35Z</time>
      </trkpt>
      <trkpt lat="62.633558486698" lon="17.987662844302">
        <ele>99.4</ele>
        <time>2018-01-13T16:56:36Z</time>
      </trkpt>
      <trkpt lat="62.633530994066" lon="17.987623197915">
        <ele>99.6</ele>
        <time>2018-01-13T16:56:37Z</time>
      </trkpt>
      <trkpt lat="62.633500232493" lon="17.9875825457">
        <ele>99.8</ele>
        <time>2018-01-13T16:56:38Z</time>
      </trkpt>
      <trkpt lat="62.633474751517" lon="17.987549185738">
        <ele>100.2</ele>
        <time>2018-01-13T16:56:39Z</time>
      </trkpt>
      <trkpt lat="62.633450108731" lon="17.987517753613">
        <ele>100.4</ele>
        <time>2018-01-13T16:56:40Z</time>
      </trkpt>
      <trkpt lat="62.633421861728" lon="17.987485064203">
        <ele>100.4</ele>
        <time>2018-01-13T16:56:41Z</time>
      </trkpt>
      <trkpt lat="62.633400068788" lon="17.987447345653">
        <ele>100.4</ele>
        <time>2018-01-13T16:56:42Z</time>
      </trkpt>
      <trkpt lat="62.633384310816" lon="17.987406777257">
        <ele>100.4</ele>
        <time>2018-01-13T16:56:43Z</time>
      </trkpt>
      <trkpt lat="62.633360673858" lon="17.987365370671">
        <ele>100.6</ele>
        <time>2018-01-13T16:56:44Z</time>
      </trkpt>
      <trkpt lat="62.633335695796" lon="17.987326730112">
        <ele>100.8</ele>
        <time>2018-01-13T16:56:45Z</time>
      </trkpt>
      <trkpt lat="62.633310382458" lon="17.987268727364">
        <ele>101.4</ele>
        <time>2018-01-13T16:56:46Z</time>
      </trkpt>
      <trkpt lat="62.633284398568" lon="17.987206449847">
        <ele>101.4</ele>
        <time>2018-01-13T16:56:47Z</time>
      </trkpt>
      <trkpt lat="62.633261935076" lon="17.98713076129">
        <ele>101.6</ele>
        <time>2018-01-13T16:56:48Z</time>
      </trkpt>
      <trkpt lat="62.633238381937" lon="17.987027915377">
        <ele>101.4</ele>
        <time>2018-01-13T16:56:49Z</time>
      </trkpt>
      <trkpt lat="62.63322220487" lon="17.986931355889">
        <ele>100.8</ele>
        <time>2018-01-13T16:56:50Z</time>
      </trkpt>
      <trkpt lat="62.633210721667" lon="17.986831192184">
        <ele>100.4</ele>
        <time>2018-01-13T16:56:51Z</time>
      </trkpt>
      <trkpt lat="62.633203513233" lon="17.986723149493">
        <ele>99.6</ele>
        <time>2018-01-13T16:56:52Z</time>
      </trkpt>
      <trkpt lat="62.633201585396" lon="17.986635139543">
        <ele>99.2</ele>
        <time>2018-01-13T16:56:53Z</time>
      </trkpt>
      <trkpt lat="62.633199322283" lon="17.986539921159">
        <ele>98.8</ele>
        <time>2018-01-13T16:56:54Z</time>
      </trkpt>
      <trkpt lat="62.633197394446" lon="17.986457107987">
        <ele>98.6</ele>
        <time>2018-01-13T16:56:55Z</time>
      </trkpt>
      <trkpt lat="62.633196388618" lon="17.986375468281">
        <ele>98.6</ele>
        <time>2018-01-13T16:56:56Z</time>
      </trkpt>
      <trkpt lat="62.63319370641" lon="17.986267090314">
        <ele>98.6</ele>
        <time>2018-01-13T16:56:57Z</time>
      </trkpt>
      <trkpt lat="62.633199070826" lon="17.986166675152">
        <ele>98.6</ele>
        <time>2018-01-13T16:56:58Z</time>
      </trkpt>
      <trkpt lat="62.633196053342" lon="17.9860570399">
        <ele>98.6</ele>
        <time>2018-01-13T16:56:59Z</time>
      </trkpt>
      <trkpt lat="62.633193454953" lon="17.985941202042">
        <ele>98.6</ele>
        <time>2018-01-13T16:57:00Z</time>
      </trkpt>
      <trkpt lat="62.633194041686" lon="17.985848582047">
        <ele>98</ele>
        <time>2018-01-13T16:57:01Z</time>
      </trkpt>
      <trkpt lat="62.633193622591" lon="17.985764176314">
        <ele>97.4</ele>
        <time>2018-01-13T16:57:02Z</time>
      </trkpt>
      <trkpt lat="62.633194209324" lon="17.985659570202">
        <ele>96.8</ele>
        <time>2018-01-13T16:57:03Z</time>
      </trkpt>
      <trkpt lat="62.633203345595" lon="17.985579103962">
        <ele>96.4</ele>
        <time>2018-01-13T16:57:04Z</time>
      </trkpt>
      <trkpt lat="62.633205273432" lon="17.985484472311">
        <ele>96.2</ele>
        <time>2018-01-13T16:57:05Z</time>
      </trkpt>
      <trkpt lat="62.633210218753" lon="17.985381710217">
        <ele>96.2</ele>
        <time>2018-01-13T16:57:06Z</time>
      </trkpt>
      <trkpt lat="62.633224635621" lon="17.985256652269">
        <ele>96.4</ele>
        <time>2018-01-13T16:57:07Z</time>
      </trkpt>
      <trkpt lat="62.633239052489" lon="17.985156907659">
        <ele>96.2</ele>
        <time>2018-01-13T16:57:08Z</time>
      </trkpt>
      <trkpt lat="62.633251206244" lon="17.985016259377">
        <ele>95.6</ele>
        <time>2018-01-13T16:57:09Z</time>
      </trkpt>
      <trkpt lat="62.633268724415" lon="17.984896817302">
        <ele>94.8</ele>
        <time>2018-01-13T16:57:10Z</time>
      </trkpt>
      <trkpt lat="62.633287248414" lon="17.984790115715">
        <ele>94.2</ele>
        <time>2018-01-13T16:57:11Z</time>
      </trkpt>
      <trkpt lat="62.633307197336" lon="17.984677882074">
        <ele>93.4</ele>
        <time>2018-01-13T16:57:12Z</time>
      </trkpt>
      <trkpt lat="62.633324547869" lon="17.984577969826">
        <ele>92.8</ele>
        <time>2018-01-13T16:57:13Z</time>
      </trkpt>
      <trkpt lat="62.633342988049" lon="17.984496749215">
        <ele>92.6</ele>
        <time>2018-01-13T16:57:14Z</time>
      </trkpt>
      <trkpt lat="62.633367463197" lon="17.984423156133">
        <ele>92.4</ele>
        <time>2018-01-13T16:57:15Z</time>
      </trkpt>
      <trkpt lat="62.633386406291" lon="17.984357022942">
        <ele>92.4</ele>
        <time>2018-01-13T16:57:16Z</time>
      </trkpt>
      <trkpt lat="62.633400906978" lon="17.984270354096">
        <ele>92.4</ele>
        <time>2018-01-13T16:57:18Z</time>
      </trkpt>
      <trkpt lat="62.633407947774" lon="17.984210088235">
        <ele>92.6</ele>
        <time>2018-01-13T16:57:19Z</time>
      </trkpt>
      <trkpt lat="62.633413982742" lon="17.984094920929">
        <ele>92.8</ele>
        <time>2018-01-13T16:57:20Z</time>
      </trkpt>
      <trkpt lat="62.6334208559" lon="17.984045216262">
        <ele>93.2</ele>
        <time>2018-01-13T16:57:21Z</time>
      </trkpt>
      <trkpt lat="62.633429321619" lon="17.9839615649">
        <ele>93.6</ele>
        <time>2018-01-13T16:57:22Z</time>
      </trkpt>
      <trkpt lat="62.633434602216" lon="17.983879087004">
        <ele>93.6</ele>
        <time>2018-01-13T16:57:23Z</time>
      </trkpt>
      <trkpt lat="62.633444576677" lon="17.983822509179">
        <ele>93.4</ele>
        <time>2018-01-13T16:57:24Z</time>
      </trkpt>
      <trkpt lat="62.633470560567" lon="17.983752939409">
        <ele>93.4</ele>
        <time>2018-01-13T16:57:25Z</time>
      </trkpt>
      <trkpt lat="62.633483887788" lon="17.983688231141">
        <ele>93.4</ele>
        <time>2018-01-13T16:57:26Z</time>
      </trkpt>
      <trkpt lat="62.633500064855" lon="17.98365059641">
        <ele>93.4</ele>
        <time>2018-01-13T16:57:27Z</time>
      </trkpt>
      <trkpt lat="62.633520349053" lon="17.983561580632">
        <ele>93.4</ele>
        <time>2018-01-13T16:57:28Z</time>
      </trkpt>
      <trkpt lat="62.633534598283" lon="17.98348966393">
        <ele>93.4</ele>
        <time>2018-01-13T16:57:29Z</time>
      </trkpt>
      <trkpt lat="62.633547338771" lon="17.983436355046">
        <ele>93.6</ele>
        <time>2018-01-13T16:57:30Z</time>
      </trkpt>
      <trkpt lat="62.633557229413" lon="17.983345076155">
        <ele>93.6</ele>
        <time>2018-01-13T16:57:31Z</time>
      </trkpt>
      <trkpt lat="62.633573993213" lon="17.983272740358">
        <ele>93.6</ele>
        <time>2018-01-13T16:57:32Z</time>
      </trkpt>
      <trkpt lat="62.633600060922" lon="17.983230914677">
        <ele>93.6</ele>
        <time>2018-01-13T16:57:33Z</time>
      </trkpt>
      <trkpt lat="62.633618752559" lon="17.983157824509">
        <ele>93.8</ele>
        <time>2018-01-13T16:57:34Z</time>
      </trkpt>
      <trkpt lat="62.633630571038" lon="17.983073251138">
        <ele>93.8</ele>
        <time>2018-01-13T16:57:35Z</time>
      </trkpt>
      <trkpt lat="62.633645155544" lon="17.983013320553">
        <ele>93.8</ele>
        <time>2018-01-13T16:57:36Z</time>
      </trkpt>
      <trkpt lat="62.633654794729" lon="17.982947774095">
        <ele>93.8</ele>
        <time>2018-01-13T16:57:37Z</time>
      </trkpt>
      <trkpt lat="62.633668289588" lon="17.982855489376">
        <ele>93.8</ele>
        <time>2018-01-13T16:57:38Z</time>
      </trkpt>
      <trkpt lat="62.633687819415" lon="17.982791870755">
        <ele>93.8</ele>
        <time>2018-01-13T16:57:39Z</time>
      </trkpt>
      <trkpt lat="62.633708438889" lon="17.982742249907">
        <ele>93.8</ele>
        <time>2018-01-13T16:57:40Z</time>
      </trkpt>
      <trkpt lat="62.633729226001" lon="17.982659604373">
        <ele>93.8</ele>
        <time>2018-01-13T16:57:41Z</time>
      </trkpt>
      <trkpt lat="62.633738026996" lon="17.982583161445">
        <ele>93.8</ele>
        <time>2018-01-13T16:57:42Z</time>
      </trkpt>
      <trkpt lat="62.633744313421" lon="17.982523482317">
        <ele>93.8</ele>
        <time>2018-01-13T16:57:43Z</time>
      </trkpt>
      <trkpt lat="62.633759065565" lon="17.982452487624">
        <ele>94</ele>
        <time>2018-01-13T16:57:44Z</time>
      </trkpt>
      <trkpt lat="62.633768537112" lon="17.98236648933">
        <ele>94</ele>
        <time>2018-01-13T16:57:45Z</time>
      </trkpt>
      <trkpt lat="62.633777254288" lon="17.98229608137">
        <ele>94</ele>
        <time>2018-01-13T16:57:46Z</time>
      </trkpt>
      <trkpt lat="62.6337896595" lon="17.982236821337">
        <ele>94</ele>
        <time>2018-01-13T16:57:47Z</time>
      </trkpt>
      <trkpt lat="62.633800304513" lon="17.982176723114">
        <ele>94.2</ele>
        <time>2018-01-13T16:57:48Z</time>
      </trkpt>
      <trkpt lat="62.633813547915" lon="17.982098687625">
        <ele>94.2</ele>
        <time>2018-01-13T16:57:49Z</time>
      </trkpt>
      <trkpt lat="62.633812542087" lon="17.982016880281">
        <ele>94.2</ele>
        <time>2018-01-13T16:57:50Z</time>
      </trkpt>
      <trkpt lat="62.633819415245" lon="17.981966588881">
        <ele>94.2</ele>
        <time>2018-01-13T16:57:51Z</time>
      </trkpt>
      <trkpt lat="62.633818828512" lon="17.981892241428">
        <ele>94.2</ele>
        <time>2018-01-13T16:57:52Z</time>
      </trkpt>
      <trkpt lat="62.633818828512" lon="17.981807751876">
        <ele>94.2</ele>
        <time>2018-01-13T16:57:53Z</time>
      </trkpt>
      <trkpt lat="62.633822265091" lon="17.981729716387">
        <ele>94.2</ele>
        <time>2018-01-13T16:57:54Z</time>
      </trkpt>
      <trkpt lat="62.633829641163" lon="17.981658805513">
        <ele>94.2</ele>
        <time>2018-01-13T16:57:55Z</time>
      </trkpt>
      <trkpt lat="62.633834502665" lon="17.981584541879">
        <ele>94.4</ele>
        <time>2018-01-13T16:57:56Z</time>
      </trkpt>
      <trkpt lat="62.633842046375" lon="17.981521258534">
        <ele>94.4</ele>
        <time>2018-01-13T16:57:57Z</time>
      </trkpt>
      <trkpt lat="62.633852942845" lon="17.981463088148">
        <ele>94.4</ele>
        <time>2018-01-13T16:57:58Z</time>
      </trkpt>
      <trkpt lat="62.633869455188" lon="17.981378179501">
        <ele>94.4</ele>
        <time>2018-01-13T16:57:59Z</time>
      </trkpt>
      <trkpt lat="62.633884542608" lon="17.981319506201">
        <ele>94.4</ele>
        <time>2018-01-13T16:58:00Z</time>
      </trkpt>
      <trkpt lat="62.633895606716" lon="17.98125337301">
        <ele>94.4</ele>
        <time>2018-01-13T16:58:01Z</time>
      </trkpt>
      <trkpt lat="62.633909185394" lon="17.981202411058">
        <ele>94.4</ele>
        <time>2018-01-13T16:58:02Z</time>
      </trkpt>
      <trkpt lat="62.633922261158" lon="17.981144324491">
        <ele>94.4</ele>
        <time>2018-01-13T16:58:03Z</time>
      </trkpt>
      <trkpt lat="62.633932654714" lon="17.981087495209">
        <ele>94.4</ele>
        <time>2018-01-13T16:58:04Z</time>
      </trkpt>
      <trkpt lat="62.633957884233" lon="17.981039299284">
        <ele>94.6</ele>
        <time>2018-01-13T16:58:05Z</time>
      </trkpt>
      <trkpt lat="62.633977246422" lon="17.980989175522">
        <ele>94.8</ele>
        <time>2018-01-13T16:58:06Z</time>
      </trkpt>
      <trkpt lat="62.634002056846" lon="17.980931759507">
        <ele>95</ele>
        <time>2018-01-13T16:58:07Z</time>
      </trkpt>
      <trkpt lat="62.634028459831" lon="17.980878450623">
        <ele>95.2</ele>
        <time>2018-01-13T16:58:08Z</time>
      </trkpt>
      <trkpt lat="62.634039523939" lon="17.980827656309">
        <ele>95.2</ele>
        <time>2018-01-13T16:58:09Z</time>
      </trkpt>
      <trkpt lat="62.634054946635" lon="17.980756242521">
        <ele>95.4</ele>
        <time>2018-01-13T16:58:10Z</time>
      </trkpt>
      <trkpt lat="62.634073219177" lon="17.980682481801">
        <ele>95.4</ele>
        <time>2018-01-13T16:58:11Z</time>
      </trkpt>
      <trkpt lat="62.634089228606" lon="17.980633028591">
        <ele>95.4</ele>
        <time>2018-01-13T16:58:12Z</time>
      </trkpt>
      <trkpt lat="62.63410900989" lon="17.980561111889">
        <ele>95.6</ele>
        <time>2018-01-13T16:58:13Z</time>
      </trkpt>
      <trkpt lat="62.634133736495" lon="17.980499924019">
        <ele>95.4</ele>
        <time>2018-01-13T16:58:14Z</time>
      </trkpt>
      <trkpt lat="62.634160474756" lon="17.980448207696">
        <ele>95.4</ele>
        <time>2018-01-13T16:58:15Z</time>
      </trkpt>
      <trkpt lat="62.634179836945" lon="17.980385594903">
        <ele>95.4</ele>
        <time>2018-01-13T16:58:16Z</time>
      </trkpt>
      <trkpt lat="62.634198780039" lon="17.980332872752">
        <ele>95.6</ele>
        <time>2018-01-13T16:58:17Z</time>
      </trkpt>
      <trkpt lat="62.634223171368" lon="17.980265063181">
        <ele>95.6</ele>
        <time>2018-01-13T16:58:18Z</time>
      </trkpt>
      <trkpt lat="62.634242198281" lon="17.980221393482">
        <ele>95.8</ele>
        <time>2018-01-13T16:58:19Z</time>
      </trkpt>
      <trkpt lat="62.634268685085" lon="17.980177304688">
        <ele>95.8</ele>
        <time>2018-01-13T16:58:20Z</time>
      </trkpt>
      <trkpt lat="62.634296596812" lon="17.980112680239">
        <ele>95.8</ele>
        <time>2018-01-13T16:58:21Z</time>
      </trkpt>
      <trkpt lat="62.634311348956" lon="17.980058784622">
        <ele>95.6</ele>
        <time>2018-01-13T16:58:22Z</time>
      </trkpt>
      <trkpt lat="62.63433196843" lon="17.979990555956">
        <ele>95.8</ele>
        <time>2018-01-13T16:58:23Z</time>
      </trkpt>
      <trkpt lat="62.634354348103" lon="17.979926853516">
        <ele>95.8</ele>
        <time>2018-01-13T16:58:24Z</time>
      </trkpt>
      <trkpt lat="62.634376224862" lon="17.97985862485">
        <ele>95.6</ele>
        <time>2018-01-13T16:58:25Z</time>
      </trkpt>
      <trkpt lat="62.634396173784" lon="17.979792910754">
        <ele>95.8</ele>
        <time>2018-01-13T16:58:26Z</time>
      </trkpt>
      <trkpt lat="62.634409249548" lon="17.97974127825">
        <ele>95.8</ele>
        <time>2018-01-13T16:58:27Z</time>
      </trkpt>
      <trkpt lat="62.634429785203" lon="17.979647652427">
        <ele>95.8</ele>
        <time>2018-01-13T16:58:28Z</time>
      </trkpt>
      <trkpt lat="62.634450572315" lon="17.979589398222">
        <ele>95.6</ele>
        <time>2018-01-13T16:58:29Z</time>
      </trkpt>
      <trkpt lat="62.634461636423" lon="17.97953424532">
        <ele>95.6</ele>
        <time>2018-01-13T16:58:30Z</time>
      </trkpt>
      <trkpt lat="62.634477394395" lon="17.979455874555">
        <ele>95.6</ele>
        <time>2018-01-13T16:58:31Z</time>
      </trkpt>
      <trkpt lat="62.634484602829" lon="17.979386807699">
        <ele>95.6</ele>
        <time>2018-01-13T16:58:32Z</time>
      </trkpt>
      <trkpt lat="62.634499941706" lon="17.979342467448">
        <ele>95.6</ele>
        <time>2018-01-13T16:58:33Z</time>
      </trkpt>
      <trkpt lat="62.63451553204" lon="17.979274238782">
        <ele>95.6</ele>
        <time>2018-01-13T16:58:34Z</time>
      </trkpt>
      <trkpt lat="62.634527099062" lon="17.979202573537">
        <ele>95.4</ele>
        <time>2018-01-13T16:58:35Z</time>
      </trkpt>
      <trkpt lat="62.634533301668" lon="17.979125795333">
        <ele>95.6</ele>
        <time>2018-01-13T16:58:36Z</time>
      </trkpt>
      <trkpt lat="62.634543024672" lon="17.979070223336">
        <ele>95.6</ele>
        <time>2018-01-13T16:58:37Z</time>
      </trkpt>
      <trkpt lat="62.634567667458" lon="17.978934855651">
        <ele>95.4</ele>
        <time>2018-01-13T16:58:39Z</time>
      </trkpt>
      <trkpt lat="62.63458594" lon="17.978879116016">
        <ele>95.6</ele>
        <time>2018-01-13T16:58:40Z</time>
      </trkpt>
      <trkpt lat="62.634608068216" lon="17.978849276452">
        <ele>95.6</ele>
        <time>2018-01-13T16:58:41Z</time>
      </trkpt>
      <trkpt lat="62.634625418749" lon="17.978830249539">
        <ele>95.4</ele>
        <time>2018-01-13T16:58:42Z</time>
      </trkpt>
      <trkpt lat="62.63463958416" lon="17.978808875694">
        <ele>95.4</ele>
        <time>2018-01-13T16:58:43Z</time>
      </trkpt>
      <trkpt lat="62.634658694892" lon="17.978796302844">
        <ele>95.6</ele>
        <time>2018-01-13T16:58:44Z</time>
      </trkpt>
      <trkpt lat="62.634676883615" lon="17.978788340039">
        <ele>95.6</ele>
        <time>2018-01-13T16:58:45Z</time>
      </trkpt>
      <trkpt lat="62.634705968808" lon="17.978797895405">
        <ele>95.8</ele>
        <time>2018-01-13T16:58:46Z</time>
      </trkpt>
      <trkpt lat="62.634724576626" lon="17.978804349468">
        <ele>95.8</ele>
        <time>2018-01-13T16:58:47Z</time>
      </trkpt>
      <trkpt lat="62.634750811973" lon="17.978824717485">
        <ele>95.8</ele>
        <time>2018-01-13T16:58:48Z</time>
      </trkpt>
      <trkpt lat="62.634777298777" lon="17.97883687124">
        <ele>95.8</ele>
        <time>2018-01-13T16:58:49Z</time>
      </trkpt>
      <trkpt lat="62.63481057492" lon="17.978854054135">
        <ele>95.8</ele>
        <time>2018-01-13T16:58:50Z</time>
      </trkpt>
      <trkpt lat="62.634831613489" lon="17.978862519854">
        <ele>95.8</ele>
        <time>2018-01-13T16:58:51Z</time>
      </trkpt>
      <trkpt lat="62.634866482193" lon="17.978872326677">
        <ele>95.6</ele>
        <time>2018-01-13T16:58:52Z</time>
      </trkpt>
      <trkpt lat="62.634900680345" lon="17.978876349989">
        <ele>95.4</ele>
        <time>2018-01-13T16:58:53Z</time>
      </trkpt>
      <trkpt lat="62.634933369755" lon="17.97889219178">
        <ele>95.4</ele>
        <time>2018-01-13T16:58:54Z</time>
      </trkpt>
      <trkpt lat="62.634961532939" lon="17.978911973064">
        <ele>95</ele>
        <time>2018-01-13T16:58:55Z</time>
      </trkpt>
      <trkpt lat="62.634981230404" lon="17.978911134874">
        <ele>94.8</ele>
        <time>2018-01-13T16:58:56Z</time>
      </trkpt>
      <trkpt lat="62.635002268973" lon="17.978926138475">
        <ele>94.8</ele>
        <time>2018-01-13T16:58:57Z</time>
      </trkpt>
      <trkpt lat="62.635024732465" lon="17.978938040773">
        <ele>94.6</ele>
        <time>2018-01-13T16:58:58Z</time>
      </trkpt>
      <trkpt lat="62.635035461297" lon="17.978936783488">
        <ele>94.6</ele>
        <time>2018-01-13T16:58:59Z</time>
      </trkpt>
      <trkpt lat="62.635056918961" lon="17.978946338854">
        <ele>94.6</ele>
        <time>2018-01-13T16:59:00Z</time>
      </trkpt>
      <trkpt lat="62.635077706073" lon="17.978956816229">
        <ele>94.6</ele>
        <time>2018-01-13T16:59:01Z</time>
      </trkpt>
      <trkpt lat="62.635095727158" lon="17.978963102654">
        <ele>94.6</ele>
        <time>2018-01-13T16:59:02Z</time>
      </trkpt>
      <trkpt lat="62.635125650541" lon="17.978976597513">
        <ele>94.4</ele>
        <time>2018-01-13T16:59:03Z</time>
      </trkpt>
      <trkpt lat="62.635155238648" lon="17.978981207558">
        <ele>94.4</ele>
        <time>2018-01-13T16:59:04Z</time>
      </trkpt>
      <trkpt lat="62.635188179515" lon="17.978990092372">
        <ele>94.4</ele>
        <time>2018-01-13T16:59:05Z</time>
      </trkpt>
      <trkpt lat="62.635218102898" lon="17.978997887539">
        <ele>94.2</ele>
        <time>2018-01-13T16:59:06Z</time>
      </trkpt>
      <trkpt lat="62.635247439548" lon="17.979006017982">
        <ele>94</ele>
        <time>2018-01-13T16:59:07Z</time>
      </trkpt>
      <trkpt lat="62.635275854189" lon="17.979003168136">
        <ele>94</ele>
        <time>2018-01-13T16:59:08Z</time>
      </trkpt>
      <trkpt lat="62.635306867219" lon="17.979008867828">
        <ele>94</ele>
        <time>2018-01-13T16:59:09Z</time>
      </trkpt>
      <trkpt lat="62.635338131706" lon="17.979011885312">
        <ele>93.8</ele>
        <time>2018-01-13T16:59:10Z</time>
      </trkpt>
      <trkpt lat="62.63536629489" lon="17.979013896968">
        <ele>93.6</ele>
        <time>2018-01-13T16:59:11Z</time>
      </trkpt>
      <trkpt lat="62.635394625712" lon="17.979013896968">
        <ele>93.6</ele>
        <time>2018-01-13T16:59:12Z</time>
      </trkpt>
      <trkpt lat="62.635425471104" lon="17.979013561692">
        <ele>93.6</ele>
        <time>2018-01-13T16:59:13Z</time>
      </trkpt>
      <trkpt lat="62.63545681941" lon="17.979015238072">
        <ele>93.4</ele>
        <time>2018-01-13T16:59:14Z</time>
      </trkpt>
      <trkpt lat="62.635490933743" lon="17.979012220588">
        <ele>93.2</ele>
        <time>2018-01-13T16:59:15Z</time>
      </trkpt>
      <trkpt lat="62.635526556818" lon="17.979011969131">
        <ele>93</ele>
        <time>2018-01-13T16:59:16Z</time>
      </trkpt>
      <trkpt lat="62.635559497685" lon="17.979008364914">
        <ele>93</ele>
        <time>2018-01-13T16:59:17Z</time>
      </trkpt>
      <trkpt lat="62.635594534027" lon="17.979010292751">
        <ele>92.8</ele>
        <time>2018-01-13T16:59:18Z</time>
      </trkpt>
      <trkpt lat="62.63563283931" lon="17.979004593059">
        <ele>92.6</ele>
        <time>2018-01-13T16:59:19Z</time>
      </trkpt>
      <trkpt lat="62.635663600883" lon="17.978989002725">
        <ele>92.2</ele>
        <time>2018-01-13T16:59:20Z</time>
      </trkpt>
      <trkpt lat="62.635687489298" lon="17.978981710472">
        <ele>92</ele>
        <time>2018-01-13T16:59:21Z</time>
      </trkpt>
      <trkpt lat="62.635723782925" lon="17.978967796518">
        <ele>92</ele>
        <time>2018-01-13T16:59:22Z</time>
      </trkpt>
      <trkpt lat="62.63576359695" lon="17.978963605568">
        <ele>91.6</ele>
        <time>2018-01-13T16:59:23Z</time>
      </trkpt>
      <trkpt lat="62.635787653003" lon="17.978956564772">
        <ele>91.4</ele>
        <time>2018-01-13T16:59:24Z</time>
      </trkpt>
      <trkpt lat="62.635820258594" lon="17.978956648591">
        <ele>91.4</ele>
        <time>2018-01-13T16:59:25Z</time>
      </trkpt>
      <trkpt lat="62.635843727914" lon="17.978949859252">
        <ele>91.2</ele>
        <time>2018-01-13T16:59:26Z</time>
      </trkpt>
      <trkpt lat="62.635870801451" lon="17.978958241152">
        <ele>91</ele>
        <time>2018-01-13T16:59:27Z</time>
      </trkpt>
      <trkpt lat="62.635895947151" lon="17.978958827885">
        <ele>91</ele>
        <time>2018-01-13T16:59:28Z</time>
      </trkpt>
      <trkpt lat="62.635910699295" lon="17.978969556717">
        <ele>91</ele>
        <time>2018-01-13T16:59:29Z</time>
      </trkpt>
      <trkpt lat="62.635932492235" lon="17.978977938617">
        <ele>91</ele>
        <time>2018-01-13T16:59:30Z</time>
      </trkpt>
      <trkpt lat="62.635948417845" lon="17.978981459015">
        <ele>90.8</ele>
        <time>2018-01-13T16:59:31Z</time>
      </trkpt>
      <trkpt lat="62.635966103654" lon="17.978994199503">
        <ele>91</ele>
        <time>2018-01-13T16:59:32Z</time>
      </trkpt>
      <trkpt lat="62.635975323744" lon="17.978996043521">
        <ele>91</ele>
        <time>2018-01-13T16:59:33Z</time>
      </trkpt>
      <trkpt lat="62.636005498584" lon="17.979008197276">
        <ele>91</ele>
        <time>2018-01-13T16:59:34Z</time>
      </trkpt>
      <trkpt lat="62.636024944592" lon="17.9790330077">
        <ele>91.2</ele>
        <time>2018-01-13T16:59:35Z</time>
      </trkpt>
      <trkpt lat="62.636039026184" lon="17.979065529472">
        <ele>91.2</ele>
        <time>2018-01-13T16:59:36Z</time>
      </trkpt>
      <trkpt lat="62.636045396428" lon="17.979095955769">
        <ele>91.4</ele>
        <time>2018-01-13T16:59:37Z</time>
      </trkpt>
      <trkpt lat="62.636047827179" lon="17.979124789505">
        <ele>91.6</ele>
        <time>2018-01-13T16:59:38Z</time>
      </trkpt>
      <trkpt lat="62.636049084464" lon="17.979157814191">
        <ele>91.8</ele>
        <time>2018-01-13T16:59:39Z</time>
      </trkpt>
      <trkpt lat="62.636041456935" lon="17.979200980976">
        <ele>91.8</ele>
        <time>2018-01-13T16:59:40Z</time>
      </trkpt>
      <trkpt lat="62.636034919053" lon="17.979235682042">
        <ele>91.8</ele>
        <time>2018-01-13T16:59:42Z</time>
      </trkpt>
      <trkpt lat="62.636032572121" lon="17.97926350995">
        <ele>91.6</ele>
        <time>2018-01-13T16:59:43Z</time>
      </trkpt>
      <trkpt lat="62.636026956248" lon="17.979323440535">
        <ele>91.6</ele>
        <time>2018-01-13T16:59:44Z</time>
      </trkpt>
      <trkpt lat="62.636023854945" lon="17.979383454939">
        <ele>91.6</ele>
        <time>2018-01-13T16:59:45Z</time>
      </trkpt>
      <trkpt lat="62.636022178565" lon="17.979456461288">
        <ele>91.4</ele>
        <time>2018-01-13T16:59:46Z</time>
      </trkpt>
      <trkpt lat="62.636012958475" lon="17.979547237265">
        <ele>91.2</ele>
        <time>2018-01-13T16:59:47Z</time>
      </trkpt>
      <trkpt lat="62.63600751024" lon="17.979663242761">
        <ele>91</ele>
        <time>2018-01-13T16:59:48Z</time>
      </trkpt>
      <trkpt lat="62.636004492756" lon="17.979809926011">
        <ele>90.4</ele>
        <time>2018-01-13T16:59:49Z</time>
      </trkpt>
      <trkpt lat="62.636005750041" lon="17.979956525442">
        <ele>89.4</ele>
        <time>2018-01-13T16:59:50Z</time>
      </trkpt>
      <trkpt lat="62.636011617371" lon="17.980072614757">
        <ele>88.8</ele>
        <time>2018-01-13T16:59:51Z</time>
      </trkpt>
      <trkpt lat="62.636022430022" lon="17.980185770407">
        <ele>88</ele>
        <time>2018-01-13T16:59:52Z</time>
      </trkpt>
      <trkpt lat="62.636045144971" lon="17.980344355955">
        <ele>87</ele>
        <time>2018-01-13T16:59:53Z</time>
      </trkpt>
      <trkpt lat="62.636064842436" lon="17.980467234609">
        <ele>86</ele>
        <time>2018-01-13T16:59:54Z</time>
      </trkpt>
      <trkpt lat="62.636083114978" lon="17.98057863006">
        <ele>85.6</ele>
        <time>2018-01-13T16:59:55Z</time>
      </trkpt>
      <trkpt lat="62.636098705312" lon="17.98067921286">
        <ele>85.2</ele>
        <time>2018-01-13T16:59:56Z</time>
      </trkpt>
      <trkpt lat="62.636108428316" lon="17.980767138991">
        <ele>85</ele>
        <time>2018-01-13T16:59:57Z</time>
      </trkpt>
      <trkpt lat="62.636126449401" lon="17.980879959365">
        <ele>84.8</ele>
        <time>2018-01-13T16:59:58Z</time>
      </trkpt>
      <trkpt lat="62.636145141038" lon="17.980971992627">
        <ele>84.6</ele>
        <time>2018-01-13T16:59:59Z</time>
      </trkpt>
      <trkpt lat="62.636159977001" lon="17.981068468296">
        <ele>84.2</ele>
        <time>2018-01-13T17:00:00Z</time>
      </trkpt>
      <trkpt lat="62.636174812964" lon="17.981165949793">
        <ele>84</ele>
        <time>2018-01-13T17:00:01Z</time>
      </trkpt>
      <trkpt lat="62.636179758285" lon="17.981250187888">
        <ele>83.8</ele>
        <time>2018-01-13T17:00:02Z</time>
      </trkpt>
      <trkpt lat="62.636190654755" lon="17.981315566708">
        <ele>83.6</ele>
        <time>2018-01-13T17:00:03Z</time>
      </trkpt>
      <trkpt lat="62.636199958664" lon="17.981426794521">
        <ele>83.8</ele>
        <time>2018-01-13T17:00:04Z</time>
      </trkpt>
      <trkpt lat="62.63621454317" lon="17.981508937141">
        <ele>83.6</ele>
        <time>2018-01-13T17:00:05Z</time>
      </trkpt>
      <trkpt lat="62.636225020545" lon="17.981592337046">
        <ele>84</ele>
        <time>2018-01-13T17:00:06Z</time>
      </trkpt>
      <trkpt lat="62.636238347766" lon="17.98167665896">
        <ele>84.2</ele>
        <time>2018-01-13T17:00:07Z</time>
      </trkpt>
      <trkpt lat="62.63624723258" lon="17.981751090232">
        <ele>84.4</ele>
        <time>2018-01-13T17:00:08Z</time>
      </trkpt>
      <trkpt lat="62.636255698299" lon="17.981818396889">
        <ele>84.2</ele>
        <time>2018-01-13T17:00:09Z</time>
      </trkpt>
      <trkpt lat="62.636273132651" lon="17.98187614818">
        <ele>84.4</ele>
        <time>2018-01-13T17:00:10Z</time>
      </trkpt>
      <trkpt lat="62.63627740742" lon="17.98197086365">
        <ele>84.2</ele>
        <time>2018-01-13T17:00:11Z</time>
      </trkpt>
      <trkpt lat="62.636290315546" lon="17.982029369312">
        <ele>84</ele>
        <time>2018-01-13T17:00:12Z</time>
      </trkpt>
      <trkpt lat="62.636296099057" lon="17.982108410629">
        <ele>84</ele>
        <time>2018-01-13T17:00:13Z</time>
      </trkpt>
      <trkpt lat="62.636301379654" lon="17.982177142209">
        <ele>84</ele>
        <time>2018-01-13T17:00:14Z</time>
      </trkpt>
      <trkpt lat="62.636310264468" lon="17.982235480233">
        <ele>83.8</ele>
        <time>2018-01-13T17:00:15Z</time>
      </trkpt>
      <trkpt lat="62.636308001355" lon="17.982318796319">
        <ele>83.8</ele>
        <time>2018-01-13T17:00:16Z</time>
      </trkpt>
      <trkpt lat="62.636314203961" lon="17.982392808496">
        <ele>83.8</ele>
        <time>2018-01-13T17:00:17Z</time>
      </trkpt>
      <trkpt lat="62.636312779038" lon="17.982471011623">
        <ele>83.8</ele>
        <time>2018-01-13T17:00:18Z</time>
      </trkpt>
      <trkpt lat="62.636308923364" lon="17.982521135385">
        <ele>83.8</ele>
        <time>2018-01-13T17:00:19Z</time>
      </trkpt>
      <trkpt lat="62.636316131798" lon="17.98261878452">
        <ele>83.8</ele>
        <time>2018-01-13T17:00:20Z</time>
      </trkpt>
      <trkpt lat="62.636311102658" lon="17.982691455593">
        <ele>83.8</ele>
        <time>2018-01-13T17:00:21Z</time>
      </trkpt>
      <trkpt lat="62.636309426278" lon="17.982763288476">
        <ele>84</ele>
        <time>2018-01-13T17:00:22Z</time>
      </trkpt>
      <trkpt lat="62.636304480957" lon="17.982826236545">
        <ele>83.8</ele>
        <time>2018-01-13T17:00:23Z</time>
      </trkpt>
      <trkpt lat="62.636297440161" lon="17.982889184614">
        <ele>84</ele>
        <time>2018-01-13T17:00:24Z</time>
      </trkpt>
      <trkpt lat="62.636293081573" lon="17.982936374711">
        <ele>84</ele>
        <time>2018-01-13T17:00:25Z</time>
      </trkpt>
      <trkpt lat="62.636287298062" lon="17.983014829295">
        <ele>84</ele>
        <time>2018-01-13T17:00:26Z</time>
      </trkpt>
      <trkpt lat="62.636290315546" lon="17.983071574758">
        <ele>84</ele>
        <time>2018-01-13T17:00:27Z</time>
      </trkpt>
      <trkpt lat="62.63629333303" lon="17.983125135099">
        <ele>84.2</ele>
        <time>2018-01-13T17:00:28Z</time>
      </trkpt>
      <trkpt lat="62.636289393537" lon="17.983204427873">
        <ele>84.4</ele>
        <time>2018-01-13T17:00:29Z</time>
      </trkpt>
      <trkpt lat="62.636298110713" lon="17.983269722874">
        <ele>84.2</ele>
        <time>2018-01-13T17:00:30Z</time>
      </trkpt>
      <trkpt lat="62.636298529808" lon="17.983330743106">
        <ele>84.4</ele>
        <time>2018-01-13T17:00:31Z</time>
      </trkpt>
      <trkpt lat="62.636297104885" lon="17.983391763338">
        <ele>84.4</ele>
        <time>2018-01-13T17:00:32Z</time>
      </trkpt>
      <trkpt lat="62.6362958476" lon="17.983444485489">
        <ele>84.4</ele>
        <time>2018-01-13T17:00:33Z</time>
      </trkpt>
      <trkpt lat="62.636276904506" lon="17.98349134031">
        <ele>84.4</ele>
        <time>2018-01-13T17:00:34Z</time>
      </trkpt>
      <trkpt lat="62.636265337484" lon="17.983537776036">
        <ele>84.4</ele>
        <time>2018-01-13T17:00:35Z</time>
      </trkpt>
      <trkpt lat="62.636259973068" lon="17.983588486531">
        <ele>84.4</ele>
        <time>2018-01-13T17:00:36Z</time>
      </trkpt>
      <trkpt lat="62.636253854281" lon="17.983627210909">
        <ele>84.6</ele>
        <time>2018-01-13T17:00:37Z</time>
      </trkpt>
      <trkpt lat="62.636234995006" lon="17.983697115955">
        <ele>84.6</ele>
        <time>2018-01-13T17:00:38Z</time>
      </trkpt>
      <trkpt lat="62.636232815712" lon="17.983751765943">
        <ele>84.6</ele>
        <time>2018-01-13T17:00:39Z</time>
      </trkpt>
      <trkpt lat="62.636232564255" lon="17.983787389018">
        <ele>84.8</ele>
        <time>2018-01-13T17:00:40Z</time>
      </trkpt>
      <trkpt lat="62.63622963059" lon="17.983854444218">
        <ele>85</ele>
        <time>2018-01-13T17:00:41Z</time>
      </trkpt>
      <trkpt lat="62.63621538136" lon="17.983902472505">
        <ele>85.2</ele>
        <time>2018-01-13T17:00:42Z</time>
      </trkpt>
      <trkpt lat="62.636204568709" lon="17.983946393661">
        <ele>85.2</ele>
        <time>2018-01-13T17:00:43Z</time>
      </trkpt>
      <trkpt lat="62.636197947008" lon="17.983999786364">
        <ele>85.4</ele>
        <time>2018-01-13T17:00:44Z</time>
      </trkpt>
      <trkpt lat="62.636190738574" lon="17.984059716949">
        <ele>85.4</ele>
        <time>2018-01-13T17:00:45Z</time>
      </trkpt>
      <trkpt lat="62.636190068022" lon="17.984103973381">
        <ele>85.6</ele>
        <time>2018-01-13T17:00:46Z</time>
      </trkpt>
      <trkpt lat="62.636180847932" lon="17.984165747984">
        <ele>85.6</ele>
        <time>2018-01-13T17:00:47Z</time>
      </trkpt>
      <trkpt lat="62.636173388041" lon="17.984236323582">
        <ele>85.8</ele>
        <time>2018-01-13T17:00:48Z</time>
      </trkpt>
      <trkpt lat="62.636177998086" lon="17.984273539218">
        <ele>85.8</ele>
        <time>2018-01-13T17:00:49Z</time>
      </trkpt>
      <trkpt lat="62.636174226231" lon="17.984335816735">
        <ele>86</ele>
        <time>2018-01-13T17:00:50Z</time>
      </trkpt>
      <trkpt lat="62.636172801308" lon="17.984397004605">
        <ele>85.8</ele>
        <time>2018-01-13T17:00:51Z</time>
      </trkpt>
      <trkpt lat="62.636174226231" lon="17.9844477151">
        <ele>86</ele>
        <time>2018-01-13T17:00:52Z</time>
      </trkpt>
      <trkpt lat="62.636164922322" lon="17.984532791385">
        <ele>86.2</ele>
        <time>2018-01-13T17:00:53Z</time>
      </trkpt>
      <trkpt lat="62.636155953689" lon="17.984581741681">
        <ele>86</ele>
        <time>2018-01-13T17:00:54Z</time>
      </trkpt>
      <trkpt lat="62.636154528766" lon="17.984626417208">
        <ele>86.2</ele>
        <time>2018-01-13T17:00:55Z</time>
      </trkpt>
      <trkpt lat="62.636144638124" lon="17.984678049712">
        <ele>86.2</ele>
        <time>2018-01-13T17:00:56Z</time>
      </trkpt>
      <trkpt lat="62.636138351699" lon="17.984707386362">
        <ele>86.4</ele>
        <time>2018-01-13T17:00:57Z</time>
      </trkpt>
      <trkpt lat="62.636137262052" lon="17.984765640567">
        <ele>86.4</ele>
        <time>2018-01-13T17:00:58Z</time>
      </trkpt>
      <trkpt lat="62.636130472713" lon="17.984823559496">
        <ele>86.4</ele>
        <time>2018-01-13T17:00:59Z</time>
      </trkpt>
      <trkpt lat="62.63613407693" lon="17.984864044073">
        <ele>86.8</ele>
        <time>2018-01-13T17:01:00Z</time>
      </trkpt>
      <trkpt lat="62.636130305075" lon="17.984905618297">
        <ele>86.8</ele>
        <time>2018-01-13T17:01:01Z</time>
      </trkpt>
      <trkpt lat="62.636134579844" lon="17.984960352104">
        <ele>87</ele>
        <time>2018-01-13T17:01:02Z</time>
      </trkpt>
      <trkpt lat="62.636131310903" lon="17.985015337368">
        <ele>87</ele>
        <time>2018-01-13T17:01:03Z</time>
      </trkpt>
      <trkpt lat="62.636131227084" lon="17.98507216665">
        <ele>87</ele>
        <time>2018-01-13T17:01:04Z</time>
      </trkpt>
      <trkpt lat="62.636133657835" lon="17.98512832538">
        <ele>87</ele>
        <time>2018-01-13T17:01:05Z</time>
      </trkpt>
      <trkpt lat="62.636126617039" lon="17.985188926517">
        <ele>86.8</ele>
        <time>2018-01-13T17:01:06Z</time>
      </trkpt>
      <trkpt lat="62.636131646179" lon="17.985229914008">
        <ele>87</ele>
        <time>2018-01-13T17:01:07Z</time>
      </trkpt>
      <trkpt lat="62.636125359754" lon="17.985298813226">
        <ele>87</ele>
        <time>2018-01-13T17:01:08Z</time>
      </trkpt>
      <trkpt lat="62.636128293419" lon="17.985344913676">
        <ele>87.2</ele>
        <time>2018-01-13T17:01:09Z</time>
      </trkpt>
      <trkpt lat="62.636129969799" lon="17.985388667194">
        <ele>87.2</ele>
        <time>2018-01-13T17:01:10Z</time>
      </trkpt>
      <trkpt lat="62.636122845184" lon="17.985461673543">
        <ele>87.4</ele>
        <time>2018-01-13T17:01:11Z</time>
      </trkpt>
      <trkpt lat="62.636123348098" lon="17.98550970183">
        <ele>87.6</ele>
        <time>2018-01-13T17:01:12Z</time>
      </trkpt>
      <trkpt lat="62.636120246795" lon="17.985568039854">
        <ele>87.6</ele>
        <time>2018-01-13T17:01:13Z</time>
      </trkpt>
      <trkpt lat="62.636113792732" lon="17.98562704843">
        <ele>87.6</ele>
        <time>2018-01-13T17:01:14Z</time>
      </trkpt>
      <trkpt lat="62.63610222571" lon="17.985664850799">
        <ele>87.8</ele>
        <time>2018-01-13T17:01:15Z</time>
      </trkpt>
      <trkpt lat="62.636087473566" lon="17.985717740588">
        <ele>87.8</ele>
        <time>2018-01-13T17:01:16Z</time>
      </trkpt>
      <trkpt lat="62.63606702173" lon="17.985773144947">
        <ele>87.8</ele>
        <time>2018-01-13T17:01:17Z</time>
      </trkpt>
      <trkpt lat="62.636053359233" lon="17.985814970628">
        <ele>88.2</ele>
        <time>2018-01-13T17:01:18Z</time>
      </trkpt>
      <trkpt lat="62.636042127487" lon="17.985849923151">
        <ele>88.2</ele>
        <time>2018-01-13T17:01:19Z</time>
      </trkpt>
      <trkpt lat="62.636015975959" lon="17.985887138787">
        <ele>88.2</ele>
        <time>2018-01-13T17:01:20Z</time>
      </trkpt>
      <trkpt lat="62.636001726729" lon="17.985918151817">
        <ele>88.4</ele>
        <time>2018-01-13T17:01:21Z</time>
      </trkpt>
      <trkpt lat="62.635987896594" lon="17.985930892305">
        <ele>88.4</ele>
        <time>2018-01-13T17:01:22Z</time>
      </trkpt>
      <trkpt lat="62.635956129193" lon="17.985946482639">
        <ele>88.6</ele>
        <time>2018-01-13T17:01:23Z</time>
      </trkpt>
      <trkpt lat="62.6359354259" lon="17.985957714385">
        <ele>88.4</ele>
        <time>2018-01-13T17:01:24Z</time>
      </trkpt>
      <trkpt lat="62.635917907729" lon="17.985983195361">
        <ele>88.4</ele>
        <time>2018-01-13T17:01:25Z</time>
      </trkpt>
      <trkpt lat="62.635884799224" lon="17.98600171936">
        <ele>88.6</ele>
        <time>2018-01-13T17:01:26Z</time>
      </trkpt>
      <trkpt lat="62.635862335732" lon="17.986033151485">
        <ele>88.6</ele>
        <time>2018-01-13T17:01:27Z</time>
      </trkpt>
      <trkpt lat="62.635838614955" lon="17.986053603321">
        <ele>88.6</ele>
        <time>2018-01-13T17:01:28Z</time>
      </trkpt>
      <trkpt lat="62.635816989653" lon="17.986067768732">
        <ele>88.8</ele>
        <time>2018-01-13T17:01:29Z</time>
      </trkpt>
      <trkpt lat="62.635793352695" lon="17.986102469798">
        <ele>89</ele>
        <time>2018-01-13T17:01:30Z</time>
      </trkpt>
      <trkpt lat="62.635778768189" lon="17.986131303534">
        <ele>89.2</ele>
        <time>2018-01-13T17:01:31Z</time>
      </trkpt>
      <trkpt lat="62.635758483991" lon="17.986154437578">
        <ele>89.2</ele>
        <time>2018-01-13T17:01:32Z</time>
      </trkpt>
      <trkpt lat="62.635741636372" lon="17.986180505287">
        <ele>89.2</ele>
        <time>2018-01-13T17:01:33Z</time>
      </trkpt>
      <trkpt lat="62.635719675794" lon="17.986213613792">
        <ele>89.4</ele>
        <time>2018-01-13T17:01:34Z</time>
      </trkpt>
      <trkpt lat="62.635701654709" lon="17.986247644306">
        <ele>89.4</ele>
        <time>2018-01-13T17:01:35Z</time>
      </trkpt>
      <trkpt lat="62.635680699959" lon="17.986278908793">
        <ele>89.6</ele>
        <time>2018-01-13T17:01:36Z</time>
      </trkpt>
      <trkpt lat="62.635659158476" lon="17.986318052266">
        <ele>90</ele>
        <time>2018-01-13T17:01:37Z</time>
      </trkpt>
      <trkpt lat="62.635648513463" lon="17.986358872119">
        <ele>90.2</ele>
        <time>2018-01-13T17:01:38Z</time>
      </trkpt>
      <trkpt lat="62.635621356107" lon="17.986427016966">
        <ele>90.4</ele>
        <time>2018-01-13T17:01:39Z</time>
      </trkpt>
      <trkpt lat="62.635609286171" lon="17.986468423552">
        <ele>90.6</ele>
        <time>2018-01-13T17:01:40Z</time>
      </trkpt>
      <trkpt lat="62.635585313937" lon="17.986528605594">
        <ele>90.6</ele>
        <time>2018-01-13T17:01:41Z</time>
      </trkpt>
      <trkpt lat="62.63556746049" lon="17.986571437103">
        <ele>90.6</ele>
        <time>2018-01-13T17:01:42Z</time>
      </trkpt>
      <trkpt lat="62.635558743314" lon="17.986614687707">
        <ele>90.8</ele>
        <time>2018-01-13T17:01:43Z</time>
      </trkpt>
      <trkpt lat="62.635546254283" lon="17.986667074582">
        <ele>90.6</ele>
        <time>2018-01-13T17:01:44Z</time>
      </trkpt>
      <trkpt lat="62.635535106356" lon="17.986697333241">
        <ele>90.8</ele>
        <time>2018-01-13T17:01:45Z</time>
      </trkpt>
      <trkpt lat="62.635517504366" lon="17.986738236913">
        <ele>90.8</ele>
        <time>2018-01-13T17:01:46Z</time>
      </trkpt>
      <trkpt lat="62.635493364494" lon="17.986793641272">
        <ele>90.8</ele>
        <time>2018-01-13T17:01:47Z</time>
      </trkpt>
      <trkpt lat="62.635472996477" lon="17.986836808057">
        <ele>91</ele>
        <time>2018-01-13T17:01:48Z</time>
      </trkpt>
      <trkpt lat="62.635460926541" lon="17.986872514951">
        <ele>91</ele>
        <time>2018-01-13T17:01:49Z</time>
      </trkpt>
      <trkpt lat="62.635433936823" lon="17.98693211026">
        <ele>91</ele>
        <time>2018-01-13T17:01:50Z</time>
      </trkpt>
      <trkpt lat="62.635425387285" lon="17.986967817154">
        <ele>91.2</ele>
        <time>2018-01-13T17:01:51Z</time>
      </trkpt>
      <trkpt lat="62.635411473331" lon="17.987000171288">
        <ele>91.4</ele>
        <time>2018-01-13T17:01:52Z</time>
      </trkpt>
      <trkpt lat="62.635387836373" lon="17.987040152951">
        <ele>91.4</ele>
        <time>2018-01-13T17:01:53Z</time>
      </trkpt>
      <trkpt lat="62.63537132403" lon="17.987080050795">
        <ele>91.4</ele>
        <time>2018-01-13T17:01:54Z</time>
      </trkpt>
      <trkpt lat="62.635359254094" lon="17.987117014974">
        <ele>91.6</ele>
        <time>2018-01-13T17:01:55Z</time>
      </trkpt>
      <trkpt lat="62.635346513606" lon="17.987152889506">
        <ele>91.6</ele>
        <time>2018-01-13T17:01:56Z</time>
      </trkpt>
      <trkpt lat="62.635328241064" lon="17.987193290264">
        <ele>91.6</ele>
        <time>2018-01-13T17:01:57Z</time>
      </trkpt>
      <trkpt lat="62.635314746205" lon="17.987220196163">
        <ele>91.8</ele>
        <time>2018-01-13T17:01:58Z</time>
      </trkpt>
      <trkpt lat="62.635296641301" lon="17.987258501446">
        <ele>92</ele>
        <time>2018-01-13T17:01:59Z</time>
      </trkpt>
      <trkpt lat="62.635275015999" lon="17.98729588472">
        <ele>92.2</ele>
        <time>2018-01-13T17:02:00Z</time>
      </trkpt>
      <trkpt lat="62.635254731801" lon="17.987333854727">
        <ele>92.4</ele>
        <time>2018-01-13T17:02:01Z</time>
      </trkpt>
      <trkpt lat="62.635236962173" lon="17.987365119214">
        <ele>92.4</ele>
        <time>2018-01-13T17:02:02Z</time>
      </trkpt>
      <trkpt lat="62.635219779278" lon="17.987401245203">
        <ele>92.4</ele>
        <time>2018-01-13T17:02:03Z</time>
      </trkpt>
      <trkpt lat="62.635196812872" lon="17.987438796115">
        <ele>92.4</ele>
        <time>2018-01-13T17:02:04Z</time>
      </trkpt>
      <trkpt lat="62.635169906973" lon="17.987465534376">
        <ele>92.4</ele>
        <time>2018-01-13T17:02:05Z</time>
      </trkpt>
      <trkpt lat="62.635155406286" lon="17.987495625397">
        <ele>92.6</ele>
        <time>2018-01-13T17:02:06Z</time>
      </trkpt>
      <trkpt lat="62.635138139572" lon="17.987536780526">
        <ele>92.8</ele>
        <time>2018-01-13T17:02:07Z</time>
      </trkpt>
      <trkpt lat="62.635124141799" lon="17.987562093864">
        <ele>92.8</ele>
        <time>2018-01-13T17:02:08Z</time>
      </trkpt>
      <trkpt lat="62.635104276696" lon="17.987589418858">
        <ele>93</ele>
        <time>2018-01-13T17:02:09Z</time>
      </trkpt>
      <trkpt lat="62.635085668878" lon="17.987612301445">
        <ele>93</ele>
        <time>2018-01-13T17:02:10Z</time>
      </trkpt>
      <trkpt lat="62.635060271721" lon="17.987643985027">
        <ele>93.2</ele>
        <time>2018-01-13T17:02:11Z</time>
      </trkpt>
      <trkpt lat="62.63503940079" lon="17.987689163468">
        <ele>93.2</ele>
        <time>2018-01-13T17:02:12Z</time>
      </trkpt>
      <trkpt lat="62.63502598975" lon="17.987720511774">
        <ele>93.4</ele>
        <time>2018-01-13T17:02:13Z</time>
      </trkpt>
      <trkpt lat="62.63500754957" lon="17.987751692442">
        <ele>93.6</ele>
        <time>2018-01-13T17:02:14Z</time>
      </trkpt>
      <trkpt lat="62.634984666983" lon="17.987788991897">
        <ele>93.8</ele>
        <time>2018-01-13T17:02:15Z</time>
      </trkpt>
      <trkpt lat="62.634971758857" lon="17.987813215588">
        <ele>93.8</ele>
        <time>2018-01-13T17:02:16Z</time>
      </trkpt>
      <trkpt lat="62.634956000885" lon="17.987836349632">
        <ele>94</ele>
        <time>2018-01-13T17:02:17Z</time>
      </trkpt>
      <trkpt lat="62.634931358099" lon="17.987869625775">
        <ele>94.2</ele>
        <time>2018-01-13T17:02:18Z</time>
      </trkpt>
      <trkpt lat="62.634908978426" lon="17.987908014877">
        <ele>94.2</ele>
        <time>2018-01-13T17:02:19Z</time>
      </trkpt>
      <trkpt lat="62.634892046988" lon="17.987946068703">
        <ele>94.4</ele>
        <time>2018-01-13T17:02:20Z</time>
      </trkpt>
      <trkpt lat="62.634877378663" lon="17.987967777824">
        <ele>94.6</ele>
        <time>2018-01-13T17:02:21Z</time>
      </trkpt>
      <trkpt lat="62.634859609035" lon="17.987989570764">
        <ele>94.8</ele>
        <time>2018-01-13T17:02:22Z</time>
      </trkpt>
      <trkpt lat="62.634833541326" lon="17.988010357876">
        <ele>95</ele>
        <time>2018-01-13T17:02:23Z</time>
      </trkpt>
      <trkpt lat="62.634808395626" lon="17.988024020373">
        <ele>95.2</ele>
        <time>2018-01-13T17:02:24Z</time>
      </trkpt>
      <trkpt lat="62.634794314034" lon="17.988048327883">
        <ele>95.4</ele>
        <time>2018-01-13T17:02:25Z</time>
      </trkpt>
      <trkpt lat="62.634756595484" lon="17.98805444667">
        <ele>95.4</ele>
        <time>2018-01-13T17:02:26Z</time>
      </trkpt>
      <trkpt lat="62.634734383449" lon="17.988059224353">
        <ele>95.4</ele>
        <time>2018-01-13T17:02:27Z</time>
      </trkpt>
      <trkpt lat="62.634715105079" lon="17.988064337312">
        <ele>95.4</ele>
        <time>2018-01-13T17:02:28Z</time>
      </trkpt>
      <trkpt lat="62.63468819918" lon="17.988064588769">
        <ele>95.6</ele>
        <time>2018-01-13T17:02:29Z</time>
      </trkpt>
      <trkpt lat="62.634655006856" lon="17.988075820515">
        <ele>95.6</ele>
        <time>2018-01-13T17:02:30Z</time>
      </trkpt>
      <trkpt lat="62.634634387382" lon="17.988099122197">
        <ele>95.6</ele>
        <time>2018-01-13T17:02:31Z</time>
      </trkpt>
      <trkpt lat="62.634607062388" lon="17.988088896279">
        <ele>95.8</ele>
        <time>2018-01-13T17:02:32Z</time>
      </trkpt>
      <trkpt lat="62.634577139005" lon="17.988087806632">
        <ele>95.8</ele>
        <time>2018-01-13T17:02:33Z</time>
      </trkpt>
      <trkpt lat="62.634552328581" lon="17.988093925419">
        <ele>96.2</ele>
        <time>2018-01-13T17:02:34Z</time>
      </trkpt>
      <trkpt lat="62.634531541469" lon="17.988103648423">
        <ele>96.2</ele>
        <time>2018-01-13T17:02:35Z</time>
      </trkpt>
      <trkpt lat="62.634508994158" lon="17.988118903481">
        <ele>96.4</ele>
        <time>2018-01-13T17:02:36Z</time>
      </trkpt>
      <trkpt lat="62.634494493471" lon="17.98812904558">
        <ele>96.4</ele>
        <time>2018-01-13T17:02:37Z</time>
      </trkpt>
      <trkpt lat="62.634467587572" lon="17.988130470503">
        <ele>96.6</ele>
        <time>2018-01-13T17:02:38Z</time>
      </trkpt>
      <trkpt lat="62.634435736352" lon="17.988135164367">
        <ele>96.6</ele>
        <time>2018-01-13T17:02:39Z</time>
      </trkpt>
      <trkpt lat="62.634413524317" lon="17.988147904855">
        <ele>96.8</ele>
        <time>2018-01-13T17:02:40Z</time>
      </trkpt>
      <trkpt lat="62.634383600934" lon="17.988149581235">
        <ele>96.8</ele>
        <time>2018-01-13T17:02:41Z</time>
      </trkpt>
      <trkpt lat="62.634352504085" lon="17.988155197108">
        <ele>96.8</ele>
        <time>2018-01-13T17:02:42Z</time>
      </trkpt>
      <trkpt lat="62.634330124412" lon="17.988179253161">
        <ele>97</ele>
        <time>2018-01-13T17:02:43Z</time>
      </trkpt>
      <trkpt lat="62.634297518821" lon="17.988171038899">
        <ele>97</ele>
        <time>2018-01-13T17:02:44Z</time>
      </trkpt>
      <trkpt lat="62.634270612922" lon="17.988169949252">
        <ele>97</ele>
        <time>2018-01-13T17:02:45Z</time>
      </trkpt>
      <trkpt lat="62.634247897973" lon="17.988167937596">
        <ele>97.2</ele>
        <time>2018-01-13T17:02:46Z</time>
      </trkpt>
      <trkpt lat="62.634213699821" lon="17.988168105234">
        <ele>97.2</ele>
        <time>2018-01-13T17:02:47Z</time>
      </trkpt>
      <trkpt lat="62.634189895225" lon="17.9881692787">
        <ele>97.4</ele>
        <time>2018-01-13T17:02:48Z</time>
      </trkpt>
      <trkpt lat="62.634153182503" lon="17.988160393886">
        <ele>97.6</ele>
        <time>2018-01-13T17:02:49Z</time>
      </trkpt>
      <trkpt lat="62.634126192785" lon="17.988144468276">
        <ele>97.6</ele>
        <time>2018-01-13T17:02:50Z</time>
      </trkpt>
      <trkpt lat="62.634106327682" lon="17.988137678937">
        <ele>97.6</ele>
        <time>2018-01-13T17:02:51Z</time>
      </trkpt>
      <trkpt lat="62.634078164498" lon="17.988130135227">
        <ele>97.6</ele>
        <time>2018-01-13T17:02:52Z</time>
      </trkpt>
      <trkpt lat="62.634057293567" lon="17.988136337833">
        <ele>97.8</ele>
        <time>2018-01-13T17:02:53Z</time>
      </trkpt>
      <trkpt lat="62.634032650781" lon="17.988130051408">
        <ele>97.8</ele>
        <time>2018-01-13T17:02:54Z</time>
      </trkpt>
      <trkpt lat="62.634000380466" lon="17.988114880169">
        <ele>97.8</ele>
        <time>2018-01-13T17:02:55Z</time>
      </trkpt>
      <trkpt lat="62.633972468739" lon="17.988101050034">
        <ele>97.8</ele>
        <time>2018-01-13T17:02:56Z</time>
      </trkpt>
      <trkpt lat="62.633967020504" lon="17.988097613455">
        <ele>97.8</ele>
        <time>2018-01-13T17:02:57Z</time>
      </trkpt>
      <trkpt lat="62.633929888687" lon="17.988068779719">
        <ele>98</ele>
        <time>2018-01-13T17:02:58Z</time>
      </trkpt>
      <trkpt lat="62.633901390227" lon="17.988046651503">
        <ele>98</ele>
        <time>2018-01-13T17:02:59Z</time>
      </trkpt>
      <trkpt lat="62.633882111857" lon="17.988031899359">
        <ele>98.2</ele>
        <time>2018-01-13T17:03:00Z</time>
      </trkpt>
      <trkpt lat="62.633854535406" lon="17.988002981804">
        <ele>98.2</ele>
        <time>2018-01-13T17:03:01Z</time>
      </trkpt>
      <trkpt lat="62.633825953127" lon="17.987984206348">
        <ele>98.4</ele>
        <time>2018-01-13T17:03:02Z</time>
      </trkpt>
      <trkpt lat="62.633804076368" lon="17.987960401752">
        <ele>98.6</ele>
        <time>2018-01-13T17:03:03Z</time>
      </trkpt>
      <trkpt lat="62.633769710578" lon="17.987923856668">
        <ele>98.6</ele>
        <time>2018-01-13T17:03:04Z</time>
      </trkpt>
      <trkpt lat="62.633747247086" lon="17.987897453683">
        <ele>98.8</ele>
        <time>2018-01-13T17:03:05Z</time>
      </trkpt>
      <trkpt lat="62.633725370327" lon="17.987880773702">
        <ele>98.8</ele>
        <time>2018-01-13T17:03:06Z</time>
      </trkpt>
      <trkpt lat="62.633696452772" lon="17.987855292726">
        <ele>98.8</ele>
        <time>2018-01-13T17:03:07Z</time>
      </trkpt>
      <trkpt lat="62.633663511905" lon="17.987825201705">
        <ele>98.8</ele>
        <time>2018-01-13T17:03:08Z</time>
      </trkpt>
      <trkpt lat="62.633636941282" lon="17.987791087372">
        <ele>98.8</ele>
        <time>2018-01-13T17:03:09Z</time>
      </trkpt>
      <trkpt lat="62.633609281012" lon="17.987761666903">
        <ele>98.8</ele>
        <time>2018-01-13T17:03:10Z</time>
      </trkpt>
      <trkpt lat="62.633585476416" lon="17.987730737692">
        <ele>98.8</ele>
        <time>2018-01-13T17:03:11Z</time>
      </trkpt>
      <trkpt lat="62.633563851114" lon="17.98770492144">
        <ele>99</ele>
        <time>2018-01-13T17:03:12Z</time>
      </trkpt>
      <trkpt lat="62.63354490802" lon="17.987694276427">
        <ele>99.2</ele>
        <time>2018-01-13T17:03:13Z</time>
      </trkpt>
      <trkpt lat="62.633516241922" lon="17.987645158493">
        <ele>99.4</ele>
        <time>2018-01-13T17:03:14Z</time>
      </trkpt>
      <trkpt lat="62.633489084566" lon="17.987604757735">
        <ele>99.8</ele>
        <time>2018-01-13T17:03:15Z</time>
      </trkpt>
      <trkpt lat="62.633464944694" lon="17.987584808813">
        <ele>100.4</ele>
        <time>2018-01-13T17:03:16Z</time>
      </trkpt>
      <trkpt lat="62.63344181065" lon="17.987544240417">
        <ele>100.4</ele>
        <time>2018-01-13T17:03:17Z</time>
      </trkpt>
      <trkpt lat="62.633413898923" lon="17.987495541578">
        <ele>100.6</ele>
        <time>2018-01-13T17:03:18Z</time>
      </trkpt>
      <trkpt lat="62.633396464571" lon="17.987457571571">
        <ele>100.6</ele>
        <time>2018-01-13T17:03:19Z</time>
      </trkpt>
      <trkpt lat="62.633383304988" lon="17.987405603791">
        <ele>100.6</ele>
        <time>2018-01-13T17:03:20Z</time>
      </trkpt>
      <trkpt lat="62.633365032446" lon="17.987376602417">
        <ele>100.8</ele>
        <time>2018-01-13T17:03:21Z</time>
      </trkpt>
      <trkpt lat="62.633346759904" lon="17.987340727885">
        <ele>101</ele>
        <time>2018-01-13T17:03:22Z</time>
      </trkpt>
      <trkpt lat="62.633328738819" lon="17.987292783417">
        <ele>101.2</ele>
        <time>2018-01-13T17:03:23Z</time>
      </trkpt>
      <trkpt lat="62.633304682766" lon="17.987242911112">
        <ele>101.4</ele>
        <time>2018-01-13T17:03:24Z</time>
      </trkpt>
      <trkpt lat="62.633283644197" lon="17.987187255296">
        <ele>101.6</ele>
        <time>2018-01-13T17:03:25Z</time>
      </trkpt>
      <trkpt lat="62.633260929248" lon="17.987099245346">
        <ele>101.8</ele>
        <time>2018-01-13T17:03:26Z</time>
      </trkpt>
      <trkpt lat="62.633235532091" lon="17.98699162175">
        <ele>101.8</ele>
        <time>2018-01-13T17:03:27Z</time>
      </trkpt>
      <trkpt lat="62.63321382297" lon="17.986867485811">
        <ele>101.4</ele>
        <time>2018-01-13T17:03:28Z</time>
      </trkpt>
      <trkpt lat="62.633201417758" lon="17.986764053165">
        <ele>100.6</ele>
        <time>2018-01-13T17:03:29Z</time>
      </trkpt>
      <trkpt lat="62.633196137161" lon="17.986680485622">
        <ele>99.8</ele>
        <time>2018-01-13T17:03:30Z</time>
      </trkpt>
      <trkpt lat="62.633193035858" lon="17.986579986641">
        <ele>99.2</ele>
        <time>2018-01-13T17:03:31Z</time>
      </trkpt>
      <trkpt lat="62.633181636474" lon="17.986479236203">
        <ele>98.6</ele>
        <time>2018-01-13T17:03:32Z</time>
      </trkpt>
      <trkpt lat="62.633180043913" lon="17.986453755227">
        <ele>98.4</ele>
        <time>2018-01-13T17:03:33Z</time>
      </trkpt>
      <trkpt lat="62.633170991461" lon="17.986311095289">
        <ele>98</ele>
        <time>2018-01-13T17:03:34Z</time>
      </trkpt>
      <trkpt lat="62.633166465235" lon="17.986209841937">
        <ele>98.2</ele>
        <time>2018-01-13T17:03:35Z</time>
      </trkpt>
      <trkpt lat="62.633167051968" lon="17.986095512821">
        <ele>98.4</ele>
        <time>2018-01-13T17:03:36Z</time>
      </trkpt>
      <trkpt lat="62.633165878502" lon="17.985990655252">
        <ele>98.2</ele>
        <time>2018-01-13T17:03:37Z</time>
      </trkpt>
      <trkpt lat="62.633169231262" lon="17.985878337792">
        <ele>97.8</ele>
        <time>2018-01-13T17:03:38Z</time>
      </trkpt>
      <trkpt lat="62.633172500203" lon="17.985792088041">
        <ele>97.2</ele>
        <time>2018-01-13T17:03:39Z</time>
      </trkpt>
      <trkpt lat="62.633174176583" lon="17.985694606544">
        <ele>96.6</ele>
        <time>2018-01-13T17:03:40Z</time>
      </trkpt>
      <trkpt lat="62.633182055569" lon="17.985626880792">
        <ele>96</ele>
        <time>2018-01-13T17:03:41Z</time>
      </trkpt>
      <trkpt lat="62.633184318682" lon="17.985544151439">
        <ele>95.8</ele>
        <time>2018-01-13T17:03:42Z</time>
      </trkpt>
      <trkpt lat="62.633191108021" lon="17.985455135661">
        <ele>96.2</ele>
        <time>2018-01-13T17:03:43Z</time>
      </trkpt>
      <trkpt lat="62.633195047514" lon="17.985384895339">
        <ele>96.4</ele>
        <time>2018-01-13T17:03:44Z</time>
      </trkpt>
      <trkpt lat="62.633202591224" lon="17.985266375273">
        <ele>96.6</ele>
        <time>2018-01-13T17:03:45Z</time>
      </trkpt>
      <trkpt lat="62.633223378336" lon="17.98513251633">
        <ele>96.6</ele>
        <time>2018-01-13T17:03:46Z</time>
      </trkpt>
      <trkpt lat="62.633238214299" lon="17.985012487522">
        <ele>96.4</ele>
        <time>2018-01-13T17:03:47Z</time>
      </trkpt>
      <trkpt lat="62.633262354171" lon="17.984896398207">
        <ele>95.4</ele>
        <time>2018-01-13T17:03:48Z</time>
      </trkpt>
      <trkpt lat="62.633287416052" lon="17.984793300837">
        <ele>94.4</ele>
        <time>2018-01-13T17:03:49Z</time>
      </trkpt>
      <trkpt lat="62.633307364974" lon="17.984692634218">
        <ele>93.6</ele>
        <time>2018-01-13T17:03:50Z</time>
      </trkpt>
      <trkpt lat="62.633336953081" lon="17.984630105244">
        <ele>93</ele>
        <time>2018-01-13T17:03:51Z</time>
      </trkpt>
      <trkpt lat="62.633363272247" lon="17.984538993991">
        <ele>92.6</ele>
        <time>2018-01-13T17:03:52Z</time>
      </trkpt>
      <trkpt lat="62.633379365495" lon="17.984453917706">
        <ele>92.6</ele>
        <time>2018-01-13T17:03:53Z</time>
      </trkpt>
      <trkpt lat="62.633393614725" lon="17.984397591338">
        <ele>92.8</ele>
        <time>2018-01-13T17:03:54Z</time>
      </trkpt>
      <trkpt lat="62.633400571702" lon="17.984306647723">
        <ele>93</ele>
        <time>2018-01-13T17:03:55Z</time>
      </trkpt>
      <trkpt lat="62.633406774308" lon="17.984215955565">
        <ele>93</ele>
        <time>2018-01-13T17:03:56Z</time>
      </trkpt>
      <trkpt lat="62.633426890868" lon="17.984187205648">
        <ele>93.2</ele>
        <time>2018-01-13T17:03:57Z</time>
      </trkpt>
      <trkpt lat="62.633438374071" lon="17.984100285345">
        <ele>93.4</ele>
        <time>2018-01-13T17:03:58Z</time>
      </trkpt>
      <trkpt lat="62.633459580278" lon="17.984032559593">
        <ele>93.2</ele>
        <time>2018-01-13T17:03:59Z</time>
      </trkpt>
      <trkpt lat="62.633464357961" lon="17.983971120266">
        <ele>93.2</ele>
        <time>2018-01-13T17:04:00Z</time>
      </trkpt>
      <trkpt lat="62.633477182268" lon="17.983904400342">
        <ele>93.4</ele>
        <time>2018-01-13T17:04:01Z</time>
      </trkpt>
      <trkpt lat="62.633478774829" lon="17.983833405649">
        <ele>93.6</ele>
        <time>2018-01-13T17:04:02Z</time>
      </trkpt>
      <trkpt lat="62.6334879111" lon="17.98377967767">
        <ele>93.6</ele>
        <time>2018-01-13T17:04:03Z</time>
      </trkpt>
      <trkpt lat="62.633500903045" lon="17.983694098471">
        <ele>93.8</ele>
        <time>2018-01-13T17:04:04Z</time>
      </trkpt>
      <trkpt lat="62.633514481723" lon="17.983626707995">
        <ele>93.6</ele>
        <time>2018-01-13T17:04:05Z</time>
      </trkpt>
      <trkpt lat="62.63353401155" lon="17.983574488758">
        <ele>93.6</ele>
        <time>2018-01-13T17:04:06Z</time>
      </trkpt>
      <trkpt lat="62.633542561088" lon="17.983509948128">
        <ele>93.8</ele>
        <time>2018-01-13T17:04:07Z</time>
      </trkpt>
      <trkpt lat="62.633557983784" lon="17.983447670611">
        <ele>93.8</ele>
        <time>2018-01-13T17:04:08Z</time>
      </trkpt>
      <trkpt lat="62.633575166679" lon="17.983390086958">
        <ele>94</ele>
        <time>2018-01-13T17:04:09Z</time>
      </trkpt>
      <trkpt lat="62.633588326262" lon="17.983301238818">
        <ele>93.8</ele>
        <time>2018-01-13T17:04:10Z</time>
      </trkpt>
      <trkpt lat="62.633603329863" lon="17.983245247726">
        <ele>93.8</ele>
        <time>2018-01-13T17:04:11Z</time>
      </trkpt>
      <trkpt lat="62.633612633772" lon="17.983175258861">
        <ele>93.8</ele>
        <time>2018-01-13T17:04:12Z</time>
      </trkpt>
      <trkpt lat="62.633628810839" lon="17.983105605272">
        <ele>93.6</ele>
        <time>2018-01-13T17:04:13Z</time>
      </trkpt>
      <trkpt lat="62.633641718965" lon="17.983055397691">
        <ele>93.6</ele>
        <time>2018-01-13T17:04:14Z</time>
      </trkpt>
      <trkpt lat="62.633650352322" lon="17.982976524012">
        <ele>93.4</ele>
        <time>2018-01-13T17:04:15Z</time>
      </trkpt>
      <trkpt lat="62.633666864665" lon="17.982903601482">
        <ele>93.4</ele>
        <time>2018-01-13T17:04:16Z</time>
      </trkpt>
      <trkpt lat="62.633684718112" lon="17.982860434697">
        <ele>93.6</ele>
        <time>2018-01-13T17:04:17Z</time>
      </trkpt>
      <trkpt lat="62.633695698401" lon="17.98278390795">
        <ele>93.4</ele>
        <time>2018-01-13T17:04:18Z</time>
      </trkpt>
      <trkpt lat="62.633716653151" lon="17.982731353437">
        <ele>93.6</ele>
        <time>2018-01-13T17:04:19Z</time>
      </trkpt>
      <trkpt lat="62.633728974544" lon="17.982657089803">
        <ele>93.8</ele>
        <time>2018-01-13T17:04:20Z</time>
      </trkpt>
      <trkpt lat="62.63371925154" lon="17.982585843653">
        <ele>93.8</ele>
        <time>2018-01-13T17:04:21Z</time>
      </trkpt>
      <trkpt lat="62.633732159666" lon="17.982547286913">
        <ele>93.8</ele>
        <time>2018-01-13T17:04:22Z</time>
      </trkpt>
      <trkpt lat="62.633739284281" lon="17.982471765994">
        <ele>94</ele>
        <time>2018-01-13T17:04:23Z</time>
      </trkpt>
      <trkpt lat="62.633744061964" lon="17.982369171538">
        <ele>93.8</ele>
        <time>2018-01-13T17:04:24Z</time>
      </trkpt>
      <trkpt lat="62.633758227375" lon="17.982325082744">
        <ele>93.8</ele>
        <time>2018-01-13T17:04:25Z</time>
      </trkpt>
      <trkpt lat="62.633765184352" lon="17.982232546568">
        <ele>93.8</ele>
        <time>2018-01-13T17:04:26Z</time>
      </trkpt>
      <trkpt lat="62.633767615103" lon="17.982209831619">
        <ele>93.8</ele>
        <time>2018-01-13T17:04:27Z</time>
      </trkpt>
      <trkpt lat="62.633782786342" lon="17.982125593524">
        <ele>93.8</ele>
        <time>2018-01-13T17:04:28Z</time>
      </trkpt>
      <trkpt lat="62.633788988948" lon="17.982028782579">
        <ele>93.8</ele>
        <time>2018-01-13T17:04:29Z</time>
      </trkpt>
      <trkpt lat="62.633815308114" lon="17.981946053226">
        <ele>93.8</ele>
        <time>2018-01-13T17:04:30Z</time>
      </trkpt>
      <trkpt lat="62.633828132421" lon="17.981933480376">
        <ele>93.8</ele>
        <time>2018-01-13T17:04:31Z</time>
      </trkpt>
      <trkpt lat="62.63382570167" lon="17.981872376325">
        <ele>93.8</ele>
        <time>2018-01-13T17:04:32Z</time>
      </trkpt>
      <trkpt lat="62.633828635335" lon="17.981808590066">
        <ele>93.8</ele>
        <time>2018-01-13T17:04:33Z</time>
      </trkpt>
      <trkpt lat="62.633832071914" lon="17.981740612857">
        <ele>93.8</ele>
        <time>2018-01-13T17:04:34Z</time>
      </trkpt>
      <trkpt lat="62.633837268692" lon="17.981657967323">
        <ele>93.8</ele>
        <time>2018-01-13T17:04:35Z</time>
      </trkpt>
      <trkpt lat="62.633845231497" lon="17.981604909896">
        <ele>94</ele>
        <time>2018-01-13T17:04:36Z</time>
      </trkpt>
      <trkpt lat="62.633856127967" lon="17.981540369266">
        <ele>94</ele>
        <time>2018-01-13T17:04:37Z</time>
      </trkpt>
      <trkpt lat="62.633852607569" lon="17.981468704021">
        <ele>94.2</ele>
        <time>2018-01-13T17:04:38Z</time>
      </trkpt>
      <trkpt lat="62.633865850971" lon="17.981402319373">
        <ele>94.4</ele>
        <time>2018-01-13T17:04:39Z</time>
      </trkpt>
      <trkpt lat="62.633882028038" lon="17.981336856734">
        <ele>94.4</ele>
        <time>2018-01-13T17:04:40Z</time>
      </trkpt>
      <trkpt lat="62.633907089919" lon="17.981275836502">
        <ele>94.2</ele>
        <time>2018-01-13T17:04:41Z</time>
      </trkpt>
      <trkpt lat="62.633918154027" lon="17.981212888433">
        <ele>94.4</ele>
        <time>2018-01-13T17:04:42Z</time>
      </trkpt>
      <trkpt lat="62.633929301954" lon="17.981171481847">
        <ele>94.4</ele>
        <time>2018-01-13T17:04:43Z</time>
      </trkpt>
      <trkpt lat="62.633944221736" lon="17.981126303406">
        <ele>94.4</ele>
        <time>2018-01-13T17:04:44Z</time>
      </trkpt>
      <trkpt lat="62.633959309156" lon="17.981074503264">
        <ele>94.6</ele>
        <time>2018-01-13T17:04:45Z</time>
      </trkpt>
      <trkpt lat="62.633977162603" lon="17.981026558796">
        <ele>94.8</ele>
        <time>2018-01-13T17:04:46Z</time>
      </trkpt>
      <trkpt lat="62.633994429317" lon="17.980986241857">
        <ele>94.8</ele>
        <time>2018-01-13T17:04:47Z</time>
      </trkpt>
      <trkpt lat="62.634015551705" lon="17.980919438114">
        <ele>95</ele>
        <time>2018-01-13T17:04:48Z</time>
      </trkpt>
      <trkpt lat="62.634038266654" lon="17.980864201393">
        <ele>95</ele>
        <time>2018-01-13T17:04:49Z</time>
      </trkpt>
      <trkpt lat="62.634046732373" lon="17.980821956617">
        <ele>95</ele>
        <time>2018-01-13T17:04:50Z</time>
      </trkpt>
      <trkpt lat="62.63407212953" lon="17.980758589453">
        <ele>95.2</ele>
        <time>2018-01-13T17:04:51Z</time>
      </trkpt>
      <trkpt lat="62.634095179755" lon="17.980712572822">
        <ele>95.2</ele>
        <time>2018-01-13T17:04:52Z</time>
      </trkpt>
      <trkpt lat="62.634110518632" lon="17.980667310562">
        <ele>95.4</ele>
        <time>2018-01-13T17:04:53Z</time>
      </trkpt>
      <trkpt lat="62.634122672387" lon="17.98059790843">
        <ele>95.4</ele>
        <time>2018-01-13T17:04:54Z</time>
      </trkpt>
      <trkpt lat="62.634140358196" lon="17.980569158513">
        <ele>95.4</ele>
        <time>2018-01-13T17:04:55Z</time>
      </trkpt>
      <trkpt lat="62.634163324602" lon="17.980512832145">
        <ele>95.4</ele>
        <time>2018-01-13T17:04:56Z</time>
      </trkpt>
      <trkpt lat="62.634165839172" lon="17.980495230155">
        <ele>95.4</ele>
        <time>2018-01-13T17:04:57Z</time>
      </trkpt>
      <trkpt lat="62.634186458646" lon="17.980432449724">
        <ele>95.6</ele>
        <time>2018-01-13T17:04:58Z</time>
      </trkpt>
      <trkpt lat="62.634203557722" lon="17.98038500817">
        <ele>95.6</ele>
        <time>2018-01-13T17:04:59Z</time>
      </trkpt>
      <trkpt lat="62.634221746445" lon="17.980326083413">
        <ele>95.6</ele>
        <time>2018-01-13T17:05:00Z</time>
      </trkpt>
      <trkpt lat="62.634245383403" lon="17.980289957424">
        <ele>95.6</ele>
        <time>2018-01-13T17:05:01Z</time>
      </trkpt>
      <trkpt lat="62.634271367293" lon="17.980238995472">
        <ele>95.6</ele>
        <time>2018-01-13T17:05:02Z</time>
      </trkpt>
      <trkpt lat="62.634298524649" lon="17.980201696017">
        <ele>95.6</ele>
        <time>2018-01-13T17:05:03Z</time>
      </trkpt>
      <trkpt lat="62.634314198802" lon="17.980147213667">
        <ele>95.6</ele>
        <time>2018-01-13T17:05:04Z</time>
      </trkpt>
      <trkpt lat="62.634323837987" lon="17.980079655553">
        <ele>95.6</ele>
        <time>2018-01-13T17:05:05Z</time>
      </trkpt>
      <trkpt lat="62.634336746113" lon="17.980025173203">
        <ele>95.6</ele>
        <time>2018-01-13T17:05:06Z</time>
      </trkpt>
      <trkpt lat="62.634355018655" lon="17.979957615089">
        <ele>95.4</ele>
        <time>2018-01-13T17:05:07Z</time>
      </trkpt>
      <trkpt lat="62.63437303974" lon="17.979900785807">
        <ele>95.4</ele>
        <time>2018-01-13T17:05:08Z</time>
      </trkpt>
      <trkpt lat="62.634387624246" lon="17.979855942642">
        <ele>95.6</ele>
        <time>2018-01-13T17:05:09Z</time>
      </trkpt>
      <trkpt lat="62.634400783829" lon="17.979779248257">
        <ele>95.6</ele>
        <time>2018-01-13T17:05:10Z</time>
      </trkpt>
      <trkpt lat="62.634419391647" lon="17.979705571356">
        <ele>95.4</ele>
        <time>2018-01-13T17:05:11Z</time>
      </trkpt>
      <trkpt lat="62.634432886506" lon="17.979657626888">
        <ele>95.8</ele>
        <time>2018-01-13T17:05:12Z</time>
      </trkpt>
      <trkpt lat="62.63444260951" lon="17.979570622766">
        <ele>95.4</ele>
        <time>2018-01-13T17:05:13Z</time>
      </trkpt>
      <trkpt lat="62.634449566487" lon="17.979502142643">
        <ele>95.4</ele>
        <time>2018-01-13T17:05:14Z</time>
      </trkpt>
      <trkpt lat="62.634451075229" lon="17.979454114356">
        <ele>95.4</ele>
        <time>2018-01-13T17:05:15Z</time>
      </trkpt>
      <trkpt lat="62.634464150993" lon="17.979374821582">
        <ele>95.4</ele>
        <time>2018-01-13T17:05:16Z</time>
      </trkpt>
      <trkpt lat="62.634465659735" lon="17.979319584861">
        <ele>95.4</ele>
        <time>2018-01-13T17:05:17Z</time>
      </trkpt>
      <trkpt lat="62.634481836802" lon="17.979266778891">
        <ele>95</ele>
        <time>2018-01-13T17:05:18Z</time>
      </trkpt>
      <trkpt lat="62.634496840403" lon="17.979200058967">
        <ele>95.2</ele>
        <time>2018-01-13T17:05:19Z</time>
      </trkpt>
      <trkpt lat="62.634511089633" lon="17.979126549704">
        <ele>95.2</ele>
        <time>2018-01-13T17:05:20Z</time>
      </trkpt>
      <trkpt lat="62.634517292239" lon="17.979081119806">
        <ele>95.2</ele>
        <time>2018-01-13T17:05:21Z</time>
      </trkpt>
      <trkpt lat="62.63452978127" lon="17.978991265838">
        <ele>95.2</ele>
        <time>2018-01-13T17:05:22Z</time>
      </trkpt>
      <trkpt lat="62.634557944454" lon="17.9788569878">
        <ele>95.4</ele>
        <time>2018-01-13T17:05:24Z</time>
      </trkpt>
      <trkpt lat="62.634568757105" lon="17.978797392491">
        <ele>95.4</ele>
        <time>2018-01-13T17:05:25Z</time>
      </trkpt>
      <trkpt lat="62.634576468453" lon="17.978746765815">
        <ele>95.4</ele>
        <time>2018-01-13T17:05:26Z</time>
      </trkpt>
      <trkpt lat="62.634588789846" lon="17.978680884081">
        <ele>95.4</ele>
        <time>2018-01-13T17:05:27Z</time>
      </trkpt>
      <trkpt lat="62.634597004108" lon="17.978591533027">
        <ele>95.4</ele>
        <time>2018-01-13T17:05:28Z</time>
      </trkpt>
      <trkpt lat="62.634612259166" lon="17.978515593013">
        <ele>95.2</ele>
        <time>2018-01-13T17:05:29Z</time>
      </trkpt>
      <trkpt lat="62.634623407093" lon="17.978424230303">
        <ele>95.2</ele>
        <time>2018-01-13T17:05:30Z</time>
      </trkpt>
      <trkpt lat="62.634630280251" lon="17.978339656932">
        <ele>95</ele>
        <time>2018-01-13T17:05:31Z</time>
      </trkpt>
      <trkpt lat="62.634645535309" lon="17.978274864845">
        <ele>94.8</ele>
        <time>2018-01-13T17:05:32Z</time>
      </trkpt>
      <trkpt lat="62.63465886253" lon="17.978182077212">
        <ele>94.8</ele>
        <time>2018-01-13T17:05:33Z</time>
      </trkpt>
      <trkpt lat="62.634674285226" lon="17.978102532981">
        <ele>94.8</ele>
        <time>2018-01-13T17:05:34Z</time>
      </trkpt>
      <trkpt lat="62.634686941895" lon="17.97802801789">
        <ele>94.4</ele>
        <time>2018-01-13T17:05:35Z</time>
      </trkpt>
      <trkpt lat="62.63469574289" lon="17.977947719288">
        <ele>94.4</ele>
        <time>2018-01-13T17:05:36Z</time>
      </trkpt>
      <trkpt lat="62.634705046799" lon="17.977884855038">
        <ele>94.2</ele>
        <time>2018-01-13T17:05:37Z</time>
      </trkpt>
      <trkpt lat="62.63471585945" lon="17.977803718246">
        <ele>94</ele>
        <time>2018-01-13T17:05:38Z</time>
      </trkpt>
      <trkpt lat="62.634724408988" lon="17.977733980838">
        <ele>94</ele>
        <time>2018-01-13T17:05:39Z</time>
      </trkpt>
      <trkpt lat="62.634731701241" lon="17.977674720805">
        <ele>93.8</ele>
        <time>2018-01-13T17:05:40Z</time>
      </trkpt>
      <trkpt lat="62.634747123937" lon="17.977587381407">
        <ele>93.8</ele>
        <time>2018-01-13T17:05:41Z</time>
      </trkpt>
      <trkpt lat="62.634762881909" lon="17.97752007475">
        <ele>93.4</ele>
        <time>2018-01-13T17:05:42Z</time>
      </trkpt>
      <trkpt lat="62.6347787237" lon="17.977467101142">
        <ele>93.4</ele>
        <time>2018-01-13T17:05:43Z</time>
      </trkpt>
      <trkpt lat="62.634789284894" lon="17.977405075082">
        <ele>93.6</ele>
        <time>2018-01-13T17:05:44Z</time>
      </trkpt>
      <trkpt lat="62.634804623771" lon="17.977345647411">
        <ele>93.4</ele>
        <time>2018-01-13T17:05:45Z</time>
      </trkpt>
      <trkpt lat="62.63481141311" lon="17.977296864753">
        <ele>93.4</ele>
        <time>2018-01-13T17:05:46Z</time>
      </trkpt>
      <trkpt lat="62.634820717019" lon="17.977222265843">
        <ele>93.6</ele>
        <time>2018-01-13T17:05:47Z</time>
      </trkpt>
      <trkpt lat="62.634839241018" lon="17.977162670534">
        <ele>93.4</ele>
        <time>2018-01-13T17:05:48Z</time>
      </trkpt>
      <trkpt lat="62.6348541608" lon="17.977080527914">
        <ele>93.6</ele>
        <time>2018-01-13T17:05:49Z</time>
      </trkpt>
      <trkpt lat="62.634863632347" lon="17.976999223484">
        <ele>93.4</ele>
        <time>2018-01-13T17:05:50Z</time>
      </trkpt>
      <trkpt lat="62.634871427514" lon="17.976949686455">
        <ele>93.4</ele>
        <time>2018-01-13T17:05:51Z</time>
      </trkpt>
      <trkpt lat="62.634883078355" lon="17.976864274894">
        <ele>93.4</ele>
        <time>2018-01-13T17:05:52Z</time>
      </trkpt>
      <trkpt lat="62.634895651205" lon="17.976789675984">
        <ele>93.4</ele>
        <time>2018-01-13T17:05:53Z</time>
      </trkpt>
      <trkpt lat="62.634911576815" lon="17.976711556676">
        <ele>93.2</ele>
        <time>2018-01-13T17:05:54Z</time>
      </trkpt>
      <trkpt lat="62.634926664235" lon="17.97664668077">
        <ele>93.2</ele>
        <time>2018-01-13T17:05:55Z</time>
      </trkpt>
      <trkpt lat="62.634941248741" lon="17.976591108773">
        <ele>93.2</ele>
        <time>2018-01-13T17:05:56Z</time>
      </trkpt>
      <trkpt lat="62.634954073048" lon="17.976517012777">
        <ele>93</ele>
        <time>2018-01-13T17:05:57Z</time>
      </trkpt>
      <trkpt lat="62.634973854332" lon="17.976448532654">
        <ele>93</ele>
        <time>2018-01-13T17:05:58Z</time>
      </trkpt>
      <trkpt lat="62.634990366675" lon="17.976375023391">
        <ele>93</ele>
        <time>2018-01-13T17:05:59Z</time>
      </trkpt>
      <trkpt lat="62.635006795199" lon="17.976288857459">
        <ele>93</ele>
        <time>2018-01-13T17:06:00Z</time>
      </trkpt>
      <trkpt lat="62.63502347518" lon="17.976240074801">
        <ele>92.6</ele>
        <time>2018-01-13T17:06:01Z</time>
      </trkpt>
      <trkpt lat="62.635042334455" lon="17.976155249973">
        <ele>92.6</ele>
        <time>2018-01-13T17:06:02Z</time>
      </trkpt>
      <trkpt lat="62.635053901477" lon="17.976111580274">
        <ele>92.6</ele>
        <time>2018-01-13T17:06:03Z</time>
      </trkpt>
      <trkpt lat="62.635081561747" lon="17.975984175394">
        <ele>92.4</ele>
        <time>2018-01-13T17:06:04Z</time>
      </trkpt>
      <trkpt lat="62.635096984443" lon="17.975885017517">
        <ele>92.2</ele>
        <time>2018-01-13T17:06:05Z</time>
      </trkpt>
      <trkpt lat="62.635106791266" lon="17.975789631495">
        <ele>91.8</ele>
        <time>2018-01-13T17:06:06Z</time>
      </trkpt>
      <trkpt lat="62.635131517871" lon="17.975730874376">
        <ele>91.6</ele>
        <time>2018-01-13T17:06:07Z</time>
      </trkpt>
      <trkpt lat="62.63514082178" lon="17.975641355684">
        <ele>91.6</ele>
        <time>2018-01-13T17:06:08Z</time>
      </trkpt>
      <trkpt lat="62.635152724078" lon="17.975563152557">
        <ele>91.4</ele>
        <time>2018-01-13T17:06:09Z</time>
      </trkpt>
      <trkpt lat="62.635164458738" lon="17.975501461773">
        <ele>91.4</ele>
        <time>2018-01-13T17:06:10Z</time>
      </trkpt>
      <trkpt lat="62.635170577525" lon="17.975402722991">
        <ele>91.4</ele>
        <time>2018-01-13T17:06:11Z</time>
      </trkpt>
      <trkpt lat="62.635172505362" lon="17.975301972553">
        <ele>91.4</ele>
        <time>2018-01-13T17:06:12Z</time>
      </trkpt>
      <trkpt lat="62.635178791787" lon="17.975231145498">
        <ele>91.4</ele>
        <time>2018-01-13T17:06:13Z</time>
      </trkpt>
      <trkpt lat="62.635175606665" lon="17.975143470824">
        <ele>91.2</ele>
        <time>2018-01-13T17:06:14Z</time>
      </trkpt>
      <trkpt lat="62.635150628603" lon="17.975037607427">
        <ele>90.8</ele>
        <time>2018-01-13T17:06:15Z</time>
      </trkpt>
      <trkpt lat="62.635134283898" lon="17.974970887503">
        <ele>90.4</ele>
        <time>2018-01-13T17:06:16Z</time>
      </trkpt>
      <trkpt lat="62.635110395483" lon="17.974886733227">
        <ele>90.2</ele>
        <time>2018-01-13T17:06:17Z</time>
      </trkpt>
      <trkpt lat="62.635070246182" lon="17.974787156255">
        <ele>89.8</ele>
        <time>2018-01-13T17:06:18Z</time>
      </trkpt>
      <trkpt lat="62.635051051631" lon="17.974715910105">
        <ele>89.8</ele>
        <time>2018-01-13T17:06:19Z</time>
      </trkpt>
      <trkpt lat="62.635019703325" lon="17.974615243486">
        <ele>89.4</ele>
        <time>2018-01-13T17:06:20Z</time>
      </trkpt>
      <trkpt lat="62.635007884846" lon="17.974544751707">
        <ele>89.4</ele>
        <time>2018-01-13T17:06:21Z</time>
      </trkpt>
      <trkpt lat="62.634988606476" lon="17.97444056469">
        <ele>89</ele>
        <time>2018-01-13T17:06:22Z</time>
      </trkpt>
      <trkpt lat="62.634967735545" lon="17.974340484804">
        <ele>88.8</ele>
        <time>2018-01-13T17:06:23Z</time>
      </trkpt>
      <trkpt lat="62.634953402496" lon="17.974277788192">
        <ele>88.4</ele>
        <time>2018-01-13T17:06:24Z</time>
      </trkpt>
      <trkpt lat="62.634931441918" lon="17.974173936451">
        <ele>88.4</ele>
        <time>2018-01-13T17:06:25Z</time>
      </trkpt>
      <trkpt lat="62.63491199591" lon="17.974103193215">
        <ele>88.2</ele>
        <time>2018-01-13T17:06:26Z</time>
      </trkpt>
      <trkpt lat="62.634899339241" lon="17.974043933182">
        <ele>88.2</ele>
        <time>2018-01-13T17:06:27Z</time>
      </trkpt>
      <trkpt lat="62.634876624292" lon="17.973976961801">
        <ele>88</ele>
        <time>2018-01-13T17:06:28Z</time>
      </trkpt>
      <trkpt lat="62.634865392546" lon="17.973925245478">
        <ele>88.2</ele>
        <time>2018-01-13T17:06:29Z</time>
      </trkpt>
      <trkpt lat="62.634845527443" lon="17.973852909681">
        <ele>88.2</ele>
        <time>2018-01-13T17:06:30Z</time>
      </trkpt>
      <trkpt lat="62.634830272385" lon="17.973766073197">
        <ele>88.2</ele>
        <time>2018-01-13T17:06:31Z</time>
      </trkpt>
      <trkpt lat="62.634821052295" lon="17.973707651354">
        <ele>88.2</ele>
        <time>2018-01-13T17:06:32Z</time>
      </trkpt>
      <trkpt lat="62.634802360658" lon="17.973611846237">
        <ele>88.2</ele>
        <time>2018-01-13T17:06:33Z</time>
      </trkpt>
      <trkpt lat="62.634784004297" lon="17.973529787436">
        <ele>88</ele>
        <time>2018-01-13T17:06:34Z</time>
      </trkpt>
      <trkpt lat="62.634775957673" lon="17.97343222212">
        <ele>87.8</ele>
        <time>2018-01-13T17:06:35Z</time>
      </trkpt>
      <trkpt lat="62.63477117999" lon="17.97335091769">
        <ele>87.8</ele>
        <time>2018-01-13T17:06:36Z</time>
      </trkpt>
      <trkpt lat="62.634769000696" lon="17.973279252445">
        <ele>87.6</ele>
        <time>2018-01-13T17:06:37Z</time>
      </trkpt>
      <trkpt lat="62.634772604913" lon="17.973203480069">
        <ele>87.4</ele>
        <time>2018-01-13T17:06:38Z</time>
      </trkpt>
      <trkpt lat="62.634775957673" lon="17.973140364362">
        <ele>87.2</ele>
        <time>2018-01-13T17:06:39Z</time>
      </trkpt>
      <trkpt lat="62.634787524695" lon="17.973047828186">
        <ele>87.2</ele>
        <time>2018-01-13T17:06:40Z</time>
      </trkpt>
      <trkpt lat="62.634814179137" lon="17.972994016388">
        <ele>87</ele>
        <time>2018-01-13T17:06:41Z</time>
      </trkpt>
      <trkpt lat="62.634833289869" lon="17.972903072773">
        <ele>87</ele>
        <time>2018-01-13T17:06:42Z</time>
      </trkpt>
      <trkpt lat="62.634852903515" lon="17.972820930153">
        <ele>87</ele>
        <time>2018-01-13T17:06:43Z</time>
      </trkpt>
      <trkpt lat="62.634873020075" lon="17.972745241596">
        <ele>87</ele>
        <time>2018-01-13T17:06:44Z</time>
      </trkpt>
      <trkpt lat="62.634892801359" lon="17.972667960478">
        <ele>87</ele>
        <time>2018-01-13T17:06:45Z</time>
      </trkpt>
      <trkpt lat="62.634922640923" lon="17.972619848372">
        <ele>86.8</ele>
        <time>2018-01-13T17:06:46Z</time>
      </trkpt>
      <trkpt lat="62.63494384713" lon="17.972553631362">
        <ele>86.8</ele>
        <time>2018-01-13T17:06:47Z</time>
      </trkpt>
      <trkpt lat="62.634971004486" lon="17.972475679692">
        <ele>86.6</ele>
        <time>2018-01-13T17:06:48Z</time>
      </trkpt>
      <trkpt lat="62.634994809082" lon="17.972421448799">
        <ele>86.4</ele>
        <time>2018-01-13T17:06:49Z</time>
      </trkpt>
      <trkpt lat="62.635024564827" lon="17.972330169908">
        <ele>86.2</ele>
        <time>2018-01-13T17:06:50Z</time>
      </trkpt>
      <trkpt lat="62.635047866509" lon="17.972255151903">
        <ele>86.2</ele>
        <time>2018-01-13T17:06:51Z</time>
      </trkpt>
      <trkpt lat="62.635068988897" lon="17.972176194405">
        <ele>86</ele>
        <time>2018-01-13T17:06:52Z</time>
      </trkpt>
      <trkpt lat="62.63509891228" lon="17.972102098409">
        <ele>86</ele>
        <time>2018-01-13T17:06:53Z</time>
      </trkpt>
      <trkpt lat="62.635120453763" lon="17.971986763465">
        <ele>85.8</ele>
        <time>2018-01-13T17:06:54Z</time>
      </trkpt>
      <trkpt lat="62.635142581979" lon="17.971867489028">
        <ele>85.8</ele>
        <time>2018-01-13T17:06:55Z</time>
      </trkpt>
      <trkpt lat="62.635157669399" lon="17.971744442736">
        <ele>85</ele>
        <time>2018-01-13T17:06:56Z</time>
      </trkpt>
      <trkpt lat="62.63516932024" lon="17.971641345366">
        <ele>84.4</ele>
        <time>2018-01-13T17:06:57Z</time>
      </trkpt>
      <trkpt lat="62.635182647461" lon="17.971509330441">
        <ele>83.6</ele>
        <time>2018-01-13T17:06:58Z</time>
      </trkpt>
      <trkpt lat="62.635194382121" lon="17.971391648565">
        <ele>82.8</ele>
        <time>2018-01-13T17:06:59Z</time>
      </trkpt>
      <trkpt lat="62.635207290247" lon="17.971275391612">
        <ele>81.8</ele>
        <time>2018-01-13T17:07:00Z</time>
      </trkpt>
      <trkpt lat="62.635222210029" lon="17.971157542098">
        <ele>81.2</ele>
        <time>2018-01-13T17:07:01Z</time>
      </trkpt>
      <trkpt lat="62.635234866698" lon="17.971050672873">
        <ele>80.8</ele>
        <time>2018-01-13T17:07:02Z</time>
      </trkpt>
      <trkpt lat="62.635250289394" lon="17.970927878038">
        <ele>80.2</ele>
        <time>2018-01-13T17:07:03Z</time>
      </trkpt>
      <trkpt lat="62.635261185864" lon="17.970798880597">
        <ele>79.8</ele>
        <time>2018-01-13T17:07:04Z</time>
      </trkpt>
      <trkpt lat="62.635271495601" lon="17.970677678323">
        <ele>79.2</ele>
        <time>2018-01-13T17:07:05Z</time>
      </trkpt>
      <trkpt lat="62.635283565537" lon="17.970558655343">
        <ele>78.8</ele>
        <time>2018-01-13T17:07:06Z</time>
      </trkpt>
      <trkpt lat="62.635296641301" lon="17.970451450842">
        <ele>78.4</ele>
        <time>2018-01-13T17:07:07Z</time>
      </trkpt>
      <trkpt lat="62.635311561083" lon="17.970326811989">
        <ele>78.2</ele>
        <time>2018-01-13T17:07:08Z</time>
      </trkpt>
      <trkpt lat="62.635327570512" lon="17.970217679651">
        <ele>78</ele>
        <time>2018-01-13T17:07:09Z</time>
      </trkpt>
      <trkpt lat="62.635349782547" lon="17.970084155984">
        <ele>77.8</ele>
        <time>2018-01-13T17:07:10Z</time>
      </trkpt>
      <trkpt lat="62.635379286835" lon="17.969969910687">
        <ele>77.6</ele>
        <time>2018-01-13T17:07:11Z</time>
      </trkpt>
      <trkpt lat="62.63540820439" lon="17.969855749209">
        <ele>77.6</ele>
        <time>2018-01-13T17:07:12Z</time>
      </trkpt>
      <trkpt lat="62.635438630687" lon="17.969738654066">
        <ele>77.4</ele>
        <time>2018-01-13T17:07:13Z</time>
      </trkpt>
      <trkpt lat="62.635466793871" lon="17.969624660226">
        <ele>77</ele>
        <time>2018-01-13T17:07:14Z</time>
      </trkpt>
      <trkpt lat="62.635490849924" lon="17.969522233408">
        <ele>76.6</ele>
        <time>2018-01-13T17:07:15Z</time>
      </trkpt>
      <trkpt lat="62.635520605669" lon="17.969404048618">
        <ele>76.4</ele>
        <time>2018-01-13T17:07:16Z</time>
      </trkpt>
      <trkpt lat="62.635544242627" lon="17.969304890741">
        <ele>76</ele>
        <time>2018-01-13T17:07:17Z</time>
      </trkpt>
      <trkpt lat="62.63557668058" lon="17.969173881644">
        <ele>75.6</ele>
        <time>2018-01-13T17:07:18Z</time>
      </trkpt>
      <trkpt lat="62.635607190696" lon="17.969070113722">
        <ele>74.6</ele>
        <time>2018-01-13T17:07:19Z</time>
      </trkpt>
      <trkpt lat="62.635637952269" lon="17.968966261981">
        <ele>73.8</ele>
        <time>2018-01-13T17:07:20Z</time>
      </trkpt>
      <trkpt lat="62.635666786005" lon="17.968872887615">
        <ele>73</ele>
        <time>2018-01-13T17:07:21Z</time>
      </trkpt>
      <trkpt lat="62.635698721044" lon="17.968773059186">
        <ele>72.2</ele>
        <time>2018-01-13T17:07:22Z</time>
      </trkpt>
      <trkpt lat="62.635734847033" lon="17.968680774467">
        <ele>71.6</ele>
        <time>2018-01-13T17:07:23Z</time>
      </trkpt>
      <trkpt lat="62.635767452624" lon="17.968618832226">
        <ele>71.2</ele>
        <time>2018-01-13T17:07:24Z</time>
      </trkpt>
      <trkpt lat="62.635814977997" lon="17.96855144175">
        <ele>71</ele>
        <time>2018-01-13T17:07:25Z</time>
      </trkpt>
      <trkpt lat="62.63586166518" lon="17.968505257481">
        <ele>71</ele>
        <time>2018-01-13T17:07:26Z</time>
      </trkpt>
      <trkpt lat="62.635905334879" lon="17.968480027962">
        <ele>71</ele>
        <time>2018-01-13T17:07:27Z</time>
      </trkpt>
      <trkpt lat="62.636003906023" lon="17.968456139547">
        <ele>71</ele>
        <time>2018-01-13T17:07:29Z</time>
      </trkpt>
      <trkpt lat="62.636048916826" lon="17.968457061556">
        <ele>70.6</ele>
        <time>2018-01-13T17:07:30Z</time>
      </trkpt>
      <trkpt lat="62.63609719657" lon="17.968468377121">
        <ele>70.4</ele>
        <time>2018-01-13T17:07:31Z</time>
      </trkpt>
      <trkpt lat="62.636129969799" lon="17.968490086242">
        <ele>70.4</ele>
        <time>2018-01-13T17:07:32Z</time>
      </trkpt>
      <trkpt lat="62.636173052765" lon="17.968539539452">
        <ele>70.2</ele>
        <time>2018-01-13T17:07:33Z</time>
      </trkpt>
      <trkpt lat="62.636213285885" lon="17.968557057623">
        <ele>70</ele>
        <time>2018-01-13T17:07:34Z</time>
      </trkpt>
      <trkpt lat="62.636247903132" lon="17.96858161659">
        <ele>69.8</ele>
        <time>2018-01-13T17:07:35Z</time>
      </trkpt>
      <trkpt lat="62.636283526207" lon="17.968606846109">
        <ele>69.8</ele>
        <time>2018-01-13T17:07:36Z</time>
      </trkpt>
      <trkpt lat="62.636317891997" lon="17.968630734524">
        <ele>69.8</ele>
        <time>2018-01-13T17:07:37Z</time>
      </trkpt>
      <trkpt lat="62.636349324122" lon="17.968655880224">
        <ele>69.8</ele>
        <time>2018-01-13T17:07:38Z</time>
      </trkpt>
      <trkpt lat="62.636371452338" lon="17.968687731444">
        <ele>69.8</ele>
        <time>2018-01-13T17:07:39Z</time>
      </trkpt>
      <trkpt lat="62.636408919431" lon="17.968763168544">
        <ele>69.8</ele>
        <time>2018-01-13T17:07:40Z</time>
      </trkpt>
      <trkpt lat="62.636438088443" lon="17.968822009482">
        <ele>69.8</ele>
        <time>2018-01-13T17:07:41Z</time>
      </trkpt>
      <trkpt lat="62.636459043193" lon="17.968874061081">
        <ele>69.8</ele>
        <time>2018-01-13T17:07:42Z</time>
      </trkpt>
      <trkpt lat="62.636483518341" lon="17.968927705241">
        <ele>70</ele>
        <time>2018-01-13T17:07:43Z</time>
      </trkpt>
      <trkpt lat="62.636506065652" lon="17.968957796262">
        <ele>70</ele>
        <time>2018-01-13T17:07:44Z</time>
      </trkpt>
      <trkpt lat="62.636526685126" lon="17.96901747539">
        <ele>70.2</ele>
        <time>2018-01-13T17:07:45Z</time>
      </trkpt>
      <trkpt lat="62.636549148618" lon="17.969073215025">
        <ele>70</ele>
        <time>2018-01-13T17:07:46Z</time>
      </trkpt>
      <trkpt lat="62.636563900762" lon="17.969100875295">
        <ele>70.2</ele>
        <time>2018-01-13T17:07:47Z</time>
      </trkpt>
      <trkpt lat="62.636583514408" lon="17.969166421753">
        <ele>70.2</ele>
        <time>2018-01-13T17:07:48Z</time>
      </trkpt>
      <trkpt lat="62.636603211873" lon="17.969216461696">
        <ele>70.2</ele>
        <time>2018-01-13T17:07:49Z</time>
      </trkpt>
      <trkpt lat="62.63661938894" lon="17.969271279322">
        <ele>70.2</ele>
        <time>2018-01-13T17:07:50Z</time>
      </trkpt>
      <trkpt lat="62.636635063093" lon="17.969324672025">
        <ele>70.2</ele>
        <time>2018-01-13T17:07:51Z</time>
      </trkpt>
      <trkpt lat="62.636648809409" lon="17.969369431371">
        <ele>70.4</ele>
        <time>2018-01-13T17:07:52Z</time>
      </trkpt>
      <trkpt lat="62.636664315924" lon="17.969441683349">
        <ele>70.4</ele>
        <time>2018-01-13T17:07:53Z</time>
      </trkpt>
      <trkpt lat="62.636681834095" lon="17.969499853735">
        <ele>70.4</ele>
        <time>2018-01-13T17:07:54Z</time>
      </trkpt>
      <trkpt lat="62.636694658402" lon="17.969536482638">
        <ele>70.4</ele>
        <time>2018-01-13T17:07:55Z</time>
      </trkpt>
      <trkpt lat="62.636704800501" lon="17.969610159539">
        <ele>70.4</ele>
        <time>2018-01-13T17:07:56Z</time>
      </trkpt>
      <trkpt lat="62.63671578079" lon="17.969649135374">
        <ele>70.6</ele>
        <time>2018-01-13T17:07:57Z</time>
      </trkpt>
      <trkpt lat="62.636726844898" lon="17.969696912204">
        <ele>70.4</ele>
        <time>2018-01-13T17:07:58Z</time>
      </trkpt>
      <trkpt lat="62.636739753024" lon="17.969751897468">
        <ele>70.4</ele>
        <time>2018-01-13T17:07:59Z</time>
      </trkpt>
      <trkpt lat="62.636754588987" lon="17.969790538027">
        <ele>70.4</ele>
        <time>2018-01-13T17:08:00Z</time>
      </trkpt>
      <trkpt lat="62.636766239828" lon="17.969839991237">
        <ele>70.4</ele>
        <time>2018-01-13T17:08:01Z</time>
      </trkpt>
      <trkpt lat="62.636780991972" lon="17.969890450275">
        <ele>70.6</ele>
        <time>2018-01-13T17:08:02Z</time>
      </trkpt>
      <trkpt lat="62.636797336677" lon="17.969938730019">
        <ele>70.6</ele>
        <time>2018-01-13T17:08:03Z</time>
      </trkpt>
      <trkpt lat="62.636814268115" lon="17.969991200713">
        <ele>70.8</ele>
        <time>2018-01-13T17:08:04Z</time>
      </trkpt>
      <trkpt lat="62.636838827082" lon="17.970027242883">
        <ele>70.8</ele>
        <time>2018-01-13T17:08:05Z</time>
      </trkpt>
      <trkpt lat="62.636855674701" lon="17.970048532909">
        <ele>70.8</ele>
        <time>2018-01-13T17:08:06Z</time>
      </trkpt>
      <trkpt lat="62.636881239496" lon="17.970078959206">
        <ele>70.8</ele>
        <time>2018-01-13T17:08:07Z</time>
      </trkpt>
      <trkpt lat="62.636910743784" lon="17.970110558969">
        <ele>70.8</ele>
        <time>2018-01-13T17:08:08Z</time>
      </trkpt>
      <trkpt lat="62.636933542552" lon="17.970152133193">
        <ele>70.8</ele>
        <time>2018-01-13T17:08:09Z</time>
      </trkpt>
      <trkpt lat="62.636962879202" lon="17.970180212558">
        <ele>70.8</ele>
        <time>2018-01-13T17:08:10Z</time>
      </trkpt>
      <trkpt lat="62.636987270531" lon="17.970183816775">
        <ele>70.8</ele>
        <time>2018-01-13T17:08:11Z</time>
      </trkpt>
      <trkpt lat="62.637018954113" lon="17.970208208104">
        <ele>70.8</ele>
        <time>2018-01-13T17:08:12Z</time>
      </trkpt>
      <trkpt lat="62.637051140609" lon="17.970213321063">
        <ele>70.8</ele>
        <time>2018-01-13T17:08:13Z</time>
      </trkpt>
      <trkpt lat="62.637086763684" lon="17.970211728502">
        <ele>70.8</ele>
        <time>2018-01-13T17:08:14Z</time>
      </trkpt>
      <trkpt lat="62.637121297112" lon="17.970212901968">
        <ele>70.8</ele>
        <time>2018-01-13T17:08:15Z</time>
      </trkpt>
      <trkpt lat="62.637157674558" lon="17.97020435243">
        <ele>70.6</ele>
        <time>2018-01-13T17:08:16Z</time>
      </trkpt>
      <trkpt lat="62.63718768176" lon="17.970201167308">
        <ele>70.6</ele>
        <time>2018-01-13T17:08:17Z</time>
      </trkpt>
      <trkpt lat="62.637229172165" lon="17.970179625825">
        <ele>70.4</ele>
        <time>2018-01-13T17:08:18Z</time>
      </trkpt>
      <trkpt lat="62.637285079438" lon="17.970143416017">
        <ele>70.4</ele>
        <time>2018-01-13T17:08:19Z</time>
      </trkpt>
      <trkpt lat="62.637304609265" lon="17.970135872307">
        <ele>70.2</ele>
        <time>2018-01-13T17:08:20Z</time>
      </trkpt>
      <trkpt lat="62.637353475742" lon="17.970112905901">
        <ele>69.8</ele>
        <time>2018-01-13T17:08:21Z</time>
      </trkpt>
      <trkpt lat="62.637395469061" lon="17.97009203497">
        <ele>69.2</ele>
        <time>2018-01-13T17:08:22Z</time>
      </trkpt>
      <trkpt lat="62.637431008317" lon="17.970078121016">
        <ele>68.6</ele>
        <time>2018-01-13T17:08:23Z</time>
      </trkpt>
      <trkpt lat="62.637464033003" lon="17.970066218718">
        <ele>68.2</ele>
        <time>2018-01-13T17:08:24Z</time>
      </trkpt>
      <trkpt lat="62.637502505924" lon="17.970068230374">
        <ele>67.8</ele>
        <time>2018-01-13T17:08:25Z</time>
      </trkpt>
      <trkpt lat="62.637534105687" lon="17.970080132672">
        <ele>67.4</ele>
        <time>2018-01-13T17:08:26Z</time>
      </trkpt>
      <trkpt lat="62.637574674083" lon="17.970100835965">
        <ele>67.4</ele>
        <time>2018-01-13T17:08:27Z</time>
      </trkpt>
      <trkpt lat="62.637607782588" lon="17.970122125991">
        <ele>67.6</ele>
        <time>2018-01-13T17:08:28Z</time>
      </trkpt>
      <trkpt lat="62.637640555817" lon="17.970161269464">
        <ele>67.6</ele>
        <time>2018-01-13T17:08:29Z</time>
      </trkpt>
      <trkpt lat="62.63766712644" lon="17.970205944991">
        <ele>67.8</ele>
        <time>2018-01-13T17:08:30Z</time>
      </trkpt>
      <trkpt lat="62.637687997371" lon="17.970252799812">
        <ele>67.8</ele>
        <time>2018-01-13T17:08:31Z</time>
      </trkpt>
      <trkpt lat="62.637706186094" lon="17.970319100641">
        <ele>68</ele>
        <time>2018-01-13T17:08:32Z</time>
      </trkpt>
      <trkpt lat="62.637720938238" lon="17.970393699551">
        <ele>67.8</ele>
        <time>2018-01-13T17:08:33Z</time>
      </trkpt>
      <trkpt lat="62.63773837259" lon="17.970455474154">
        <ele>67.8</ele>
        <time>2018-01-13T17:08:34Z</time>
      </trkpt>
      <trkpt lat="62.637754382019" lon="17.970506687563">
        <ele>67.8</ele>
        <time>2018-01-13T17:08:35Z</time>
      </trkpt>
      <trkpt lat="62.637769720896" lon="17.970565277044">
        <ele>67.8</ele>
        <time>2018-01-13T17:08:36Z</time>
      </trkpt>
      <trkpt lat="62.637785478868" lon="17.970622022507">
        <ele>67.8</ele>
        <time>2018-01-13T17:08:37Z</time>
      </trkpt>
      <trkpt lat="62.637798051718" lon="17.970662590903">
        <ele>67.8</ele>
        <time>2018-01-13T17:08:38Z</time>
      </trkpt>
      <trkpt lat="62.637809032007" lon="17.970726209524">
        <ele>67.8</ele>
        <time>2018-01-13T17:08:39Z</time>
      </trkpt>
      <trkpt lat="62.637820096115" lon="17.970792845629">
        <ele>67.8</ele>
        <time>2018-01-13T17:08:40Z</time>
      </trkpt>
      <trkpt lat="62.637829400024" lon="17.970831989102">
        <ele>67.8</ele>
        <time>2018-01-13T17:08:41Z</time>
      </trkpt>
      <trkpt lat="62.6378381172" lon="17.970886722909">
        <ele>68</ele>
        <time>2018-01-13T17:08:42Z</time>
      </trkpt>
      <trkpt lat="62.63784566091" lon="17.970949754797">
        <ele>68.2</ele>
        <time>2018-01-13T17:08:43Z</time>
      </trkpt>
      <trkpt lat="62.637854461905" lon="17.970994095048">
        <ele>68.4</ele>
        <time>2018-01-13T17:08:44Z</time>
      </trkpt>
      <trkpt lat="62.63786577747" lon="17.971044973181">
        <ele>68.6</ele>
        <time>2018-01-13T17:08:45Z</time>
      </trkpt>
      <trkpt lat="62.637873153542" lon="17.971094594029">
        <ele>68.6</ele>
        <time>2018-01-13T17:08:46Z</time>
      </trkpt>
      <trkpt lat="62.637884888202" lon="17.971150249845">
        <ele>68.4</ele>
        <time>2018-01-13T17:08:47Z</time>
      </trkpt>
      <trkpt lat="62.63789511412" lon="17.971208336412">
        <ele>68.6</ele>
        <time>2018-01-13T17:08:48Z</time>
      </trkpt>
      <trkpt lat="62.637907184056" lon="17.971258627812">
        <ele>68.4</ele>
        <time>2018-01-13T17:08:49Z</time>
      </trkpt>
      <trkpt lat="62.637915398318" lon="17.971312271972">
        <ele>68.6</ele>
        <time>2018-01-13T17:08:50Z</time>
      </trkpt>
      <trkpt lat="62.637923193485" lon="17.971368430702">
        <ele>68.6</ele>
        <time>2018-01-13T17:08:51Z</time>
      </trkpt>
      <trkpt lat="62.637930485738" lon="17.971420817577">
        <ele>68.8</ele>
        <time>2018-01-13T17:08:52Z</time>
      </trkpt>
      <trkpt lat="62.637939454371" lon="17.971474797013">
        <ele>68.8</ele>
        <time>2018-01-13T17:08:53Z</time>
      </trkpt>
      <trkpt lat="62.637946746624" lon="17.971522406205">
        <ele>69</ele>
        <time>2018-01-13T17:08:54Z</time>
      </trkpt>
      <trkpt lat="62.637956050533" lon="17.971571859415">
        <ele>68.8</ele>
        <time>2018-01-13T17:08:55Z</time>
      </trkpt>
      <trkpt lat="62.637965186804" lon="17.97162508448">
        <ele>69</ele>
        <time>2018-01-13T17:08:56Z</time>
      </trkpt>
      <trkpt lat="62.637974323075" lon="17.971692391137">
        <ele>69.2</ele>
        <time>2018-01-13T17:08:57Z</time>
      </trkpt>
      <trkpt lat="62.637980860957" lon="17.971743856003">
        <ele>69.2</ele>
        <time>2018-01-13T17:08:58Z</time>
      </trkpt>
      <trkpt lat="62.637987063563" lon="17.971804289502">
        <ele>69.2</ele>
        <time>2018-01-13T17:08:59Z</time>
      </trkpt>
      <trkpt lat="62.637990164866" lon="17.971858520395">
        <ele>69.2</ele>
        <time>2018-01-13T17:09:00Z</time>
      </trkpt>
      <trkpt lat="62.637993098531" lon="17.971909063252">
        <ele>69.4</ele>
        <time>2018-01-13T17:09:01Z</time>
      </trkpt>
      <trkpt lat="62.637994774911" lon="17.971974190615">
        <ele>69.2</ele>
        <time>2018-01-13T17:09:02Z</time>
      </trkpt>
      <trkpt lat="62.637995529282" lon="17.97202993025">
        <ele>69.2</ele>
        <time>2018-01-13T17:09:03Z</time>
      </trkpt>
      <trkpt lat="62.637997205662" lon="17.972082233306">
        <ele>69.2</ele>
        <time>2018-01-13T17:09:04Z</time>
      </trkpt>
      <trkpt lat="62.637999804051" lon="17.972141577158">
        <ele>69.2</ele>
        <time>2018-01-13T17:09:05Z</time>
      </trkpt>
      <trkpt lat="62.638000474603" lon="17.972192874386">
        <ele>69.4</ele>
        <time>2018-01-13T17:09:06Z</time>
      </trkpt>
      <trkpt lat="62.638000977517" lon="17.972250541858">
        <ele>69.4</ele>
        <time>2018-01-13T17:09:07Z</time>
      </trkpt>
      <trkpt lat="62.638002067164" lon="17.972305778579">
        <ele>69.4</ele>
        <time>2018-01-13T17:09:08Z</time>
      </trkpt>
      <trkpt lat="62.638004246458" lon="17.972353555409">
        <ele>69.4</ele>
        <time>2018-01-13T17:09:09Z</time>
      </trkpt>
      <trkpt lat="62.638006677209" lon="17.972399152945">
        <ele>69.6</ele>
        <time>2018-01-13T17:09:10Z</time>
      </trkpt>
      <trkpt lat="62.63800994615" lon="17.972448773793">
        <ele>69.6</ele>
        <time>2018-01-13T17:09:11Z</time>
      </trkpt>
      <trkpt lat="62.638012712177" lon="17.972506608903">
        <ele>69.6</ele>
        <time>2018-01-13T17:09:12Z</time>
      </trkpt>
      <trkpt lat="62.63801748986" lon="17.972547428756">
        <ele>69.8</ele>
        <time>2018-01-13T17:09:13Z</time>
      </trkpt>
      <trkpt lat="62.638019836792" lon="17.972598558346">
        <ele>70</ele>
        <time>2018-01-13T17:09:14Z</time>
      </trkpt>
      <trkpt lat="62.638024279199" lon="17.972658153655">
        <ele>70</ele>
        <time>2018-01-13T17:09:15Z</time>
      </trkpt>
      <trkpt lat="62.638028134873" lon="17.972694028187">
        <ele>70</ele>
        <time>2018-01-13T17:09:16Z</time>
      </trkpt>
      <trkpt lat="62.638032828737" lon="17.972756808618">
        <ele>70.2</ele>
        <time>2018-01-13T17:09:17Z</time>
      </trkpt>
      <trkpt lat="62.638035008031" lon="17.972812212977">
        <ele>70.2</ele>
        <time>2018-01-13T17:09:18Z</time>
      </trkpt>
      <trkpt lat="62.638038696067" lon="17.972854122477">
        <ele>70.2</ele>
        <time>2018-01-13T17:09:19Z</time>
      </trkpt>
      <trkpt lat="62.638044144302" lon="17.972892511579">
        <ele>70.2</ele>
        <time>2018-01-13T17:09:20Z</time>
      </trkpt>
      <trkpt lat="62.638049592537" lon="17.972930900681">
        <ele>70.2</ele>
        <time>2018-01-13T17:09:21Z</time>
      </trkpt>
      <trkpt lat="62.638055040772" lon="17.972969205964">
        <ele>70.2</ele>
        <time>2018-01-13T17:09:22Z</time>
      </trkpt>
      <trkpt lat="62.63804515013" lon="17.973100969432">
        <ele>70.6</ele>
        <time>2018-01-13T17:09:24Z</time>
      </trkpt>
      <trkpt lat="62.638045653044" lon="17.973155787058">
        <ele>70.8</ele>
        <time>2018-01-13T17:09:25Z</time>
      </trkpt>
      <trkpt lat="62.638046072139" lon="17.973192835056">
        <ele>70.8</ele>
        <time>2018-01-13T17:09:26Z</time>
      </trkpt>
      <trkpt lat="62.638048754347" lon="17.973241533895">
        <ele>71.2</ele>
        <time>2018-01-13T17:09:27Z</time>
      </trkpt>
      <trkpt lat="62.63804934108" lon="17.97328721525">
        <ele>71.2</ele>
        <time>2018-01-13T17:09:28Z</time>
      </trkpt>
      <trkpt lat="62.638048754347" lon="17.973335578813">
        <ele>71.4</ele>
        <time>2018-01-13T17:09:29Z</time>
      </trkpt>
      <trkpt lat="62.63804850289" lon="17.973385199661">
        <ele>71.6</ele>
        <time>2018-01-13T17:09:30Z</time>
      </trkpt>
      <trkpt lat="62.638049676356" lon="17.973417889071">
        <ele>71.8</ele>
        <time>2018-01-13T17:09:31Z</time>
      </trkpt>
      <trkpt lat="62.638049089623" lon="17.973470527403">
        <ele>72</ele>
        <time>2018-01-13T17:09:32Z</time>
      </trkpt>
      <trkpt lat="62.638047999976" lon="17.973530374169">
        <ele>72</ele>
        <time>2018-01-13T17:09:33Z</time>
      </trkpt>
      <trkpt lat="62.638050682184" lon="17.973571110203">
        <ele>72.2</ele>
        <time>2018-01-13T17:09:34Z</time>
      </trkpt>
      <trkpt lat="62.638050011632" lon="17.97363254953">
        <ele>72</ele>
        <time>2018-01-13T17:09:35Z</time>
      </trkpt>
      <trkpt lat="62.638050011632" lon="17.973684768767">
        <ele>72.2</ele>
        <time>2018-01-13T17:09:36Z</time>
      </trkpt>
      <trkpt lat="62.638052190926" lon="17.973738748203">
        <ele>72.2</ele>
        <time>2018-01-13T17:09:37Z</time>
      </trkpt>
      <trkpt lat="62.638053783487" lon="17.973800271349">
        <ele>72.2</ele>
        <time>2018-01-13T17:09:38Z</time>
      </trkpt>
      <trkpt lat="62.638057555342" lon="17.97385886083">
        <ele>72.2</ele>
        <time>2018-01-13T17:09:39Z</time>
      </trkpt>
      <trkpt lat="62.638059566998" lon="17.973920216338">
        <ele>72.2</ele>
        <time>2018-01-13T17:09:40Z</time>
      </trkpt>
      <trkpt lat="62.638060489007" lon="17.973981907122">
        <ele>72.2</ele>
        <time>2018-01-13T17:09:41Z</time>
      </trkpt>
      <trkpt lat="62.638063925586" lon="17.974034713092">
        <ele>72.4</ele>
        <time>2018-01-13T17:09:42Z</time>
      </trkpt>
      <trkpt lat="62.638068116536" lon="17.974100343369">
        <ele>72.4</ele>
        <time>2018-01-13T17:09:43Z</time>
      </trkpt>
      <trkpt lat="62.638072642762" lon="17.974158513755">
        <ele>72.4</ele>
        <time>2018-01-13T17:09:44Z</time>
      </trkpt>
      <trkpt lat="62.638077168988" lon="17.974211319725">
        <ele>72.4</ele>
        <time>2018-01-13T17:09:45Z</time>
      </trkpt>
      <trkpt lat="62.638077923359" lon="17.974264209514">
        <ele>72.2</ele>
        <time>2018-01-13T17:09:46Z</time>
      </trkpt>
      <trkpt lat="62.638078342454" lon="17.974323804823">
        <ele>72.2</ele>
        <time>2018-01-13T17:09:47Z</time>
      </trkpt>
      <trkpt lat="62.638079683558" lon="17.974383316313">
        <ele>72.2</ele>
        <time>2018-01-13T17:09:48Z</time>
      </trkpt>
      <trkpt lat="62.638081276119" lon="17.974446012925">
        <ele>72.2</ele>
        <time>2018-01-13T17:09:49Z</time>
      </trkpt>
      <trkpt lat="62.638082952499" lon="17.974507703709">
        <ele>72.2</ele>
        <time>2018-01-13T17:09:50Z</time>
      </trkpt>
      <trkpt lat="62.638079851196" lon="17.974519606007">
        <ele>72.4</ele>
        <time>2018-01-13T17:09:51Z</time>
      </trkpt>
      <trkpt lat="62.638074319142" lon="17.974615997857">
        <ele>72.4</ele>
        <time>2018-01-13T17:09:52Z</time>
      </trkpt>
      <trkpt lat="62.638066356337" lon="17.974683053057">
        <ele>72.4</ele>
        <time>2018-01-13T17:09:53Z</time>
      </trkpt>
      <trkpt lat="62.638060405188" lon="17.974725297833">
        <ele>72.4</ele>
        <time>2018-01-13T17:09:54Z</time>
      </trkpt>
      <trkpt lat="62.638049005804" lon="17.974777014156">
        <ele>72.4</ele>
        <time>2018-01-13T17:09:55Z</time>
      </trkpt>
      <trkpt lat="62.63803676823" lon="17.974821019131">
        <ele>72.6</ele>
        <time>2018-01-13T17:09:56Z</time>
      </trkpt>
      <trkpt lat="62.638023776285" lon="17.974868628323">
        <ele>72.6</ele>
        <time>2018-01-13T17:09:57Z</time>
      </trkpt>
      <trkpt lat="62.638011035797" lon="17.974907101244">
        <ele>72.6</ele>
        <time>2018-01-13T17:09:58Z</time>
      </trkpt>
      <trkpt lat="62.637993936721" lon="17.974946915269">
        <ele>72.8</ele>
        <time>2018-01-13T17:09:59Z</time>
      </trkpt>
      <trkpt lat="62.637977508197" lon="17.974980610507">
        <ele>72.6</ele>
        <time>2018-01-13T17:10:00Z</time>
      </trkpt>
      <trkpt lat="62.637965773537" lon="17.97500466656">
        <ele>72.8</ele>
        <time>2018-01-13T17:10:01Z</time>
      </trkpt>
      <trkpt lat="62.637951775764" lon="17.975034170848">
        <ele>72.8</ele>
        <time>2018-01-13T17:10:02Z</time>
      </trkpt>
      <trkpt lat="62.637934592869" lon="17.975065267697">
        <ele>72.8</ele>
        <time>2018-01-13T17:10:03Z</time>
      </trkpt>
      <trkpt lat="62.637917829069" lon="17.975093933795">
        <ele>73</ele>
        <time>2018-01-13T17:10:04Z</time>
      </trkpt>
      <trkpt lat="62.637902993106" lon="17.9751186604">
        <ele>73</ele>
        <time>2018-01-13T17:10:05Z</time>
      </trkpt>
      <trkpt lat="62.637890252618" lon="17.97514212972">
        <ele>73</ele>
        <time>2018-01-13T17:10:06Z</time>
      </trkpt>
      <trkpt lat="62.637871896257" lon="17.975172891293">
        <ele>73.2</ele>
        <time>2018-01-13T17:10:07Z</time>
      </trkpt>
      <trkpt lat="62.637855551552" lon="17.975201725029">
        <ele>73.4</ele>
        <time>2018-01-13T17:10:08Z</time>
      </trkpt>
      <trkpt lat="62.637839625942" lon="17.975229552937">
        <ele>73.6</ele>
        <time>2018-01-13T17:10:09Z</time>
      </trkpt>
      <trkpt lat="62.637825795807" lon="17.975258973406">
        <ele>73.8</ele>
        <time>2018-01-13T17:10:10Z</time>
      </trkpt>
      <trkpt lat="62.637810708387" lon="17.975286885133">
        <ele>74</ele>
        <time>2018-01-13T17:10:11Z</time>
      </trkpt>
      <trkpt lat="62.637791094741" lon="17.975319071629">
        <ele>74</ele>
        <time>2018-01-13T17:10:12Z</time>
      </trkpt>
      <trkpt lat="62.637775169131" lon="17.975343714415">
        <ele>74.2</ele>
        <time>2018-01-13T17:10:13Z</time>
      </trkpt>
      <trkpt lat="62.637762261005" lon="17.975362825147">
        <ele>74.2</ele>
        <time>2018-01-13T17:10:14Z</time>
      </trkpt>
      <trkpt lat="62.637748011775" lon="17.975381432965">
        <ele>74.4</ele>
        <time>2018-01-13T17:10:15Z</time>
      </trkpt>
      <trkpt lat="62.6377375344" lon="17.975395849833">
        <ele>74.4</ele>
        <time>2018-01-13T17:10:16Z</time>
      </trkpt>
      <trkpt lat="62.637724458636" lon="17.975413535642">
        <ele>74.8</ele>
        <time>2018-01-13T17:10:17Z</time>
      </trkpt>
      <trkpt lat="62.637711047596" lon="17.9754204088">
        <ele>75</ele>
        <time>2018-01-13T17:10:18Z</time>
      </trkpt>
      <trkpt lat="62.637696546909" lon="17.975429712709">
        <ele>75.4</ele>
        <time>2018-01-13T17:10:19Z</time>
      </trkpt>
      <trkpt lat="62.637681459489" lon="17.975441531188">
        <ele>75.4</ele>
        <time>2018-01-13T17:10:20Z</time>
      </trkpt>
      <trkpt lat="62.637663186947" lon="17.975454690771">
        <ele>75.6</ele>
        <time>2018-01-13T17:10:21Z</time>
      </trkpt>
      <trkpt lat="62.63764617169" lon="17.975470029648">
        <ele>75.8</ele>
        <time>2018-01-13T17:10:22Z</time>
      </trkpt>
      <trkpt lat="62.637623289103" lon="17.975486374353">
        <ele>75.8</ele>
        <time>2018-01-13T17:10:23Z</time>
      </trkpt>
      <trkpt lat="62.637598143403" lon="17.975503138153">
        <ele>75.8</ele>
        <time>2018-01-13T17:10:25Z</time>
      </trkpt>
      <trkpt lat="62.637579619404" lon="17.975515543365">
        <ele>76</ele>
        <time>2018-01-13T17:10:26Z</time>
      </trkpt>
      <trkpt lat="62.637561095405" lon="17.97552769712">
        <ele>76</ele>
        <time>2018-01-13T17:10:27Z</time>
      </trkpt>
      <trkpt lat="62.637543744872" lon="17.975541359617">
        <ele>76</ele>
        <time>2018-01-13T17:10:28Z</time>
      </trkpt>
      <trkpt lat="62.637522873941" lon="17.975556279399">
        <ele>76</ele>
        <time>2018-01-13T17:10:29Z</time>
      </trkpt>
      <trkpt lat="62.637503176476" lon="17.97556373929">
        <ele>76.2</ele>
        <time>2018-01-13T17:10:30Z</time>
      </trkpt>
      <trkpt lat="62.637483479011" lon="17.975570528629">
        <ele>76.4</ele>
        <time>2018-01-13T17:10:31Z</time>
      </trkpt>
      <trkpt lat="62.637467804858" lon="17.97558134128">
        <ele>76.6</ele>
        <time>2018-01-13T17:10:32Z</time>
      </trkpt>
      <trkpt lat="62.637449532316" lon="17.975595925786">
        <ele>76.8</ele>
        <time>2018-01-13T17:10:33Z</time>
      </trkpt>
      <trkpt lat="62.637431175955" lon="17.975606906075">
        <ele>77.2</ele>
        <time>2018-01-13T17:10:34Z</time>
      </trkpt>
      <trkpt lat="62.637416675268" lon="17.975618473097">
        <ele>77.4</ele>
        <time>2018-01-13T17:10:35Z</time>
      </trkpt>
      <trkpt lat="62.637395217604" lon="17.975627777006">
        <ele>77.6</ele>
        <time>2018-01-13T17:10:36Z</time>
      </trkpt>
      <trkpt lat="62.63737459813" lon="17.975642445331">
        <ele>77.8</ele>
        <time>2018-01-13T17:10:37Z</time>
      </trkpt>
      <trkpt lat="62.637351380267" lon="17.975661053149">
        <ele>78</ele>
        <time>2018-01-13T17:10:38Z</time>
      </trkpt>
      <trkpt lat="62.637335119381" lon="17.975670105601">
        <ele>78</ele>
        <time>2018-01-13T17:10:39Z</time>
      </trkpt>
      <trkpt lat="62.637316679201" lon="17.975689551609">
        <ele>78</ele>
        <time>2018-01-13T17:10:40Z</time>
      </trkpt>
      <trkpt lat="62.637298658116" lon="17.975712350377">
        <ele>78</ele>
        <time>2018-01-13T17:10:41Z</time>
      </trkpt>
      <trkpt lat="62.63728155904" lon="17.975733975679">
        <ele>78.2</ele>
        <time>2018-01-13T17:10:42Z</time>
      </trkpt>
      <trkpt lat="62.637262448308" lon="17.975763060872">
        <ele>78.4</ele>
        <time>2018-01-13T17:10:43Z</time>
      </trkpt>
      <trkpt lat="62.637246271241" lon="17.975793906264">
        <ele>78.4</ele>
        <time>2018-01-13T17:10:44Z</time>
      </trkpt>
      <trkpt lat="62.637233614572" lon="17.975822991457">
        <ele>78.4</ele>
        <time>2018-01-13T17:10:45Z</time>
      </trkpt>
      <trkpt lat="62.637219784437" lon="17.975855345591">
        <ele>78.6</ele>
        <time>2018-01-13T17:10:46Z</time>
      </trkpt>
      <trkpt lat="62.637211486356" lon="17.975880239834">
        <ele>78.8</ele>
        <time>2018-01-13T17:10:47Z</time>
      </trkpt>
      <trkpt lat="62.637197823859" lon="17.975921814058">
        <ele>79</ele>
        <time>2018-01-13T17:10:48Z</time>
      </trkpt>
      <trkpt lat="62.637183071715" lon="17.975961711902">
        <ele>79.2</ele>
        <time>2018-01-13T17:10:49Z</time>
      </trkpt>
      <trkpt lat="62.637171504693" lon="17.976001106832">
        <ele>79.4</ele>
        <time>2018-01-13T17:10:50Z</time>
      </trkpt>
      <trkpt lat="62.637162452241" lon="17.976034634432">
        <ele>79.6</ele>
        <time>2018-01-13T17:10:51Z</time>
      </trkpt>
      <trkpt lat="62.637153902703" lon="17.976075286647">
        <ele>80</ele>
        <time>2018-01-13T17:10:52Z</time>
      </trkpt>
      <trkpt lat="62.637144431156" lon="17.976133540852">
        <ele>80.2</ele>
        <time>2018-01-13T17:10:53Z</time>
      </trkpt>
      <trkpt lat="62.637141329853" lon="17.976176707637">
        <ele>80.4</ele>
        <time>2018-01-13T17:10:54Z</time>
      </trkpt>
      <trkpt lat="62.63713739036" lon="17.976218617137">
        <ele>80.6</ele>
        <time>2018-01-13T17:10:55Z</time>
      </trkpt>
      <trkpt lat="62.637128840822" lon="17.976269411451">
        <ele>80.8</ele>
        <time>2018-01-13T17:10:56Z</time>
      </trkpt>
      <trkpt lat="62.637119117818" lon="17.97631140477">
        <ele>80.8</ele>
        <time>2018-01-13T17:10:57Z</time>
      </trkpt>
      <trkpt lat="62.637110400642" lon="17.976358259591">
        <ele>80.8</ele>
        <time>2018-01-13T17:10:58Z</time>
      </trkpt>
      <trkpt lat="62.637101432009" lon="17.97641114938">
        <ele>81</ele>
        <time>2018-01-13T17:10:59Z</time>
      </trkpt>
      <trkpt lat="62.637095732317" lon="17.976463620074">
        <ele>81.2</ele>
        <time>2018-01-13T17:11:00Z</time>
      </trkpt>
      <trkpt lat="62.637096821964" lon="17.976500500434">
        <ele>81.2</ele>
        <time>2018-01-13T17:11:01Z</time>
      </trkpt>
      <trkpt lat="62.637094055937" lon="17.976542577572">
        <ele>81.2</ele>
        <time>2018-01-13T17:11:02Z</time>
      </trkpt>
      <trkpt lat="62.637091457548" lon="17.976603681623">
        <ele>81.4</ele>
        <time>2018-01-13T17:11:03Z</time>
      </trkpt>
      <trkpt lat="62.637092463376" lon="17.976648440969">
        <ele>81.4</ele>
        <time>2018-01-13T17:11:04Z</time>
      </trkpt>
      <trkpt lat="62.637091709005" lon="17.976710718486">
        <ele>81.4</ele>
        <time>2018-01-13T17:11:05Z</time>
      </trkpt>
      <trkpt lat="62.637091960462" lon="17.976761345162">
        <ele>81.4</ele>
        <time>2018-01-13T17:11:06Z</time>
      </trkpt>
      <trkpt lat="62.637091122272" lon="17.976811888019">
        <ele>81.4</ele>
        <time>2018-01-13T17:11:07Z</time>
      </trkpt>
      <trkpt lat="62.637091960462" lon="17.976876428649">
        <ele>81.4</ele>
        <time>2018-01-13T17:11:08Z</time>
      </trkpt>
      <trkpt lat="62.637093972118" lon="17.976922529099">
        <ele>81.4</ele>
        <time>2018-01-13T17:11:09Z</time>
      </trkpt>
      <trkpt lat="62.637092044281" lon="17.976982124408">
        <ele>81.6</ele>
        <time>2018-01-13T17:11:10Z</time>
      </trkpt>
      <trkpt lat="62.637093301566" lon="17.977046665038">
        <ele>81.6</ele>
        <time>2018-01-13T17:11:11Z</time>
      </trkpt>
      <trkpt lat="62.637092882471" lon="17.977102991406">
        <ele>81.6</ele>
        <time>2018-01-13T17:11:12Z</time>
      </trkpt>
      <trkpt lat="62.637093385385" lon="17.977176249212">
        <ele>81.6</ele>
        <time>2018-01-13T17:11:13Z</time>
      </trkpt>
      <trkpt lat="62.637092044281" lon="17.977229139001">
        <ele>81.6</ele>
        <time>2018-01-13T17:11:14Z</time>
      </trkpt>
      <trkpt lat="62.637086009313" lon="17.97729292526">
        <ele>81.6</ele>
        <time>2018-01-13T17:11:15Z</time>
      </trkpt>
      <trkpt lat="62.637080309621" lon="17.97734573123">
        <ele>81.6</ele>
        <time>2018-01-13T17:11:16Z</time>
      </trkpt>
      <trkpt lat="62.637067652952" lon="17.977395938811">
        <ele>81.6</ele>
        <time>2018-01-13T17:11:17Z</time>
      </trkpt>
      <trkpt lat="62.637046949659" lon="17.977454360654">
        <ele>81.6</ele>
        <time>2018-01-13T17:11:18Z</time>
      </trkpt>
      <trkpt lat="62.637031191687" lon="17.97749660543">
        <ele>81.6</ele>
        <time>2018-01-13T17:11:19Z</time>
      </trkpt>
      <trkpt lat="62.637013589697" lon="17.977550836323">
        <ele>81.6</ele>
        <time>2018-01-13T17:11:20Z</time>
      </trkpt>
      <trkpt lat="62.636998669915" lon="17.977597858782">
        <ele>81.8</ele>
        <time>2018-01-13T17:11:21Z</time>
      </trkpt>
      <trkpt lat="62.636989785101" lon="17.977646389983">
        <ele>81.6</ele>
        <time>2018-01-13T17:11:22Z</time>
      </trkpt>
      <trkpt lat="62.636975535871" lon="17.977713612821">
        <ele>81.6</ele>
        <time>2018-01-13T17:11:23Z</time>
      </trkpt>
      <trkpt lat="62.636968495075" lon="17.977765580601">
        <ele>81.6</ele>
        <time>2018-01-13T17:11:24Z</time>
      </trkpt>
      <trkpt lat="62.636961035184" lon="17.977815369087">
        <ele>81.6</ele>
        <time>2018-01-13T17:11:25Z</time>
      </trkpt>
      <trkpt lat="62.636953491474" lon="17.977864989935">
        <ele>81.6</ele>
        <time>2018-01-13T17:11:26Z</time>
      </trkpt>
      <trkpt lat="62.636942175909" lon="17.977939337388">
        <ele>81.6</ele>
        <time>2018-01-13T17:11:27Z</time>
      </trkpt>
      <trkpt lat="62.636944690479" lon="17.977975128101">
        <ele>81.8</ele>
        <time>2018-01-13T17:11:28Z</time>
      </trkpt>
      <trkpt lat="62.636936643855" lon="17.978054420875">
        <ele>81.8</ele>
        <time>2018-01-13T17:11:29Z</time>
      </trkpt>
      <trkpt lat="62.636934883656" lon="17.978096246556">
        <ele>82</ele>
        <time>2018-01-13T17:11:30Z</time>
      </trkpt>
      <trkpt lat="62.636924825376" lon="17.978151902372">
        <ele>82</ele>
        <time>2018-01-13T17:11:31Z</time>
      </trkpt>
      <trkpt lat="62.636912420164" lon="17.978192051673">
        <ele>82.2</ele>
        <time>2018-01-13T17:11:32Z</time>
      </trkpt>
      <trkpt lat="62.636905714644" lon="17.978242678349">
        <ele>82.2</ele>
        <time>2018-01-13T17:11:33Z</time>
      </trkpt>
      <trkpt lat="62.636895656364" lon="17.978286599505">
        <ele>82.2</ele>
        <time>2018-01-13T17:11:34Z</time>
      </trkpt>
      <trkpt lat="62.636879311659" lon="17.978336639448">
        <ele>82.2</ele>
        <time>2018-01-13T17:11:35Z</time>
      </trkpt>
      <trkpt lat="62.636877635279" lon="17.978363461528">
        <ele>82.4</ele>
        <time>2018-01-13T17:11:36Z</time>
      </trkpt>
      <trkpt lat="62.636857099624" lon="17.978413250014">
        <ele>82.4</ele>
        <time>2018-01-13T17:11:37Z</time>
      </trkpt>
      <trkpt lat="62.636840754919" lon="17.978465720708">
        <ele>82.4</ele>
        <time>2018-01-13T17:11:38Z</time>
      </trkpt>
      <trkpt lat="62.636834217037" lon="17.978497152833">
        <ele>82.4</ele>
        <time>2018-01-13T17:11:39Z</time>
      </trkpt>
      <trkpt lat="62.636814268115" lon="17.978550880812">
        <ele>82.4</ele>
        <time>2018-01-13T17:11:40Z</time>
      </trkpt>
      <trkpt lat="62.63679792341" lon="17.978594718149">
        <ele>82.6</ele>
        <time>2018-01-13T17:11:41Z</time>
      </trkpt>
      <trkpt lat="62.636781578705" lon="17.978623300428">
        <ele>82.4</ele>
        <time>2018-01-13T17:11:42Z</time>
      </trkpt>
      <trkpt lat="62.636761126869" lon="17.978653391449">
        <ele>82.6</ele>
        <time>2018-01-13T17:11:43Z</time>
      </trkpt>
      <trkpt lat="62.636741429404" lon="17.978678118054">
        <ele>82.6</ele>
        <time>2018-01-13T17:11:44Z</time>
      </trkpt>
      <trkpt lat="62.636721899577" lon="17.978689601257">
        <ele>82.6</ele>
        <time>2018-01-13T17:11:45Z</time>
      </trkpt>
      <trkpt lat="62.636704381406" lon="17.978705778324">
        <ele>82.6</ele>
        <time>2018-01-13T17:11:46Z</time>
      </trkpt>
      <trkpt lat="62.636685941226" lon="17.978721536296">
        <ele>82.6</ele>
        <time>2018-01-13T17:11:47Z</time>
      </trkpt>
      <trkpt lat="62.636653167997" lon="17.978737797182">
        <ele>82.8</ele>
        <time>2018-01-13T17:11:48Z</time>
      </trkpt>
      <trkpt lat="62.636630117772" lon="17.978742742503">
        <ele>83</ele>
        <time>2018-01-13T17:11:49Z</time>
      </trkpt>
      <trkpt lat="62.636606480814" lon="17.978751962593">
        <ele>83</ele>
        <time>2018-01-13T17:11:50Z</time>
      </trkpt>
      <trkpt lat="62.636585526064" lon="17.978759003389">
        <ele>83.4</ele>
        <time>2018-01-13T17:11:51Z</time>
      </trkpt>
      <trkpt lat="62.636558955441" lon="17.978761937054">
        <ele>83.4</ele>
        <time>2018-01-13T17:11:52Z</time>
      </trkpt>
      <trkpt lat="62.636533642103" lon="17.978761266502">
        <ele>83.6</ele>
        <time>2018-01-13T17:11:53Z</time>
      </trkpt>
      <trkpt lat="62.636510927154" lon="17.978752046412">
        <ele>83.8</ele>
        <time>2018-01-13T17:11:54Z</time>
      </trkpt>
      <trkpt lat="62.636496677924" lon="17.97875556681">
        <ele>83.8</ele>
        <time>2018-01-13T17:11:55Z</time>
      </trkpt>
      <trkpt lat="62.636470610215" lon="17.978753471335">
        <ele>84</ele>
        <time>2018-01-13T17:11:56Z</time>
      </trkpt>
      <trkpt lat="62.636449404008" lon="17.97875305224">
        <ele>84</ele>
        <time>2018-01-13T17:11:57Z</time>
      </trkpt>
      <trkpt lat="62.63642325248" lon="17.978752297869">
        <ele>84.2</ele>
        <time>2018-01-13T17:11:58Z</time>
      </trkpt>
      <trkpt lat="62.636401794816" lon="17.978762942882">
        <ele>84.4</ele>
        <time>2018-01-13T17:11:59Z</time>
      </trkpt>
      <trkpt lat="62.636385282473" lon="17.978761685597">
        <ele>84.6</ele>
        <time>2018-01-13T17:12:00Z</time>
      </trkpt>
      <trkpt lat="62.636369692139" lon="17.978763278158">
        <ele>84.8</ele>
        <time>2018-01-13T17:12:01Z</time>
      </trkpt>
      <trkpt lat="62.636355107633" lon="17.978770402773">
        <ele>85</ele>
        <time>2018-01-13T17:12:02Z</time>
      </trkpt>
      <trkpt lat="62.636339265842" lon="17.978779371406">
        <ele>85</ele>
        <time>2018-01-13T17:12:03Z</time>
      </trkpt>
      <trkpt lat="62.636309593916" lon="17.978789429686">
        <ele>85.2</ele>
        <time>2018-01-13T17:12:04Z</time>
      </trkpt>
      <trkpt lat="62.636300290007" lon="17.978785406374">
        <ele>85.2</ele>
        <time>2018-01-13T17:12:05Z</time>
      </trkpt>
      <trkpt lat="62.63628662751" lon="17.978791776618">
        <ele>85.4</ele>
        <time>2018-01-13T17:12:06Z</time>
      </trkpt>
      <trkpt lat="62.636273467927" lon="17.978798482138">
        <ele>85.6</ele>
        <time>2018-01-13T17:12:07Z</time>
      </trkpt>
      <trkpt lat="62.636258883421" lon="17.978805690572">
        <ele>85.6</ele>
        <time>2018-01-13T17:12:08Z</time>
      </trkpt>
      <trkpt lat="62.636242538716" lon="17.978819688345">
        <ele>85.8</ele>
        <time>2018-01-13T17:12:09Z</time>
      </trkpt>
      <trkpt lat="62.636223679441" lon="17.978838044706">
        <ele>86</ele>
        <time>2018-01-13T17:12:10Z</time>
      </trkpt>
      <trkpt lat="62.636201299768" lon="17.978876517627">
        <ele>86.4</ele>
        <time>2018-01-13T17:12:11Z</time>
      </trkpt>
      <trkpt lat="62.636187050538" lon="17.97888716264">
        <ele>86.6</ele>
        <time>2018-01-13T17:12:12Z</time>
      </trkpt>
      <trkpt lat="62.636175483516" lon="17.978907363019">
        <ele>86.8</ele>
        <time>2018-01-13T17:12:13Z</time>
      </trkpt>
      <trkpt lat="62.636165509055" lon="17.978941561171">
        <ele>87</ele>
        <time>2018-01-13T17:12:14Z</time>
      </trkpt>
      <trkpt lat="62.636152936205" lon="17.978965533405">
        <ele>87.2</ele>
        <time>2018-01-13T17:12:15Z</time>
      </trkpt>
      <trkpt lat="62.636144386667" lon="17.978987829259">
        <ele>87.6</ele>
        <time>2018-01-13T17:12:16Z</time>
      </trkpt>
      <trkpt lat="62.636134663663" lon="17.978997887539">
        <ele>87.6</ele>
        <time>2018-01-13T17:12:17Z</time>
      </trkpt>
      <trkpt lat="62.636122174632" lon="17.979010711846">
        <ele>88</ele>
        <time>2018-01-13T17:12:18Z</time>
      </trkpt>
      <trkpt lat="62.636114379465" lon="17.97902043485">
        <ele>88.4</ele>
        <time>2018-01-13T17:12:19Z</time>
      </trkpt>
      <trkpt lat="62.636105662289" lon="17.979035270813">
        <ele>88.6</ele>
        <time>2018-01-13T17:12:20Z</time>
      </trkpt>
      <trkpt lat="62.636099962597" lon="17.979049184767">
        <ele>88.8</ele>
        <time>2018-01-13T17:12:21Z</time>
      </trkpt>
      <trkpt lat="62.63609049105" lon="17.979072989363">
        <ele>89</ele>
        <time>2018-01-13T17:12:22Z</time>
      </trkpt>
      <trkpt lat="62.636079007847" lon="17.97910090109">
        <ele>89.2</ele>
        <time>2018-01-13T17:12:23Z</time>
      </trkpt>
      <trkpt lat="62.636067943739" lon="17.979122526392">
        <ele>89.4</ele>
        <time>2018-01-13T17:12:24Z</time>
      </trkpt>
      <trkpt lat="62.636057634002" lon="17.979141888581">
        <ele>89.6</ele>
        <time>2018-01-13T17:12:25Z</time>
      </trkpt>
      <trkpt lat="62.636045983161" lon="17.979165609358">
        <ele>89.8</ele>
        <time>2018-01-13T17:12:26Z</time>
      </trkpt>
      <trkpt lat="62.636039696736" lon="17.979187905212">
        <ele>90</ele>
        <time>2018-01-13T17:12:27Z</time>
      </trkpt>
      <trkpt lat="62.636034416139" lon="17.979212631817">
        <ele>90.2</ele>
        <time>2018-01-13T17:12:28Z</time>
      </trkpt>
      <trkpt lat="62.636027375343" lon="17.979245237408">
        <ele>90.4</ele>
        <time>2018-01-13T17:12:29Z</time>
      </trkpt>
      <trkpt lat="62.63601840671" lon="17.979294355342">
        <ele>90.4</ele>
        <time>2018-01-13T17:12:30Z</time>
      </trkpt>
      <trkpt lat="62.63601337757" lon="17.979335342833">
        <ele>90.6</ele>
        <time>2018-01-13T17:12:31Z</time>
      </trkpt>
      <trkpt lat="62.636008516068" lon="17.979391585382">
        <ele>90.8</ele>
        <time>2018-01-13T17:12:32Z</time>
      </trkpt>
      <trkpt lat="62.636004744213" lon="17.979457299478">
        <ele>90.8</ele>
        <time>2018-01-13T17:12:33Z</time>
      </trkpt>
      <trkpt lat="62.635996027037" lon="17.979542711039">
        <ele>91</ele>
        <time>2018-01-13T17:12:34Z</time>
      </trkpt>
      <trkpt lat="62.635991500811" lon="17.979632816464">
        <ele>90.8</ele>
        <time>2018-01-13T17:12:35Z</time>
      </trkpt>
      <trkpt lat="62.635987812775" lon="17.979753599643">
        <ele>90.4</ele>
        <time>2018-01-13T17:12:36Z</time>
      </trkpt>
      <trkpt lat="62.6359857173" lon="17.979886955672">
        <ele>90</ele>
        <time>2018-01-13T17:12:37Z</time>
      </trkpt>
      <trkpt lat="62.635985884938" lon="17.98002793923">
        <ele>89.2</ele>
        <time>2018-01-13T17:12:38Z</time>
      </trkpt>
      <trkpt lat="62.635992171363" lon="17.980148387133">
        <ele>88</ele>
        <time>2018-01-13T17:12:39Z</time>
      </trkpt>
      <trkpt lat="62.636004911851" lon="17.980283754818">
        <ele>87</ele>
        <time>2018-01-13T17:12:40Z</time>
      </trkpt>
      <trkpt lat="62.63601421576" lon="17.98040512473">
        <ele>86.2</ele>
        <time>2018-01-13T17:12:41Z</time>
      </trkpt>
      <trkpt lat="62.636036763071" lon="17.980516604">
        <ele>85.6</ele>
        <time>2018-01-13T17:12:42Z</time>
      </trkpt>
      <trkpt lat="62.636055370889" lon="17.980632693315">
        <ele>85.2</ele>
        <time>2018-01-13T17:12:43Z</time>
      </trkpt>
      <trkpt lat="62.63607372725" lon="17.980734617219">
        <ele>85</ele>
        <time>2018-01-13T17:12:44Z</time>
      </trkpt>
      <trkpt lat="62.636092083611" lon="17.980830841431">
        <ele>84.8</ele>
        <time>2018-01-13T17:12:45Z</time>
      </trkpt>
      <trkpt lat="62.636110188515" lon="17.980936956285">
        <ele>84.4</ele>
        <time>2018-01-13T17:12:46Z</time>
      </trkpt>
      <trkpt lat="62.636124605383" lon="17.981021781113">
        <ele>84.2</ele>
        <time>2018-01-13T17:12:47Z</time>
      </trkpt>
      <trkpt lat="62.636143045563" lon="17.981120855171">
        <ele>84.2</ele>
        <time>2018-01-13T17:12:48Z</time>
      </trkpt>
      <trkpt lat="62.636157210974" lon="17.981210122406">
        <ele>84</ele>
        <time>2018-01-13T17:12:49Z</time>
      </trkpt>
      <trkpt lat="62.636161401924" lon="17.981292684121">
        <ele>83.8</ele>
        <time>2018-01-13T17:12:50Z</time>
      </trkpt>
      <trkpt lat="62.636169448548" lon="17.98137323418">
        <ele>83.8</ele>
        <time>2018-01-13T17:12:51Z</time>
      </trkpt>
      <trkpt lat="62.636172382213" lon="17.981439199733">
        <ele>83.6</ele>
        <time>2018-01-13T17:12:52Z</time>
      </trkpt>
      <trkpt lat="62.636187218176" lon="17.981503908001">
        <ele>83.4</ele>
        <time>2018-01-13T17:12:53Z</time>
      </trkpt>
      <trkpt lat="62.636193923696" lon="17.981590744485">
        <ele>83.4</ele>
        <time>2018-01-13T17:12:54Z</time>
      </trkpt>
      <trkpt lat="62.636218147387" lon="17.98165486602">
        <ele>83.6</ele>
        <time>2018-01-13T17:12:55Z</time>
      </trkpt>
      <trkpt lat="62.636221583966" lon="17.981731811862">
        <ele>83.6</ele>
        <time>2018-01-13T17:12:56Z</time>
      </trkpt>
      <trkpt lat="62.636231055513" lon="17.981799369976">
        <ele>83.6</ele>
        <time>2018-01-13T17:12:57Z</time>
      </trkpt>
      <trkpt lat="62.636245388562" lon="17.981869358841">
        <ele>83.8</ele>
        <time>2018-01-13T17:12:58Z</time>
      </trkpt>
      <trkpt lat="62.63625896724" lon="17.981950076538">
        <ele>83.8</ele>
        <time>2018-01-13T17:12:59Z</time>
      </trkpt>
      <trkpt lat="62.636280173447" lon="17.982001457585">
        <ele>83.6</ele>
        <time>2018-01-13T17:13:00Z</time>
      </trkpt>
      <trkpt lat="62.636283190931" lon="17.982088629345">
        <ele>83.6</ele>
        <time>2018-01-13T17:13:01Z</time>
      </trkpt>
      <trkpt lat="62.63629500941" lon="17.982147051188">
        <ele>83.6</ele>
        <time>2018-01-13T17:13:02Z</time>
      </trkpt>
      <trkpt lat="62.636296601971" lon="17.982208741972">
        <ele>83.6</ele>
        <time>2018-01-13T17:13:03Z</time>
      </trkpt>
      <trkpt lat="62.63630255312" lon="17.982294740266">
        <ele>83.4</ele>
        <time>2018-01-13T17:13:04Z</time>
      </trkpt>
      <trkpt lat="62.63631093502" lon="17.982346456589">
        <ele>83.4</ele>
        <time>2018-01-13T17:13:05Z</time>
      </trkpt>
      <trkpt lat="62.636305486785" lon="17.982413176513">
        <ele>83.4</ele>
        <time>2018-01-13T17:13:06Z</time>
      </trkpt>
      <trkpt lat="62.636288220071" lon="17.982482494826">
        <ele>83.4</ele>
        <time>2018-01-13T17:13:07Z</time>
      </trkpt>
      <trkpt lat="62.63627405466" lon="17.982547286913">
        <ele>83.6</ele>
        <time>2018-01-13T17:13:08Z</time>
      </trkpt>
      <trkpt lat="62.636273803203" lon="17.98262297547">
        <ele>83.6</ele>
        <time>2018-01-13T17:13:09Z</time>
      </trkpt>
      <trkpt lat="62.636274641393" lon="17.982689863032">
        <ele>83.4</ele>
        <time>2018-01-13T17:13:10Z</time>
      </trkpt>
      <trkpt lat="62.636274138479" lon="17.982749039246">
        <ele>83.4</ele>
        <time>2018-01-13T17:13:11Z</time>
      </trkpt>
      <trkpt lat="62.636273635565" lon="17.9828132446">
        <ele>83.4</ele>
        <time>2018-01-13T17:13:12Z</time>
      </trkpt>
      <trkpt lat="62.636284448216" lon="17.982855237919">
        <ele>83.4</ele>
        <time>2018-01-13T17:13:13Z</time>
      </trkpt>
      <trkpt lat="62.636277323601" lon="17.982936709987">
        <ele>83.6</ele>
        <time>2018-01-13T17:13:14Z</time>
      </trkpt>
      <trkpt lat="62.636284867311" lon="17.982993706907">
        <ele>83.4</ele>
        <time>2018-01-13T17:13:15Z</time>
      </trkpt>
      <trkpt lat="62.636284532035" lon="17.983046345239">
        <ele>83.6</ele>
        <time>2018-01-13T17:13:16Z</time>
      </trkpt>
      <trkpt lat="62.636285286406" lon="17.983099151209">
        <ele>83.8</ele>
        <time>2018-01-13T17:13:17Z</time>
      </trkpt>
      <trkpt lat="62.636294590315" lon="17.983160506717">
        <ele>84</ele>
        <time>2018-01-13T17:13:18Z</time>
      </trkpt>
      <trkpt lat="62.636295428505" lon="17.983242146423">
        <ele>84</ele>
        <time>2018-01-13T17:13:19Z</time>
      </trkpt>
      <trkpt lat="62.636302636939" lon="17.983305010673">
        <ele>84</ele>
        <time>2018-01-13T17:13:20Z</time>
      </trkpt>
      <trkpt lat="62.636301212016" lon="17.983358990109">
        <ele>84</ele>
        <time>2018-01-13T17:13:21Z</time>
      </trkpt>
      <trkpt lat="62.636294674134" lon="17.983414562106">
        <ele>84</ele>
        <time>2018-01-13T17:13:22Z</time>
      </trkpt>
      <trkpt lat="62.636289728813" lon="17.983468792999">
        <ele>83.8</ele>
        <time>2018-01-13T17:13:23Z</time>
      </trkpt>
      <trkpt lat="62.636279586714" lon="17.983522772435">
        <ele>84</ele>
        <time>2018-01-13T17:13:24Z</time>
      </trkpt>
      <trkpt lat="62.636274306117" lon="17.983588235074">
        <ele>84</ele>
        <time>2018-01-13T17:13:25Z</time>
      </trkpt>
      <trkpt lat="62.636268774063" lon="17.983630563669">
        <ele>84.2</ele>
        <time>2018-01-13T17:13:26Z</time>
      </trkpt>
      <trkpt lat="62.636264164018" lon="17.983651937514">
        <ele>84.2</ele>
        <time>2018-01-13T17:13:27Z</time>
      </trkpt>
      <trkpt lat="62.636252680815" lon="17.983708096244">
        <ele>84.2</ele>
        <time>2018-01-13T17:13:28Z</time>
      </trkpt>
      <trkpt lat="62.636241616707" lon="17.983773055969">
        <ele>84.4</ele>
        <time>2018-01-13T17:13:29Z</time>
      </trkpt>
      <trkpt lat="62.636242957811" lon="17.98382661631">
        <ele>84.4</ele>
        <time>2018-01-13T17:13:30Z</time>
      </trkpt>
      <trkpt lat="62.636231055513" lon="17.983885038153">
        <ele>84.6</ele>
        <time>2018-01-13T17:13:31Z</time>
      </trkpt>
      <trkpt lat="62.636221583966" lon="17.983948405317">
        <ele>84.6</ele>
        <time>2018-01-13T17:13:32Z</time>
      </trkpt>
      <trkpt lat="62.636219237034" lon="17.983984950401">
        <ele>84.6</ele>
        <time>2018-01-13T17:13:33Z</time>
      </trkpt>
      <trkpt lat="62.636202976148" lon="17.984056699465">
        <ele>84.8</ele>
        <time>2018-01-13T17:13:34Z</time>
      </trkpt>
      <trkpt lat="62.636197276456" lon="17.984114199299">
        <ele>84.8</ele>
        <time>2018-01-13T17:13:35Z</time>
      </trkpt>
      <trkpt lat="62.636197444094" lon="17.984157868998">
        <ele>84.8</ele>
        <time>2018-01-13T17:13:36Z</time>
      </trkpt>
      <trkpt lat="62.636188726918" lon="17.98421050733">
        <ele>85</ele>
        <time>2018-01-13T17:13:37Z</time>
      </trkpt>
      <trkpt lat="62.636185374158" lon="17.984276389064">
        <ele>85</ele>
        <time>2018-01-13T17:13:38Z</time>
      </trkpt>
      <trkpt lat="62.636185793253" lon="17.984309581388">
        <ele>85.4</ele>
        <time>2018-01-13T17:13:39Z</time>
      </trkpt>
      <trkpt lat="62.636175232059" lon="17.984383006832">
        <ele>85.4</ele>
        <time>2018-01-13T17:13:40Z</time>
      </trkpt>
      <trkpt lat="62.636168358901" lon="17.984443775607">
        <ele>85.4</ele>
        <time>2018-01-13T17:13:41Z</time>
      </trkpt>
      <trkpt lat="62.636173304222" lon="17.984467244927">
        <ele>85.4</ele>
        <time>2018-01-13T17:13:42Z</time>
      </trkpt>
      <trkpt lat="62.636165676693" lon="17.984541676199">
        <ele>85.4</ele>
        <time>2018-01-13T17:13:43Z</time>
      </trkpt>
      <trkpt lat="62.636163665037" lon="17.984584759165">
        <ele>85.6</ele>
        <time>2018-01-13T17:13:44Z</time>
      </trkpt>
      <trkpt lat="62.636164084132" lon="17.984607055019">
        <ele>85.6</ele>
        <time>2018-01-13T17:13:45Z</time>
      </trkpt>
      <trkpt lat="62.636162072476" lon="17.984653490745">
        <ele>85.8</ele>
        <time>2018-01-13T17:13:46Z</time>
      </trkpt>
      <trkpt lat="62.636162240114" lon="17.984699507376">
        <ele>85.8</ele>
        <time>2018-01-13T17:13:47Z</time>
      </trkpt>
      <trkpt lat="62.636164084132" lon="17.984743679989">
        <ele>85.8</ele>
        <time>2018-01-13T17:13:48Z</time>
      </trkpt>
      <trkpt lat="62.636159390268" lon="17.984805538411">
        <ele>86</ele>
        <time>2018-01-13T17:13:49Z</time>
      </trkpt>
      <trkpt lat="62.636155786051" lon="17.98484082621">
        <ele>86</ele>
        <time>2018-01-13T17:13:50Z</time>
      </trkpt>
      <trkpt lat="62.636154864042" lon="17.984884076814">
        <ele>86</ele>
        <time>2018-01-13T17:13:51Z</time>
      </trkpt>
      <trkpt lat="62.636149080531" lon="17.984927578875">
        <ele>86.2</ele>
        <time>2018-01-13T17:13:52Z</time>
      </trkpt>
      <trkpt lat="62.636145224857" lon="17.985003015975">
        <ele>86.2</ele>
        <time>2018-01-13T17:13:53Z</time>
      </trkpt>
      <trkpt lat="62.63615084073" lon="17.985037884679">
        <ele>86.4</ele>
        <time>2018-01-13T17:13:54Z</time>
      </trkpt>
      <trkpt lat="62.636146314504" lon="17.985092450848">
        <ele>86.6</ele>
        <time>2018-01-13T17:13:55Z</time>
      </trkpt>
      <trkpt lat="62.636143464658" lon="17.985156656202">
        <ele>86.6</ele>
        <time>2018-01-13T17:13:56Z</time>
      </trkpt>
      <trkpt lat="62.636144219029" lon="17.985176521305">
        <ele>86.6</ele>
        <time>2018-01-13T17:13:57Z</time>
      </trkpt>
      <trkpt lat="62.636139022251" lon="17.985246593989">
        <ele>86.8</ele>
        <time>2018-01-13T17:13:58Z</time>
      </trkpt>
      <trkpt lat="62.63613575331" lon="17.985311386076">
        <ele>86.8</ele>
        <time>2018-01-13T17:13:59Z</time>
      </trkpt>
      <trkpt lat="62.636136256224" lon="17.985337621423">
        <ele>87</ele>
        <time>2018-01-13T17:14:00Z</time>
      </trkpt>
      <trkpt lat="62.636130388894" lon="17.985395456533">
        <ele>87</ele>
        <time>2018-01-13T17:14:01Z</time>
      </trkpt>
      <trkpt lat="62.636126030306" lon="17.985457063498">
        <ele>87</ele>
        <time>2018-01-13T17:14:02Z</time>
      </trkpt>
      <trkpt lat="62.636124689202" lon="17.985496877523">
        <ele>87.2</ele>
        <time>2018-01-13T17:14:03Z</time>
      </trkpt>
      <trkpt lat="62.636121168804" lon="17.985558065393">
        <ele>87.4</ele>
        <time>2018-01-13T17:14:04Z</time>
      </trkpt>
      <trkpt lat="62.636103734452" lon="17.985605339309">
        <ele>87.4</ele>
        <time>2018-01-13T17:14:05Z</time>
      </trkpt>
      <trkpt lat="62.636105243194" lon="17.98564800318">
        <ele>87.6</ele>
        <time>2018-01-13T17:14:06Z</time>
      </trkpt>
      <trkpt lat="62.636089149946" lon="17.98570835286">
        <ele>87.6</ele>
        <time>2018-01-13T17:14:07Z</time>
      </trkpt>
      <trkpt lat="62.636074733078" lon="17.985755710595">
        <ele>87.6</ele>
        <time>2018-01-13T17:14:08Z</time>
      </trkpt>
      <trkpt lat="62.63605947802" lon="17.985785382521">
        <ele>87.6</ele>
        <time>2018-01-13T17:14:09Z</time>
      </trkpt>
      <trkpt lat="62.636040870202" lon="17.985835087188">
        <ele>87.6</ele>
        <time>2018-01-13T17:14:10Z</time>
      </trkpt>
      <trkpt lat="62.636022513841" lon="17.985867106046">
        <ele>87.6</ele>
        <time>2018-01-13T17:14:11Z</time>
      </trkpt>
      <trkpt lat="62.636008851344" lon="17.985900633646">
        <ele>87.8</ele>
        <time>2018-01-13T17:14:12Z</time>
      </trkpt>
      <trkpt lat="62.635994685933" lon="17.985931814314">
        <ele>87.8</ele>
        <time>2018-01-13T17:14:13Z</time>
      </trkpt>
      <trkpt lat="62.635962164161" lon="17.985952098512">
        <ele>88</ele>
        <time>2018-01-13T17:14:14Z</time>
      </trkpt>
      <trkpt lat="62.635938191927" lon="17.985975400194">
        <ele>88</ele>
        <time>2018-01-13T17:14:15Z</time>
      </trkpt>
      <trkpt lat="62.635924948525" lon="17.985991744899">
        <ele>88</ele>
        <time>2018-01-13T17:14:16Z</time>
      </trkpt>
      <trkpt lat="62.635897288255" lon="17.986006999957">
        <ele>88</ele>
        <time>2018-01-13T17:14:17Z</time>
      </trkpt>
      <trkpt lat="62.635868957433" lon="17.986029211992">
        <ele>88.2</ele>
        <time>2018-01-13T17:14:18Z</time>
      </trkpt>
      <trkpt lat="62.635850684891" lon="17.986043545041">
        <ele>88.2</ele>
        <time>2018-01-13T17:14:19Z</time>
      </trkpt>
      <trkpt lat="62.635820845327" lon="17.986068523103">
        <ele>88.2</ele>
        <time>2018-01-13T17:14:20Z</time>
      </trkpt>
      <trkpt lat="62.635796370179" lon="17.986099117038">
        <ele>88.4</ele>
        <time>2018-01-13T17:14:21Z</time>
      </trkpt>
      <trkpt lat="62.635786311899" lon="17.986116467571">
        <ele>88.6</ele>
        <time>2018-01-13T17:14:22Z</time>
      </trkpt>
      <trkpt lat="62.635755298869" lon="17.986152090646">
        <ele>88.6</ele>
        <time>2018-01-13T17:14:23Z</time>
      </trkpt>
      <trkpt lat="62.635738032155" lon="17.986181511115">
        <ele>88.8</ele>
        <time>2018-01-13T17:14:24Z</time>
      </trkpt>
      <trkpt lat="62.635721519812" lon="17.986207746462">
        <ele>88.6</ele>
        <time>2018-01-13T17:14:25Z</time>
      </trkpt>
      <trkpt lat="62.63570408546" lon="17.98623808894">
        <ele>89</ele>
        <time>2018-01-13T17:14:26Z</time>
      </trkpt>
      <trkpt lat="62.635689584773" lon="17.986265162477">
        <ele>89</ele>
        <time>2018-01-13T17:14:27Z</time>
      </trkpt>
      <trkpt lat="62.635677514837" lon="17.986294666765">
        <ele>89.4</ele>
        <time>2018-01-13T17:14:28Z</time>
      </trkpt>
      <trkpt lat="62.6356672051" lon="17.986322327035">
        <ele>89.6</ele>
        <time>2018-01-13T17:14:29Z</time>
      </trkpt>
      <trkpt lat="62.635652033861" lon="17.986348897658">
        <ele>90</ele>
        <time>2018-01-13T17:14:30Z</time>
      </trkpt>
      <trkpt lat="62.63563786845" lon="17.986388795502">
        <ele>90.2</ele>
        <time>2018-01-13T17:14:31Z</time>
      </trkpt>
      <trkpt lat="62.635627307256" lon="17.98641997617">
        <ele>90.2</ele>
        <time>2018-01-13T17:14:32Z</time>
      </trkpt>
      <trkpt lat="62.635601491004" lon="17.986487282827">
        <ele>90.4</ele>
        <time>2018-01-13T17:14:33Z</time>
      </trkpt>
      <trkpt lat="62.635591265086" lon="17.986521648617">
        <ele>90.4</ele>
        <time>2018-01-13T17:14:34Z</time>
      </trkpt>
      <trkpt lat="62.635578021684" lon="17.986558864253">
        <ele>90.4</ele>
        <time>2018-01-13T17:14:35Z</time>
      </trkpt>
      <trkpt lat="62.635568382499" lon="17.986609910024">
        <ele>90.4</ele>
        <time>2018-01-13T17:14:36Z</time>
      </trkpt>
      <trkpt lat="62.635555474373" lon="17.986648634402">
        <ele>90.4</ele>
        <time>2018-01-13T17:14:37Z</time>
      </trkpt>
      <trkpt lat="62.635536531279" lon="17.986696746508">
        <ele>90.2</ele>
        <time>2018-01-13T17:14:38Z</time>
      </trkpt>
      <trkpt lat="62.635523958429" lon="17.986738572189">
        <ele>90.4</ele>
        <time>2018-01-13T17:14:39Z</time>
      </trkpt>
      <trkpt lat="62.635507781362" lon="17.986779894956">
        <ele>90.6</ele>
        <time>2018-01-13T17:14:40Z</time>
      </trkpt>
      <trkpt lat="62.635491352838" lon="17.986817026773">
        <ele>90.6</ele>
        <time>2018-01-13T17:14:41Z</time>
      </trkpt>
      <trkpt lat="62.635485485508" lon="17.986851895477">
        <ele>90.6</ele>
        <time>2018-01-13T17:14:42Z</time>
      </trkpt>
      <trkpt lat="62.635457489962" lon="17.986928086948">
        <ele>90.8</ele>
        <time>2018-01-13T17:14:43Z</time>
      </trkpt>
      <trkpt lat="62.635450281528" lon="17.986958764702">
        <ele>91</ele>
        <time>2018-01-13T17:14:44Z</time>
      </trkpt>
      <trkpt lat="62.635438546868" lon="17.98699329813">
        <ele>91</ele>
        <time>2018-01-13T17:14:45Z</time>
      </trkpt>
      <trkpt lat="62.635417508299" lon="17.987036632553">
        <ele>91.2</ele>
        <time>2018-01-13T17:14:46Z</time>
      </trkpt>
      <trkpt lat="62.635401750327" lon="17.987057335846">
        <ele>91.2</ele>
        <time>2018-01-13T17:14:47Z</time>
      </trkpt>
      <trkpt lat="62.635390015667" lon="17.987092120731">
        <ele>91.2</ele>
        <time>2018-01-13T17:14:48Z</time>
      </trkpt>
      <trkpt lat="62.635373587143" lon="17.987131096566">
        <ele>91.4</ele>
        <time>2018-01-13T17:14:49Z</time>
      </trkpt>
      <trkpt lat="62.635357410076" lon="17.987157499551">
        <ele>91.4</ele>
        <time>2018-01-13T17:14:50Z</time>
      </trkpt>
      <trkpt lat="62.635352380936" lon="17.987190105142">
        <ele>91.6</ele>
        <time>2018-01-13T17:14:51Z</time>
      </trkpt>
      <trkpt lat="62.635330420358" lon="17.987245844777">
        <ele>91.6</ele>
        <time>2018-01-13T17:14:52Z</time>
      </trkpt>
      <trkpt lat="62.635301251346" lon="17.987286329354">
        <ele>91.8</ele>
        <time>2018-01-13T17:14:53Z</time>
      </trkpt>
      <trkpt lat="62.635290438695" lon="17.987311977968">
        <ele>91.8</ele>
        <time>2018-01-13T17:14:54Z</time>
      </trkpt>
      <trkpt lat="62.635271747058" lon="17.987348103957">
        <ele>92</ele>
        <time>2018-01-13T17:14:55Z</time>
      </trkpt>
      <trkpt lat="62.635249870299" lon="17.987398730633">
        <ele>92</ele>
        <time>2018-01-13T17:14:56Z</time>
      </trkpt>
      <trkpt lat="62.635236710716" lon="17.987430581853">
        <ele>92.2</ele>
        <time>2018-01-13T17:14:57Z</time>
      </trkpt>
      <trkpt lat="62.635222880581" lon="17.987453715897">
        <ele>92.2</ele>
        <time>2018-01-13T17:14:58Z</time>
      </trkpt>
      <trkpt lat="62.635198740709" lon="17.987480035063">
        <ele>92.4</ele>
        <time>2018-01-13T17:14:59Z</time>
      </trkpt>
      <trkpt lat="62.635180300529" lon="17.98752722516">
        <ele>92.6</ele>
        <time>2018-01-13T17:15:00Z</time>
      </trkpt>
      <trkpt lat="62.635169236421" lon="17.987555388344">
        <ele>92.6</ele>
        <time>2018-01-13T17:15:01Z</time>
      </trkpt>
      <trkpt lat="62.635151382974" lon="17.987584473537">
        <ele>92.8</ele>
        <time>2018-01-13T17:15:02Z</time>
      </trkpt>
      <trkpt lat="62.635127494559" lon="17.98762110244">
        <ele>92.8</ele>
        <time>2018-01-13T17:15:03Z</time>
      </trkpt>
      <trkpt lat="62.635106623628" lon="17.987651780194">
        <ele>92.8</ele>
        <time>2018-01-13T17:15:04Z</time>
      </trkpt>
      <trkpt lat="62.635094972787" lon="17.987671226202">
        <ele>93</ele>
        <time>2018-01-13T17:15:05Z</time>
      </trkpt>
      <trkpt lat="62.635081226471" lon="17.987695114617">
        <ele>93</ele>
        <time>2018-01-13T17:15:06Z</time>
      </trkpt>
      <trkpt lat="62.635050800174" lon="17.98773844904">
        <ele>93.2</ele>
        <time>2018-01-13T17:15:07Z</time>
      </trkpt>
      <trkpt lat="62.635036550944" lon="17.987770132622">
        <ele>93.2</ele>
        <time>2018-01-13T17:15:08Z</time>
      </trkpt>
      <trkpt lat="62.635024145732" lon="17.987789075716">
        <ele>93.4</ele>
        <time>2018-01-13T17:15:09Z</time>
      </trkpt>
      <trkpt lat="62.634994473806" lon="17.987828638284">
        <ele>93.4</ele>
        <time>2018-01-13T17:15:10Z</time>
      </trkpt>
      <trkpt lat="62.634977458549" lon="17.987869290499">
        <ele>93.6</ele>
        <time>2018-01-13T17:15:11Z</time>
      </trkpt>
      <trkpt lat="62.634969328106" lon="17.987889407059">
        <ele>93.8</ele>
        <time>2018-01-13T17:15:12Z</time>
      </trkpt>
      <trkpt lat="62.634936806334" lon="17.98793374731">
        <ele>94</ele>
        <time>2018-01-13T17:15:13Z</time>
      </trkpt>
      <trkpt lat="62.634925993683" lon="17.987946823074">
        <ele>94.2</ele>
        <time>2018-01-13T17:15:14Z</time>
      </trkpt>
      <trkpt lat="62.634915097213" lon="17.987968448376">
        <ele>94.4</ele>
        <time>2018-01-13T17:15:15Z</time>
      </trkpt>
      <trkpt lat="62.634895315929" lon="17.987985379814">
        <ele>94.6</ele>
        <time>2018-01-13T17:15:16Z</time>
      </trkpt>
      <trkpt lat="62.634875534645" lon="17.987999545225">
        <ele>94.6</ele>
        <time>2018-01-13T17:15:17Z</time>
      </trkpt>
      <trkpt lat="62.63485248442" lon="17.988028798056">
        <ele>94.6</ele>
        <time>2018-01-13T17:15:18Z</time>
      </trkpt>
      <trkpt lat="62.634832116403" lon="17.98804187382">
        <ele>94.6</ele>
        <time>2018-01-13T17:15:19Z</time>
      </trkpt>
      <trkpt lat="62.634816861345" lon="17.988060565457">
        <ele>94.8</ele>
        <time>2018-01-13T17:15:20Z</time>
      </trkpt>
      <trkpt lat="62.634795068405" lon="17.988066013692">
        <ele>94.8</ele>
        <time>2018-01-13T17:15:21Z</time>
      </trkpt>
      <trkpt lat="62.634775873854" lon="17.988090069745">
        <ele>95</ele>
        <time>2018-01-13T17:15:22Z</time>
      </trkpt>
      <trkpt lat="62.634759361511" lon="17.988091997582">
        <ele>95</ele>
        <time>2018-01-13T17:15:23Z</time>
      </trkpt>
      <trkpt lat="62.634733377621" lon="17.988101804405">
        <ele>95</ele>
        <time>2018-01-13T17:15:24Z</time>
      </trkpt>
      <trkpt lat="62.634713009604" lon="17.988120496042">
        <ele>95</ele>
        <time>2018-01-13T17:15:25Z</time>
      </trkpt>
      <trkpt lat="62.634694150329" lon="17.988118232929">
        <ele>95.2</ele>
        <time>2018-01-13T17:15:26Z</time>
      </trkpt>
      <trkpt lat="62.634667076792" lon="17.988114544893">
        <ele>95.2</ele>
        <time>2018-01-13T17:15:27Z</time>
      </trkpt>
      <trkpt lat="62.634646541137" lon="17.988116053635">
        <ele>95.4</ele>
        <time>2018-01-13T17:15:28Z</time>
      </trkpt>
      <trkpt lat="62.634624999654" lon="17.98811563454">
        <ele>95.4</ele>
        <time>2018-01-13T17:15:29Z</time>
      </trkpt>
      <trkpt lat="62.63459348371" lon="17.988120579861">
        <ele>95.6</ele>
        <time>2018-01-13T17:15:30Z</time>
      </trkpt>
      <trkpt lat="62.634566074897" lon="17.988137092204">
        <ele>95.6</ele>
        <time>2018-01-13T17:15:31Z</time>
      </trkpt>
      <trkpt lat="62.634552915314" lon="17.988132733616">
        <ele>95.8</ele>
        <time>2018-01-13T17:15:32Z</time>
      </trkpt>
      <trkpt lat="62.634528440166" lon="17.988131308693">
        <ele>95.8</ele>
        <time>2018-01-13T17:15:33Z</time>
      </trkpt>
      <trkpt lat="62.634503378285" lon="17.988133404168">
        <ele>96</ele>
        <time>2018-01-13T17:15:34Z</time>
      </trkpt>
      <trkpt lat="62.634486949761" lon="17.988138433308">
        <ele>96.2</ele>
        <time>2018-01-13T17:15:35Z</time>
      </trkpt>
      <trkpt lat="62.634459289491" lon="17.988138349489">
        <ele>96.2</ele>
        <time>2018-01-13T17:15:36Z</time>
      </trkpt>
      <trkpt lat="62.634437831827" lon="17.988144216819">
        <ele>96.2</ele>
        <time>2018-01-13T17:15:37Z</time>
      </trkpt>
      <trkpt lat="62.634414697783" lon="17.988144552095">
        <ele>96.4</ele>
        <time>2018-01-13T17:15:38Z</time>
      </trkpt>
      <trkpt lat="62.634385444952" lon="17.988150084149">
        <ele>96.4</ele>
        <time>2018-01-13T17:15:39Z</time>
      </trkpt>
      <trkpt lat="62.634366585677" lon="17.988151928167">
        <ele>96.6</ele>
        <time>2018-01-13T17:15:40Z</time>
      </trkpt>
      <trkpt lat="62.634349402782" lon="17.988148491588">
        <ele>96.6</ele>
        <time>2018-01-13T17:15:41Z</time>
      </trkpt>
      <trkpt lat="62.634325765824" lon="17.988148156312">
        <ele>96.6</ele>
        <time>2018-01-13T17:15:42Z</time>
      </trkpt>
      <trkpt lat="62.634305900721" lon="17.988165003931">
        <ele>96.6</ele>
        <time>2018-01-13T17:15:43Z</time>
      </trkpt>
      <trkpt lat="62.634276564071" lon="17.988171709451">
        <ele>96.8</ele>
        <time>2018-01-13T17:15:44Z</time>
      </trkpt>
      <trkpt lat="62.634238510245" lon="17.988176151858">
        <ele>96.8</ele>
        <time>2018-01-13T17:15:45Z</time>
      </trkpt>
      <trkpt lat="62.634220992074" lon="17.988181097179">
        <ele>97</ele>
        <time>2018-01-13T17:15:46Z</time>
      </trkpt>
      <trkpt lat="62.634194002356" lon="17.988174894573">
        <ele>96.8</ele>
        <time>2018-01-13T17:15:47Z</time>
      </trkpt>
      <trkpt lat="62.634167599371" lon="17.988171625632">
        <ele>97</ele>
        <time>2018-01-13T17:15:48Z</time>
      </trkpt>
      <trkpt lat="62.634147734268" lon="17.988169530157">
        <ele>97.2</ele>
        <time>2018-01-13T17:15:49Z</time>
      </trkpt>
      <trkpt lat="62.634112530288" lon="17.988164668655">
        <ele>97.2</ele>
        <time>2018-01-13T17:15:50Z</time>
      </trkpt>
      <trkpt lat="62.634097191411" lon="17.988157124945">
        <ele>97.2</ele>
        <time>2018-01-13T17:15:51Z</time>
      </trkpt>
      <trkpt lat="62.634071039883" lon="17.988138600946">
        <ele>97.4</ele>
        <time>2018-01-13T17:15:52Z</time>
      </trkpt>
      <trkpt lat="62.634039691577" lon="17.988121669508">
        <ele>97.4</ele>
        <time>2018-01-13T17:15:53Z</time>
      </trkpt>
      <trkpt lat="62.634021167578" lon="17.988114544893">
        <ele>97.6</ele>
        <time>2018-01-13T17:15:54Z</time>
      </trkpt>
      <trkpt lat="62.633996440973" lon="17.988094763609">
        <ele>97.6</ele>
        <time>2018-01-13T17:15:55Z</time>
      </trkpt>
      <trkpt lat="62.633963667744" lon="17.98806953409">
        <ele>97.6</ele>
        <time>2018-01-13T17:15:56Z</time>
      </trkpt>
      <trkpt lat="62.633946820125" lon="17.98805360848">
        <ele>97.4</ele>
        <time>2018-01-13T17:15:57Z</time>
      </trkpt>
      <trkpt lat="62.633921422968" lon="17.988037934327">
        <ele>97.4</ele>
        <time>2018-01-13T17:15:58Z</time>
      </trkpt>
      <trkpt lat="62.633888649739" lon="17.988012034256">
        <ele>97.6</ele>
        <time>2018-01-13T17:15:59Z</time>
      </trkpt>
      <trkpt lat="62.633870628654" lon="17.987989654583">
        <ele>97.6</ele>
        <time>2018-01-13T17:16:00Z</time>
      </trkpt>
      <trkpt lat="62.633848835714" lon="17.98796727491">
        <ele>97.8</ele>
        <time>2018-01-13T17:16:01Z</time>
      </trkpt>
      <trkpt lat="62.633819331426" lon="17.987942799762">
        <ele>97.8</ele>
        <time>2018-01-13T17:16:02Z</time>
      </trkpt>
      <trkpt lat="62.633798711952" lon="17.987924778677">
        <ele>98</ele>
        <time>2018-01-13T17:16:03Z</time>
      </trkpt>
      <trkpt lat="62.633776332279" lon="17.987897453683">
        <ele>98</ele>
        <time>2018-01-13T17:16:04Z</time>
      </trkpt>
      <trkpt lat="62.633744816335" lon="17.987874152001">
        <ele>98.2</ele>
        <time>2018-01-13T17:16:05Z</time>
      </trkpt>
      <trkpt lat="62.6337309862" lon="17.987874822553">
        <ele>98.2</ele>
        <time>2018-01-13T17:16:06Z</time>
      </trkpt>
      <trkpt lat="62.633704918491" lon="17.987842552238">
        <ele>98.4</ele>
        <time>2018-01-13T17:16:07Z</time>
      </trkpt>
      <trkpt lat="62.633672564357" lon="17.987805420421">
        <ele>98.4</ele>
        <time>2018-01-13T17:16:08Z</time>
      </trkpt>
      <trkpt lat="62.633654794729" lon="17.987797792892">
        <ele>98.4</ele>
        <time>2018-01-13T17:16:09Z</time>
      </trkpt>
      <trkpt lat="62.633633085608" lon="17.987769210613">
        <ele>98.4</ele>
        <time>2018-01-13T17:16:10Z</time>
      </trkpt>
      <trkpt lat="62.633609867745" lon="17.987733084624">
        <ele>98.6</ele>
        <time>2018-01-13T17:16:11Z</time>
      </trkpt>
      <trkpt lat="62.633588996814" lon="17.987720176498">
        <ele>98.8</ele>
        <time>2018-01-13T17:16:12Z</time>
      </trkpt>
      <trkpt lat="62.633566952417" lon="17.987697126273">
        <ele>99</ele>
        <time>2018-01-13T17:16:13Z</time>
      </trkpt>
      <trkpt lat="62.633549350427" lon="17.987670220374">
        <ele>99.4</ele>
        <time>2018-01-13T17:16:14Z</time>
      </trkpt>
      <trkpt lat="62.633536777577" lon="17.987649014167">
        <ele>99.6</ele>
        <time>2018-01-13T17:16:15Z</time>
      </trkpt>
      <trkpt lat="62.633514481723" lon="17.987619928974">
        <ele>99.8</ele>
        <time>2018-01-13T17:16:16Z</time>
      </trkpt>
      <trkpt lat="62.63349545481" lon="17.987596543473">
        <ele>99.8</ele>
        <time>2018-01-13T17:16:17Z</time>
      </trkpt>
      <trkpt lat="62.633477182268" lon="17.987569386117">
        <ele>100</ele>
        <time>2018-01-13T17:16:18Z</time>
      </trkpt>
      <trkpt lat="62.63345186893" lon="17.98752806335">
        <ele>100</ele>
        <time>2018-01-13T17:16:19Z</time>
      </trkpt>
      <trkpt lat="62.633428902524" lon="17.987487243497">
        <ele>100.2</ele>
        <time>2018-01-13T17:16:20Z</time>
      </trkpt>
      <trkpt lat="62.633385400463" lon="17.987413063682">
        <ele>100.2</ele>
        <time>2018-01-13T17:16:22Z</time>
      </trkpt>
      <trkpt lat="62.633397889494" lon="17.987430917129">
        <ele>100.2</ele>
        <time>2018-01-13T17:16:23Z</time>
      </trkpt>
      <trkpt lat="62.633370229224" lon="17.987369310164">
        <ele>100.2</ele>
        <time>2018-01-13T17:16:24Z</time>
      </trkpt>
      <trkpt lat="62.633347178999" lon="17.987322874438">
        <ele>100.2</ele>
        <time>2018-01-13T17:16:25Z</time>
      </trkpt>
      <trkpt lat="62.63332530224" lon="17.987289765933">
        <ele>100.2</ele>
        <time>2018-01-13T17:16:26Z</time>
      </trkpt>
      <trkpt lat="62.633305604775" lon="17.987225057665">
        <ele>100.4</ele>
        <time>2018-01-13T17:16:27Z</time>
      </trkpt>
      <trkpt lat="62.633284985301" lon="17.987196726843">
        <ele>100.6</ele>
        <time>2018-01-13T17:16:28Z</time>
      </trkpt>
      <trkpt lat="62.633255900108" lon="17.987096814595">
        <ele>100.6</ele>
        <time>2018-01-13T17:16:29Z</time>
      </trkpt>
      <trkpt lat="62.633245171276" lon="17.987012073586">
        <ele>100.8</ele>
        <time>2018-01-13T17:16:30Z</time>
      </trkpt>
      <trkpt lat="62.633225809087" lon="17.986915430279">
        <ele>100.8</ele>
        <time>2018-01-13T17:16:31Z</time>
      </trkpt>
      <trkpt lat="62.633209129106" lon="17.98682314556">
        <ele>100.4</ele>
        <time>2018-01-13T17:16:32Z</time>
      </trkpt>
      <trkpt lat="62.633196556256" lon="17.986737566361">
        <ele>99.6</ele>
        <time>2018-01-13T17:16:33Z</time>
      </trkpt>
      <trkpt lat="62.633189431641" lon="17.986618543381">
        <ele>99</ele>
        <time>2018-01-13T17:16:34Z</time>
      </trkpt>
      <trkpt lat="62.633175098592" lon="17.986545956127">
        <ele>98.4</ele>
        <time>2018-01-13T17:16:35Z</time>
      </trkpt>
      <trkpt lat="62.633159927353" lon="17.986454928693">
        <ele>98.2</ele>
        <time>2018-01-13T17:16:36Z</time>
      </trkpt>
      <trkpt lat="62.633153724747" lon="17.986370355322">
        <ele>98.2</ele>
        <time>2018-01-13T17:16:37Z</time>
      </trkpt>
      <trkpt lat="62.633149952892" lon="17.986300282638">
        <ele>98.6</ele>
        <time>2018-01-13T17:16:38Z</time>
      </trkpt>
      <trkpt lat="62.633156909869" lon="17.986213446154">
        <ele>98.6</ele>
        <time>2018-01-13T17:16:39Z</time>
      </trkpt>
      <trkpt lat="62.633159508258" lon="17.986119401236">
        <ele>98.4</ele>
        <time>2018-01-13T17:16:40Z</time>
      </trkpt>
      <trkpt lat="62.633158921525" lon="17.986036252788">
        <ele>98</ele>
        <time>2018-01-13T17:16:41Z</time>
      </trkpt>
      <trkpt lat="62.633161939009" lon="17.985952349969">
        <ele>97.2</ele>
        <time>2018-01-13T17:16:42Z</time>
      </trkpt>
      <trkpt lat="62.63316185519" lon="17.985839026681">
        <ele>96.6</ele>
        <time>2018-01-13T17:16:43Z</time>
      </trkpt>
      <trkpt lat="62.633163112475" lon="17.985737186596">
        <ele>96</ele>
        <time>2018-01-13T17:16:44Z</time>
      </trkpt>
      <trkpt lat="62.633159592077" lon="17.985665018437">
        <ele>96</ele>
        <time>2018-01-13T17:16:45Z</time>
      </trkpt>
      <trkpt lat="62.633157412783" lon="17.985561837248">
        <ele>96</ele>
        <time>2018-01-13T17:16:46Z</time>
      </trkpt>
      <trkpt lat="62.633163950665" lon="17.985514228056">
        <ele>96.2</ele>
        <time>2018-01-13T17:16:47Z</time>
      </trkpt>
      <trkpt lat="62.633168057796" lon="17.985415405455">
        <ele>96.2</ele>
        <time>2018-01-13T17:16:48Z</time>
      </trkpt>
      <trkpt lat="62.633177613162" lon="17.98532362365">
        <ele>96.2</ele>
        <time>2018-01-13T17:16:49Z</time>
      </trkpt>
      <trkpt lat="62.633191778573" lon="17.985215245683">
        <ele>96.4</ele>
        <time>2018-01-13T17:16:50Z</time>
      </trkpt>
      <trkpt lat="62.633202758862" lon="17.985100162196">
        <ele>96.2</ele>
        <time>2018-01-13T17:16:51Z</time>
      </trkpt>
      <trkpt lat="62.633216756635" lon="17.984980217207">
        <ele>95.8</ele>
        <time>2018-01-13T17:16:52Z</time>
      </trkpt>
      <trkpt lat="62.63323729229" lon="17.984870330498">
        <ele>95.2</ele>
        <time>2018-01-13T17:16:53Z</time>
      </trkpt>
      <trkpt lat="62.633258163221" lon="17.984775531209">
        <ele>94.6</ele>
        <time>2018-01-13T17:16:54Z</time>
      </trkpt>
      <trkpt lat="62.633277860686" lon="17.984689616734">
        <ele>94</ele>
        <time>2018-01-13T17:16:55Z</time>
      </trkpt>
      <trkpt lat="62.633297390513" lon="17.984602025879">
        <ele>93</ele>
        <time>2018-01-13T17:16:56Z</time>
      </trkpt>
      <trkpt lat="62.633317507073" lon="17.984541173285">
        <ele>92.4</ele>
        <time>2018-01-13T17:16:57Z</time>
      </trkpt>
      <trkpt lat="62.633329074095" lon="17.984479063406">
        <ele>92.4</ele>
        <time>2018-01-13T17:16:58Z</time>
      </trkpt>
      <trkpt lat="62.633347765732" lon="17.984383761203">
        <ele>92.4</ele>
        <time>2018-01-13T17:16:59Z</time>
      </trkpt>
      <trkpt lat="62.633362517876" lon="17.984324836446">
        <ele>92.6</ele>
        <time>2018-01-13T17:17:00Z</time>
      </trkpt>
      <trkpt lat="62.633358326926" lon="17.9842633133">
        <ele>92.8</ele>
        <time>2018-01-13T17:17:01Z</time>
      </trkpt>
      <trkpt lat="62.633368804301" lon="17.984183349974">
        <ele>92.8</ele>
        <time>2018-01-13T17:17:02Z</time>
      </trkpt>
      <trkpt lat="62.633390513422" lon="17.984136495153">
        <ele>92.8</ele>
        <time>2018-01-13T17:17:03Z</time>
      </trkpt>
      <trkpt lat="62.633393866182" lon="17.98405963313">
        <ele>92.8</ele>
        <time>2018-01-13T17:17:04Z</time>
      </trkpt>
      <trkpt lat="62.63339906296" lon="17.983996685061">
        <ele>92.8</ele>
        <time>2018-01-13T17:17:05Z</time>
      </trkpt>
      <trkpt lat="62.63339906296" lon="17.983954607923">
        <ele>92.8</ele>
        <time>2018-01-13T17:17:06Z</time>
      </trkpt>
      <trkpt lat="62.633409288878" lon="17.9838777459">
        <ele>92.8</ele>
        <time>2018-01-13T17:17:07Z</time>
      </trkpt>
      <trkpt lat="62.633413563647" lon="17.983840111169">
        <ele>93</ele>
        <time>2018-01-13T17:17:08Z</time>
      </trkpt>
      <trkpt lat="62.633423202832" lon="17.983772217779">
        <ele>93</ele>
        <time>2018-01-13T17:17:09Z</time>
      </trkpt>
      <trkpt lat="62.633435440406" lon="17.983696613041">
        <ele>93.2</ele>
        <time>2018-01-13T17:17:10Z</time>
      </trkpt>
      <trkpt lat="62.633438876985" lon="17.983670880608">
        <ele>93.2</ele>
        <time>2018-01-13T17:17:11Z</time>
      </trkpt>
      <trkpt lat="62.633446253057" lon="17.983592593662">
        <ele>93.2</ele>
        <time>2018-01-13T17:17:12Z</time>
      </trkpt>
      <trkpt lat="62.633454802595" lon="17.983527466299">
        <ele>93.2</ele>
        <time>2018-01-13T17:17:13Z</time>
      </trkpt>
      <trkpt lat="62.633450444007" lon="17.983479018917">
        <ele>93.2</ele>
        <time>2018-01-13T17:17:14Z</time>
      </trkpt>
      <trkpt lat="62.633466285798" lon="17.983421016169">
        <ele>93.2</ele>
        <time>2018-01-13T17:17:15Z</time>
      </trkpt>
      <trkpt lat="62.633489419842" lon="17.983352116951">
        <ele>93.2</ele>
        <time>2018-01-13T17:17:16Z</time>
      </trkpt>
      <trkpt lat="62.633496041543" lon="17.98330945308">
        <ele>93.2</ele>
        <time>2018-01-13T17:17:17Z</time>
      </trkpt>
      <trkpt lat="62.633515152275" lon="17.983235943817">
        <ele>93.4</ele>
        <time>2018-01-13T17:17:18Z</time>
      </trkpt>
      <trkpt lat="62.63352562965" lon="17.983193699041">
        <ele>93.4</ele>
        <time>2018-01-13T17:17:19Z</time>
      </trkpt>
      <trkpt lat="62.633544153649" lon="17.983107952204">
        <ele>93.4</ele>
        <time>2018-01-13T17:17:20Z</time>
      </trkpt>
      <trkpt lat="62.63355580449" lon="17.983063611953">
        <ele>93.6</ele>
        <time>2018-01-13T17:17:21Z</time>
      </trkpt>
      <trkpt lat="62.633569550806" lon="17.983011727992">
        <ele>93.6</ele>
        <time>2018-01-13T17:17:22Z</time>
      </trkpt>
      <trkpt lat="62.633588577719" lon="17.982921203472">
        <ele>93.6</ele>
        <time>2018-01-13T17:17:23Z</time>
      </trkpt>
      <trkpt lat="62.633608359003" lon="17.982878288144">
        <ele>93.8</ele>
        <time>2018-01-13T17:17:24Z</time>
      </trkpt>
      <trkpt lat="62.633627385916" lon="17.982800085017">
        <ele>93.8</ele>
        <time>2018-01-13T17:17:25Z</time>
      </trkpt>
      <trkpt lat="62.633636522187" lon="17.98274451302">
        <ele>93.6</ele>
        <time>2018-01-13T17:17:26Z</time>
      </trkpt>
      <trkpt lat="62.633655213824" lon="17.982697742018">
        <ele>93.4</ele>
        <time>2018-01-13T17:17:27Z</time>
      </trkpt>
      <trkpt lat="62.633669546873" lon="17.982607468955">
        <ele>93.6</ele>
        <time>2018-01-13T17:17:28Z</time>
      </trkpt>
      <trkpt lat="62.633669965968" lon="17.982551896958">
        <ele>93.4</ele>
        <time>2018-01-13T17:17:29Z</time>
      </trkpt>
      <trkpt lat="62.633684801931" lon="17.982493978029">
        <ele>93.4</ele>
        <time>2018-01-13T17:17:30Z</time>
      </trkpt>
      <trkpt lat="62.63369578222" lon="17.982418540929">
        <ele>93.4</ele>
        <time>2018-01-13T17:17:31Z</time>
      </trkpt>
      <trkpt lat="62.633698883523" lon="17.982338996698">
        <ele>93.2</ele>
        <time>2018-01-13T17:17:32Z</time>
      </trkpt>
      <trkpt lat="62.633723274852" lon="17.982291219868">
        <ele>93.4</ele>
        <time>2018-01-13T17:17:33Z</time>
      </trkpt>
      <trkpt lat="62.633729645096" lon="17.982200108615">
        <ele>93.4</ele>
        <time>2018-01-13T17:17:34Z</time>
      </trkpt>
      <trkpt lat="62.633741547394" lon="17.982144285161">
        <ele>93.4</ele>
        <time>2018-01-13T17:17:35Z</time>
      </trkpt>
      <trkpt lat="62.633739703376" lon="17.982082929653">
        <ele>93.4</ele>
        <time>2018-01-13T17:17:36Z</time>
      </trkpt>
      <trkpt lat="62.633753701149" lon="17.982006654363">
        <ele>93.4</ele>
        <time>2018-01-13T17:17:37Z</time>
      </trkpt>
      <trkpt lat="62.633760490488" lon="17.981924008829">
        <ele>93.4</ele>
        <time>2018-01-13T17:17:38Z</time>
      </trkpt>
      <trkpt lat="62.63376199923" lon="17.981900288052">
        <ele>93.6</ele>
        <time>2018-01-13T17:17:39Z</time>
      </trkpt>
      <trkpt lat="62.63376870475" lon="17.981813954482">
        <ele>93.6</ele>
        <time>2018-01-13T17:17:40Z</time>
      </trkpt>
      <trkpt lat="62.633775577908" lon="17.981748994757">
        <ele>93.6</ele>
        <time>2018-01-13T17:17:41Z</time>
      </trkpt>
      <trkpt lat="62.633776835193" lon="17.981710018922">
        <ele>93.8</ele>
        <time>2018-01-13T17:17:42Z</time>
      </trkpt>
      <trkpt lat="62.633784043627" lon="17.981619913497">
        <ele>94</ele>
        <time>2018-01-13T17:17:43Z</time>
      </trkpt>
      <trkpt lat="62.633775913184" lon="17.981560904921">
        <ele>93.8</ele>
        <time>2018-01-13T17:17:44Z</time>
      </trkpt>
      <trkpt lat="62.633782534885" lon="17.981497705395">
        <ele>94</ele>
        <time>2018-01-13T17:17:45Z</time>
      </trkpt>
      <trkpt lat="62.633795945925" lon="17.981411204187">
        <ele>94</ele>
        <time>2018-01-13T17:17:46Z</time>
      </trkpt>
      <trkpt lat="62.633804579282" lon="17.98136401409">
        <ele>94</ele>
        <time>2018-01-13T17:17:47Z</time>
      </trkpt>
      <trkpt lat="62.633815811028" lon="17.98131875183">
        <ele>94</ele>
        <time>2018-01-13T17:17:48Z</time>
      </trkpt>
      <trkpt lat="62.633836430502" lon="17.981266364955">
        <ele>93.8</ele>
        <time>2018-01-13T17:17:49Z</time>
      </trkpt>
      <trkpt lat="62.633853948673" lon="17.981185311982">
        <ele>94</ele>
        <time>2018-01-13T17:17:50Z</time>
      </trkpt>
      <trkpt lat="62.633878926735" lon="17.9811452465">
        <ele>94</ele>
        <time>2018-01-13T17:17:51Z</time>
      </trkpt>
      <trkpt lat="62.633898791838" lon="17.981116161307">
        <ele>94</ele>
        <time>2018-01-13T17:17:52Z</time>
      </trkpt>
      <trkpt lat="62.633913460163" lon="17.981053632333">
        <ele>94</ele>
        <time>2018-01-13T17:17:53Z</time>
      </trkpt>
      <trkpt lat="62.63392125533" lon="17.980984230201">
        <ele>94</ele>
        <time>2018-01-13T17:17:54Z</time>
      </trkpt>
      <trkpt lat="62.633940366062" lon="17.980940057588">
        <ele>94.2</ele>
        <time>2018-01-13T17:17:55Z</time>
      </trkpt>
      <trkpt lat="62.633958638604" lon="17.98088876036">
        <ele>94.4</ele>
        <time>2018-01-13T17:17:56Z</time>
      </trkpt>
      <trkpt lat="62.633978755164" lon="17.980830422336">
        <ele>94.4</ele>
        <time>2018-01-13T17:17:57Z</time>
      </trkpt>
      <trkpt lat="62.633996608611" lon="17.980775269434">
        <ele>94.6</ele>
        <time>2018-01-13T17:17:58Z</time>
      </trkpt>
      <trkpt lat="62.634017144266" lon="17.980724810396">
        <ele>94.8</ele>
        <time>2018-01-13T17:17:59Z</time>
      </trkpt>
      <trkpt lat="62.634032566962" lon="17.980656162635">
        <ele>95</ele>
        <time>2018-01-13T17:18:00Z</time>
      </trkpt>
      <trkpt lat="62.634048576391" lon="17.980597573154">
        <ele>95</ele>
        <time>2018-01-13T17:18:01Z</time>
      </trkpt>
      <trkpt lat="62.634066848933" lon="17.980554574007">
        <ele>95</ele>
        <time>2018-01-13T17:18:02Z</time>
      </trkpt>
      <trkpt lat="62.634089982977" lon="17.980492464128">
        <ele>95.4</ele>
        <time>2018-01-13T17:18:03Z</time>
      </trkpt>
      <trkpt lat="62.634103310198" lon="17.980468324256">
        <ele>95.2</ele>
        <time>2018-01-13T17:18:04Z</time>
      </trkpt>
      <trkpt lat="62.634134658504" lon="17.980414763915">
        <ele>95.2</ele>
        <time>2018-01-13T17:18:05Z</time>
      </trkpt>
      <trkpt lat="62.634157960186" lon="17.980363550506">
        <ele>95.2</ele>
        <time>2018-01-13T17:18:06Z</time>
      </trkpt>
      <trkpt lat="62.634191403967" lon="17.980342092842">
        <ele>95.4</ele>
        <time>2018-01-13T17:18:07Z</time>
      </trkpt>
      <trkpt lat="62.634222668454" lon="17.980285515017">
        <ele>95.2</ele>
        <time>2018-01-13T17:18:08Z</time>
      </trkpt>
      <trkpt lat="62.634241192453" lon="17.980209910279">
        <ele>95.4</ele>
        <time>2018-01-13T17:18:09Z</time>
      </trkpt>
      <trkpt lat="62.63425820771" lon="17.980169677159">
        <ele>95.4</ele>
        <time>2018-01-13T17:18:10Z</time>
      </trkpt>
      <trkpt lat="62.634281006478" lon="17.980116368275">
        <ele>95.4</ele>
        <time>2018-01-13T17:18:11Z</time>
      </trkpt>
      <trkpt lat="62.634301123038" lon="17.980031375809">
        <ele>95.2</ele>
        <time>2018-01-13T17:18:12Z</time>
      </trkpt>
      <trkpt lat="62.634315539906" lon="17.979954681424">
        <ele>95.2</ele>
        <time>2018-01-13T17:18:13Z</time>
      </trkpt>
      <trkpt lat="62.634332387525" lon="17.979883938188">
        <ele>95.2</ele>
        <time>2018-01-13T17:18:14Z</time>
      </trkpt>
      <trkpt lat="62.634338171036" lon="17.979802717577">
        <ele>95</ele>
        <time>2018-01-13T17:18:15Z</time>
      </trkpt>
      <trkpt lat="62.634355521569" lon="17.97974966015">
        <ele>95.2</ele>
        <time>2018-01-13T17:18:16Z</time>
      </trkpt>
      <trkpt lat="62.634374799939" lon="17.979666846978">
        <ele>95.2</ele>
        <time>2018-01-13T17:18:17Z</time>
      </trkpt>
      <trkpt lat="62.6343931563" lon="17.979582776521">
        <ele>95.4</ele>
        <time>2018-01-13T17:18:18Z</time>
      </trkpt>
      <trkpt lat="62.634405058598" lon="17.979537430442">
        <ele>95.4</ele>
        <time>2018-01-13T17:18:19Z</time>
      </trkpt>
      <trkpt lat="62.634420229837" lon="17.979445983913">
        <ele>95.4</ele>
        <time>2018-01-13T17:18:20Z</time>
      </trkpt>
      <trkpt lat="62.634429701384" lon="17.979391166287">
        <ele>95.2</ele>
        <time>2018-01-13T17:18:21Z</time>
      </trkpt>
      <trkpt lat="62.63444177132" lon="17.979342886543">
        <ele>95.2</ele>
        <time>2018-01-13T17:18:22Z</time>
      </trkpt>
      <trkpt lat="62.634453170704" lon="17.979246075598">
        <ele>95</ele>
        <time>2018-01-13T17:18:23Z</time>
      </trkpt>
      <trkpt lat="62.634466581744" lon="17.979180948235">
        <ele>95</ele>
        <time>2018-01-13T17:18:24Z</time>
      </trkpt>
      <trkpt lat="62.634483597001" lon="17.979117497252">
        <ele>95</ele>
        <time>2018-01-13T17:18:25Z</time>
      </trkpt>
      <trkpt lat="62.634498181507" lon="17.979026721275">
        <ele>95.2</ele>
        <time>2018-01-13T17:18:26Z</time>
      </trkpt>
      <trkpt lat="62.634500193163" lon="17.978974669676">
        <ele>95.2</ele>
        <time>2018-01-13T17:18:27Z</time>
      </trkpt>
      <trkpt lat="62.634516956963" lon="17.978887665554">
        <ele>95.2</ele>
        <time>2018-01-13T17:18:28Z</time>
      </trkpt>
      <trkpt lat="62.634533301668" lon="17.978819939802">
        <ele>95</ele>
        <time>2018-01-13T17:18:29Z</time>
      </trkpt>
      <trkpt lat="62.634545539242" lon="17.978749867118">
        <ele>95</ele>
        <time>2018-01-13T17:18:30Z</time>
      </trkpt>
      <trkpt lat="62.634557609178" lon="17.978670322887">
        <ele>94.8</ele>
        <time>2018-01-13T17:18:31Z</time>
      </trkpt>
      <trkpt lat="62.634570433485" lon="17.978603602963">
        <ele>94.8</ele>
        <time>2018-01-13T17:18:32Z</time>
      </trkpt>
      <trkpt lat="62.634580827041" lon="17.978521125067">
        <ele>94.8</ele>
        <time>2018-01-13T17:18:33Z</time>
      </trkpt>
      <trkpt lat="62.634594070443" lon="17.978415680765">
        <ele>94.8</ele>
        <time>2018-01-13T17:18:34Z</time>
      </trkpt>
      <trkpt lat="62.634609744596" lon="17.978337477638">
        <ele>94.6</ele>
        <time>2018-01-13T17:18:35Z</time>
      </trkpt>
      <trkpt lat="62.634624329102" lon="17.978242845987">
        <ele>94.6</ele>
        <time>2018-01-13T17:18:36Z</time>
      </trkpt>
      <trkpt lat="62.6346362314" lon="17.978145196852">
        <ele>94.6</ele>
        <time>2018-01-13T17:18:37Z</time>
      </trkpt>
      <trkpt lat="62.634652408467" lon="17.978066993725">
        <ele>94.2</ele>
        <time>2018-01-13T17:18:38Z</time>
      </trkpt>
      <trkpt lat="62.634664562222" lon="17.977980073422">
        <ele>94</ele>
        <time>2018-01-13T17:18:39Z</time>
      </trkpt>
      <trkpt lat="62.634688366818" lon="17.977915029878">
        <ele>93.8</ele>
        <time>2018-01-13T17:18:40Z</time>
      </trkpt>
      <trkpt lat="62.634696916356" lon="17.977818638028">
        <ele>93.6</ele>
        <time>2018-01-13T17:18:41Z</time>
      </trkpt>
      <trkpt lat="62.634711500862" lon="17.977757366339">
        <ele>93.6</ele>
        <time>2018-01-13T17:18:42Z</time>
      </trkpt>
      <trkpt lat="62.634719882762" lon="17.977676397185">
        <ele>93.6</ele>
        <time>2018-01-13T17:18:43Z</time>
      </trkpt>
      <trkpt lat="62.63473429963" lon="17.977590650348">
        <ele>93.8</ele>
        <time>2018-01-13T17:18:44Z</time>
      </trkpt>
      <trkpt lat="62.634746453385" lon="17.977531641772">
        <ele>93.8</ele>
        <time>2018-01-13T17:18:45Z</time>
      </trkpt>
      <trkpt lat="62.634763301004" lon="17.977441620166">
        <ele>93.6</ele>
        <time>2018-01-13T17:18:46Z</time>
      </trkpt>
      <trkpt lat="62.634779226614" lon="17.977390322938">
        <ele>93.4</ele>
        <time>2018-01-13T17:18:47Z</time>
      </trkpt>
      <trkpt lat="62.63479045836" lon="17.977326704317">
        <ele>93.4</ele>
        <time>2018-01-13T17:18:48Z</time>
      </trkpt>
      <trkpt lat="62.634802360658" lon="17.977259481479">
        <ele>93.2</ele>
        <time>2018-01-13T17:18:49Z</time>
      </trkpt>
      <trkpt lat="62.634810658739" lon="17.977194521754">
        <ele>93.2</ele>
        <time>2018-01-13T17:18:50Z</time>
      </trkpt>
      <trkpt lat="62.634818789182" lon="17.977142637793">
        <ele>93.4</ele>
        <time>2018-01-13T17:18:51Z</time>
      </trkpt>
      <trkpt lat="62.634834714792" lon="17.977048509056">
        <ele>93.4</ele>
        <time>2018-01-13T17:18:52Z</time>
      </trkpt>
      <trkpt lat="62.63483236786" lon="17.976972904318">
        <ele>93.2</ele>
        <time>2018-01-13T17:18:53Z</time>
      </trkpt>
      <trkpt lat="62.634843934882" lon="17.976923199651">
        <ele>93.2</ele>
        <time>2018-01-13T17:18:54Z</time>
      </trkpt>
      <trkpt lat="62.634860279587" lon="17.97683108257">
        <ele>93.2</ele>
        <time>2018-01-13T17:18:55Z</time>
      </trkpt>
      <trkpt lat="62.634867823297" lon="17.976780455894">
        <ele>93</ele>
        <time>2018-01-13T17:18:56Z</time>
      </trkpt>
      <trkpt lat="62.634882575441" lon="17.976703929147">
        <ele>93</ele>
        <time>2018-01-13T17:18:57Z</time>
      </trkpt>
      <trkpt lat="62.63489187935" lon="17.976616422111">
        <ele>93</ele>
        <time>2018-01-13T17:18:58Z</time>
      </trkpt>
      <trkpt lat="62.63490277582" lon="17.976553809318">
        <ele>93</ele>
        <time>2018-01-13T17:18:59Z</time>
      </trkpt>
      <trkpt lat="62.634916857412" lon="17.976466553739">
        <ele>93</ele>
        <time>2018-01-13T17:19:00Z</time>
      </trkpt>
      <trkpt lat="62.634943595673" lon="17.976418190176">
        <ele>93</ele>
        <time>2018-01-13T17:19:01Z</time>
      </trkpt>
      <trkpt lat="62.63495390541" lon="17.976356164116">
        <ele>93</ele>
        <time>2018-01-13T17:19:02Z</time>
      </trkpt>
      <trkpt lat="62.634973099961" lon="17.976262957388">
        <ele>93</ele>
        <time>2018-01-13T17:19:03Z</time>
      </trkpt>
      <trkpt lat="62.634993467978" lon="17.976204284088">
        <ele>92.8</ele>
        <time>2018-01-13T17:19:04Z</time>
      </trkpt>
      <trkpt lat="62.635016266746" lon="17.976103114555">
        <ele>92.6</ele>
        <time>2018-01-13T17:19:05Z</time>
      </trkpt>
      <trkpt lat="62.635027749949" lon="17.976037819554">
        <ele>92.6</ele>
        <time>2018-01-13T17:19:06Z</time>
      </trkpt>
      <trkpt lat="62.635046693043" lon="17.975963388282">
        <ele>92.6</ele>
        <time>2018-01-13T17:19:07Z</time>
      </trkpt>
      <trkpt lat="62.635060774635" lon="17.975859368903">
        <ele>92.2</ele>
        <time>2018-01-13T17:19:08Z</time>
      </trkpt>
      <trkpt lat="62.635085417421" lon="17.975781584871">
        <ele>92</ele>
        <time>2018-01-13T17:19:09Z</time>
      </trkpt>
      <trkpt lat="62.635091200932" lon="17.975687959048">
        <ele>91.8</ele>
        <time>2018-01-13T17:19:10Z</time>
      </trkpt>
      <trkpt lat="62.635101594488" lon="17.975605816428">
        <ele>91.6</ele>
        <time>2018-01-13T17:19:11Z</time>
      </trkpt>
      <trkpt lat="62.63511148513" lon="17.975556279399">
        <ele>91.6</ele>
        <time>2018-01-13T17:19:12Z</time>
      </trkpt>
      <trkpt lat="62.635122716876" lon="17.975442788473">
        <ele>91.6</ele>
        <time>2018-01-13T17:19:13Z</time>
      </trkpt>
      <trkpt lat="62.635143587807" lon="17.975378164024">
        <ele>91.4</ele>
        <time>2018-01-13T17:19:14Z</time>
      </trkpt>
      <trkpt lat="62.635150460965" lon="17.97529132754">
        <ele>91.4</ele>
        <time>2018-01-13T17:19:15Z</time>
      </trkpt>
      <trkpt lat="62.63514249816" lon="17.975192588758">
        <ele>91.2</ele>
        <time>2018-01-13T17:19:16Z</time>
      </trkpt>
      <trkpt lat="62.635139732133" lon="17.975138860779">
        <ele>91.2</ele>
        <time>2018-01-13T17:19:17Z</time>
      </trkpt>
      <trkpt lat="62.635116933365" lon="17.975028554975">
        <ele>91</ele>
        <time>2018-01-13T17:19:18Z</time>
      </trkpt>
      <trkpt lat="62.635093966959" lon="17.974950268029">
        <ele>90.8</ele>
        <time>2018-01-13T17:19:19Z</time>
      </trkpt>
      <trkpt lat="62.635061529006" lon="17.974855636378">
        <ele>90.6</ele>
        <time>2018-01-13T17:19:20Z</time>
      </trkpt>
      <trkpt lat="62.635035964211" lon="17.974759160709">
        <ele>90.4</ele>
        <time>2018-01-13T17:19:21Z</time>
      </trkpt>
      <trkpt lat="62.635007381932" lon="17.974668636189">
        <ele>90</ele>
        <time>2018-01-13T17:19:22Z</time>
      </trkpt>
      <trkpt lat="62.634983493517" lon="17.974576686746">
        <ele>89.4</ele>
        <time>2018-01-13T17:19:23Z</time>
      </trkpt>
      <trkpt lat="62.634968573735" lon="17.974496807239">
        <ele>89</ele>
        <time>2018-01-13T17:19:24Z</time>
      </trkpt>
      <trkpt lat="62.634948708632" lon="17.974414413162">
        <ele>88.2</ele>
        <time>2018-01-13T17:19:25Z</time>
      </trkpt>
      <trkpt lat="62.634936806334" lon="17.974322128443">
        <ele>87.6</ele>
        <time>2018-01-13T17:19:26Z</time>
      </trkpt>
      <trkpt lat="62.634923982027" lon="17.97424861918">
        <ele>87</ele>
        <time>2018-01-13T17:19:27Z</time>
      </trkpt>
      <trkpt lat="62.634908391693" lon="17.974180558152">
        <ele>87.2</ele>
        <time>2018-01-13T17:19:28Z</time>
      </trkpt>
      <trkpt lat="62.634897159947" lon="17.974119118825">
        <ele>87.2</ele>
        <time>2018-01-13T17:19:29Z</time>
      </trkpt>
      <trkpt lat="62.634878133034" lon="17.974024990088">
        <ele>87.6</ele>
        <time>2018-01-13T17:19:30Z</time>
      </trkpt>
      <trkpt lat="62.634865392546" lon="17.97394687078">
        <ele>88</ele>
        <time>2018-01-13T17:19:31Z</time>
      </trkpt>
      <trkpt lat="62.634843515787" lon="17.973904709823">
        <ele>88</ele>
        <time>2018-01-13T17:19:32Z</time>
      </trkpt>
      <trkpt lat="62.634823650684" lon="17.973806725412">
        <ele>88</ele>
        <time>2018-01-13T17:19:33Z</time>
      </trkpt>
      <trkpt lat="62.634810826377" lon="17.973738245289">
        <ele>88.2</ele>
        <time>2018-01-13T17:19:34Z</time>
      </trkpt>
      <trkpt lat="62.634794565491" lon="17.973662640551">
        <ele>88</ele>
        <time>2018-01-13T17:19:35Z</time>
      </trkpt>
      <trkpt lat="62.634780232442" lon="17.973591981134">
        <ele>87.8</ele>
        <time>2018-01-13T17:19:36Z</time>
      </trkpt>
      <trkpt lat="62.634771766723" lon="17.973472622878">
        <ele>87.8</ele>
        <time>2018-01-13T17:19:37Z</time>
      </trkpt>
      <trkpt lat="62.634772688732" lon="17.973382936548">
        <ele>87.8</ele>
        <time>2018-01-13T17:19:38Z</time>
      </trkpt>
      <trkpt lat="62.634771347628" lon="17.973263410654">
        <ele>87.8</ele>
        <time>2018-01-13T17:19:39Z</time>
      </trkpt>
      <trkpt lat="62.634770006524" lon="17.973235331289">
        <ele>87.6</ele>
        <time>2018-01-13T17:19:40Z</time>
      </trkpt>
      <trkpt lat="62.634773610741" lon="17.973094012455">
        <ele>87.4</ele>
        <time>2018-01-13T17:19:41Z</time>
      </trkpt>
      <trkpt lat="62.634793224387" lon="17.973033746594">
        <ele>87.6</ele>
        <time>2018-01-13T17:19:42Z</time>
      </trkpt>
      <trkpt lat="62.634807557436" lon="17.972959650598">
        <ele>87.4</ele>
        <time>2018-01-13T17:19:43Z</time>
      </trkpt>
      <trkpt lat="62.634831697308" lon="17.972862923472">
        <ele>87.4</ele>
        <time>2018-01-13T17:19:44Z</time>
      </trkpt>
      <trkpt lat="62.634854663714" lon="17.972783379241">
        <ele>87.2</ele>
        <time>2018-01-13T17:19:45Z</time>
      </trkpt>
      <trkpt lat="62.634884000364" lon="17.972711043444">
        <ele>87</ele>
        <time>2018-01-13T17:19:46Z</time>
      </trkpt>
      <trkpt lat="62.634906380037" lon="17.972636193077">
        <ele>86.6</ele>
        <time>2018-01-13T17:19:47Z</time>
      </trkpt>
      <trkpt lat="62.634940159094" lon="17.972566455669">
        <ele>86.6</ele>
        <time>2018-01-13T17:19:48Z</time>
      </trkpt>
      <trkpt lat="62.634960275654" lon="17.972500825392">
        <ele>86.4</ele>
        <time>2018-01-13T17:19:49Z</time>
      </trkpt>
      <trkpt lat="62.634976117445" lon="17.972396470737">
        <ele>86.2</ele>
        <time>2018-01-13T17:19:50Z</time>
      </trkpt>
      <trkpt lat="62.635006124647" lon="17.972351879029">
        <ele>86.2</ele>
        <time>2018-01-13T17:19:51Z</time>
      </trkpt>
      <trkpt lat="62.635025905931" lon="17.972262863251">
        <ele>86</ele>
        <time>2018-01-13T17:19:52Z</time>
      </trkpt>
      <trkpt lat="62.635061529006" lon="17.972188599617">
        <ele>86</ele>
        <time>2018-01-13T17:19:53Z</time>
      </trkpt>
      <trkpt lat="62.635080053005" lon="17.972111653775">
        <ele>86</ele>
        <time>2018-01-13T17:19:54Z</time>
      </trkpt>
      <trkpt lat="62.635102935592" lon="17.972029175879">
        <ele>85.6</ele>
        <time>2018-01-13T17:19:55Z</time>
      </trkpt>
      <trkpt lat="62.635128332749" lon="17.971913589478">
        <ele>85.2</ele>
        <time>2018-01-13T17:19:56Z</time>
      </trkpt>
      <trkpt lat="62.635142079065" lon="17.971808061357">
        <ele>85</ele>
        <time>2018-01-13T17:19:57Z</time>
      </trkpt>
      <trkpt lat="62.635158004675" lon="17.97168459597">
        <ele>84.2</ele>
        <time>2018-01-13T17:19:58Z</time>
      </trkpt>
      <trkpt lat="62.635168314412" lon="17.971569344845">
        <ele>83.4</ele>
        <time>2018-01-13T17:19:59Z</time>
      </trkpt>
      <trkpt lat="62.635180132891" lon="17.971453674625">
        <ele>82.6</ele>
        <time>2018-01-13T17:20:00Z</time>
      </trkpt>
      <trkpt lat="62.63519278956" lon="17.971338591138">
        <ele>82.2</ele>
        <time>2018-01-13T17:20:01Z</time>
      </trkpt>
      <trkpt lat="62.635203183116" lon="17.971234990854">
        <ele>81.8</ele>
        <time>2018-01-13T17:20:02Z</time>
      </trkpt>
      <trkpt lat="62.635217180889" lon="17.971107502155">
        <ele>81.4</ele>
        <time>2018-01-13T17:20:03Z</time>
      </trkpt>
      <trkpt lat="62.63523302268" lon="17.970984036768">
        <ele>81</ele>
        <time>2018-01-13T17:20:04Z</time>
      </trkpt>
      <trkpt lat="62.635245930806" lon="17.970864343236">
        <ele>80.8</ele>
        <time>2018-01-13T17:20:05Z</time>
      </trkpt>
      <trkpt lat="62.635257078733" lon="17.970750600853">
        <ele>80.4</ele>
        <time>2018-01-13T17:20:06Z</time>
      </trkpt>
      <trkpt lat="62.63526990304" lon="17.970641468515">
        <ele>80.2</ele>
        <time>2018-01-13T17:20:07Z</time>
      </trkpt>
      <trkpt lat="62.635283649356" lon="17.970514315092">
        <ele>79.8</ele>
        <time>2018-01-13T17:20:08Z</time>
      </trkpt>
      <trkpt lat="62.635297479491" lon="17.970402668184">
        <ele>79.4</ele>
        <time>2018-01-13T17:20:09Z</time>
      </trkpt>
      <trkpt lat="62.635313321282" lon="17.970277107322">
        <ele>78.8</ele>
        <time>2018-01-13T17:20:10Z</time>
      </trkpt>
      <trkpt lat="62.635332348195" lon="17.970161101826">
        <ele>78.2</ele>
        <time>2018-01-13T17:20:11Z</time>
      </trkpt>
      <trkpt lat="62.635356655705" lon="17.970055238429">
        <ele>77.8</ele>
        <time>2018-01-13T17:20:12Z</time>
      </trkpt>
      <trkpt lat="62.63538724964" lon="17.969934790526">
        <ele>77.2</ele>
        <time>2018-01-13T17:20:13Z</time>
      </trkpt>
      <trkpt lat="62.635417005385" lon="17.969820629048">
        <ele>76.4</ele>
        <time>2018-01-13T17:20:14Z</time>
      </trkpt>
      <trkpt lat="62.635443911284" lon="17.969727003225">
        <ele>76</ele>
        <time>2018-01-13T17:20:15Z</time>
      </trkpt>
      <trkpt lat="62.635472493563" lon="17.969613177023">
        <ele>75.6</ele>
        <time>2018-01-13T17:20:16Z</time>
      </trkpt>
      <trkpt lat="62.635495543788" lon="17.969520305571">
        <ele>75.2</ele>
        <time>2018-01-13T17:20:17Z</time>
      </trkpt>
      <trkpt lat="62.635526556818" lon="17.96939885184">
        <ele>74.8</ele>
        <time>2018-01-13T17:20:18Z</time>
      </trkpt>
      <trkpt lat="62.635555139097" lon="17.969289551864">
        <ele>74.4</ele>
        <time>2018-01-13T17:20:19Z</time>
      </trkpt>
      <trkpt lat="62.635585313937" lon="17.969173630187">
        <ele>73.8</ele>
        <time>2018-01-13T17:20:20Z</time>
      </trkpt>
      <trkpt lat="62.635613393302" lon="17.969069359351">
        <ele>73.6</ele>
        <time>2018-01-13T17:20:21Z</time>
      </trkpt>
      <trkpt lat="62.635645495979" lon="17.968962741583">
        <ele>73.2</ele>
        <time>2018-01-13T17:20:22Z</time>
      </trkpt>
      <trkpt lat="62.635678855941" lon="17.968850172666">
        <ele>72.8</ele>
        <time>2018-01-13T17:20:23Z</time>
      </trkpt>
      <trkpt lat="62.635711964446" lon="17.968745315097">
        <ele>72.4</ele>
        <time>2018-01-13T17:20:24Z</time>
      </trkpt>
      <trkpt lat="62.63574767134" lon="17.96865286274">
        <ele>72</ele>
        <time>2018-01-13T17:20:25Z</time>
      </trkpt>
      <trkpt lat="62.635788491193" lon="17.968583628246">
        <ele>71.4</ele>
        <time>2018-01-13T17:20:26Z</time>
      </trkpt>
      <trkpt lat="62.635829059589" lon="17.968540293823">
        <ele>71.2</ele>
        <time>2018-01-13T17:20:27Z</time>
      </trkpt>
      <trkpt lat="62.635883122844" lon="17.968495953572">
        <ele>70.8</ele>
        <time>2018-01-13T17:20:28Z</time>
      </trkpt>
      <trkpt lat="62.635935258262" lon="17.968472819528">
        <ele>70.6</ele>
        <time>2018-01-13T17:20:29Z</time>
      </trkpt>
      <trkpt lat="62.636032739759" lon="17.968476675202">
        <ele>70.2</ele>
        <time>2018-01-13T17:20:31Z</time>
      </trkpt>
      <trkpt lat="62.636067524644" lon="17.968472819528">
        <ele>70</ele>
        <time>2018-01-13T17:20:32Z</time>
      </trkpt>
      <trkpt lat="62.636116223483" lon="17.968482961627">
        <ele>69.8</ele>
        <time>2018-01-13T17:20:33Z</time>
      </trkpt>
      <trkpt lat="62.636156875698" lon="17.968514645209">
        <ele>69.8</ele>
        <time>2018-01-13T17:20:34Z</time>
      </trkpt>
      <trkpt lat="62.636192582592" lon="17.968529062077">
        <ele>69.6</ele>
        <time>2018-01-13T17:20:35Z</time>
      </trkpt>
      <trkpt lat="62.636217476835" lon="17.968531576647">
        <ele>69.8</ele>
        <time>2018-01-13T17:20:36Z</time>
      </trkpt>
      <trkpt lat="62.636249914788" lon="17.96854389804">
        <ele>70</ele>
        <time>2018-01-13T17:20:37Z</time>
      </trkpt>
      <trkpt lat="62.636287800976" lon="17.968558566365">
        <ele>70</ele>
        <time>2018-01-13T17:20:38Z</time>
      </trkpt>
      <trkpt lat="62.636314623056" lon="17.968567032084">
        <ele>70</ele>
        <time>2018-01-13T17:20:39Z</time>
      </trkpt>
      <trkpt lat="62.636353515072" lon="17.968611623792">
        <ele>70</ele>
        <time>2018-01-13T17:20:40Z</time>
      </trkpt>
      <trkpt lat="62.636380923885" lon="17.968639367881">
        <ele>70</ele>
        <time>2018-01-13T17:20:41Z</time>
      </trkpt>
      <trkpt lat="62.636406656318" lon="17.968688569634">
        <ele>70</ele>
        <time>2018-01-13T17:20:42Z</time>
      </trkpt>
      <trkpt lat="62.636437920805" lon="17.968738441939">
        <ele>70</ele>
        <time>2018-01-13T17:20:43Z</time>
      </trkpt>
      <trkpt lat="62.636454684605" lon="17.968773310643">
        <ele>70</ele>
        <time>2018-01-13T17:20:44Z</time>
      </trkpt>
      <trkpt lat="62.636469772025" lon="17.968821003654">
        <ele>70</ele>
        <time>2018-01-13T17:20:45Z</time>
      </trkpt>
      <trkpt lat="62.636484188893" lon="17.968858973661">
        <ele>70.2</ele>
        <time>2018-01-13T17:20:46Z</time>
      </trkpt>
      <trkpt lat="62.636493492802" lon="17.968877749117">
        <ele>70.2</ele>
        <time>2018-01-13T17:20:47Z</time>
      </trkpt>
      <trkpt lat="62.636501371788" lon="17.96890096698">
        <ele>70.2</ele>
        <time>2018-01-13T17:20:48Z</time>
      </trkpt>
      <trkpt lat="62.636509921326" lon="17.968907756319">
        <ele>70.2</ele>
        <time>2018-01-13T17:20:49Z</time>
      </trkpt>
      <trkpt lat="62.636517884131" lon="17.968911695812">
        <ele>70.4</ele>
        <time>2018-01-13T17:20:50Z</time>
      </trkpt>
      <trkpt lat="62.636513777" lon="17.968915467667">
        <ele>70.4</ele>
        <time>2018-01-13T17:20:51Z</time>
      </trkpt>
      <trkpt lat="62.636503970177" lon="17.968928291974">
        <ele>70.4</ele>
        <time>2018-01-13T17:20:52Z</time>
      </trkpt>
      <trkpt lat="62.636509250774" lon="17.968907001948">
        <ele>70.6</ele>
        <time>2018-01-13T17:20:53Z</time>
      </trkpt>
      <trkpt lat="62.6364886313" lon="17.96885821929">
        <ele>70.4</ele>
        <time>2018-01-13T17:20:55Z</time>
      </trkpt>
      <trkpt lat="62.636479495029" lon="17.968839946748">
        <ele>70.4</ele>
        <time>2018-01-13T17:20:56Z</time>
      </trkpt>
      <trkpt lat="62.636461473944" lon="17.968806335329">
        <ele>70.4</ele>
        <time>2018-01-13T17:20:57Z</time>
      </trkpt>
      <trkpt lat="62.636444877782" lon="17.96875931287">
        <ele>70.4</ele>
        <time>2018-01-13T17:20:58Z</time>
      </trkpt>
      <trkpt lat="62.63643079619" lon="17.968743554898">
        <ele>70.4</ele>
        <time>2018-01-13T17:20:59Z</time>
      </trkpt>
      <trkpt lat="62.636416127865" lon="17.968691754756">
        <ele>70.4</ele>
        <time>2018-01-13T17:21:00Z</time>
      </trkpt>
      <trkpt lat="62.636394334925" lon="17.96867130292">
        <ele>70.4</ele>
        <time>2018-01-13T17:21:01Z</time>
      </trkpt>
      <trkpt lat="62.636376230021" lon="17.9686310698">
        <ele>70.2</ele>
        <time>2018-01-13T17:21:02Z</time>
      </trkpt>
      <trkpt lat="62.636352928339" lon="17.968621933529">
        <ele>70.2</ele>
        <time>2018-01-13T17:21:03Z</time>
      </trkpt>
      <trkpt lat="62.63633021339" lon="17.968594859992">
        <ele>70.2</ele>
        <time>2018-01-13T17:21:04Z</time>
      </trkpt>
      <trkpt lat="62.636303056034" lon="17.968571139215">
        <ele>70.2</ele>
        <time>2018-01-13T17:21:05Z</time>
      </trkpt>
      <trkpt lat="62.636284699673" lon="17.968573653785">
        <ele>70.2</ele>
        <time>2018-01-13T17:21:06Z</time>
      </trkpt>
      <trkpt lat="62.636259637792" lon="17.968547669895">
        <ele>70.2</ele>
        <time>2018-01-13T17:21:07Z</time>
      </trkpt>
    </trkseg>
  </trk>
</gpx>